<?xml version="1.0" encoding="utf-8"?>
<gpx xmlns:xsi="http://www.w3.org/2001/XMLSchema-instance" xmlns:xsd="http://www.w3.org/2001/XMLSchema" version="1.1" creator="Shapelink.com" xmlns="http://www.topografix.com/GPX/1/1" xmlns:gpxtpx="http://www.garmin.com/xmlschemas/TrackPointExtension/v1">
  <metadata>
    <name>Ciclismo 21.53 km, 2020-01-29</name>
    <desc></desc>
    <author><name>Peter Littke</name></author> 
    <time>2020-01-29T16:01:05Z</time>
  </metadata>
  <trk>
    <name>Ciclismo 21.53 km, 2020-01-29</name>
    <trkseg>
      <trkpt lat="59.17346" lon="18.143575">
        <ele>73</ele>
        <time>2020-01-29T16:01:05Z</time>
      </trkpt>
      <trkpt lat="59.1735" lon="18.143542">
        <ele>75</ele>
        <time>2020-01-29T16:01:12Z</time>
      </trkpt>
      <trkpt lat="59.173531" lon="18.14355">
        <ele>75</ele>
        <time>2020-01-29T16:01:14Z</time>
      </trkpt>
      <trkpt lat="59.173552" lon="18.143554">
        <ele>75</ele>
        <time>2020-01-29T16:01:15Z</time>
      </trkpt>
      <trkpt lat="59.173595" lon="18.143568">
        <ele>76</ele>
        <time>2020-01-29T16:01:17Z</time>
      </trkpt>
      <trkpt lat="59.173622" lon="18.143581">
        <ele>76</ele>
        <time>2020-01-29T16:01:18Z</time>
      </trkpt>
      <trkpt lat="59.173654" lon="18.143593">
        <ele>76</ele>
        <time>2020-01-29T16:01:19Z</time>
      </trkpt>
      <trkpt lat="59.173679" lon="18.143606">
        <ele>76</ele>
        <time>2020-01-29T16:01:20Z</time>
      </trkpt>
      <trkpt lat="59.173706" lon="18.143623">
        <ele>76</ele>
        <time>2020-01-29T16:01:21Z</time>
      </trkpt>
      <trkpt lat="59.173733" lon="18.143609">
        <ele>76</ele>
        <time>2020-01-29T16:01:22Z</time>
      </trkpt>
      <trkpt lat="59.173747" lon="18.143573">
        <ele>75</ele>
        <time>2020-01-29T16:01:23Z</time>
      </trkpt>
      <trkpt lat="59.173758" lon="18.143524">
        <ele>0</ele>
        <time>2020-01-29T16:01:23Z</time>
      </trkpt>
      <trkpt lat="59.173756" lon="18.143453">
        <ele>75</ele>
        <time>2020-01-29T16:01:24Z</time>
      </trkpt>
      <trkpt lat="59.173747" lon="18.14338">
        <ele>74</ele>
        <time>2020-01-29T16:01:26Z</time>
      </trkpt>
      <trkpt lat="59.173763" lon="18.143289">
        <ele>73</ele>
        <time>2020-01-29T16:01:27Z</time>
      </trkpt>
      <trkpt lat="59.173779" lon="18.14322">
        <ele>71</ele>
        <time>2020-01-29T16:01:28Z</time>
      </trkpt>
      <trkpt lat="59.173785" lon="18.143175">
        <ele>71</ele>
        <time>2020-01-29T16:01:29Z</time>
      </trkpt>
      <trkpt lat="59.1738" lon="18.143146">
        <ele>69</ele>
        <time>2020-01-29T16:01:31Z</time>
      </trkpt>
      <trkpt lat="59.17384" lon="18.143077">
        <ele>66</ele>
        <time>2020-01-29T16:01:34Z</time>
      </trkpt>
      <trkpt lat="59.173884" lon="18.143048">
        <ele>66</ele>
        <time>2020-01-29T16:01:35Z</time>
      </trkpt>
      <trkpt lat="59.173916" lon="18.143051">
        <ele>66</ele>
        <time>2020-01-29T16:01:36Z</time>
      </trkpt>
      <trkpt lat="59.173956" lon="18.143056">
        <ele>65</ele>
        <time>2020-01-29T16:01:37Z</time>
      </trkpt>
      <trkpt lat="59.174001" lon="18.143067">
        <ele>65</ele>
        <time>2020-01-29T16:01:38Z</time>
      </trkpt>
      <trkpt lat="59.174052" lon="18.143075">
        <ele>64</ele>
        <time>2020-01-29T16:01:39Z</time>
      </trkpt>
      <trkpt lat="59.174116" lon="18.143071">
        <ele>63</ele>
        <time>2020-01-29T16:01:40Z</time>
      </trkpt>
      <trkpt lat="59.174179" lon="18.143074">
        <ele>63</ele>
        <time>2020-01-29T16:01:41Z</time>
      </trkpt>
      <trkpt lat="59.174243" lon="18.143082">
        <ele>0</ele>
        <time>2020-01-29T16:01:41Z</time>
      </trkpt>
      <trkpt lat="59.174307" lon="18.143093">
        <ele>62</ele>
        <time>2020-01-29T16:01:42Z</time>
      </trkpt>
      <trkpt lat="59.174372" lon="18.143108">
        <ele>61</ele>
        <time>2020-01-29T16:01:44Z</time>
      </trkpt>
      <trkpt lat="59.174434" lon="18.143125">
        <ele>61</ele>
        <time>2020-01-29T16:01:45Z</time>
      </trkpt>
      <trkpt lat="59.174493" lon="18.143142">
        <ele>60</ele>
        <time>2020-01-29T16:01:46Z</time>
      </trkpt>
      <trkpt lat="59.174547" lon="18.143155">
        <ele>59</ele>
        <time>2020-01-29T16:01:47Z</time>
      </trkpt>
      <trkpt lat="59.174589" lon="18.143157">
        <ele>58</ele>
        <time>2020-01-29T16:01:48Z</time>
      </trkpt>
      <trkpt lat="59.174628" lon="18.143133">
        <ele>57</ele>
        <time>2020-01-29T16:01:49Z</time>
      </trkpt>
      <trkpt lat="59.174653" lon="18.143076">
        <ele>57</ele>
        <time>2020-01-29T16:01:50Z</time>
      </trkpt>
      <trkpt lat="59.174669" lon="18.142999">
        <ele>57</ele>
        <time>2020-01-29T16:01:51Z</time>
      </trkpt>
      <trkpt lat="59.174677" lon="18.142919">
        <ele>56</ele>
        <time>2020-01-29T16:01:52Z</time>
      </trkpt>
      <trkpt lat="59.174689" lon="18.142844">
        <ele>56</ele>
        <time>2020-01-29T16:01:53Z</time>
      </trkpt>
      <trkpt lat="59.17471" lon="18.14279">
        <ele>55</ele>
        <time>2020-01-29T16:01:54Z</time>
      </trkpt>
      <trkpt lat="59.174745" lon="18.14276">
        <ele>55</ele>
        <time>2020-01-29T16:01:55Z</time>
      </trkpt>
      <trkpt lat="59.174784" lon="18.142738">
        <ele>54</ele>
        <time>2020-01-29T16:01:56Z</time>
      </trkpt>
      <trkpt lat="59.174824" lon="18.142715">
        <ele>54</ele>
        <time>2020-01-29T16:01:57Z</time>
      </trkpt>
      <trkpt lat="59.174865" lon="18.142682">
        <ele>54</ele>
        <time>2020-01-29T16:01:58Z</time>
      </trkpt>
      <trkpt lat="59.17491" lon="18.142643">
        <ele>53</ele>
        <time>2020-01-29T16:01:59Z</time>
      </trkpt>
      <trkpt lat="59.174957" lon="18.142602">
        <ele>53</ele>
        <time>2020-01-29T16:02:00Z</time>
      </trkpt>
      <trkpt lat="59.175007" lon="18.142559">
        <ele>53</ele>
        <time>2020-01-29T16:02:01Z</time>
      </trkpt>
      <trkpt lat="59.175049" lon="18.142514">
        <ele>53</ele>
        <time>2020-01-29T16:02:02Z</time>
      </trkpt>
      <trkpt lat="59.175084" lon="18.14247">
        <ele>0</ele>
        <time>2020-01-29T16:02:02Z</time>
      </trkpt>
      <trkpt lat="59.175108" lon="18.142436">
        <ele>53</ele>
        <time>2020-01-29T16:02:03Z</time>
      </trkpt>
      <trkpt lat="59.175134" lon="18.142396">
        <ele>53</ele>
        <time>2020-01-29T16:02:05Z</time>
      </trkpt>
      <trkpt lat="59.17516" lon="18.142339">
        <ele>53</ele>
        <time>2020-01-29T16:02:06Z</time>
      </trkpt>
      <trkpt lat="59.175186" lon="18.142276">
        <ele>53</ele>
        <time>2020-01-29T16:02:07Z</time>
      </trkpt>
      <trkpt lat="59.17521" lon="18.142207">
        <ele>0</ele>
        <time>2020-01-29T16:02:07Z</time>
      </trkpt>
      <trkpt lat="59.175237" lon="18.142135">
        <ele>52</ele>
        <time>2020-01-29T16:02:08Z</time>
      </trkpt>
      <trkpt lat="59.17527" lon="18.142063">
        <ele>52</ele>
        <time>2020-01-29T16:02:10Z</time>
      </trkpt>
      <trkpt lat="59.175301" lon="18.141995">
        <ele>52</ele>
        <time>2020-01-29T16:02:11Z</time>
      </trkpt>
      <trkpt lat="59.175324" lon="18.141934">
        <ele>52</ele>
        <time>2020-01-29T16:02:12Z</time>
      </trkpt>
      <trkpt lat="59.175341" lon="18.141881">
        <ele>52</ele>
        <time>2020-01-29T16:02:13Z</time>
      </trkpt>
      <trkpt lat="59.175362" lon="18.141825">
        <ele>52</ele>
        <time>2020-01-29T16:02:14Z</time>
      </trkpt>
      <trkpt lat="59.175385" lon="18.141772">
        <ele>52</ele>
        <time>2020-01-29T16:02:15Z</time>
      </trkpt>
      <trkpt lat="59.175406" lon="18.141728">
        <ele>0</ele>
        <time>2020-01-29T16:02:15Z</time>
      </trkpt>
      <trkpt lat="59.175429" lon="18.141678">
        <ele>51</ele>
        <time>2020-01-29T16:02:16Z</time>
      </trkpt>
      <trkpt lat="59.175448" lon="18.141634">
        <ele>51</ele>
        <time>2020-01-29T16:02:18Z</time>
      </trkpt>
      <trkpt lat="59.17547" lon="18.141586">
        <ele>51</ele>
        <time>2020-01-29T16:02:19Z</time>
      </trkpt>
      <trkpt lat="59.175484" lon="18.141552">
        <ele>51</ele>
        <time>2020-01-29T16:02:20Z</time>
      </trkpt>
      <trkpt lat="59.175506" lon="18.141513">
        <ele>50</ele>
        <time>2020-01-29T16:02:21Z</time>
      </trkpt>
      <trkpt lat="59.175522" lon="18.141481">
        <ele>51</ele>
        <time>2020-01-29T16:02:22Z</time>
      </trkpt>
      <trkpt lat="59.175539" lon="18.141443">
        <ele>51</ele>
        <time>2020-01-29T16:02:23Z</time>
      </trkpt>
      <trkpt lat="59.175559" lon="18.141398">
        <ele>51</ele>
        <time>2020-01-29T16:02:24Z</time>
      </trkpt>
      <trkpt lat="59.175571" lon="18.141355">
        <ele>50</ele>
        <time>2020-01-29T16:02:25Z</time>
      </trkpt>
      <trkpt lat="59.175587" lon="18.141307">
        <ele>50</ele>
        <time>2020-01-29T16:02:26Z</time>
      </trkpt>
      <trkpt lat="59.17561" lon="18.141259">
        <ele>50</ele>
        <time>2020-01-29T16:02:27Z</time>
      </trkpt>
      <trkpt lat="59.175642" lon="18.141218">
        <ele>50</ele>
        <time>2020-01-29T16:02:28Z</time>
      </trkpt>
      <trkpt lat="59.175688" lon="18.141188">
        <ele>50</ele>
        <time>2020-01-29T16:02:29Z</time>
      </trkpt>
      <trkpt lat="59.175739" lon="18.141179">
        <ele>49</ele>
        <time>2020-01-29T16:02:30Z</time>
      </trkpt>
      <trkpt lat="59.175798" lon="18.141186">
        <ele>0</ele>
        <time>2020-01-29T16:02:30Z</time>
      </trkpt>
      <trkpt lat="59.175855" lon="18.141211">
        <ele>49</ele>
        <time>2020-01-29T16:02:31Z</time>
      </trkpt>
      <trkpt lat="59.175914" lon="18.141237">
        <ele>48</ele>
        <time>2020-01-29T16:02:33Z</time>
      </trkpt>
      <trkpt lat="59.175971" lon="18.14126">
        <ele>48</ele>
        <time>2020-01-29T16:02:34Z</time>
      </trkpt>
      <trkpt lat="59.176029" lon="18.141277">
        <ele>47</ele>
        <time>2020-01-29T16:02:35Z</time>
      </trkpt>
      <trkpt lat="59.176089" lon="18.141292">
        <ele>47</ele>
        <time>2020-01-29T16:02:36Z</time>
      </trkpt>
      <trkpt lat="59.176154" lon="18.141301">
        <ele>46</ele>
        <time>2020-01-29T16:02:37Z</time>
      </trkpt>
      <trkpt lat="59.176223" lon="18.141305">
        <ele>46</ele>
        <time>2020-01-29T16:02:38Z</time>
      </trkpt>
      <trkpt lat="59.176292" lon="18.141308">
        <ele>0</ele>
        <time>2020-01-29T16:02:38Z</time>
      </trkpt>
      <trkpt lat="59.176363" lon="18.141309">
        <ele>46</ele>
        <time>2020-01-29T16:02:39Z</time>
      </trkpt>
      <trkpt lat="59.176435" lon="18.141315">
        <ele>45</ele>
        <time>2020-01-29T16:02:41Z</time>
      </trkpt>
      <trkpt lat="59.176507" lon="18.141327">
        <ele>45</ele>
        <time>2020-01-29T16:02:42Z</time>
      </trkpt>
      <trkpt lat="59.176579" lon="18.141348">
        <ele>45</ele>
        <time>2020-01-29T16:02:43Z</time>
      </trkpt>
      <trkpt lat="59.17665" lon="18.141376">
        <ele>45</ele>
        <time>2020-01-29T16:02:44Z</time>
      </trkpt>
      <trkpt lat="59.176721" lon="18.141405">
        <ele>45</ele>
        <time>2020-01-29T16:02:45Z</time>
      </trkpt>
      <trkpt lat="59.176791" lon="18.141435">
        <ele>0</ele>
        <time>2020-01-29T16:02:45Z</time>
      </trkpt>
      <trkpt lat="59.176859" lon="18.141467">
        <ele>44</ele>
        <time>2020-01-29T16:02:46Z</time>
      </trkpt>
      <trkpt lat="59.176927" lon="18.141501">
        <ele>44</ele>
        <time>2020-01-29T16:02:48Z</time>
      </trkpt>
      <trkpt lat="59.176991" lon="18.141536">
        <ele>44</ele>
        <time>2020-01-29T16:02:49Z</time>
      </trkpt>
      <trkpt lat="59.177054" lon="18.141566">
        <ele>44</ele>
        <time>2020-01-29T16:02:50Z</time>
      </trkpt>
      <trkpt lat="59.17711" lon="18.141594">
        <ele>43</ele>
        <time>2020-01-29T16:02:51Z</time>
      </trkpt>
      <trkpt lat="59.177161" lon="18.14161">
        <ele>43</ele>
        <time>2020-01-29T16:02:52Z</time>
      </trkpt>
      <trkpt lat="59.177207" lon="18.141604">
        <ele>43</ele>
        <time>2020-01-29T16:02:53Z</time>
      </trkpt>
      <trkpt lat="59.177256" lon="18.141592">
        <ele>0</ele>
        <time>2020-01-29T16:02:53Z</time>
      </trkpt>
      <trkpt lat="59.177307" lon="18.141597">
        <ele>43</ele>
        <time>2020-01-29T16:02:54Z</time>
      </trkpt>
      <trkpt lat="59.177361" lon="18.141615">
        <ele>42</ele>
        <time>2020-01-29T16:02:56Z</time>
      </trkpt>
      <trkpt lat="59.177414" lon="18.141639">
        <ele>42</ele>
        <time>2020-01-29T16:02:57Z</time>
      </trkpt>
      <trkpt lat="59.177472" lon="18.141655">
        <ele>42</ele>
        <time>2020-01-29T16:02:58Z</time>
      </trkpt>
      <trkpt lat="59.177536" lon="18.141668">
        <ele>0</ele>
        <time>2020-01-29T16:02:58Z</time>
      </trkpt>
      <trkpt lat="59.177604" lon="18.141684">
        <ele>42</ele>
        <time>2020-01-29T16:02:59Z</time>
      </trkpt>
      <trkpt lat="59.177672" lon="18.141709">
        <ele>42</ele>
        <time>2020-01-29T16:03:01Z</time>
      </trkpt>
      <trkpt lat="59.177754" lon="18.141746">
        <ele>41</ele>
        <time>2020-01-29T16:03:01Z</time>
      </trkpt>
      <trkpt lat="59.177841" lon="18.141792">
        <ele>41</ele>
        <time>2020-01-29T16:03:02Z</time>
      </trkpt>
      <trkpt lat="59.177923" lon="18.141842">
        <ele>41</ele>
        <time>2020-01-29T16:03:04Z</time>
      </trkpt>
      <trkpt lat="59.177999" lon="18.141891">
        <ele>41</ele>
        <time>2020-01-29T16:03:05Z</time>
      </trkpt>
      <trkpt lat="59.17807" lon="18.141937">
        <ele>40</ele>
        <time>2020-01-29T16:03:06Z</time>
      </trkpt>
      <trkpt lat="59.178134" lon="18.141988">
        <ele>39</ele>
        <time>2020-01-29T16:03:07Z</time>
      </trkpt>
      <trkpt lat="59.17819" lon="18.142046">
        <ele>0</ele>
        <time>2020-01-29T16:03:07Z</time>
      </trkpt>
      <trkpt lat="59.178251" lon="18.14211">
        <ele>39</ele>
        <time>2020-01-29T16:03:08Z</time>
      </trkpt>
      <trkpt lat="59.178313" lon="18.142184">
        <ele>39</ele>
        <time>2020-01-29T16:03:10Z</time>
      </trkpt>
      <trkpt lat="59.178376" lon="18.142261">
        <ele>39</ele>
        <time>2020-01-29T16:03:11Z</time>
      </trkpt>
      <trkpt lat="59.178439" lon="18.142325">
        <ele>39</ele>
        <time>2020-01-29T16:03:12Z</time>
      </trkpt>
      <trkpt lat="59.178508" lon="18.142374">
        <ele>38</ele>
        <time>2020-01-29T16:03:13Z</time>
      </trkpt>
      <trkpt lat="59.178577" lon="18.142417">
        <ele>38</ele>
        <time>2020-01-29T16:03:14Z</time>
      </trkpt>
      <trkpt lat="59.178647" lon="18.142462">
        <ele>0</ele>
        <time>2020-01-29T16:03:14Z</time>
      </trkpt>
      <trkpt lat="59.178717" lon="18.142509">
        <ele>38</ele>
        <time>2020-01-29T16:03:15Z</time>
      </trkpt>
      <trkpt lat="59.178787" lon="18.142555">
        <ele>37</ele>
        <time>2020-01-29T16:03:17Z</time>
      </trkpt>
      <trkpt lat="59.178857" lon="18.142601">
        <ele>0</ele>
        <time>2020-01-29T16:03:17Z</time>
      </trkpt>
      <trkpt lat="59.178927" lon="18.142651">
        <ele>37</ele>
        <time>2020-01-29T16:03:18Z</time>
      </trkpt>
      <trkpt lat="59.178996" lon="18.142702">
        <ele>36</ele>
        <time>2020-01-29T16:03:20Z</time>
      </trkpt>
      <trkpt lat="59.179065" lon="18.142752">
        <ele>36</ele>
        <time>2020-01-29T16:03:21Z</time>
      </trkpt>
      <trkpt lat="59.179133" lon="18.1428">
        <ele>0</ele>
        <time>2020-01-29T16:03:21Z</time>
      </trkpt>
      <trkpt lat="59.1792" lon="18.142846">
        <ele>36</ele>
        <time>2020-01-29T16:03:22Z</time>
      </trkpt>
      <trkpt lat="59.179267" lon="18.142893">
        <ele>36</ele>
        <time>2020-01-29T16:03:24Z</time>
      </trkpt>
      <trkpt lat="59.179332" lon="18.142946">
        <ele>35</ele>
        <time>2020-01-29T16:03:25Z</time>
      </trkpt>
      <trkpt lat="59.179395" lon="18.142999">
        <ele>35</ele>
        <time>2020-01-29T16:03:26Z</time>
      </trkpt>
      <trkpt lat="59.179457" lon="18.143055">
        <ele>35</ele>
        <time>2020-01-29T16:03:27Z</time>
      </trkpt>
      <trkpt lat="59.179518" lon="18.143113">
        <ele>35</ele>
        <time>2020-01-29T16:03:28Z</time>
      </trkpt>
      <trkpt lat="59.179577" lon="18.143172">
        <ele>0</ele>
        <time>2020-01-29T16:03:28Z</time>
      </trkpt>
      <trkpt lat="59.179636" lon="18.143229">
        <ele>35</ele>
        <time>2020-01-29T16:03:29Z</time>
      </trkpt>
      <trkpt lat="59.179692" lon="18.143286">
        <ele>35</ele>
        <time>2020-01-29T16:03:31Z</time>
      </trkpt>
      <trkpt lat="59.179743" lon="18.143343">
        <ele>35</ele>
        <time>2020-01-29T16:03:32Z</time>
      </trkpt>
      <trkpt lat="59.179789" lon="18.143399">
        <ele>35</ele>
        <time>2020-01-29T16:03:33Z</time>
      </trkpt>
      <trkpt lat="59.179832" lon="18.143454">
        <ele>36</ele>
        <time>2020-01-29T16:03:34Z</time>
      </trkpt>
      <trkpt lat="59.179873" lon="18.1435">
        <ele>36</ele>
        <time>2020-01-29T16:03:35Z</time>
      </trkpt>
      <trkpt lat="59.179905" lon="18.143555">
        <ele>36</ele>
        <time>2020-01-29T16:03:36Z</time>
      </trkpt>
      <trkpt lat="59.179923" lon="18.143625">
        <ele>0</ele>
        <time>2020-01-29T16:03:36Z</time>
      </trkpt>
      <trkpt lat="59.179939" lon="18.1437">
        <ele>36</ele>
        <time>2020-01-29T16:03:37Z</time>
      </trkpt>
      <trkpt lat="59.179961" lon="18.14377">
        <ele>0</ele>
        <time>2020-01-29T16:03:38Z</time>
      </trkpt>
      <trkpt lat="59.179991" lon="18.143835">
        <ele>36</ele>
        <time>2020-01-29T16:03:39Z</time>
      </trkpt>
      <trkpt lat="59.180023" lon="18.143897">
        <ele>36</ele>
        <time>2020-01-29T16:03:41Z</time>
      </trkpt>
      <trkpt lat="59.18006" lon="18.143949">
        <ele>36</ele>
        <time>2020-01-29T16:03:42Z</time>
      </trkpt>
      <trkpt lat="59.180099" lon="18.143993">
        <ele>36</ele>
        <time>2020-01-29T16:03:43Z</time>
      </trkpt>
      <trkpt lat="59.18014" lon="18.144037">
        <ele>36</ele>
        <time>2020-01-29T16:03:44Z</time>
      </trkpt>
      <trkpt lat="59.18018" lon="18.144088">
        <ele>36</ele>
        <time>2020-01-29T16:03:45Z</time>
      </trkpt>
      <trkpt lat="59.180219" lon="18.144141">
        <ele>36</ele>
        <time>2020-01-29T16:03:46Z</time>
      </trkpt>
      <trkpt lat="59.180259" lon="18.144196">
        <ele>36</ele>
        <time>2020-01-29T16:03:47Z</time>
      </trkpt>
      <trkpt lat="59.180299" lon="18.144253">
        <ele>36</ele>
        <time>2020-01-29T16:03:48Z</time>
      </trkpt>
      <trkpt lat="59.18034" lon="18.144311">
        <ele>36</ele>
        <time>2020-01-29T16:03:49Z</time>
      </trkpt>
      <trkpt lat="59.180385" lon="18.144366">
        <ele>0</ele>
        <time>2020-01-29T16:03:49Z</time>
      </trkpt>
      <trkpt lat="59.180431" lon="18.144421">
        <ele>36</ele>
        <time>2020-01-29T16:03:50Z</time>
      </trkpt>
      <trkpt lat="59.180478" lon="18.144478">
        <ele>36</ele>
        <time>2020-01-29T16:03:52Z</time>
      </trkpt>
      <trkpt lat="59.180524" lon="18.144537">
        <ele>36</ele>
        <time>2020-01-29T16:03:53Z</time>
      </trkpt>
      <trkpt lat="59.180569" lon="18.1446">
        <ele>36</ele>
        <time>2020-01-29T16:03:54Z</time>
      </trkpt>
      <trkpt lat="59.180613" lon="18.144664">
        <ele>36</ele>
        <time>2020-01-29T16:03:55Z</time>
      </trkpt>
      <trkpt lat="59.180657" lon="18.144728">
        <ele>36</ele>
        <time>2020-01-29T16:03:56Z</time>
      </trkpt>
      <trkpt lat="59.180703" lon="18.144791">
        <ele>36</ele>
        <time>2020-01-29T16:03:57Z</time>
      </trkpt>
      <trkpt lat="59.180752" lon="18.144846">
        <ele>37</ele>
        <time>2020-01-29T16:03:58Z</time>
      </trkpt>
      <trkpt lat="59.180801" lon="18.144896">
        <ele>0</ele>
        <time>2020-01-29T16:03:58Z</time>
      </trkpt>
      <trkpt lat="59.180851" lon="18.144944">
        <ele>37</ele>
        <time>2020-01-29T16:03:59Z</time>
      </trkpt>
      <trkpt lat="59.180901" lon="18.144991">
        <ele>37</ele>
        <time>2020-01-29T16:04:01Z</time>
      </trkpt>
      <trkpt lat="59.18095" lon="18.145042">
        <ele>37</ele>
        <time>2020-01-29T16:04:02Z</time>
      </trkpt>
      <trkpt lat="59.180997" lon="18.145096">
        <ele>37</ele>
        <time>2020-01-29T16:04:03Z</time>
      </trkpt>
      <trkpt lat="59.181043" lon="18.145151">
        <ele>38</ele>
        <time>2020-01-29T16:04:04Z</time>
      </trkpt>
      <trkpt lat="59.181089" lon="18.145204">
        <ele>38</ele>
        <time>2020-01-29T16:04:05Z</time>
      </trkpt>
      <trkpt lat="59.181136" lon="18.145255">
        <ele>38</ele>
        <time>2020-01-29T16:04:06Z</time>
      </trkpt>
      <trkpt lat="59.181183" lon="18.145306">
        <ele>38</ele>
        <time>2020-01-29T16:04:07Z</time>
      </trkpt>
      <trkpt lat="59.181231" lon="18.14536">
        <ele>0</ele>
        <time>2020-01-29T16:04:07Z</time>
      </trkpt>
      <trkpt lat="59.181279" lon="18.145417">
        <ele>38</ele>
        <time>2020-01-29T16:04:08Z</time>
      </trkpt>
      <trkpt lat="59.181326" lon="18.145475">
        <ele>38</ele>
        <time>2020-01-29T16:04:10Z</time>
      </trkpt>
      <trkpt lat="59.181375" lon="18.145528">
        <ele>38</ele>
        <time>2020-01-29T16:04:11Z</time>
      </trkpt>
      <trkpt lat="59.181426" lon="18.145582">
        <ele>38</ele>
        <time>2020-01-29T16:04:12Z</time>
      </trkpt>
      <trkpt lat="59.181478" lon="18.145634">
        <ele>38</ele>
        <time>2020-01-29T16:04:13Z</time>
      </trkpt>
      <trkpt lat="59.18153" lon="18.145683">
        <ele>38</ele>
        <time>2020-01-29T16:04:14Z</time>
      </trkpt>
      <trkpt lat="59.181584" lon="18.145738">
        <ele>0</ele>
        <time>2020-01-29T16:04:14Z</time>
      </trkpt>
      <trkpt lat="59.18164" lon="18.1458">
        <ele>38</ele>
        <time>2020-01-29T16:04:15Z</time>
      </trkpt>
      <trkpt lat="59.181698" lon="18.145866">
        <ele>38</ele>
        <time>2020-01-29T16:04:16Z</time>
      </trkpt>
      <trkpt lat="59.181757" lon="18.145933">
        <ele>38</ele>
        <time>2020-01-29T16:04:18Z</time>
      </trkpt>
      <trkpt lat="59.181816" lon="18.146002">
        <ele>38</ele>
        <time>2020-01-29T16:04:19Z</time>
      </trkpt>
      <trkpt lat="59.181873" lon="18.146067">
        <ele>38</ele>
        <time>2020-01-29T16:04:20Z</time>
      </trkpt>
      <trkpt lat="59.181934" lon="18.14614">
        <ele>38</ele>
        <time>2020-01-29T16:04:21Z</time>
      </trkpt>
      <trkpt lat="59.181995" lon="18.146211">
        <ele>38</ele>
        <time>2020-01-29T16:04:22Z</time>
      </trkpt>
      <trkpt lat="59.182054" lon="18.146284">
        <ele>38</ele>
        <time>2020-01-29T16:04:23Z</time>
      </trkpt>
      <trkpt lat="59.182112" lon="18.146352">
        <ele>0</ele>
        <time>2020-01-29T16:04:23Z</time>
      </trkpt>
      <trkpt lat="59.18217" lon="18.14642">
        <ele>38</ele>
        <time>2020-01-29T16:04:24Z</time>
      </trkpt>
      <trkpt lat="59.182225" lon="18.146483">
        <ele>38</ele>
        <time>2020-01-29T16:04:26Z</time>
      </trkpt>
      <trkpt lat="59.182279" lon="18.146545">
        <ele>38</ele>
        <time>2020-01-29T16:04:27Z</time>
      </trkpt>
      <trkpt lat="59.182334" lon="18.146607">
        <ele>38</ele>
        <time>2020-01-29T16:04:28Z</time>
      </trkpt>
      <trkpt lat="59.182386" lon="18.146668">
        <ele>38</ele>
        <time>2020-01-29T16:04:29Z</time>
      </trkpt>
      <trkpt lat="59.182442" lon="18.146722">
        <ele>38</ele>
        <time>2020-01-29T16:04:30Z</time>
      </trkpt>
      <trkpt lat="59.182496" lon="18.146775">
        <ele>38</ele>
        <time>2020-01-29T16:04:31Z</time>
      </trkpt>
      <trkpt lat="59.182552" lon="18.14683">
        <ele>0</ele>
        <time>2020-01-29T16:04:31Z</time>
      </trkpt>
      <trkpt lat="59.182618" lon="18.14688">
        <ele>38</ele>
        <time>2020-01-29T16:04:32Z</time>
      </trkpt>
      <trkpt lat="59.182684" lon="18.146934">
        <ele>0</ele>
        <time>2020-01-29T16:04:33Z</time>
      </trkpt>
      <trkpt lat="59.182743" lon="18.146988">
        <ele>38</ele>
        <time>2020-01-29T16:04:34Z</time>
      </trkpt>
      <trkpt lat="59.18281" lon="18.147036">
        <ele>38</ele>
        <time>2020-01-29T16:04:36Z</time>
      </trkpt>
      <trkpt lat="59.182876" lon="18.147078">
        <ele>38</ele>
        <time>2020-01-29T16:04:37Z</time>
      </trkpt>
      <trkpt lat="59.182948" lon="18.147108">
        <ele>38</ele>
        <time>2020-01-29T16:04:38Z</time>
      </trkpt>
      <trkpt lat="59.183023" lon="18.14713">
        <ele>0</ele>
        <time>2020-01-29T16:04:38Z</time>
      </trkpt>
      <trkpt lat="59.183095" lon="18.147147">
        <ele>38</ele>
        <time>2020-01-29T16:04:39Z</time>
      </trkpt>
      <trkpt lat="59.183164" lon="18.147163">
        <ele>39</ele>
        <time>2020-01-29T16:04:41Z</time>
      </trkpt>
      <trkpt lat="59.183229" lon="18.147179">
        <ele>39</ele>
        <time>2020-01-29T16:04:42Z</time>
      </trkpt>
      <trkpt lat="59.183288" lon="18.147206">
        <ele>38</ele>
        <time>2020-01-29T16:04:43Z</time>
      </trkpt>
      <trkpt lat="59.183342" lon="18.147247">
        <ele>38</ele>
        <time>2020-01-29T16:04:44Z</time>
      </trkpt>
      <trkpt lat="59.183396" lon="18.147287">
        <ele>38</ele>
        <time>2020-01-29T16:04:45Z</time>
      </trkpt>
      <trkpt lat="59.183451" lon="18.147312">
        <ele>38</ele>
        <time>2020-01-29T16:04:46Z</time>
      </trkpt>
      <trkpt lat="59.183507" lon="18.147319">
        <ele>0</ele>
        <time>2020-01-29T16:04:46Z</time>
      </trkpt>
      <trkpt lat="59.18356" lon="18.147309">
        <ele>38</ele>
        <time>2020-01-29T16:04:47Z</time>
      </trkpt>
      <trkpt lat="59.183613" lon="18.147283">
        <ele>37</ele>
        <time>2020-01-29T16:04:49Z</time>
      </trkpt>
      <trkpt lat="59.183672" lon="18.147261">
        <ele>37</ele>
        <time>2020-01-29T16:04:50Z</time>
      </trkpt>
      <trkpt lat="59.183735" lon="18.147252">
        <ele>37</ele>
        <time>2020-01-29T16:04:51Z</time>
      </trkpt>
      <trkpt lat="59.183796" lon="18.147251">
        <ele>37</ele>
        <time>2020-01-29T16:04:52Z</time>
      </trkpt>
      <trkpt lat="59.183859" lon="18.147248">
        <ele>36</ele>
        <time>2020-01-29T16:04:53Z</time>
      </trkpt>
      <trkpt lat="59.183923" lon="18.147244">
        <ele>36</ele>
        <time>2020-01-29T16:04:54Z</time>
      </trkpt>
      <trkpt lat="59.183987" lon="18.147235">
        <ele>0</ele>
        <time>2020-01-29T16:04:54Z</time>
      </trkpt>
      <trkpt lat="59.184051" lon="18.147224">
        <ele>36</ele>
        <time>2020-01-29T16:04:55Z</time>
      </trkpt>
      <trkpt lat="59.184118" lon="18.14721">
        <ele>35</ele>
        <time>2020-01-29T16:04:57Z</time>
      </trkpt>
      <trkpt lat="59.184189" lon="18.147193">
        <ele>35</ele>
        <time>2020-01-29T16:04:58Z</time>
      </trkpt>
      <trkpt lat="59.184264" lon="18.147175">
        <ele>35</ele>
        <time>2020-01-29T16:04:59Z</time>
      </trkpt>
      <trkpt lat="59.18434" lon="18.147157">
        <ele>34</ele>
        <time>2020-01-29T16:05:00Z</time>
      </trkpt>
      <trkpt lat="59.184418" lon="18.147138">
        <ele>34</ele>
        <time>2020-01-29T16:05:01Z</time>
      </trkpt>
      <trkpt lat="59.184497" lon="18.14712">
        <ele>33</ele>
        <time>2020-01-29T16:05:01Z</time>
      </trkpt>
      <trkpt lat="59.184576" lon="18.147102">
        <ele>34</ele>
        <time>2020-01-29T16:05:02Z</time>
      </trkpt>
      <trkpt lat="59.184656" lon="18.147092">
        <ele>33</ele>
        <time>2020-01-29T16:05:04Z</time>
      </trkpt>
      <trkpt lat="59.184733" lon="18.14708">
        <ele>33</ele>
        <time>2020-01-29T16:05:05Z</time>
      </trkpt>
      <trkpt lat="59.184809" lon="18.147064">
        <ele>32</ele>
        <time>2020-01-29T16:05:06Z</time>
      </trkpt>
      <trkpt lat="59.184882" lon="18.147044">
        <ele>32</ele>
        <time>2020-01-29T16:05:07Z</time>
      </trkpt>
      <trkpt lat="59.184951" lon="18.147008">
        <ele>0</ele>
        <time>2020-01-29T16:05:07Z</time>
      </trkpt>
      <trkpt lat="59.185014" lon="18.146953">
        <ele>32</ele>
        <time>2020-01-29T16:05:08Z</time>
      </trkpt>
      <trkpt lat="59.185073" lon="18.146892">
        <ele>31</ele>
        <time>2020-01-29T16:05:10Z</time>
      </trkpt>
      <trkpt lat="59.185133" lon="18.146827">
        <ele>31</ele>
        <time>2020-01-29T16:05:11Z</time>
      </trkpt>
      <trkpt lat="59.185194" lon="18.146778">
        <ele>31</ele>
        <time>2020-01-29T16:05:12Z</time>
      </trkpt>
      <trkpt lat="59.185253" lon="18.146756">
        <ele>30</ele>
        <time>2020-01-29T16:05:13Z</time>
      </trkpt>
      <trkpt lat="59.185308" lon="18.146768">
        <ele>30</ele>
        <time>2020-01-29T16:05:14Z</time>
      </trkpt>
      <trkpt lat="59.185353" lon="18.146823">
        <ele>30</ele>
        <time>2020-01-29T16:05:15Z</time>
      </trkpt>
      <trkpt lat="59.185393" lon="18.146895">
        <ele>0</ele>
        <time>2020-01-29T16:05:15Z</time>
      </trkpt>
      <trkpt lat="59.185441" lon="18.146947">
        <ele>29</ele>
        <time>2020-01-29T16:05:16Z</time>
      </trkpt>
      <trkpt lat="59.185496" lon="18.146959">
        <ele>29</ele>
        <time>2020-01-29T16:05:18Z</time>
      </trkpt>
      <trkpt lat="59.185554" lon="18.146946">
        <ele>28</ele>
        <time>2020-01-29T16:05:19Z</time>
      </trkpt>
      <trkpt lat="59.185613" lon="18.146934">
        <ele>28</ele>
        <time>2020-01-29T16:05:20Z</time>
      </trkpt>
      <trkpt lat="59.185676" lon="18.146922">
        <ele>28</ele>
        <time>2020-01-29T16:05:21Z</time>
      </trkpt>
      <trkpt lat="59.185741" lon="18.146914">
        <ele>28</ele>
        <time>2020-01-29T16:05:22Z</time>
      </trkpt>
      <trkpt lat="59.185805" lon="18.146902">
        <ele>28</ele>
        <time>2020-01-29T16:05:23Z</time>
      </trkpt>
      <trkpt lat="59.185868" lon="18.146886">
        <ele>28</ele>
        <time>2020-01-29T16:05:24Z</time>
      </trkpt>
      <trkpt lat="59.185931" lon="18.146865">
        <ele>0</ele>
        <time>2020-01-29T16:05:24Z</time>
      </trkpt>
      <trkpt lat="59.185995" lon="18.14685">
        <ele>28</ele>
        <time>2020-01-29T16:05:25Z</time>
      </trkpt>
      <trkpt lat="59.18606" lon="18.146844">
        <ele>28</ele>
        <time>2020-01-29T16:05:27Z</time>
      </trkpt>
      <trkpt lat="59.186125" lon="18.14684">
        <ele>28</ele>
        <time>2020-01-29T16:05:28Z</time>
      </trkpt>
      <trkpt lat="59.186192" lon="18.146833">
        <ele>28</ele>
        <time>2020-01-29T16:05:29Z</time>
      </trkpt>
      <trkpt lat="59.186257" lon="18.146821">
        <ele>28</ele>
        <time>2020-01-29T16:05:30Z</time>
      </trkpt>
      <trkpt lat="59.186323" lon="18.146807">
        <ele>0</ele>
        <time>2020-01-29T16:05:30Z</time>
      </trkpt>
      <trkpt lat="59.186389" lon="18.146793">
        <ele>28</ele>
        <time>2020-01-29T16:05:31Z</time>
      </trkpt>
      <trkpt lat="59.186455" lon="18.146776">
        <ele>28</ele>
        <time>2020-01-29T16:05:32Z</time>
      </trkpt>
      <trkpt lat="59.186521" lon="18.14676">
        <ele>27</ele>
        <time>2020-01-29T16:05:34Z</time>
      </trkpt>
      <trkpt lat="59.186586" lon="18.14674">
        <ele>27</ele>
        <time>2020-01-29T16:05:35Z</time>
      </trkpt>
      <trkpt lat="59.186653" lon="18.14672">
        <ele>27</ele>
        <time>2020-01-29T16:05:36Z</time>
      </trkpt>
      <trkpt lat="59.18672" lon="18.146704">
        <ele>27</ele>
        <time>2020-01-29T16:05:37Z</time>
      </trkpt>
      <trkpt lat="59.186787" lon="18.146688">
        <ele>27</ele>
        <time>2020-01-29T16:05:38Z</time>
      </trkpt>
      <trkpt lat="59.186855" lon="18.146672">
        <ele>27</ele>
        <time>2020-01-29T16:05:39Z</time>
      </trkpt>
      <trkpt lat="59.186922" lon="18.146657">
        <ele>27</ele>
        <time>2020-01-29T16:05:40Z</time>
      </trkpt>
      <trkpt lat="59.186988" lon="18.14664">
        <ele>27</ele>
        <time>2020-01-29T16:05:41Z</time>
      </trkpt>
      <trkpt lat="59.187053" lon="18.146623">
        <ele>27</ele>
        <time>2020-01-29T16:05:42Z</time>
      </trkpt>
      <trkpt lat="59.187118" lon="18.14661">
        <ele>27</ele>
        <time>2020-01-29T16:05:43Z</time>
      </trkpt>
      <trkpt lat="59.187185" lon="18.146596">
        <ele>27</ele>
        <time>2020-01-29T16:05:44Z</time>
      </trkpt>
      <trkpt lat="59.187254" lon="18.14658">
        <ele>27</ele>
        <time>2020-01-29T16:05:45Z</time>
      </trkpt>
      <trkpt lat="59.187325" lon="18.146565">
        <ele>26</ele>
        <time>2020-01-29T16:05:46Z</time>
      </trkpt>
      <trkpt lat="59.187393" lon="18.146545">
        <ele>0</ele>
        <time>2020-01-29T16:05:46Z</time>
      </trkpt>
      <trkpt lat="59.187461" lon="18.14652">
        <ele>26</ele>
        <time>2020-01-29T16:05:47Z</time>
      </trkpt>
      <trkpt lat="59.187527" lon="18.146491">
        <ele>26</ele>
        <time>2020-01-29T16:05:49Z</time>
      </trkpt>
      <trkpt lat="59.187593" lon="18.146458">
        <ele>27</ele>
        <time>2020-01-29T16:05:50Z</time>
      </trkpt>
      <trkpt lat="59.187658" lon="18.146423">
        <ele>27</ele>
        <time>2020-01-29T16:05:51Z</time>
      </trkpt>
      <trkpt lat="59.18772" lon="18.146384">
        <ele>27</ele>
        <time>2020-01-29T16:05:52Z</time>
      </trkpt>
      <trkpt lat="59.187782" lon="18.14634">
        <ele>27</ele>
        <time>2020-01-29T16:05:53Z</time>
      </trkpt>
      <trkpt lat="59.187842" lon="18.146299">
        <ele>27</ele>
        <time>2020-01-29T16:05:54Z</time>
      </trkpt>
      <trkpt lat="59.1879" lon="18.146253">
        <ele>0</ele>
        <time>2020-01-29T16:05:54Z</time>
      </trkpt>
      <trkpt lat="59.187956" lon="18.146203">
        <ele>27</ele>
        <time>2020-01-29T16:05:55Z</time>
      </trkpt>
      <trkpt lat="59.188013" lon="18.146154">
        <ele>27</ele>
        <time>2020-01-29T16:05:57Z</time>
      </trkpt>
      <trkpt lat="59.188069" lon="18.146113">
        <ele>27</ele>
        <time>2020-01-29T16:05:58Z</time>
      </trkpt>
      <trkpt lat="59.188126" lon="18.146076">
        <ele>27</ele>
        <time>2020-01-29T16:05:59Z</time>
      </trkpt>
      <trkpt lat="59.188182" lon="18.146037">
        <ele>27</ele>
        <time>2020-01-29T16:06:00Z</time>
      </trkpt>
      <trkpt lat="59.188237" lon="18.146002">
        <ele>27</ele>
        <time>2020-01-29T16:06:01Z</time>
      </trkpt>
      <trkpt lat="59.188291" lon="18.145963">
        <ele>27</ele>
        <time>2020-01-29T16:06:02Z</time>
      </trkpt>
      <trkpt lat="59.188343" lon="18.145924">
        <ele>0</ele>
        <time>2020-01-29T16:06:02Z</time>
      </trkpt>
      <trkpt lat="59.188394" lon="18.145885">
        <ele>27</ele>
        <time>2020-01-29T16:06:03Z</time>
      </trkpt>
      <trkpt lat="59.188444" lon="18.145845">
        <ele>27</ele>
        <time>2020-01-29T16:06:05Z</time>
      </trkpt>
      <trkpt lat="59.188493" lon="18.145803">
        <ele>27</ele>
        <time>2020-01-29T16:06:06Z</time>
      </trkpt>
      <trkpt lat="59.188542" lon="18.145761">
        <ele>27</ele>
        <time>2020-01-29T16:06:07Z</time>
      </trkpt>
      <trkpt lat="59.188595" lon="18.145715">
        <ele>27</ele>
        <time>2020-01-29T16:06:08Z</time>
      </trkpt>
      <trkpt lat="59.188643" lon="18.145666">
        <ele>27</ele>
        <time>2020-01-29T16:06:09Z</time>
      </trkpt>
      <trkpt lat="59.188688" lon="18.145615">
        <ele>27</ele>
        <time>2020-01-29T16:06:10Z</time>
      </trkpt>
      <trkpt lat="59.188733" lon="18.145563">
        <ele>27</ele>
        <time>2020-01-29T16:06:11Z</time>
      </trkpt>
      <trkpt lat="59.188779" lon="18.145506">
        <ele>0</ele>
        <time>2020-01-29T16:06:11Z</time>
      </trkpt>
      <trkpt lat="59.188825" lon="18.14545">
        <ele>28</ele>
        <time>2020-01-29T16:06:12Z</time>
      </trkpt>
      <trkpt lat="59.188869" lon="18.145394">
        <ele>28</ele>
        <time>2020-01-29T16:06:14Z</time>
      </trkpt>
      <trkpt lat="59.188912" lon="18.145337">
        <ele>28</ele>
        <time>2020-01-29T16:06:15Z</time>
      </trkpt>
      <trkpt lat="59.188955" lon="18.145277">
        <ele>28</ele>
        <time>2020-01-29T16:06:16Z</time>
      </trkpt>
      <trkpt lat="59.188997" lon="18.145216">
        <ele>28</ele>
        <time>2020-01-29T16:06:17Z</time>
      </trkpt>
      <trkpt lat="59.18904" lon="18.145152">
        <ele>28</ele>
        <time>2020-01-29T16:06:18Z</time>
      </trkpt>
      <trkpt lat="59.189085" lon="18.145084">
        <ele>28</ele>
        <time>2020-01-29T16:06:19Z</time>
      </trkpt>
      <trkpt lat="59.189132" lon="18.145015">
        <ele>28</ele>
        <time>2020-01-29T16:06:20Z</time>
      </trkpt>
      <trkpt lat="59.189179" lon="18.14495">
        <ele>28</ele>
        <time>2020-01-29T16:06:21Z</time>
      </trkpt>
      <trkpt lat="59.189226" lon="18.144891">
        <ele>28</ele>
        <time>2020-01-29T16:06:22Z</time>
      </trkpt>
      <trkpt lat="59.189276" lon="18.144832">
        <ele>28</ele>
        <time>2020-01-29T16:06:23Z</time>
      </trkpt>
      <trkpt lat="59.189326" lon="18.14478">
        <ele>28</ele>
        <time>2020-01-29T16:06:24Z</time>
      </trkpt>
      <trkpt lat="59.189381" lon="18.14473">
        <ele>28</ele>
        <time>2020-01-29T16:06:25Z</time>
      </trkpt>
      <trkpt lat="59.189442" lon="18.14468">
        <ele>28</ele>
        <time>2020-01-29T16:06:26Z</time>
      </trkpt>
      <trkpt lat="59.189502" lon="18.144636">
        <ele>28</ele>
        <time>2020-01-29T16:06:27Z</time>
      </trkpt>
      <trkpt lat="59.189567" lon="18.14459">
        <ele>28</ele>
        <time>2020-01-29T16:06:28Z</time>
      </trkpt>
      <trkpt lat="59.189629" lon="18.144541">
        <ele>0</ele>
        <time>2020-01-29T16:06:28Z</time>
      </trkpt>
      <trkpt lat="59.189697" lon="18.144494">
        <ele>28</ele>
        <time>2020-01-29T16:06:29Z</time>
      </trkpt>
      <trkpt lat="59.189764" lon="18.144456">
        <ele>28</ele>
        <time>2020-01-29T16:06:31Z</time>
      </trkpt>
      <trkpt lat="59.189837" lon="18.144417">
        <ele>28</ele>
        <time>2020-01-29T16:06:32Z</time>
      </trkpt>
      <trkpt lat="59.189908" lon="18.144381">
        <ele>28</ele>
        <time>2020-01-29T16:06:33Z</time>
      </trkpt>
      <trkpt lat="59.18998" lon="18.144341">
        <ele>28</ele>
        <time>2020-01-29T16:06:34Z</time>
      </trkpt>
      <trkpt lat="59.190054" lon="18.1443">
        <ele>28</ele>
        <time>2020-01-29T16:06:35Z</time>
      </trkpt>
      <trkpt lat="59.190212" lon="18.144247">
        <ele>28</ele>
        <time>2020-01-29T16:06:36Z</time>
      </trkpt>
      <trkpt lat="59.190371" lon="18.144244">
        <ele>27</ele>
        <time>2020-01-29T16:06:39Z</time>
      </trkpt>
      <trkpt lat="59.190511" lon="18.144261">
        <ele>28</ele>
        <time>2020-01-29T16:06:41Z</time>
      </trkpt>
      <trkpt lat="59.190623" lon="18.144213">
        <ele>28</ele>
        <time>2020-01-29T16:06:43Z</time>
      </trkpt>
      <trkpt lat="59.190723" lon="18.144194">
        <ele>28</ele>
        <time>2020-01-29T16:06:44Z</time>
      </trkpt>
      <trkpt lat="59.190824" lon="18.14417">
        <ele>28</ele>
        <time>2020-01-29T16:06:47Z</time>
      </trkpt>
      <trkpt lat="59.190916" lon="18.144157">
        <ele>28</ele>
        <time>2020-01-29T16:06:49Z</time>
      </trkpt>
      <trkpt lat="59.191038" lon="18.144127">
        <ele>28</ele>
        <time>2020-01-29T16:06:52Z</time>
      </trkpt>
      <trkpt lat="59.191152" lon="18.144106">
        <ele>29</ele>
        <time>2020-01-29T16:06:55Z</time>
      </trkpt>
      <trkpt lat="59.191256" lon="18.144079">
        <ele>29</ele>
        <time>2020-01-29T16:06:58Z</time>
      </trkpt>
      <trkpt lat="59.191285" lon="18.144074">
        <ele>30</ele>
        <time>2020-01-29T16:06:59Z</time>
      </trkpt>
      <trkpt lat="59.191322" lon="18.144064">
        <ele>30</ele>
        <time>2020-01-29T16:07:00Z</time>
      </trkpt>
      <trkpt lat="59.191356" lon="18.144051">
        <ele>30</ele>
        <time>2020-01-29T16:07:01Z</time>
      </trkpt>
      <trkpt lat="59.191391" lon="18.144034">
        <ele>30</ele>
        <time>2020-01-29T16:07:02Z</time>
      </trkpt>
      <trkpt lat="59.191425" lon="18.144018">
        <ele>30</ele>
        <time>2020-01-29T16:07:03Z</time>
      </trkpt>
      <trkpt lat="59.19146" lon="18.144003">
        <ele>30</ele>
        <time>2020-01-29T16:07:04Z</time>
      </trkpt>
      <trkpt lat="59.191495" lon="18.143986">
        <ele>31</ele>
        <time>2020-01-29T16:07:05Z</time>
      </trkpt>
      <trkpt lat="59.191528" lon="18.143969">
        <ele>31</ele>
        <time>2020-01-29T16:07:06Z</time>
      </trkpt>
      <trkpt lat="59.19156" lon="18.143949">
        <ele>31</ele>
        <time>2020-01-29T16:07:07Z</time>
      </trkpt>
      <trkpt lat="59.191593" lon="18.143929">
        <ele>31</ele>
        <time>2020-01-29T16:07:08Z</time>
      </trkpt>
      <trkpt lat="59.191626" lon="18.143909">
        <ele>0</ele>
        <time>2020-01-29T16:07:08Z</time>
      </trkpt>
      <trkpt lat="59.191659" lon="18.143893">
        <ele>31</ele>
        <time>2020-01-29T16:07:09Z</time>
      </trkpt>
      <trkpt lat="59.19169" lon="18.143875">
        <ele>31</ele>
        <time>2020-01-29T16:07:11Z</time>
      </trkpt>
      <trkpt lat="59.191719" lon="18.143852">
        <ele>31</ele>
        <time>2020-01-29T16:07:12Z</time>
      </trkpt>
      <trkpt lat="59.191749" lon="18.143829">
        <ele>31</ele>
        <time>2020-01-29T16:07:13Z</time>
      </trkpt>
      <trkpt lat="59.191779" lon="18.143809">
        <ele>31</ele>
        <time>2020-01-29T16:07:14Z</time>
      </trkpt>
      <trkpt lat="59.191811" lon="18.143792">
        <ele>31</ele>
        <time>2020-01-29T16:07:15Z</time>
      </trkpt>
      <trkpt lat="59.191843" lon="18.143772">
        <ele>31</ele>
        <time>2020-01-29T16:07:16Z</time>
      </trkpt>
      <trkpt lat="59.191876" lon="18.14375">
        <ele>31</ele>
        <time>2020-01-29T16:07:17Z</time>
      </trkpt>
      <trkpt lat="59.191908" lon="18.143724">
        <ele>31</ele>
        <time>2020-01-29T16:07:18Z</time>
      </trkpt>
      <trkpt lat="59.19194" lon="18.143698">
        <ele>31</ele>
        <time>2020-01-29T16:07:19Z</time>
      </trkpt>
      <trkpt lat="59.19197" lon="18.143671">
        <ele>32</ele>
        <time>2020-01-29T16:07:20Z</time>
      </trkpt>
      <trkpt lat="59.191999" lon="18.143641">
        <ele>32</ele>
        <time>2020-01-29T16:07:21Z</time>
      </trkpt>
      <trkpt lat="59.19203" lon="18.143609">
        <ele>32</ele>
        <time>2020-01-29T16:07:22Z</time>
      </trkpt>
      <trkpt lat="59.192061" lon="18.143576">
        <ele>32</ele>
        <time>2020-01-29T16:07:23Z</time>
      </trkpt>
      <trkpt lat="59.192092" lon="18.143542">
        <ele>32</ele>
        <time>2020-01-29T16:07:24Z</time>
      </trkpt>
      <trkpt lat="59.192122" lon="18.143505">
        <ele>33</ele>
        <time>2020-01-29T16:07:25Z</time>
      </trkpt>
      <trkpt lat="59.192151" lon="18.143469">
        <ele>33</ele>
        <time>2020-01-29T16:07:26Z</time>
      </trkpt>
      <trkpt lat="59.192181" lon="18.143434">
        <ele>33</ele>
        <time>2020-01-29T16:07:27Z</time>
      </trkpt>
      <trkpt lat="59.192211" lon="18.143402">
        <ele>33</ele>
        <time>2020-01-29T16:07:28Z</time>
      </trkpt>
      <trkpt lat="59.192241" lon="18.143369">
        <ele>34</ele>
        <time>2020-01-29T16:07:29Z</time>
      </trkpt>
      <trkpt lat="59.192273" lon="18.143337">
        <ele>34</ele>
        <time>2020-01-29T16:07:30Z</time>
      </trkpt>
      <trkpt lat="59.192306" lon="18.143304">
        <ele>34</ele>
        <time>2020-01-29T16:07:31Z</time>
      </trkpt>
      <trkpt lat="59.192339" lon="18.143269">
        <ele>34</ele>
        <time>2020-01-29T16:07:32Z</time>
      </trkpt>
      <trkpt lat="59.192372" lon="18.143235">
        <ele>35</ele>
        <time>2020-01-29T16:07:33Z</time>
      </trkpt>
      <trkpt lat="59.192409" lon="18.143197">
        <ele>36</ele>
        <time>2020-01-29T16:07:34Z</time>
      </trkpt>
      <trkpt lat="59.192447" lon="18.143153">
        <ele>37</ele>
        <time>2020-01-29T16:07:35Z</time>
      </trkpt>
      <trkpt lat="59.192482" lon="18.143104">
        <ele>37</ele>
        <time>2020-01-29T16:07:36Z</time>
      </trkpt>
      <trkpt lat="59.192515" lon="18.143065">
        <ele>0</ele>
        <time>2020-01-29T16:07:36Z</time>
      </trkpt>
      <trkpt lat="59.192547" lon="18.143031">
        <ele>38</ele>
        <time>2020-01-29T16:07:37Z</time>
      </trkpt>
      <trkpt lat="59.192581" lon="18.142996">
        <ele>38</ele>
        <time>2020-01-29T16:07:39Z</time>
      </trkpt>
      <trkpt lat="59.192615" lon="18.142959">
        <ele>38</ele>
        <time>2020-01-29T16:07:40Z</time>
      </trkpt>
      <trkpt lat="59.192649" lon="18.142925">
        <ele>38</ele>
        <time>2020-01-29T16:07:41Z</time>
      </trkpt>
      <trkpt lat="59.192683" lon="18.142893">
        <ele>39</ele>
        <time>2020-01-29T16:07:42Z</time>
      </trkpt>
      <trkpt lat="59.192722" lon="18.142855">
        <ele>39</ele>
        <time>2020-01-29T16:07:43Z</time>
      </trkpt>
      <trkpt lat="59.192753" lon="18.14283">
        <ele>39</ele>
        <time>2020-01-29T16:07:44Z</time>
      </trkpt>
      <trkpt lat="59.192784" lon="18.142801">
        <ele>40</ele>
        <time>2020-01-29T16:07:45Z</time>
      </trkpt>
      <trkpt lat="59.192818" lon="18.142771">
        <ele>40</ele>
        <time>2020-01-29T16:07:46Z</time>
      </trkpt>
      <trkpt lat="59.192852" lon="18.142738">
        <ele>40</ele>
        <time>2020-01-29T16:07:47Z</time>
      </trkpt>
      <trkpt lat="59.192888" lon="18.142705">
        <ele>40</ele>
        <time>2020-01-29T16:07:48Z</time>
      </trkpt>
      <trkpt lat="59.192923" lon="18.142672">
        <ele>40</ele>
        <time>2020-01-29T16:07:49Z</time>
      </trkpt>
      <trkpt lat="59.192958" lon="18.142641">
        <ele>40</ele>
        <time>2020-01-29T16:07:50Z</time>
      </trkpt>
      <trkpt lat="59.192991" lon="18.142609">
        <ele>40</ele>
        <time>2020-01-29T16:07:51Z</time>
      </trkpt>
      <trkpt lat="59.193024" lon="18.142576">
        <ele>40</ele>
        <time>2020-01-29T16:07:52Z</time>
      </trkpt>
      <trkpt lat="59.193058" lon="18.142542">
        <ele>40</ele>
        <time>2020-01-29T16:07:53Z</time>
      </trkpt>
      <trkpt lat="59.193093" lon="18.142507">
        <ele>40</ele>
        <time>2020-01-29T16:07:54Z</time>
      </trkpt>
      <trkpt lat="59.19313" lon="18.142471">
        <ele>41</ele>
        <time>2020-01-29T16:07:55Z</time>
      </trkpt>
      <trkpt lat="59.193166" lon="18.142437">
        <ele>41</ele>
        <time>2020-01-29T16:07:56Z</time>
      </trkpt>
      <trkpt lat="59.193206" lon="18.142405">
        <ele>41</ele>
        <time>2020-01-29T16:07:57Z</time>
      </trkpt>
      <trkpt lat="59.193245" lon="18.142377">
        <ele>41</ele>
        <time>2020-01-29T16:07:58Z</time>
      </trkpt>
      <trkpt lat="59.193282" lon="18.142353">
        <ele>41</ele>
        <time>2020-01-29T16:07:59Z</time>
      </trkpt>
      <trkpt lat="59.193317" lon="18.142333">
        <ele>41</ele>
        <time>2020-01-29T16:08:00Z</time>
      </trkpt>
      <trkpt lat="59.193352" lon="18.14231">
        <ele>41</ele>
        <time>2020-01-29T16:08:01Z</time>
      </trkpt>
      <trkpt lat="59.19339" lon="18.142285">
        <ele>42</ele>
        <time>2020-01-29T16:08:02Z</time>
      </trkpt>
      <trkpt lat="59.193427" lon="18.142255">
        <ele>0</ele>
        <time>2020-01-29T16:08:02Z</time>
      </trkpt>
      <trkpt lat="59.19346" lon="18.142227">
        <ele>42</ele>
        <time>2020-01-29T16:08:03Z</time>
      </trkpt>
      <trkpt lat="59.193531" lon="18.142166">
        <ele>42</ele>
        <time>2020-01-29T16:08:06Z</time>
      </trkpt>
      <trkpt lat="59.193564" lon="18.142138">
        <ele>42</ele>
        <time>2020-01-29T16:08:07Z</time>
      </trkpt>
      <trkpt lat="59.193598" lon="18.142111">
        <ele>42</ele>
        <time>2020-01-29T16:08:08Z</time>
      </trkpt>
      <trkpt lat="59.19363" lon="18.14208">
        <ele>42</ele>
        <time>2020-01-29T16:08:09Z</time>
      </trkpt>
      <trkpt lat="59.193661" lon="18.142047">
        <ele>42</ele>
        <time>2020-01-29T16:08:10Z</time>
      </trkpt>
      <trkpt lat="59.193688" lon="18.142015">
        <ele>42</ele>
        <time>2020-01-29T16:08:11Z</time>
      </trkpt>
      <trkpt lat="59.193718" lon="18.141983">
        <ele>42</ele>
        <time>2020-01-29T16:08:12Z</time>
      </trkpt>
      <trkpt lat="59.193751" lon="18.141953">
        <ele>42</ele>
        <time>2020-01-29T16:08:13Z</time>
      </trkpt>
      <trkpt lat="59.193784" lon="18.14192">
        <ele>42</ele>
        <time>2020-01-29T16:08:14Z</time>
      </trkpt>
      <trkpt lat="59.193824" lon="18.141883">
        <ele>43</ele>
        <time>2020-01-29T16:08:15Z</time>
      </trkpt>
      <trkpt lat="59.193859" lon="18.141847">
        <ele>43</ele>
        <time>2020-01-29T16:08:16Z</time>
      </trkpt>
      <trkpt lat="59.193895" lon="18.141813">
        <ele>43</ele>
        <time>2020-01-29T16:08:17Z</time>
      </trkpt>
      <trkpt lat="59.193935" lon="18.141782">
        <ele>43</ele>
        <time>2020-01-29T16:08:18Z</time>
      </trkpt>
      <trkpt lat="59.193974" lon="18.141753">
        <ele>43</ele>
        <time>2020-01-29T16:08:19Z</time>
      </trkpt>
      <trkpt lat="59.194011" lon="18.14172">
        <ele>43</ele>
        <time>2020-01-29T16:08:20Z</time>
      </trkpt>
      <trkpt lat="59.194047" lon="18.141688">
        <ele>43</ele>
        <time>2020-01-29T16:08:21Z</time>
      </trkpt>
      <trkpt lat="59.194083" lon="18.141656">
        <ele>43</ele>
        <time>2020-01-29T16:08:22Z</time>
      </trkpt>
      <trkpt lat="59.194121" lon="18.141622">
        <ele>43</ele>
        <time>2020-01-29T16:08:23Z</time>
      </trkpt>
      <trkpt lat="59.194158" lon="18.141588">
        <ele>43</ele>
        <time>2020-01-29T16:08:24Z</time>
      </trkpt>
      <trkpt lat="59.194194" lon="18.141554">
        <ele>42</ele>
        <time>2020-01-29T16:08:25Z</time>
      </trkpt>
      <trkpt lat="59.194232" lon="18.141518">
        <ele>42</ele>
        <time>2020-01-29T16:08:26Z</time>
      </trkpt>
      <trkpt lat="59.194273" lon="18.14148">
        <ele>42</ele>
        <time>2020-01-29T16:08:27Z</time>
      </trkpt>
      <trkpt lat="59.194314" lon="18.141444">
        <ele>0</ele>
        <time>2020-01-29T16:08:27Z</time>
      </trkpt>
      <trkpt lat="59.194355" lon="18.141406">
        <ele>43</ele>
        <time>2020-01-29T16:08:28Z</time>
      </trkpt>
      <trkpt lat="59.194398" lon="18.141366">
        <ele>43</ele>
        <time>2020-01-29T16:08:30Z</time>
      </trkpt>
      <trkpt lat="59.194441" lon="18.141324">
        <ele>43</ele>
        <time>2020-01-29T16:08:31Z</time>
      </trkpt>
      <trkpt lat="59.194485" lon="18.141281">
        <ele>43</ele>
        <time>2020-01-29T16:08:32Z</time>
      </trkpt>
      <trkpt lat="59.194527" lon="18.141239">
        <ele>43</ele>
        <time>2020-01-29T16:08:33Z</time>
      </trkpt>
      <trkpt lat="59.19457" lon="18.141197">
        <ele>43</ele>
        <time>2020-01-29T16:08:34Z</time>
      </trkpt>
      <trkpt lat="59.194615" lon="18.141153">
        <ele>43</ele>
        <time>2020-01-29T16:08:35Z</time>
      </trkpt>
      <trkpt lat="59.194666" lon="18.141105">
        <ele>43</ele>
        <time>2020-01-29T16:08:36Z</time>
      </trkpt>
      <trkpt lat="59.194727" lon="18.141047">
        <ele>43</ele>
        <time>2020-01-29T16:08:37Z</time>
      </trkpt>
      <trkpt lat="59.194784" lon="18.140997">
        <ele>0</ele>
        <time>2020-01-29T16:08:37Z</time>
      </trkpt>
      <trkpt lat="59.194843" lon="18.140947">
        <ele>42</ele>
        <time>2020-01-29T16:08:38Z</time>
      </trkpt>
      <trkpt lat="59.194905" lon="18.140895">
        <ele>42</ele>
        <time>2020-01-29T16:08:40Z</time>
      </trkpt>
      <trkpt lat="59.194975" lon="18.140844">
        <ele>42</ele>
        <time>2020-01-29T16:08:41Z</time>
      </trkpt>
      <trkpt lat="59.195049" lon="18.140798">
        <ele>42</ele>
        <time>2020-01-29T16:08:42Z</time>
      </trkpt>
      <trkpt lat="59.195126" lon="18.14076">
        <ele>41</ele>
        <time>2020-01-29T16:08:43Z</time>
      </trkpt>
      <trkpt lat="59.195208" lon="18.140731">
        <ele>0</ele>
        <time>2020-01-29T16:08:43Z</time>
      </trkpt>
      <trkpt lat="59.19529" lon="18.140715">
        <ele>41</ele>
        <time>2020-01-29T16:08:44Z</time>
      </trkpt>
      <trkpt lat="59.195373" lon="18.14071">
        <ele>41</ele>
        <time>2020-01-29T16:08:46Z</time>
      </trkpt>
      <trkpt lat="59.195456" lon="18.140711">
        <ele>41</ele>
        <time>2020-01-29T16:08:47Z</time>
      </trkpt>
      <trkpt lat="59.19554" lon="18.140716">
        <ele>41</ele>
        <time>2020-01-29T16:08:48Z</time>
      </trkpt>
      <trkpt lat="59.195624" lon="18.140726">
        <ele>41</ele>
        <time>2020-01-29T16:08:49Z</time>
      </trkpt>
      <trkpt lat="59.195708" lon="18.140738">
        <ele>0</ele>
        <time>2020-01-29T16:08:49Z</time>
      </trkpt>
      <trkpt lat="59.195791" lon="18.140751">
        <ele>41</ele>
        <time>2020-01-29T16:08:50Z</time>
      </trkpt>
      <trkpt lat="59.195873" lon="18.140766">
        <ele>40</ele>
        <time>2020-01-29T16:08:52Z</time>
      </trkpt>
      <trkpt lat="59.195954" lon="18.14078">
        <ele>40</ele>
        <time>2020-01-29T16:08:53Z</time>
      </trkpt>
      <trkpt lat="59.196034" lon="18.140796">
        <ele>40</ele>
        <time>2020-01-29T16:08:54Z</time>
      </trkpt>
      <trkpt lat="59.196115" lon="18.140814">
        <ele>40</ele>
        <time>2020-01-29T16:08:55Z</time>
      </trkpt>
      <trkpt lat="59.196195" lon="18.140832">
        <ele>0</ele>
        <time>2020-01-29T16:08:55Z</time>
      </trkpt>
      <trkpt lat="59.196274" lon="18.14085">
        <ele>40</ele>
        <time>2020-01-29T16:08:56Z</time>
      </trkpt>
      <trkpt lat="59.196352" lon="18.140874">
        <ele>39</ele>
        <time>2020-01-29T16:08:58Z</time>
      </trkpt>
      <trkpt lat="59.196428" lon="18.140911">
        <ele>38</ele>
        <time>2020-01-29T16:08:59Z</time>
      </trkpt>
      <trkpt lat="59.196501" lon="18.140958">
        <ele>38</ele>
        <time>2020-01-29T16:09:00Z</time>
      </trkpt>
      <trkpt lat="59.196575" lon="18.141009">
        <ele>38</ele>
        <time>2020-01-29T16:09:01Z</time>
      </trkpt>
      <trkpt lat="59.19665" lon="18.141067">
        <ele>38</ele>
        <time>2020-01-29T16:09:02Z</time>
      </trkpt>
      <trkpt lat="59.196724" lon="18.14114">
        <ele>0</ele>
        <time>2020-01-29T16:09:02Z</time>
      </trkpt>
      <trkpt lat="59.196793" lon="18.141226">
        <ele>37</ele>
        <time>2020-01-29T16:09:03Z</time>
      </trkpt>
      <trkpt lat="59.196863" lon="18.14132">
        <ele>36</ele>
        <time>2020-01-29T16:09:05Z</time>
      </trkpt>
      <trkpt lat="59.196931" lon="18.14142">
        <ele>36</ele>
        <time>2020-01-29T16:09:06Z</time>
      </trkpt>
      <trkpt lat="59.196999" lon="18.14153">
        <ele>35</ele>
        <time>2020-01-29T16:09:07Z</time>
      </trkpt>
      <trkpt lat="59.197068" lon="18.141643">
        <ele>0</ele>
        <time>2020-01-29T16:09:07Z</time>
      </trkpt>
      <trkpt lat="59.19714" lon="18.141754">
        <ele>35</ele>
        <time>2020-01-29T16:09:08Z</time>
      </trkpt>
      <trkpt lat="59.197213" lon="18.141863">
        <ele>34</ele>
        <time>2020-01-29T16:09:10Z</time>
      </trkpt>
      <trkpt lat="59.197287" lon="18.141965">
        <ele>34</ele>
        <time>2020-01-29T16:09:11Z</time>
      </trkpt>
      <trkpt lat="59.197362" lon="18.142062">
        <ele>34</ele>
        <time>2020-01-29T16:09:12Z</time>
      </trkpt>
      <trkpt lat="59.197438" lon="18.14215">
        <ele>34</ele>
        <time>2020-01-29T16:09:13Z</time>
      </trkpt>
      <trkpt lat="59.197517" lon="18.142228">
        <ele>0</ele>
        <time>2020-01-29T16:09:13Z</time>
      </trkpt>
      <trkpt lat="59.197595" lon="18.142296">
        <ele>34</ele>
        <time>2020-01-29T16:09:14Z</time>
      </trkpt>
      <trkpt lat="59.19767" lon="18.142358">
        <ele>32</ele>
        <time>2020-01-29T16:09:16Z</time>
      </trkpt>
      <trkpt lat="59.197743" lon="18.142418">
        <ele>32</ele>
        <time>2020-01-29T16:09:17Z</time>
      </trkpt>
      <trkpt lat="59.19782" lon="18.142473">
        <ele>31</ele>
        <time>2020-01-29T16:09:18Z</time>
      </trkpt>
      <trkpt lat="59.197894" lon="18.142531">
        <ele>31</ele>
        <time>2020-01-29T16:09:19Z</time>
      </trkpt>
      <trkpt lat="59.197966" lon="18.142585">
        <ele>0</ele>
        <time>2020-01-29T16:09:19Z</time>
      </trkpt>
      <trkpt lat="59.198036" lon="18.142638">
        <ele>30</ele>
        <time>2020-01-29T16:09:20Z</time>
      </trkpt>
      <trkpt lat="59.198106" lon="18.142689">
        <ele>29</ele>
        <time>2020-01-29T16:09:22Z</time>
      </trkpt>
      <trkpt lat="59.198174" lon="18.142739">
        <ele>29</ele>
        <time>2020-01-29T16:09:23Z</time>
      </trkpt>
      <trkpt lat="59.198241" lon="18.142788">
        <ele>29</ele>
        <time>2020-01-29T16:09:24Z</time>
      </trkpt>
      <trkpt lat="59.198306" lon="18.142833">
        <ele>29</ele>
        <time>2020-01-29T16:09:25Z</time>
      </trkpt>
      <trkpt lat="59.198371" lon="18.142879">
        <ele>28</ele>
        <time>2020-01-29T16:09:26Z</time>
      </trkpt>
      <trkpt lat="59.198435" lon="18.142923">
        <ele>0</ele>
        <time>2020-01-29T16:09:26Z</time>
      </trkpt>
      <trkpt lat="59.198499" lon="18.142959">
        <ele>28</ele>
        <time>2020-01-29T16:09:27Z</time>
      </trkpt>
      <trkpt lat="59.198563" lon="18.142986">
        <ele>27</ele>
        <time>2020-01-29T16:09:29Z</time>
      </trkpt>
      <trkpt lat="59.198627" lon="18.143005">
        <ele>27</ele>
        <time>2020-01-29T16:09:30Z</time>
      </trkpt>
      <trkpt lat="59.198688" lon="18.14302">
        <ele>26</ele>
        <time>2020-01-29T16:09:31Z</time>
      </trkpt>
      <trkpt lat="59.198751" lon="18.143029">
        <ele>26</ele>
        <time>2020-01-29T16:09:32Z</time>
      </trkpt>
      <trkpt lat="59.198813" lon="18.143037">
        <ele>26</ele>
        <time>2020-01-29T16:09:33Z</time>
      </trkpt>
      <trkpt lat="59.198876" lon="18.143043">
        <ele>25</ele>
        <time>2020-01-29T16:09:34Z</time>
      </trkpt>
      <trkpt lat="59.198938" lon="18.143046">
        <ele>0</ele>
        <time>2020-01-29T16:09:34Z</time>
      </trkpt>
      <trkpt lat="59.199001" lon="18.14305">
        <ele>25</ele>
        <time>2020-01-29T16:09:35Z</time>
      </trkpt>
      <trkpt lat="59.199064" lon="18.143056">
        <ele>25</ele>
        <time>2020-01-29T16:09:37Z</time>
      </trkpt>
      <trkpt lat="59.199128" lon="18.143064">
        <ele>25</ele>
        <time>2020-01-29T16:09:38Z</time>
      </trkpt>
      <trkpt lat="59.199192" lon="18.143071">
        <ele>25</ele>
        <time>2020-01-29T16:09:39Z</time>
      </trkpt>
      <trkpt lat="59.199256" lon="18.143074">
        <ele>24</ele>
        <time>2020-01-29T16:09:40Z</time>
      </trkpt>
      <trkpt lat="59.199319" lon="18.143075">
        <ele>24</ele>
        <time>2020-01-29T16:09:41Z</time>
      </trkpt>
      <trkpt lat="59.199383" lon="18.143069">
        <ele>24</ele>
        <time>2020-01-29T16:09:42Z</time>
      </trkpt>
      <trkpt lat="59.199445" lon="18.14305">
        <ele>0</ele>
        <time>2020-01-29T16:09:42Z</time>
      </trkpt>
      <trkpt lat="59.199507" lon="18.143018">
        <ele>24</ele>
        <time>2020-01-29T16:09:43Z</time>
      </trkpt>
      <trkpt lat="59.199566" lon="18.142969">
        <ele>24</ele>
        <time>2020-01-29T16:09:45Z</time>
      </trkpt>
      <trkpt lat="59.199617" lon="18.142895">
        <ele>23</ele>
        <time>2020-01-29T16:09:46Z</time>
      </trkpt>
      <trkpt lat="59.199656" lon="18.142802">
        <ele>23</ele>
        <time>2020-01-29T16:09:47Z</time>
      </trkpt>
      <trkpt lat="59.19969" lon="18.142704">
        <ele>23</ele>
        <time>2020-01-29T16:09:48Z</time>
      </trkpt>
      <trkpt lat="59.199723" lon="18.142611">
        <ele>23</ele>
        <time>2020-01-29T16:09:49Z</time>
      </trkpt>
      <trkpt lat="59.199753" lon="18.142518">
        <ele>23</ele>
        <time>2020-01-29T16:09:50Z</time>
      </trkpt>
      <trkpt lat="59.199781" lon="18.142429">
        <ele>23</ele>
        <time>2020-01-29T16:09:51Z</time>
      </trkpt>
      <trkpt lat="59.199808" lon="18.142349">
        <ele>0</ele>
        <time>2020-01-29T16:09:51Z</time>
      </trkpt>
      <trkpt lat="59.199849" lon="18.142275">
        <ele>23</ele>
        <time>2020-01-29T16:09:52Z</time>
      </trkpt>
      <trkpt lat="59.199894" lon="18.14221">
        <ele>24</ele>
        <time>2020-01-29T16:09:54Z</time>
      </trkpt>
      <trkpt lat="59.199941" lon="18.142149">
        <ele>24</ele>
        <time>2020-01-29T16:09:55Z</time>
      </trkpt>
      <trkpt lat="59.199988" lon="18.142096">
        <ele>24</ele>
        <time>2020-01-29T16:09:56Z</time>
      </trkpt>
      <trkpt lat="59.200032" lon="18.142045">
        <ele>24</ele>
        <time>2020-01-29T16:09:57Z</time>
      </trkpt>
      <trkpt lat="59.200075" lon="18.141996">
        <ele>25</ele>
        <time>2020-01-29T16:09:58Z</time>
      </trkpt>
      <trkpt lat="59.200114" lon="18.141949">
        <ele>25</ele>
        <time>2020-01-29T16:09:59Z</time>
      </trkpt>
      <trkpt lat="59.200152" lon="18.141905">
        <ele>25</ele>
        <time>2020-01-29T16:10:00Z</time>
      </trkpt>
      <trkpt lat="59.200188" lon="18.141863">
        <ele>25</ele>
        <time>2020-01-29T16:10:01Z</time>
      </trkpt>
      <trkpt lat="59.200225" lon="18.141823">
        <ele>25</ele>
        <time>2020-01-29T16:10:01Z</time>
      </trkpt>
      <trkpt lat="59.200261" lon="18.141786">
        <ele>25</ele>
        <time>2020-01-29T16:10:02Z</time>
      </trkpt>
      <trkpt lat="59.200298" lon="18.141751">
        <ele>26</ele>
        <time>2020-01-29T16:10:04Z</time>
      </trkpt>
      <trkpt lat="59.200335" lon="18.141716">
        <ele>26</ele>
        <time>2020-01-29T16:10:05Z</time>
      </trkpt>
      <trkpt lat="59.200371" lon="18.141684">
        <ele>26</ele>
        <time>2020-01-29T16:10:06Z</time>
      </trkpt>
      <trkpt lat="59.200409" lon="18.14165">
        <ele>26</ele>
        <time>2020-01-29T16:10:07Z</time>
      </trkpt>
      <trkpt lat="59.200445" lon="18.141612">
        <ele>26</ele>
        <time>2020-01-29T16:10:08Z</time>
      </trkpt>
      <trkpt lat="59.200481" lon="18.141576">
        <ele>27</ele>
        <time>2020-01-29T16:10:09Z</time>
      </trkpt>
      <trkpt lat="59.200517" lon="18.141538">
        <ele>27</ele>
        <time>2020-01-29T16:10:10Z</time>
      </trkpt>
      <trkpt lat="59.200551" lon="18.141498">
        <ele>27</ele>
        <time>2020-01-29T16:10:11Z</time>
      </trkpt>
      <trkpt lat="59.200585" lon="18.141457">
        <ele>27</ele>
        <time>2020-01-29T16:10:12Z</time>
      </trkpt>
      <trkpt lat="59.200619" lon="18.141422">
        <ele>28</ele>
        <time>2020-01-29T16:10:13Z</time>
      </trkpt>
      <trkpt lat="59.200655" lon="18.141396">
        <ele>28</ele>
        <time>2020-01-29T16:10:14Z</time>
      </trkpt>
      <trkpt lat="59.200691" lon="18.141376">
        <ele>28</ele>
        <time>2020-01-29T16:10:15Z</time>
      </trkpt>
      <trkpt lat="59.200727" lon="18.141366">
        <ele>28</ele>
        <time>2020-01-29T16:10:16Z</time>
      </trkpt>
      <trkpt lat="59.200764" lon="18.141367">
        <ele>28</ele>
        <time>2020-01-29T16:10:17Z</time>
      </trkpt>
      <trkpt lat="59.200801" lon="18.14138">
        <ele>28</ele>
        <time>2020-01-29T16:10:18Z</time>
      </trkpt>
      <trkpt lat="59.200836" lon="18.141396">
        <ele>28</ele>
        <time>2020-01-29T16:10:19Z</time>
      </trkpt>
      <trkpt lat="59.200868" lon="18.141414">
        <ele>28</ele>
        <time>2020-01-29T16:10:20Z</time>
      </trkpt>
      <trkpt lat="59.200897" lon="18.141436">
        <ele>29</ele>
        <time>2020-01-29T16:10:21Z</time>
      </trkpt>
      <trkpt lat="59.200927" lon="18.141462">
        <ele>29</ele>
        <time>2020-01-29T16:10:22Z</time>
      </trkpt>
      <trkpt lat="59.200956" lon="18.14149">
        <ele>29</ele>
        <time>2020-01-29T16:10:23Z</time>
      </trkpt>
      <trkpt lat="59.200989" lon="18.141516">
        <ele>29</ele>
        <time>2020-01-29T16:10:24Z</time>
      </trkpt>
      <trkpt lat="59.201025" lon="18.141544">
        <ele>29</ele>
        <time>2020-01-29T16:10:25Z</time>
      </trkpt>
      <trkpt lat="59.201061" lon="18.141571">
        <ele>29</ele>
        <time>2020-01-29T16:10:26Z</time>
      </trkpt>
      <trkpt lat="59.201095" lon="18.141599">
        <ele>29</ele>
        <time>2020-01-29T16:10:27Z</time>
      </trkpt>
      <trkpt lat="59.20113" lon="18.141626">
        <ele>0</ele>
        <time>2020-01-29T16:10:27Z</time>
      </trkpt>
      <trkpt lat="59.201165" lon="18.141657">
        <ele>29</ele>
        <time>2020-01-29T16:10:28Z</time>
      </trkpt>
      <trkpt lat="59.201199" lon="18.141688">
        <ele>30</ele>
        <time>2020-01-29T16:10:30Z</time>
      </trkpt>
      <trkpt lat="59.201233" lon="18.141723">
        <ele>30</ele>
        <time>2020-01-29T16:10:31Z</time>
      </trkpt>
      <trkpt lat="59.201269" lon="18.141756">
        <ele>30</ele>
        <time>2020-01-29T16:10:32Z</time>
      </trkpt>
      <trkpt lat="59.201305" lon="18.141789">
        <ele>30</ele>
        <time>2020-01-29T16:10:33Z</time>
      </trkpt>
      <trkpt lat="59.201342" lon="18.141818">
        <ele>30</ele>
        <time>2020-01-29T16:10:34Z</time>
      </trkpt>
      <trkpt lat="59.201378" lon="18.141846">
        <ele>0</ele>
        <time>2020-01-29T16:10:34Z</time>
      </trkpt>
      <trkpt lat="59.201414" lon="18.14187">
        <ele>30</ele>
        <time>2020-01-29T16:10:35Z</time>
      </trkpt>
      <trkpt lat="59.20145" lon="18.141892">
        <ele>30</ele>
        <time>2020-01-29T16:10:37Z</time>
      </trkpt>
      <trkpt lat="59.201487" lon="18.14191">
        <ele>30</ele>
        <time>2020-01-29T16:10:38Z</time>
      </trkpt>
      <trkpt lat="59.201526" lon="18.141932">
        <ele>31</ele>
        <time>2020-01-29T16:10:39Z</time>
      </trkpt>
      <trkpt lat="59.201567" lon="18.141952">
        <ele>31</ele>
        <time>2020-01-29T16:10:40Z</time>
      </trkpt>
      <trkpt lat="59.201608" lon="18.141978">
        <ele>0</ele>
        <time>2020-01-29T16:10:40Z</time>
      </trkpt>
      <trkpt lat="59.201648" lon="18.142002">
        <ele>31</ele>
        <time>2020-01-29T16:10:41Z</time>
      </trkpt>
      <trkpt lat="59.20169" lon="18.142022">
        <ele>31</ele>
        <time>2020-01-29T16:10:43Z</time>
      </trkpt>
      <trkpt lat="59.201731" lon="18.142041">
        <ele>31</ele>
        <time>2020-01-29T16:10:44Z</time>
      </trkpt>
      <trkpt lat="59.201772" lon="18.14206">
        <ele>31</ele>
        <time>2020-01-29T16:10:45Z</time>
      </trkpt>
      <trkpt lat="59.201814" lon="18.142079">
        <ele>31</ele>
        <time>2020-01-29T16:10:46Z</time>
      </trkpt>
      <trkpt lat="59.201855" lon="18.142098">
        <ele>31</ele>
        <time>2020-01-29T16:10:47Z</time>
      </trkpt>
      <trkpt lat="59.201897" lon="18.142118">
        <ele>31</ele>
        <time>2020-01-29T16:10:48Z</time>
      </trkpt>
      <trkpt lat="59.201937" lon="18.142139">
        <ele>31</ele>
        <time>2020-01-29T16:10:49Z</time>
      </trkpt>
      <trkpt lat="59.201977" lon="18.14216">
        <ele>31</ele>
        <time>2020-01-29T16:10:50Z</time>
      </trkpt>
      <trkpt lat="59.202017" lon="18.142181">
        <ele>31</ele>
        <time>2020-01-29T16:10:51Z</time>
      </trkpt>
      <trkpt lat="59.202057" lon="18.1422">
        <ele>32</ele>
        <time>2020-01-29T16:10:52Z</time>
      </trkpt>
      <trkpt lat="59.202096" lon="18.142221">
        <ele>32</ele>
        <time>2020-01-29T16:10:53Z</time>
      </trkpt>
      <trkpt lat="59.202134" lon="18.142238">
        <ele>0</ele>
        <time>2020-01-29T16:10:53Z</time>
      </trkpt>
      <trkpt lat="59.202173" lon="18.142254">
        <ele>32</ele>
        <time>2020-01-29T16:10:54Z</time>
      </trkpt>
      <trkpt lat="59.202211" lon="18.142268">
        <ele>32</ele>
        <time>2020-01-29T16:10:56Z</time>
      </trkpt>
      <trkpt lat="59.202249" lon="18.142282">
        <ele>32</ele>
        <time>2020-01-29T16:10:57Z</time>
      </trkpt>
      <trkpt lat="59.202283" lon="18.142293">
        <ele>32</ele>
        <time>2020-01-29T16:10:58Z</time>
      </trkpt>
      <trkpt lat="59.202315" lon="18.142304">
        <ele>32</ele>
        <time>2020-01-29T16:10:59Z</time>
      </trkpt>
      <trkpt lat="59.202347" lon="18.142313">
        <ele>32</ele>
        <time>2020-01-29T16:11:00Z</time>
      </trkpt>
      <trkpt lat="59.202383" lon="18.142316">
        <ele>33</ele>
        <time>2020-01-29T16:11:01Z</time>
      </trkpt>
      <trkpt lat="59.202421" lon="18.142312">
        <ele>33</ele>
        <time>2020-01-29T16:11:02Z</time>
      </trkpt>
      <trkpt lat="59.202459" lon="18.142303">
        <ele>33</ele>
        <time>2020-01-29T16:11:03Z</time>
      </trkpt>
      <trkpt lat="59.202494" lon="18.142293">
        <ele>33</ele>
        <time>2020-01-29T16:11:04Z</time>
      </trkpt>
      <trkpt lat="59.202528" lon="18.142286">
        <ele>33</ele>
        <time>2020-01-29T16:11:05Z</time>
      </trkpt>
      <trkpt lat="59.202565" lon="18.142281">
        <ele>0</ele>
        <time>2020-01-29T16:11:05Z</time>
      </trkpt>
      <trkpt lat="59.202599" lon="18.142277">
        <ele>33</ele>
        <time>2020-01-29T16:11:06Z</time>
      </trkpt>
      <trkpt lat="59.202636" lon="18.142272">
        <ele>33</ele>
        <time>2020-01-29T16:11:08Z</time>
      </trkpt>
      <trkpt lat="59.202676" lon="18.142268">
        <ele>34</ele>
        <time>2020-01-29T16:11:09Z</time>
      </trkpt>
      <trkpt lat="59.202715" lon="18.142266">
        <ele>34</ele>
        <time>2020-01-29T16:11:10Z</time>
      </trkpt>
      <trkpt lat="59.202755" lon="18.142267">
        <ele>34</ele>
        <time>2020-01-29T16:11:11Z</time>
      </trkpt>
      <trkpt lat="59.202795" lon="18.142269">
        <ele>34</ele>
        <time>2020-01-29T16:11:12Z</time>
      </trkpt>
      <trkpt lat="59.202836" lon="18.142269">
        <ele>0</ele>
        <time>2020-01-29T16:11:12Z</time>
      </trkpt>
      <trkpt lat="59.202878" lon="18.142272">
        <ele>34</ele>
        <time>2020-01-29T16:11:13Z</time>
      </trkpt>
      <trkpt lat="59.20292" lon="18.142275">
        <ele>34</ele>
        <time>2020-01-29T16:11:15Z</time>
      </trkpt>
      <trkpt lat="59.20296" lon="18.142279">
        <ele>34</ele>
        <time>2020-01-29T16:11:16Z</time>
      </trkpt>
      <trkpt lat="59.202999" lon="18.142284">
        <ele>35</ele>
        <time>2020-01-29T16:11:17Z</time>
      </trkpt>
      <trkpt lat="59.203035" lon="18.142292">
        <ele>35</ele>
        <time>2020-01-29T16:11:18Z</time>
      </trkpt>
      <trkpt lat="59.20307" lon="18.1423">
        <ele>0</ele>
        <time>2020-01-29T16:11:18Z</time>
      </trkpt>
      <trkpt lat="59.203106" lon="18.142304">
        <ele>35</ele>
        <time>2020-01-29T16:11:19Z</time>
      </trkpt>
      <trkpt lat="59.203142" lon="18.142307">
        <ele>35</ele>
        <time>2020-01-29T16:11:21Z</time>
      </trkpt>
      <trkpt lat="59.203178" lon="18.142311">
        <ele>35</ele>
        <time>2020-01-29T16:11:22Z</time>
      </trkpt>
      <trkpt lat="59.203213" lon="18.142314">
        <ele>35</ele>
        <time>2020-01-29T16:11:23Z</time>
      </trkpt>
      <trkpt lat="59.203248" lon="18.142315">
        <ele>35</ele>
        <time>2020-01-29T16:11:24Z</time>
      </trkpt>
      <trkpt lat="59.203281" lon="18.142318">
        <ele>36</ele>
        <time>2020-01-29T16:11:25Z</time>
      </trkpt>
      <trkpt lat="59.203315" lon="18.142321">
        <ele>36</ele>
        <time>2020-01-29T16:11:26Z</time>
      </trkpt>
      <trkpt lat="59.203348" lon="18.142324">
        <ele>36</ele>
        <time>2020-01-29T16:11:27Z</time>
      </trkpt>
      <trkpt lat="59.20338" lon="18.142325">
        <ele>36</ele>
        <time>2020-01-29T16:11:28Z</time>
      </trkpt>
      <trkpt lat="59.203411" lon="18.142326">
        <ele>36</ele>
        <time>2020-01-29T16:11:29Z</time>
      </trkpt>
      <trkpt lat="59.203442" lon="18.142326">
        <ele>37</ele>
        <time>2020-01-29T16:11:30Z</time>
      </trkpt>
      <trkpt lat="59.203475" lon="18.142326">
        <ele>37</ele>
        <time>2020-01-29T16:11:31Z</time>
      </trkpt>
      <trkpt lat="59.20351" lon="18.142324">
        <ele>37</ele>
        <time>2020-01-29T16:11:32Z</time>
      </trkpt>
      <trkpt lat="59.203546" lon="18.14232">
        <ele>37</ele>
        <time>2020-01-29T16:11:33Z</time>
      </trkpt>
      <trkpt lat="59.203581" lon="18.142314">
        <ele>37</ele>
        <time>2020-01-29T16:11:34Z</time>
      </trkpt>
      <trkpt lat="59.203614" lon="18.142306">
        <ele>37</ele>
        <time>2020-01-29T16:11:35Z</time>
      </trkpt>
      <trkpt lat="59.20365" lon="18.142299">
        <ele>37</ele>
        <time>2020-01-29T16:11:36Z</time>
      </trkpt>
      <trkpt lat="59.203688" lon="18.142296">
        <ele>37</ele>
        <time>2020-01-29T16:11:37Z</time>
      </trkpt>
      <trkpt lat="59.203725" lon="18.142292">
        <ele>37</ele>
        <time>2020-01-29T16:11:38Z</time>
      </trkpt>
      <trkpt lat="59.203764" lon="18.142284">
        <ele>37</ele>
        <time>2020-01-29T16:11:39Z</time>
      </trkpt>
      <trkpt lat="59.203802" lon="18.142274">
        <ele>37</ele>
        <time>2020-01-29T16:11:40Z</time>
      </trkpt>
      <trkpt lat="59.20384" lon="18.142262">
        <ele>37</ele>
        <time>2020-01-29T16:11:41Z</time>
      </trkpt>
      <trkpt lat="59.203878" lon="18.142248">
        <ele>37</ele>
        <time>2020-01-29T16:11:42Z</time>
      </trkpt>
      <trkpt lat="59.203916" lon="18.142235">
        <ele>37</ele>
        <time>2020-01-29T16:11:43Z</time>
      </trkpt>
      <trkpt lat="59.203954" lon="18.142224">
        <ele>37</ele>
        <time>2020-01-29T16:11:44Z</time>
      </trkpt>
      <trkpt lat="59.203991" lon="18.142211">
        <ele>37</ele>
        <time>2020-01-29T16:11:45Z</time>
      </trkpt>
      <trkpt lat="59.204027" lon="18.142199">
        <ele>37</ele>
        <time>2020-01-29T16:11:46Z</time>
      </trkpt>
      <trkpt lat="59.204062" lon="18.142187">
        <ele>0</ele>
        <time>2020-01-29T16:11:46Z</time>
      </trkpt>
      <trkpt lat="59.204097" lon="18.142174">
        <ele>37</ele>
        <time>2020-01-29T16:11:47Z</time>
      </trkpt>
      <trkpt lat="59.204131" lon="18.142161">
        <ele>37</ele>
        <time>2020-01-29T16:11:49Z</time>
      </trkpt>
      <trkpt lat="59.204165" lon="18.142147">
        <ele>37</ele>
        <time>2020-01-29T16:11:50Z</time>
      </trkpt>
      <trkpt lat="59.2042" lon="18.142135">
        <ele>0</ele>
        <time>2020-01-29T16:11:50Z</time>
      </trkpt>
      <trkpt lat="59.204235" lon="18.142124">
        <ele>37</ele>
        <time>2020-01-29T16:11:51Z</time>
      </trkpt>
      <trkpt lat="59.204268" lon="18.142111">
        <ele>37</ele>
        <time>2020-01-29T16:11:53Z</time>
      </trkpt>
      <trkpt lat="59.2043" lon="18.1421">
        <ele>37</ele>
        <time>2020-01-29T16:11:54Z</time>
      </trkpt>
      <trkpt lat="59.204331" lon="18.142087">
        <ele>37</ele>
        <time>2020-01-29T16:11:55Z</time>
      </trkpt>
      <trkpt lat="59.204362" lon="18.142074">
        <ele>37</ele>
        <time>2020-01-29T16:11:56Z</time>
      </trkpt>
      <trkpt lat="59.204391" lon="18.142062">
        <ele>37</ele>
        <time>2020-01-29T16:11:57Z</time>
      </trkpt>
      <trkpt lat="59.204419" lon="18.142053">
        <ele>37</ele>
        <time>2020-01-29T16:11:58Z</time>
      </trkpt>
      <trkpt lat="59.204438" lon="18.142045">
        <ele>37</ele>
        <time>2020-01-29T16:11:59Z</time>
      </trkpt>
      <trkpt lat="59.204447" lon="18.142041">
        <ele>36</ele>
        <time>2020-01-29T16:12:04Z</time>
      </trkpt>
      <trkpt lat="59.204517" lon="18.142003">
        <ele>37</ele>
        <time>2020-01-29T16:12:11Z</time>
      </trkpt>
      <trkpt lat="59.204542" lon="18.141992">
        <ele>38</ele>
        <time>2020-01-29T16:12:13Z</time>
      </trkpt>
      <trkpt lat="59.204568" lon="18.141979">
        <ele>38</ele>
        <time>2020-01-29T16:12:14Z</time>
      </trkpt>
      <trkpt lat="59.204597" lon="18.141963">
        <ele>38</ele>
        <time>2020-01-29T16:12:15Z</time>
      </trkpt>
      <trkpt lat="59.204628" lon="18.141946">
        <ele>38</ele>
        <time>2020-01-29T16:12:16Z</time>
      </trkpt>
      <trkpt lat="59.204657" lon="18.141932">
        <ele>38</ele>
        <time>2020-01-29T16:12:17Z</time>
      </trkpt>
      <trkpt lat="59.20469" lon="18.141916">
        <ele>38</ele>
        <time>2020-01-29T16:12:18Z</time>
      </trkpt>
      <trkpt lat="59.20472" lon="18.141902">
        <ele>38</ele>
        <time>2020-01-29T16:12:19Z</time>
      </trkpt>
      <trkpt lat="59.204754" lon="18.141884">
        <ele>38</ele>
        <time>2020-01-29T16:12:20Z</time>
      </trkpt>
      <trkpt lat="59.20479" lon="18.141861">
        <ele>38</ele>
        <time>2020-01-29T16:12:21Z</time>
      </trkpt>
      <trkpt lat="59.204829" lon="18.141837">
        <ele>38</ele>
        <time>2020-01-29T16:12:22Z</time>
      </trkpt>
      <trkpt lat="59.20487" lon="18.141813">
        <ele>38</ele>
        <time>2020-01-29T16:12:23Z</time>
      </trkpt>
      <trkpt lat="59.204914" lon="18.141785">
        <ele>38</ele>
        <time>2020-01-29T16:12:24Z</time>
      </trkpt>
      <trkpt lat="59.204961" lon="18.141753">
        <ele>38</ele>
        <time>2020-01-29T16:12:25Z</time>
      </trkpt>
      <trkpt lat="59.205006" lon="18.141721">
        <ele>38</ele>
        <time>2020-01-29T16:12:26Z</time>
      </trkpt>
      <trkpt lat="59.205048" lon="18.141689">
        <ele>38</ele>
        <time>2020-01-29T16:12:27Z</time>
      </trkpt>
      <trkpt lat="59.205091" lon="18.141657">
        <ele>38</ele>
        <time>2020-01-29T16:12:28Z</time>
      </trkpt>
      <trkpt lat="59.205132" lon="18.141624">
        <ele>38</ele>
        <time>2020-01-29T16:12:29Z</time>
      </trkpt>
      <trkpt lat="59.205174" lon="18.14159">
        <ele>38</ele>
        <time>2020-01-29T16:12:30Z</time>
      </trkpt>
      <trkpt lat="59.205214" lon="18.141558">
        <ele>38</ele>
        <time>2020-01-29T16:12:31Z</time>
      </trkpt>
      <trkpt lat="59.205256" lon="18.141526">
        <ele>38</ele>
        <time>2020-01-29T16:12:32Z</time>
      </trkpt>
      <trkpt lat="59.205296" lon="18.141492">
        <ele>39</ele>
        <time>2020-01-29T16:12:33Z</time>
      </trkpt>
      <trkpt lat="59.205338" lon="18.141455">
        <ele>39</ele>
        <time>2020-01-29T16:12:34Z</time>
      </trkpt>
      <trkpt lat="59.205374" lon="18.14142">
        <ele>39</ele>
        <time>2020-01-29T16:12:35Z</time>
      </trkpt>
      <trkpt lat="59.205411" lon="18.141388">
        <ele>39</ele>
        <time>2020-01-29T16:12:36Z</time>
      </trkpt>
      <trkpt lat="59.205453" lon="18.141355">
        <ele>39</ele>
        <time>2020-01-29T16:12:37Z</time>
      </trkpt>
      <trkpt lat="59.205494" lon="18.141323">
        <ele>39</ele>
        <time>2020-01-29T16:12:38Z</time>
      </trkpt>
      <trkpt lat="59.205538" lon="18.141288">
        <ele>39</ele>
        <time>2020-01-29T16:12:39Z</time>
      </trkpt>
      <trkpt lat="59.205585" lon="18.141248">
        <ele>0</ele>
        <time>2020-01-29T16:12:39Z</time>
      </trkpt>
      <trkpt lat="59.205636" lon="18.141202">
        <ele>40</ele>
        <time>2020-01-29T16:12:40Z</time>
      </trkpt>
      <trkpt lat="59.205688" lon="18.141158">
        <ele>40</ele>
        <time>2020-01-29T16:12:42Z</time>
      </trkpt>
      <trkpt lat="59.205737" lon="18.141118">
        <ele>40</ele>
        <time>2020-01-29T16:12:43Z</time>
      </trkpt>
      <trkpt lat="59.205786" lon="18.141078">
        <ele>40</ele>
        <time>2020-01-29T16:12:44Z</time>
      </trkpt>
      <trkpt lat="59.205836" lon="18.141038">
        <ele>40</ele>
        <time>2020-01-29T16:12:45Z</time>
      </trkpt>
      <trkpt lat="59.205887" lon="18.141004">
        <ele>40</ele>
        <time>2020-01-29T16:12:46Z</time>
      </trkpt>
      <trkpt lat="59.205938" lon="18.140976">
        <ele>40</ele>
        <time>2020-01-29T16:12:47Z</time>
      </trkpt>
      <trkpt lat="59.20599" lon="18.14095">
        <ele>40</ele>
        <time>2020-01-29T16:12:48Z</time>
      </trkpt>
      <trkpt lat="59.206045" lon="18.140926">
        <ele>0</ele>
        <time>2020-01-29T16:12:48Z</time>
      </trkpt>
      <trkpt lat="59.206098" lon="18.14091">
        <ele>40</ele>
        <time>2020-01-29T16:12:49Z</time>
      </trkpt>
      <trkpt lat="59.20619" lon="18.140847">
        <ele>40</ele>
        <time>2020-01-29T16:12:52Z</time>
      </trkpt>
      <trkpt lat="59.206216" lon="18.140784">
        <ele>40</ele>
        <time>2020-01-29T16:12:53Z</time>
      </trkpt>
      <trkpt lat="59.206233" lon="18.140709">
        <ele>40</ele>
        <time>2020-01-29T16:12:54Z</time>
      </trkpt>
      <trkpt lat="59.206247" lon="18.140635">
        <ele>40</ele>
        <time>2020-01-29T16:12:55Z</time>
      </trkpt>
      <trkpt lat="59.206269" lon="18.140567">
        <ele>40</ele>
        <time>2020-01-29T16:12:56Z</time>
      </trkpt>
      <trkpt lat="59.206298" lon="18.140514">
        <ele>40</ele>
        <time>2020-01-29T16:12:57Z</time>
      </trkpt>
      <trkpt lat="59.206334" lon="18.140469">
        <ele>40</ele>
        <time>2020-01-29T16:12:58Z</time>
      </trkpt>
      <trkpt lat="59.206376" lon="18.140437">
        <ele>40</ele>
        <time>2020-01-29T16:12:59Z</time>
      </trkpt>
      <trkpt lat="59.206421" lon="18.140416">
        <ele>0</ele>
        <time>2020-01-29T16:12:59Z</time>
      </trkpt>
      <trkpt lat="59.206468" lon="18.140399">
        <ele>40</ele>
        <time>2020-01-29T16:13:00Z</time>
      </trkpt>
      <trkpt lat="59.206514" lon="18.140388">
        <ele>41</ele>
        <time>2020-01-29T16:13:02Z</time>
      </trkpt>
      <trkpt lat="59.206558" lon="18.140382">
        <ele>41</ele>
        <time>2020-01-29T16:13:03Z</time>
      </trkpt>
      <trkpt lat="59.206601" lon="18.140381">
        <ele>41</ele>
        <time>2020-01-29T16:13:04Z</time>
      </trkpt>
      <trkpt lat="59.206643" lon="18.140383">
        <ele>41</ele>
        <time>2020-01-29T16:13:05Z</time>
      </trkpt>
      <trkpt lat="59.206684" lon="18.140388">
        <ele>41</ele>
        <time>2020-01-29T16:13:06Z</time>
      </trkpt>
      <trkpt lat="59.206724" lon="18.140392">
        <ele>41</ele>
        <time>2020-01-29T16:13:07Z</time>
      </trkpt>
      <trkpt lat="59.206764" lon="18.140398">
        <ele>0</ele>
        <time>2020-01-29T16:13:07Z</time>
      </trkpt>
      <trkpt lat="59.206806" lon="18.140407">
        <ele>41</ele>
        <time>2020-01-29T16:13:08Z</time>
      </trkpt>
      <trkpt lat="59.206849" lon="18.140419">
        <ele>41</ele>
        <time>2020-01-29T16:13:10Z</time>
      </trkpt>
      <trkpt lat="59.206893" lon="18.140431">
        <ele>41</ele>
        <time>2020-01-29T16:13:11Z</time>
      </trkpt>
      <trkpt lat="59.20694" lon="18.140442">
        <ele>0</ele>
        <time>2020-01-29T16:13:11Z</time>
      </trkpt>
      <trkpt lat="59.206987" lon="18.140454">
        <ele>42</ele>
        <time>2020-01-29T16:13:12Z</time>
      </trkpt>
      <trkpt lat="59.207039" lon="18.140466">
        <ele>42</ele>
        <time>2020-01-29T16:13:14Z</time>
      </trkpt>
      <trkpt lat="59.207082" lon="18.140481">
        <ele>42</ele>
        <time>2020-01-29T16:13:15Z</time>
      </trkpt>
      <trkpt lat="59.207121" lon="18.1405">
        <ele>42</ele>
        <time>2020-01-29T16:13:16Z</time>
      </trkpt>
      <trkpt lat="59.207158" lon="18.140518">
        <ele>42</ele>
        <time>2020-01-29T16:13:17Z</time>
      </trkpt>
      <trkpt lat="59.207193" lon="18.140539">
        <ele>43</ele>
        <time>2020-01-29T16:13:18Z</time>
      </trkpt>
      <trkpt lat="59.20723" lon="18.14056">
        <ele>43</ele>
        <time>2020-01-29T16:13:19Z</time>
      </trkpt>
      <trkpt lat="59.207267" lon="18.140583">
        <ele>43</ele>
        <time>2020-01-29T16:13:20Z</time>
      </trkpt>
      <trkpt lat="59.207308" lon="18.140608">
        <ele>43</ele>
        <time>2020-01-29T16:13:21Z</time>
      </trkpt>
      <trkpt lat="59.20735" lon="18.140623">
        <ele>43</ele>
        <time>2020-01-29T16:13:22Z</time>
      </trkpt>
      <trkpt lat="59.2074" lon="18.140637">
        <ele>43</ele>
        <time>2020-01-29T16:13:23Z</time>
      </trkpt>
      <trkpt lat="59.207448" lon="18.140653">
        <ele>43</ele>
        <time>2020-01-29T16:13:24Z</time>
      </trkpt>
      <trkpt lat="59.207497" lon="18.14068">
        <ele>43</ele>
        <time>2020-01-29T16:13:25Z</time>
      </trkpt>
      <trkpt lat="59.20754" lon="18.140709">
        <ele>44</ele>
        <time>2020-01-29T16:13:26Z</time>
      </trkpt>
      <trkpt lat="59.207581" lon="18.140746">
        <ele>0</ele>
        <time>2020-01-29T16:13:26Z</time>
      </trkpt>
      <trkpt lat="59.20762" lon="18.140783">
        <ele>44</ele>
        <time>2020-01-29T16:13:27Z</time>
      </trkpt>
      <trkpt lat="59.207658" lon="18.140823">
        <ele>44</ele>
        <time>2020-01-29T16:13:29Z</time>
      </trkpt>
      <trkpt lat="59.2077" lon="18.140869">
        <ele>44</ele>
        <time>2020-01-29T16:13:30Z</time>
      </trkpt>
      <trkpt lat="59.207738" lon="18.140911">
        <ele>44</ele>
        <time>2020-01-29T16:13:31Z</time>
      </trkpt>
      <trkpt lat="59.207775" lon="18.140955">
        <ele>44</ele>
        <time>2020-01-29T16:13:32Z</time>
      </trkpt>
      <trkpt lat="59.207816" lon="18.141004">
        <ele>44</ele>
        <time>2020-01-29T16:13:33Z</time>
      </trkpt>
      <trkpt lat="59.207856" lon="18.141054">
        <ele>0</ele>
        <time>2020-01-29T16:13:33Z</time>
      </trkpt>
      <trkpt lat="59.207897" lon="18.141101">
        <ele>45</ele>
        <time>2020-01-29T16:13:34Z</time>
      </trkpt>
      <trkpt lat="59.207939" lon="18.141148">
        <ele>45</ele>
        <time>2020-01-29T16:13:36Z</time>
      </trkpt>
      <trkpt lat="59.207979" lon="18.1412">
        <ele>45</ele>
        <time>2020-01-29T16:13:37Z</time>
      </trkpt>
      <trkpt lat="59.208021" lon="18.14125">
        <ele>45</ele>
        <time>2020-01-29T16:13:38Z</time>
      </trkpt>
      <trkpt lat="59.208057" lon="18.141299">
        <ele>46</ele>
        <time>2020-01-29T16:13:39Z</time>
      </trkpt>
      <trkpt lat="59.208096" lon="18.141348">
        <ele>46</ele>
        <time>2020-01-29T16:13:40Z</time>
      </trkpt>
      <trkpt lat="59.20813" lon="18.141401">
        <ele>46</ele>
        <time>2020-01-29T16:13:41Z</time>
      </trkpt>
      <trkpt lat="59.208163" lon="18.141446">
        <ele>46</ele>
        <time>2020-01-29T16:13:42Z</time>
      </trkpt>
      <trkpt lat="59.208197" lon="18.141488">
        <ele>46</ele>
        <time>2020-01-29T16:13:43Z</time>
      </trkpt>
      <trkpt lat="59.208229" lon="18.141531">
        <ele>47</ele>
        <time>2020-01-29T16:13:44Z</time>
      </trkpt>
      <trkpt lat="59.208256" lon="18.141575">
        <ele>47</ele>
        <time>2020-01-29T16:13:45Z</time>
      </trkpt>
      <trkpt lat="59.208287" lon="18.141629">
        <ele>0</ele>
        <time>2020-01-29T16:13:45Z</time>
      </trkpt>
      <trkpt lat="59.208322" lon="18.141691">
        <ele>47</ele>
        <time>2020-01-29T16:13:46Z</time>
      </trkpt>
      <trkpt lat="59.208353" lon="18.14175">
        <ele>48</ele>
        <time>2020-01-29T16:13:48Z</time>
      </trkpt>
      <trkpt lat="59.208385" lon="18.141811">
        <ele>48</ele>
        <time>2020-01-29T16:13:49Z</time>
      </trkpt>
      <trkpt lat="59.208418" lon="18.14187">
        <ele>48</ele>
        <time>2020-01-29T16:13:50Z</time>
      </trkpt>
      <trkpt lat="59.20845" lon="18.14193">
        <ele>49</ele>
        <time>2020-01-29T16:13:51Z</time>
      </trkpt>
      <trkpt lat="59.20848" lon="18.141992">
        <ele>49</ele>
        <time>2020-01-29T16:13:52Z</time>
      </trkpt>
      <trkpt lat="59.20851" lon="18.142054">
        <ele>49</ele>
        <time>2020-01-29T16:13:53Z</time>
      </trkpt>
      <trkpt lat="59.20854" lon="18.142116">
        <ele>49</ele>
        <time>2020-01-29T16:13:54Z</time>
      </trkpt>
      <trkpt lat="59.208569" lon="18.142179">
        <ele>49</ele>
        <time>2020-01-29T16:13:55Z</time>
      </trkpt>
      <trkpt lat="59.208597" lon="18.142242">
        <ele>49</ele>
        <time>2020-01-29T16:13:56Z</time>
      </trkpt>
      <trkpt lat="59.208627" lon="18.142306">
        <ele>0</ele>
        <time>2020-01-29T16:13:56Z</time>
      </trkpt>
      <trkpt lat="59.208656" lon="18.14237">
        <ele>50</ele>
        <time>2020-01-29T16:13:57Z</time>
      </trkpt>
      <trkpt lat="59.208685" lon="18.142435">
        <ele>50</ele>
        <time>2020-01-29T16:13:59Z</time>
      </trkpt>
      <trkpt lat="59.208714" lon="18.142502">
        <ele>50</ele>
        <time>2020-01-29T16:14:00Z</time>
      </trkpt>
      <trkpt lat="59.208743" lon="18.142571">
        <ele>50</ele>
        <time>2020-01-29T16:14:01Z</time>
      </trkpt>
      <trkpt lat="59.208772" lon="18.14264">
        <ele>50</ele>
        <time>2020-01-29T16:14:02Z</time>
      </trkpt>
      <trkpt lat="59.208802" lon="18.142711">
        <ele>50</ele>
        <time>2020-01-29T16:14:03Z</time>
      </trkpt>
      <trkpt lat="59.208832" lon="18.142785">
        <ele>50</ele>
        <time>2020-01-29T16:14:04Z</time>
      </trkpt>
      <trkpt lat="59.208863" lon="18.142861">
        <ele>0</ele>
        <time>2020-01-29T16:14:04Z</time>
      </trkpt>
      <trkpt lat="59.208893" lon="18.142937">
        <ele>51</ele>
        <time>2020-01-29T16:14:05Z</time>
      </trkpt>
      <trkpt lat="59.208923" lon="18.143011">
        <ele>51</ele>
        <time>2020-01-29T16:14:07Z</time>
      </trkpt>
      <trkpt lat="59.208954" lon="18.143082">
        <ele>51</ele>
        <time>2020-01-29T16:14:08Z</time>
      </trkpt>
      <trkpt lat="59.208985" lon="18.143154">
        <ele>51</ele>
        <time>2020-01-29T16:14:09Z</time>
      </trkpt>
      <trkpt lat="59.209015" lon="18.143228">
        <ele>51</ele>
        <time>2020-01-29T16:14:10Z</time>
      </trkpt>
      <trkpt lat="59.209047" lon="18.143303">
        <ele>51</ele>
        <time>2020-01-29T16:14:11Z</time>
      </trkpt>
      <trkpt lat="59.209079" lon="18.14338">
        <ele>51</ele>
        <time>2020-01-29T16:14:12Z</time>
      </trkpt>
      <trkpt lat="59.209112" lon="18.143457">
        <ele>51</ele>
        <time>2020-01-29T16:14:13Z</time>
      </trkpt>
      <trkpt lat="59.209145" lon="18.143536">
        <ele>51</ele>
        <time>2020-01-29T16:14:14Z</time>
      </trkpt>
      <trkpt lat="59.209179" lon="18.143615">
        <ele>51</ele>
        <time>2020-01-29T16:14:15Z</time>
      </trkpt>
      <trkpt lat="59.209214" lon="18.143698">
        <ele>52</ele>
        <time>2020-01-29T16:14:16Z</time>
      </trkpt>
      <trkpt lat="59.209248" lon="18.143781">
        <ele>0</ele>
        <time>2020-01-29T16:14:16Z</time>
      </trkpt>
      <trkpt lat="59.209282" lon="18.143864">
        <ele>52</ele>
        <time>2020-01-29T16:14:17Z</time>
      </trkpt>
      <trkpt lat="59.209316" lon="18.143945">
        <ele>52</ele>
        <time>2020-01-29T16:14:19Z</time>
      </trkpt>
      <trkpt lat="59.209351" lon="18.144024">
        <ele>52</ele>
        <time>2020-01-29T16:14:20Z</time>
      </trkpt>
      <trkpt lat="59.209385" lon="18.144103">
        <ele>52</ele>
        <time>2020-01-29T16:14:21Z</time>
      </trkpt>
      <trkpt lat="59.209418" lon="18.144184">
        <ele>52</ele>
        <time>2020-01-29T16:14:22Z</time>
      </trkpt>
      <trkpt lat="59.209447" lon="18.144267">
        <ele>52</ele>
        <time>2020-01-29T16:14:23Z</time>
      </trkpt>
      <trkpt lat="59.20947" lon="18.144354">
        <ele>52</ele>
        <time>2020-01-29T16:14:24Z</time>
      </trkpt>
      <trkpt lat="59.209484" lon="18.144444">
        <ele>52</ele>
        <time>2020-01-29T16:14:25Z</time>
      </trkpt>
      <trkpt lat="59.209493" lon="18.144533">
        <ele>52</ele>
        <time>2020-01-29T16:14:26Z</time>
      </trkpt>
      <trkpt lat="59.209494" lon="18.144613">
        <ele>52</ele>
        <time>2020-01-29T16:14:27Z</time>
      </trkpt>
      <trkpt lat="59.209496" lon="18.144689">
        <ele>52</ele>
        <time>2020-01-29T16:14:28Z</time>
      </trkpt>
      <trkpt lat="59.209512" lon="18.14476">
        <ele>52</ele>
        <time>2020-01-29T16:14:29Z</time>
      </trkpt>
      <trkpt lat="59.209541" lon="18.144828">
        <ele>52</ele>
        <time>2020-01-29T16:14:30Z</time>
      </trkpt>
      <trkpt lat="59.209573" lon="18.144887">
        <ele>51</ele>
        <time>2020-01-29T16:14:31Z</time>
      </trkpt>
      <trkpt lat="59.20961" lon="18.144933">
        <ele>51</ele>
        <time>2020-01-29T16:14:32Z</time>
      </trkpt>
      <trkpt lat="59.209651" lon="18.144963">
        <ele>51</ele>
        <time>2020-01-29T16:14:33Z</time>
      </trkpt>
      <trkpt lat="59.209691" lon="18.144995">
        <ele>51</ele>
        <time>2020-01-29T16:14:34Z</time>
      </trkpt>
      <trkpt lat="59.20973" lon="18.145038">
        <ele>51</ele>
        <time>2020-01-29T16:14:35Z</time>
      </trkpt>
      <trkpt lat="59.209768" lon="18.145089">
        <ele>51</ele>
        <time>2020-01-29T16:14:36Z</time>
      </trkpt>
      <trkpt lat="59.209805" lon="18.145146">
        <ele>51</ele>
        <time>2020-01-29T16:14:37Z</time>
      </trkpt>
      <trkpt lat="59.20984" lon="18.145211">
        <ele>0</ele>
        <time>2020-01-29T16:14:37Z</time>
      </trkpt>
      <trkpt lat="59.209872" lon="18.145285">
        <ele>51</ele>
        <time>2020-01-29T16:14:38Z</time>
      </trkpt>
      <trkpt lat="59.209902" lon="18.145362">
        <ele>52</ele>
        <time>2020-01-29T16:14:40Z</time>
      </trkpt>
      <trkpt lat="59.209933" lon="18.145443">
        <ele>52</ele>
        <time>2020-01-29T16:14:41Z</time>
      </trkpt>
      <trkpt lat="59.209962" lon="18.145526">
        <ele>52</ele>
        <time>2020-01-29T16:14:42Z</time>
      </trkpt>
      <trkpt lat="59.209994" lon="18.145613">
        <ele>52</ele>
        <time>2020-01-29T16:14:43Z</time>
      </trkpt>
      <trkpt lat="59.210028" lon="18.145698">
        <ele>51</ele>
        <time>2020-01-29T16:14:44Z</time>
      </trkpt>
      <trkpt lat="59.210068" lon="18.145779">
        <ele>51</ele>
        <time>2020-01-29T16:14:45Z</time>
      </trkpt>
      <trkpt lat="59.210115" lon="18.145848">
        <ele>51</ele>
        <time>2020-01-29T16:14:46Z</time>
      </trkpt>
      <trkpt lat="59.210168" lon="18.145904">
        <ele>0</ele>
        <time>2020-01-29T16:14:46Z</time>
      </trkpt>
      <trkpt lat="59.210226" lon="18.145955">
        <ele>51</ele>
        <time>2020-01-29T16:14:47Z</time>
      </trkpt>
      <trkpt lat="59.210287" lon="18.146009">
        <ele>50</ele>
        <time>2020-01-29T16:14:49Z</time>
      </trkpt>
      <trkpt lat="59.21035" lon="18.14607">
        <ele>50</ele>
        <time>2020-01-29T16:14:50Z</time>
      </trkpt>
      <trkpt lat="59.210413" lon="18.14614">
        <ele>50</ele>
        <time>2020-01-29T16:14:51Z</time>
      </trkpt>
      <trkpt lat="59.210478" lon="18.146214">
        <ele>50</ele>
        <time>2020-01-29T16:14:52Z</time>
      </trkpt>
      <trkpt lat="59.210544" lon="18.146289">
        <ele>50</ele>
        <time>2020-01-29T16:14:53Z</time>
      </trkpt>
      <trkpt lat="59.210613" lon="18.146365">
        <ele>0</ele>
        <time>2020-01-29T16:14:53Z</time>
      </trkpt>
      <trkpt lat="59.210684" lon="18.14644">
        <ele>50</ele>
        <time>2020-01-29T16:14:54Z</time>
      </trkpt>
      <trkpt lat="59.210756" lon="18.146511">
        <ele>49</ele>
        <time>2020-01-29T16:14:56Z</time>
      </trkpt>
      <trkpt lat="59.210831" lon="18.146579">
        <ele>49</ele>
        <time>2020-01-29T16:14:57Z</time>
      </trkpt>
      <trkpt lat="59.21091" lon="18.146651">
        <ele>49</ele>
        <time>2020-01-29T16:14:58Z</time>
      </trkpt>
      <trkpt lat="59.210989" lon="18.146723">
        <ele>49</ele>
        <time>2020-01-29T16:14:59Z</time>
      </trkpt>
      <trkpt lat="59.211071" lon="18.146792">
        <ele>0</ele>
        <time>2020-01-29T16:14:59Z</time>
      </trkpt>
      <trkpt lat="59.211156" lon="18.146859">
        <ele>49</ele>
        <time>2020-01-29T16:15:00Z</time>
      </trkpt>
      <trkpt lat="59.211331" lon="18.146971">
        <ele>49</ele>
        <time>2020-01-29T16:15:03Z</time>
      </trkpt>
      <trkpt lat="59.211422" lon="18.147013">
        <ele>49</ele>
        <time>2020-01-29T16:15:04Z</time>
      </trkpt>
      <trkpt lat="59.211515" lon="18.147053">
        <ele>0</ele>
        <time>2020-01-29T16:15:04Z</time>
      </trkpt>
      <trkpt lat="59.211606" lon="18.147089">
        <ele>49</ele>
        <time>2020-01-29T16:15:05Z</time>
      </trkpt>
      <trkpt lat="59.211699" lon="18.147121">
        <ele>48</ele>
        <time>2020-01-29T16:15:07Z</time>
      </trkpt>
      <trkpt lat="59.211794" lon="18.147154">
        <ele>48</ele>
        <time>2020-01-29T16:15:08Z</time>
      </trkpt>
      <trkpt lat="59.211893" lon="18.14718">
        <ele>48</ele>
        <time>2020-01-29T16:15:09Z</time>
      </trkpt>
      <trkpt lat="59.21199" lon="18.1472">
        <ele>0</ele>
        <time>2020-01-29T16:15:09Z</time>
      </trkpt>
      <trkpt lat="59.212087" lon="18.147213">
        <ele>48</ele>
        <time>2020-01-29T16:15:10Z</time>
      </trkpt>
      <trkpt lat="59.212183" lon="18.14722">
        <ele>47</ele>
        <time>2020-01-29T16:15:12Z</time>
      </trkpt>
      <trkpt lat="59.212283" lon="18.147222">
        <ele>47</ele>
        <time>2020-01-29T16:15:13Z</time>
      </trkpt>
      <trkpt lat="59.212382" lon="18.147217">
        <ele>45</ele>
        <time>2020-01-29T16:15:14Z</time>
      </trkpt>
      <trkpt lat="59.212479" lon="18.147209">
        <ele>44</ele>
        <time>2020-01-29T16:15:15Z</time>
      </trkpt>
      <trkpt lat="59.212576" lon="18.147195">
        <ele>0</ele>
        <time>2020-01-29T16:15:15Z</time>
      </trkpt>
      <trkpt lat="59.212673" lon="18.147176">
        <ele>43</ele>
        <time>2020-01-29T16:15:16Z</time>
      </trkpt>
      <trkpt lat="59.212772" lon="18.147154">
        <ele>42</ele>
        <time>2020-01-29T16:15:18Z</time>
      </trkpt>
      <trkpt lat="59.212871" lon="18.14713">
        <ele>41</ele>
        <time>2020-01-29T16:15:19Z</time>
      </trkpt>
      <trkpt lat="59.212969" lon="18.147099">
        <ele>40</ele>
        <time>2020-01-29T16:15:20Z</time>
      </trkpt>
      <trkpt lat="59.213069" lon="18.14706">
        <ele>0</ele>
        <time>2020-01-29T16:15:20Z</time>
      </trkpt>
      <trkpt lat="59.213167" lon="18.147017">
        <ele>39</ele>
        <time>2020-01-29T16:15:21Z</time>
      </trkpt>
      <trkpt lat="59.213356" lon="18.146907">
        <ele>36</ele>
        <time>2020-01-29T16:15:24Z</time>
      </trkpt>
      <trkpt lat="59.213448" lon="18.146843">
        <ele>36</ele>
        <time>2020-01-29T16:15:25Z</time>
      </trkpt>
      <trkpt lat="59.213538" lon="18.146775">
        <ele>0</ele>
        <time>2020-01-29T16:15:25Z</time>
      </trkpt>
      <trkpt lat="59.213624" lon="18.146705">
        <ele>35</ele>
        <time>2020-01-29T16:15:26Z</time>
      </trkpt>
      <trkpt lat="59.213708" lon="18.14663">
        <ele>34</ele>
        <time>2020-01-29T16:15:28Z</time>
      </trkpt>
      <trkpt lat="59.21379" lon="18.146548">
        <ele>33</ele>
        <time>2020-01-29T16:15:29Z</time>
      </trkpt>
      <trkpt lat="59.213868" lon="18.146459">
        <ele>33</ele>
        <time>2020-01-29T16:15:30Z</time>
      </trkpt>
      <trkpt lat="59.213944" lon="18.146365">
        <ele>0</ele>
        <time>2020-01-29T16:15:30Z</time>
      </trkpt>
      <trkpt lat="59.214021" lon="18.146274">
        <ele>32</ele>
        <time>2020-01-29T16:15:31Z</time>
      </trkpt>
      <trkpt lat="59.214095" lon="18.146182">
        <ele>31</ele>
        <time>2020-01-29T16:15:33Z</time>
      </trkpt>
      <trkpt lat="59.214169" lon="18.146092">
        <ele>31</ele>
        <time>2020-01-29T16:15:34Z</time>
      </trkpt>
      <trkpt lat="59.214242" lon="18.146002">
        <ele>30</ele>
        <time>2020-01-29T16:15:35Z</time>
      </trkpt>
      <trkpt lat="59.214317" lon="18.145911">
        <ele>30</ele>
        <time>2020-01-29T16:15:36Z</time>
      </trkpt>
      <trkpt lat="59.21439" lon="18.145822">
        <ele>0</ele>
        <time>2020-01-29T16:15:36Z</time>
      </trkpt>
      <trkpt lat="59.214465" lon="18.145735">
        <ele>30</ele>
        <time>2020-01-29T16:15:37Z</time>
      </trkpt>
      <trkpt lat="59.214539" lon="18.145646">
        <ele>29</ele>
        <time>2020-01-29T16:15:39Z</time>
      </trkpt>
      <trkpt lat="59.214611" lon="18.145557">
        <ele>29</ele>
        <time>2020-01-29T16:15:40Z</time>
      </trkpt>
      <trkpt lat="59.214679" lon="18.145471">
        <ele>28</ele>
        <time>2020-01-29T16:15:41Z</time>
      </trkpt>
      <trkpt lat="59.214747" lon="18.145389">
        <ele>28</ele>
        <time>2020-01-29T16:15:42Z</time>
      </trkpt>
      <trkpt lat="59.214817" lon="18.145306">
        <ele>0</ele>
        <time>2020-01-29T16:15:42Z</time>
      </trkpt>
      <trkpt lat="59.214885" lon="18.145221">
        <ele>28</ele>
        <time>2020-01-29T16:15:43Z</time>
      </trkpt>
      <trkpt lat="59.214956" lon="18.145136">
        <ele>27</ele>
        <time>2020-01-29T16:15:45Z</time>
      </trkpt>
      <trkpt lat="59.215029" lon="18.145051">
        <ele>27</ele>
        <time>2020-01-29T16:15:46Z</time>
      </trkpt>
      <trkpt lat="59.215098" lon="18.144966">
        <ele>27</ele>
        <time>2020-01-29T16:15:47Z</time>
      </trkpt>
      <trkpt lat="59.215166" lon="18.144882">
        <ele>27</ele>
        <time>2020-01-29T16:15:48Z</time>
      </trkpt>
      <trkpt lat="59.215237" lon="18.1448">
        <ele>0</ele>
        <time>2020-01-29T16:15:48Z</time>
      </trkpt>
      <trkpt lat="59.215306" lon="18.144717">
        <ele>27</ele>
        <time>2020-01-29T16:15:49Z</time>
      </trkpt>
      <trkpt lat="59.215372" lon="18.144633">
        <ele>27</ele>
        <time>2020-01-29T16:15:51Z</time>
      </trkpt>
      <trkpt lat="59.21544" lon="18.144547">
        <ele>27</ele>
        <time>2020-01-29T16:15:52Z</time>
      </trkpt>
      <trkpt lat="59.215509" lon="18.144463">
        <ele>27</ele>
        <time>2020-01-29T16:15:53Z</time>
      </trkpt>
      <trkpt lat="59.215581" lon="18.144383">
        <ele>27</ele>
        <time>2020-01-29T16:15:54Z</time>
      </trkpt>
      <trkpt lat="59.215654" lon="18.144305">
        <ele>27</ele>
        <time>2020-01-29T16:15:55Z</time>
      </trkpt>
      <trkpt lat="59.215725" lon="18.144227">
        <ele>27</ele>
        <time>2020-01-29T16:15:56Z</time>
      </trkpt>
      <trkpt lat="59.215797" lon="18.144146">
        <ele>27</ele>
        <time>2020-01-29T16:15:57Z</time>
      </trkpt>
      <trkpt lat="59.215868" lon="18.144063">
        <ele>26</ele>
        <time>2020-01-29T16:15:58Z</time>
      </trkpt>
      <trkpt lat="59.215935" lon="18.143979">
        <ele>26</ele>
        <time>2020-01-29T16:15:59Z</time>
      </trkpt>
      <trkpt lat="59.216004" lon="18.143893">
        <ele>26</ele>
        <time>2020-01-29T16:16:00Z</time>
      </trkpt>
      <trkpt lat="59.216073" lon="18.143809">
        <ele>0</ele>
        <time>2020-01-29T16:16:00Z</time>
      </trkpt>
      <trkpt lat="59.216143" lon="18.143728">
        <ele>26</ele>
        <time>2020-01-29T16:16:01Z</time>
      </trkpt>
      <trkpt lat="59.216215" lon="18.143644">
        <ele>26</ele>
        <time>2020-01-29T16:16:03Z</time>
      </trkpt>
      <trkpt lat="59.216287" lon="18.14356">
        <ele>26</ele>
        <time>2020-01-29T16:16:04Z</time>
      </trkpt>
      <trkpt lat="59.216357" lon="18.143476">
        <ele>26</ele>
        <time>2020-01-29T16:16:05Z</time>
      </trkpt>
      <trkpt lat="59.216425" lon="18.143394">
        <ele>26</ele>
        <time>2020-01-29T16:16:06Z</time>
      </trkpt>
      <trkpt lat="59.216494" lon="18.143314">
        <ele>0</ele>
        <time>2020-01-29T16:16:06Z</time>
      </trkpt>
      <trkpt lat="59.216563" lon="18.143236">
        <ele>26</ele>
        <time>2020-01-29T16:16:07Z</time>
      </trkpt>
      <trkpt lat="59.216633" lon="18.14316">
        <ele>26</ele>
        <time>2020-01-29T16:16:09Z</time>
      </trkpt>
      <trkpt lat="59.216703" lon="18.143087">
        <ele>26</ele>
        <time>2020-01-29T16:16:10Z</time>
      </trkpt>
      <trkpt lat="59.21677" lon="18.143012">
        <ele>26</ele>
        <time>2020-01-29T16:16:11Z</time>
      </trkpt>
      <trkpt lat="59.216834" lon="18.142938">
        <ele>26</ele>
        <time>2020-01-29T16:16:12Z</time>
      </trkpt>
      <trkpt lat="59.216896" lon="18.142866">
        <ele>26</ele>
        <time>2020-01-29T16:16:13Z</time>
      </trkpt>
      <trkpt lat="59.216955" lon="18.142799">
        <ele>0</ele>
        <time>2020-01-29T16:16:13Z</time>
      </trkpt>
      <trkpt lat="59.217013" lon="18.14273">
        <ele>26</ele>
        <time>2020-01-29T16:16:14Z</time>
      </trkpt>
      <trkpt lat="59.217071" lon="18.142663">
        <ele>26</ele>
        <time>2020-01-29T16:16:16Z</time>
      </trkpt>
      <trkpt lat="59.217128" lon="18.142597">
        <ele>26</ele>
        <time>2020-01-29T16:16:17Z</time>
      </trkpt>
      <trkpt lat="59.217184" lon="18.142531">
        <ele>0</ele>
        <time>2020-01-29T16:16:17Z</time>
      </trkpt>
      <trkpt lat="59.21724" lon="18.142465">
        <ele>26</ele>
        <time>2020-01-29T16:16:18Z</time>
      </trkpt>
      <trkpt lat="59.217299" lon="18.142399">
        <ele>26</ele>
        <time>2020-01-29T16:16:20Z</time>
      </trkpt>
      <trkpt lat="59.217357" lon="18.142333">
        <ele>0</ele>
        <time>2020-01-29T16:16:20Z</time>
      </trkpt>
      <trkpt lat="59.217414" lon="18.142266">
        <ele>26</ele>
        <time>2020-01-29T16:16:21Z</time>
      </trkpt>
      <trkpt lat="59.217472" lon="18.1422">
        <ele>26</ele>
        <time>2020-01-29T16:16:23Z</time>
      </trkpt>
      <trkpt lat="59.217529" lon="18.142134">
        <ele>26</ele>
        <time>2020-01-29T16:16:24Z</time>
      </trkpt>
      <trkpt lat="59.217587" lon="18.142068">
        <ele>26</ele>
        <time>2020-01-29T16:16:25Z</time>
      </trkpt>
      <trkpt lat="59.217643" lon="18.142003">
        <ele>26</ele>
        <time>2020-01-29T16:16:26Z</time>
      </trkpt>
      <trkpt lat="59.2177" lon="18.141941">
        <ele>26</ele>
        <time>2020-01-29T16:16:27Z</time>
      </trkpt>
      <trkpt lat="59.217757" lon="18.141879">
        <ele>25</ele>
        <time>2020-01-29T16:16:28Z</time>
      </trkpt>
      <trkpt lat="59.217814" lon="18.141817">
        <ele>0</ele>
        <time>2020-01-29T16:16:28Z</time>
      </trkpt>
      <trkpt lat="59.217869" lon="18.141754">
        <ele>25</ele>
        <time>2020-01-29T16:16:29Z</time>
      </trkpt>
      <trkpt lat="59.217923" lon="18.141691">
        <ele>25</ele>
        <time>2020-01-29T16:16:31Z</time>
      </trkpt>
      <trkpt lat="59.217977" lon="18.141627">
        <ele>25</ele>
        <time>2020-01-29T16:16:32Z</time>
      </trkpt>
      <trkpt lat="59.21803" lon="18.141569">
        <ele>25</ele>
        <time>2020-01-29T16:16:33Z</time>
      </trkpt>
      <trkpt lat="59.218085" lon="18.141518">
        <ele>25</ele>
        <time>2020-01-29T16:16:34Z</time>
      </trkpt>
      <trkpt lat="59.218142" lon="18.141487">
        <ele>24</ele>
        <time>2020-01-29T16:16:35Z</time>
      </trkpt>
      <trkpt lat="59.218197" lon="18.141495">
        <ele>24</ele>
        <time>2020-01-29T16:16:36Z</time>
      </trkpt>
      <trkpt lat="59.218247" lon="18.141541">
        <ele>0</ele>
        <time>2020-01-29T16:16:36Z</time>
      </trkpt>
      <trkpt lat="59.218291" lon="18.141603">
        <ele>24</ele>
        <time>2020-01-29T16:16:37Z</time>
      </trkpt>
      <trkpt lat="59.218338" lon="18.141644">
        <ele>24</ele>
        <time>2020-01-29T16:16:39Z</time>
      </trkpt>
      <trkpt lat="59.218385" lon="18.141641">
        <ele>24</ele>
        <time>2020-01-29T16:16:40Z</time>
      </trkpt>
      <trkpt lat="59.218431" lon="18.141609">
        <ele>24</ele>
        <time>2020-01-29T16:16:41Z</time>
      </trkpt>
      <trkpt lat="59.21848" lon="18.141578">
        <ele>24</ele>
        <time>2020-01-29T16:16:42Z</time>
      </trkpt>
      <trkpt lat="59.21853" lon="18.14156">
        <ele>24</ele>
        <time>2020-01-29T16:16:43Z</time>
      </trkpt>
      <trkpt lat="59.218577" lon="18.141521">
        <ele>24</ele>
        <time>2020-01-29T16:16:44Z</time>
      </trkpt>
      <trkpt lat="59.218606" lon="18.141443">
        <ele>24</ele>
        <time>2020-01-29T16:16:45Z</time>
      </trkpt>
      <trkpt lat="59.218617" lon="18.141344">
        <ele>24</ele>
        <time>2020-01-29T16:16:46Z</time>
      </trkpt>
      <trkpt lat="59.218623" lon="18.141239">
        <ele>0</ele>
        <time>2020-01-29T16:16:46Z</time>
      </trkpt>
      <trkpt lat="59.218634" lon="18.141131">
        <ele>24</ele>
        <time>2020-01-29T16:16:47Z</time>
      </trkpt>
      <trkpt lat="59.218646" lon="18.141021">
        <ele>24</ele>
        <time>2020-01-29T16:16:49Z</time>
      </trkpt>
      <trkpt lat="59.218664" lon="18.140911">
        <ele>24</ele>
        <time>2020-01-29T16:16:50Z</time>
      </trkpt>
      <trkpt lat="59.218694" lon="18.140813">
        <ele>24</ele>
        <time>2020-01-29T16:16:51Z</time>
      </trkpt>
      <trkpt lat="59.218737" lon="18.140733">
        <ele>24</ele>
        <time>2020-01-29T16:16:52Z</time>
      </trkpt>
      <trkpt lat="59.218785" lon="18.140664">
        <ele>24</ele>
        <time>2020-01-29T16:16:53Z</time>
      </trkpt>
      <trkpt lat="59.218836" lon="18.1406">
        <ele>24</ele>
        <time>2020-01-29T16:16:54Z</time>
      </trkpt>
      <trkpt lat="59.218889" lon="18.140539">
        <ele>24</ele>
        <time>2020-01-29T16:16:55Z</time>
      </trkpt>
      <trkpt lat="59.218944" lon="18.140475">
        <ele>0</ele>
        <time>2020-01-29T16:16:55Z</time>
      </trkpt>
      <trkpt lat="59.218999" lon="18.140411">
        <ele>24</ele>
        <time>2020-01-29T16:16:56Z</time>
      </trkpt>
      <trkpt lat="59.219053" lon="18.140347">
        <ele>24</ele>
        <time>2020-01-29T16:16:58Z</time>
      </trkpt>
      <trkpt lat="59.219108" lon="18.140282">
        <ele>24</ele>
        <time>2020-01-29T16:16:59Z</time>
      </trkpt>
      <trkpt lat="59.219163" lon="18.140216">
        <ele>24</ele>
        <time>2020-01-29T16:17:00Z</time>
      </trkpt>
      <trkpt lat="59.219215" lon="18.140153">
        <ele>24</ele>
        <time>2020-01-29T16:17:01Z</time>
      </trkpt>
      <trkpt lat="59.219268" lon="18.140091">
        <ele>24</ele>
        <time>2020-01-29T16:17:02Z</time>
      </trkpt>
      <trkpt lat="59.219321" lon="18.14003">
        <ele>24</ele>
        <time>2020-01-29T16:17:03Z</time>
      </trkpt>
      <trkpt lat="59.219374" lon="18.139968">
        <ele>0</ele>
        <time>2020-01-29T16:17:03Z</time>
      </trkpt>
      <trkpt lat="59.219427" lon="18.139904">
        <ele>25</ele>
        <time>2020-01-29T16:17:04Z</time>
      </trkpt>
      <trkpt lat="59.219479" lon="18.139842">
        <ele>25</ele>
        <time>2020-01-29T16:17:06Z</time>
      </trkpt>
      <trkpt lat="59.219532" lon="18.139782">
        <ele>25</ele>
        <time>2020-01-29T16:17:07Z</time>
      </trkpt>
      <trkpt lat="59.219583" lon="18.139723">
        <ele>0</ele>
        <time>2020-01-29T16:17:07Z</time>
      </trkpt>
      <trkpt lat="59.219632" lon="18.139664">
        <ele>25</ele>
        <time>2020-01-29T16:17:08Z</time>
      </trkpt>
      <trkpt lat="59.219681" lon="18.139608">
        <ele>25</ele>
        <time>2020-01-29T16:17:10Z</time>
      </trkpt>
      <trkpt lat="59.219728" lon="18.139552">
        <ele>26</ele>
        <time>2020-01-29T16:17:11Z</time>
      </trkpt>
      <trkpt lat="59.219773" lon="18.139495">
        <ele>0</ele>
        <time>2020-01-29T16:17:11Z</time>
      </trkpt>
      <trkpt lat="59.219815" lon="18.139436">
        <ele>26</ele>
        <time>2020-01-29T16:17:12Z</time>
      </trkpt>
      <trkpt lat="59.219859" lon="18.139378">
        <ele>26</ele>
        <time>2020-01-29T16:17:14Z</time>
      </trkpt>
      <trkpt lat="59.219907" lon="18.13932">
        <ele>0</ele>
        <time>2020-01-29T16:17:14Z</time>
      </trkpt>
      <trkpt lat="59.219953" lon="18.139261">
        <ele>26</ele>
        <time>2020-01-29T16:17:15Z</time>
      </trkpt>
      <trkpt lat="59.220001" lon="18.1392">
        <ele>26</ele>
        <time>2020-01-29T16:17:17Z</time>
      </trkpt>
      <trkpt lat="59.220047" lon="18.13914">
        <ele>26</ele>
        <time>2020-01-29T16:17:18Z</time>
      </trkpt>
      <trkpt lat="59.220091" lon="18.139079">
        <ele>26</ele>
        <time>2020-01-29T16:17:19Z</time>
      </trkpt>
      <trkpt lat="59.220133" lon="18.139018">
        <ele>26</ele>
        <time>2020-01-29T16:17:20Z</time>
      </trkpt>
      <trkpt lat="59.220177" lon="18.138959">
        <ele>0</ele>
        <time>2020-01-29T16:17:20Z</time>
      </trkpt>
      <trkpt lat="59.220223" lon="18.138904">
        <ele>26</ele>
        <time>2020-01-29T16:17:21Z</time>
      </trkpt>
      <trkpt lat="59.220269" lon="18.138855">
        <ele>26</ele>
        <time>2020-01-29T16:17:23Z</time>
      </trkpt>
      <trkpt lat="59.220318" lon="18.138815">
        <ele>26</ele>
        <time>2020-01-29T16:17:24Z</time>
      </trkpt>
      <trkpt lat="59.220367" lon="18.138781">
        <ele>26</ele>
        <time>2020-01-29T16:17:25Z</time>
      </trkpt>
      <trkpt lat="59.220417" lon="18.138749">
        <ele>26</ele>
        <time>2020-01-29T16:17:26Z</time>
      </trkpt>
      <trkpt lat="59.220463" lon="18.138718">
        <ele>26</ele>
        <time>2020-01-29T16:17:27Z</time>
      </trkpt>
      <trkpt lat="59.22051" lon="18.138685">
        <ele>26</ele>
        <time>2020-01-29T16:17:28Z</time>
      </trkpt>
      <trkpt lat="59.220557" lon="18.138654">
        <ele>26</ele>
        <time>2020-01-29T16:17:29Z</time>
      </trkpt>
      <trkpt lat="59.220603" lon="18.138628">
        <ele>25</ele>
        <time>2020-01-29T16:17:30Z</time>
      </trkpt>
      <trkpt lat="59.220649" lon="18.138603">
        <ele>0</ele>
        <time>2020-01-29T16:17:30Z</time>
      </trkpt>
      <trkpt lat="59.220701" lon="18.138575">
        <ele>25</ele>
        <time>2020-01-29T16:17:31Z</time>
      </trkpt>
      <trkpt lat="59.220749" lon="18.138553">
        <ele>26</ele>
        <time>2020-01-29T16:17:33Z</time>
      </trkpt>
      <trkpt lat="59.2208" lon="18.138533">
        <ele>0</ele>
        <time>2020-01-29T16:17:33Z</time>
      </trkpt>
      <trkpt lat="59.220851" lon="18.138513">
        <ele>26</ele>
        <time>2020-01-29T16:17:34Z</time>
      </trkpt>
      <trkpt lat="59.220901" lon="18.138495">
        <ele>25</ele>
        <time>2020-01-29T16:17:36Z</time>
      </trkpt>
      <trkpt lat="59.22095" lon="18.138475">
        <ele>26</ele>
        <time>2020-01-29T16:17:37Z</time>
      </trkpt>
      <trkpt lat="59.220998" lon="18.138454">
        <ele>26</ele>
        <time>2020-01-29T16:17:38Z</time>
      </trkpt>
      <trkpt lat="59.221048" lon="18.138434">
        <ele>26</ele>
        <time>2020-01-29T16:17:39Z</time>
      </trkpt>
      <trkpt lat="59.2211" lon="18.138413">
        <ele>26</ele>
        <time>2020-01-29T16:17:40Z</time>
      </trkpt>
      <trkpt lat="59.221151" lon="18.13839">
        <ele>0</ele>
        <time>2020-01-29T16:17:40Z</time>
      </trkpt>
      <trkpt lat="59.221198" lon="18.13837">
        <ele>26</ele>
        <time>2020-01-29T16:17:41Z</time>
      </trkpt>
      <trkpt lat="59.221245" lon="18.138352">
        <ele>26</ele>
        <time>2020-01-29T16:17:43Z</time>
      </trkpt>
      <trkpt lat="59.221293" lon="18.138336">
        <ele>26</ele>
        <time>2020-01-29T16:17:44Z</time>
      </trkpt>
      <trkpt lat="59.22134" lon="18.13832">
        <ele>26</ele>
        <time>2020-01-29T16:17:45Z</time>
      </trkpt>
      <trkpt lat="59.221388" lon="18.138301">
        <ele>26</ele>
        <time>2020-01-29T16:17:46Z</time>
      </trkpt>
      <trkpt lat="59.221436" lon="18.138282">
        <ele>26</ele>
        <time>2020-01-29T16:17:47Z</time>
      </trkpt>
      <trkpt lat="59.221486" lon="18.138262">
        <ele>27</ele>
        <time>2020-01-29T16:17:48Z</time>
      </trkpt>
      <trkpt lat="59.221538" lon="18.138238">
        <ele>27</ele>
        <time>2020-01-29T16:17:49Z</time>
      </trkpt>
      <trkpt lat="59.221588" lon="18.138218">
        <ele>27</ele>
        <time>2020-01-29T16:17:50Z</time>
      </trkpt>
      <trkpt lat="59.221638" lon="18.1382">
        <ele>0</ele>
        <time>2020-01-29T16:17:50Z</time>
      </trkpt>
      <trkpt lat="59.221688" lon="18.13818">
        <ele>27</ele>
        <time>2020-01-29T16:17:51Z</time>
      </trkpt>
      <trkpt lat="59.221739" lon="18.138162">
        <ele>0</ele>
        <time>2020-01-29T16:17:52Z</time>
      </trkpt>
      <trkpt lat="59.221789" lon="18.138142">
        <ele>27</ele>
        <time>2020-01-29T16:17:53Z</time>
      </trkpt>
      <trkpt lat="59.221838" lon="18.13812">
        <ele>27</ele>
        <time>2020-01-29T16:17:55Z</time>
      </trkpt>
      <trkpt lat="59.221885" lon="18.138095">
        <ele>27</ele>
        <time>2020-01-29T16:17:56Z</time>
      </trkpt>
      <trkpt lat="59.221933" lon="18.138075">
        <ele>27</ele>
        <time>2020-01-29T16:17:57Z</time>
      </trkpt>
      <trkpt lat="59.221982" lon="18.138056">
        <ele>27</ele>
        <time>2020-01-29T16:17:58Z</time>
      </trkpt>
      <trkpt lat="59.222031" lon="18.138036">
        <ele>27</ele>
        <time>2020-01-29T16:17:59Z</time>
      </trkpt>
      <trkpt lat="59.222079" lon="18.138012">
        <ele>27</ele>
        <time>2020-01-29T16:18:00Z</time>
      </trkpt>
      <trkpt lat="59.222132" lon="18.137986">
        <ele>0</ele>
        <time>2020-01-29T16:18:00Z</time>
      </trkpt>
      <trkpt lat="59.22219" lon="18.137962">
        <ele>27</ele>
        <time>2020-01-29T16:18:01Z</time>
      </trkpt>
      <trkpt lat="59.222252" lon="18.137932">
        <ele>28</ele>
        <time>2020-01-29T16:18:03Z</time>
      </trkpt>
      <trkpt lat="59.222312" lon="18.137902">
        <ele>28</ele>
        <time>2020-01-29T16:18:04Z</time>
      </trkpt>
      <trkpt lat="59.22237" lon="18.137872">
        <ele>28</ele>
        <time>2020-01-29T16:18:05Z</time>
      </trkpt>
      <trkpt lat="59.22243" lon="18.137838">
        <ele>28</ele>
        <time>2020-01-29T16:18:06Z</time>
      </trkpt>
      <trkpt lat="59.22249" lon="18.137799">
        <ele>28</ele>
        <time>2020-01-29T16:18:07Z</time>
      </trkpt>
      <trkpt lat="59.222548" lon="18.137761">
        <ele>28</ele>
        <time>2020-01-29T16:18:08Z</time>
      </trkpt>
      <trkpt lat="59.222607" lon="18.137717">
        <ele>0</ele>
        <time>2020-01-29T16:18:08Z</time>
      </trkpt>
      <trkpt lat="59.222669" lon="18.137667">
        <ele>28</ele>
        <time>2020-01-29T16:18:09Z</time>
      </trkpt>
      <trkpt lat="59.222731" lon="18.137614">
        <ele>29</ele>
        <time>2020-01-29T16:18:11Z</time>
      </trkpt>
      <trkpt lat="59.222788" lon="18.137561">
        <ele>29</ele>
        <time>2020-01-29T16:18:12Z</time>
      </trkpt>
      <trkpt lat="59.222846" lon="18.137505">
        <ele>29</ele>
        <time>2020-01-29T16:18:13Z</time>
      </trkpt>
      <trkpt lat="59.222901" lon="18.137447">
        <ele>29</ele>
        <time>2020-01-29T16:18:14Z</time>
      </trkpt>
      <trkpt lat="59.222958" lon="18.137389">
        <ele>29</ele>
        <time>2020-01-29T16:18:15Z</time>
      </trkpt>
      <trkpt lat="59.223014" lon="18.137327">
        <ele>30</ele>
        <time>2020-01-29T16:18:16Z</time>
      </trkpt>
      <trkpt lat="59.223068" lon="18.137262">
        <ele>0</ele>
        <time>2020-01-29T16:18:16Z</time>
      </trkpt>
      <trkpt lat="59.223119" lon="18.137198">
        <ele>30</ele>
        <time>2020-01-29T16:18:17Z</time>
      </trkpt>
      <trkpt lat="59.22317" lon="18.137127">
        <ele>30</ele>
        <time>2020-01-29T16:18:19Z</time>
      </trkpt>
      <trkpt lat="59.223218" lon="18.137055">
        <ele>30</ele>
        <time>2020-01-29T16:18:20Z</time>
      </trkpt>
      <trkpt lat="59.223268" lon="18.136981">
        <ele>30</ele>
        <time>2020-01-29T16:18:21Z</time>
      </trkpt>
      <trkpt lat="59.223315" lon="18.136905">
        <ele>30</ele>
        <time>2020-01-29T16:18:22Z</time>
      </trkpt>
      <trkpt lat="59.22336" lon="18.136825">
        <ele>30</ele>
        <time>2020-01-29T16:18:23Z</time>
      </trkpt>
      <trkpt lat="59.223404" lon="18.136743">
        <ele>30</ele>
        <time>2020-01-29T16:18:24Z</time>
      </trkpt>
      <trkpt lat="59.223448" lon="18.136659">
        <ele>30</ele>
        <time>2020-01-29T16:18:25Z</time>
      </trkpt>
      <trkpt lat="59.223492" lon="18.136573">
        <ele>30</ele>
        <time>2020-01-29T16:18:26Z</time>
      </trkpt>
      <trkpt lat="59.223536" lon="18.136488">
        <ele>30</ele>
        <time>2020-01-29T16:18:27Z</time>
      </trkpt>
      <trkpt lat="59.223581" lon="18.136399">
        <ele>30</ele>
        <time>2020-01-29T16:18:28Z</time>
      </trkpt>
      <trkpt lat="59.223626" lon="18.136306">
        <ele>30</ele>
        <time>2020-01-29T16:18:29Z</time>
      </trkpt>
      <trkpt lat="59.223666" lon="18.136209">
        <ele>30</ele>
        <time>2020-01-29T16:18:30Z</time>
      </trkpt>
      <trkpt lat="59.223705" lon="18.136106">
        <ele>0</ele>
        <time>2020-01-29T16:18:30Z</time>
      </trkpt>
      <trkpt lat="59.223746" lon="18.136002">
        <ele>31</ele>
        <time>2020-01-29T16:18:31Z</time>
      </trkpt>
      <trkpt lat="59.223786" lon="18.135897">
        <ele>30</ele>
        <time>2020-01-29T16:18:32Z</time>
      </trkpt>
      <trkpt lat="59.223828" lon="18.135789">
        <ele>30</ele>
        <time>2020-01-29T16:18:34Z</time>
      </trkpt>
      <trkpt lat="59.223874" lon="18.13568">
        <ele>30</ele>
        <time>2020-01-29T16:18:35Z</time>
      </trkpt>
      <trkpt lat="59.223918" lon="18.13557">
        <ele>30</ele>
        <time>2020-01-29T16:18:36Z</time>
      </trkpt>
      <trkpt lat="59.223962" lon="18.135453">
        <ele>30</ele>
        <time>2020-01-29T16:18:37Z</time>
      </trkpt>
      <trkpt lat="59.224008" lon="18.135338">
        <ele>30</ele>
        <time>2020-01-29T16:18:38Z</time>
      </trkpt>
      <trkpt lat="59.224054" lon="18.135225">
        <ele>0</ele>
        <time>2020-01-29T16:18:38Z</time>
      </trkpt>
      <trkpt lat="59.2241" lon="18.135113">
        <ele>31</ele>
        <time>2020-01-29T16:18:39Z</time>
      </trkpt>
      <trkpt lat="59.224144" lon="18.135002">
        <ele>31</ele>
        <time>2020-01-29T16:18:41Z</time>
      </trkpt>
      <trkpt lat="59.224186" lon="18.134886">
        <ele>30</ele>
        <time>2020-01-29T16:18:42Z</time>
      </trkpt>
      <trkpt lat="59.224228" lon="18.134773">
        <ele>30</ele>
        <time>2020-01-29T16:18:43Z</time>
      </trkpt>
      <trkpt lat="59.22427" lon="18.134661">
        <ele>30</ele>
        <time>2020-01-29T16:18:44Z</time>
      </trkpt>
      <trkpt lat="59.22431" lon="18.134547">
        <ele>30</ele>
        <time>2020-01-29T16:18:45Z</time>
      </trkpt>
      <trkpt lat="59.224351" lon="18.134438">
        <ele>0</ele>
        <time>2020-01-29T16:18:45Z</time>
      </trkpt>
      <trkpt lat="59.224389" lon="18.134332">
        <ele>30</ele>
        <time>2020-01-29T16:18:46Z</time>
      </trkpt>
      <trkpt lat="59.22443" lon="18.13423">
        <ele>30</ele>
        <time>2020-01-29T16:18:48Z</time>
      </trkpt>
      <trkpt lat="59.224472" lon="18.134127">
        <ele>30</ele>
        <time>2020-01-29T16:18:49Z</time>
      </trkpt>
      <trkpt lat="59.224514" lon="18.134023">
        <ele>0</ele>
        <time>2020-01-29T16:18:49Z</time>
      </trkpt>
      <trkpt lat="59.224558" lon="18.133924">
        <ele>30</ele>
        <time>2020-01-29T16:18:50Z</time>
      </trkpt>
      <trkpt lat="59.2246" lon="18.133828">
        <ele>30</ele>
        <time>2020-01-29T16:18:52Z</time>
      </trkpt>
      <trkpt lat="59.224642" lon="18.133735">
        <ele>30</ele>
        <time>2020-01-29T16:18:53Z</time>
      </trkpt>
      <trkpt lat="59.224683" lon="18.133648">
        <ele>0</ele>
        <time>2020-01-29T16:18:53Z</time>
      </trkpt>
      <trkpt lat="59.22472" lon="18.133564">
        <ele>30</ele>
        <time>2020-01-29T16:18:54Z</time>
      </trkpt>
      <trkpt lat="59.224758" lon="18.133482">
        <ele>30</ele>
        <time>2020-01-29T16:18:56Z</time>
      </trkpt>
      <trkpt lat="59.224796" lon="18.133405">
        <ele>30</ele>
        <time>2020-01-29T16:18:57Z</time>
      </trkpt>
      <trkpt lat="59.224833" lon="18.133331">
        <ele>30</ele>
        <time>2020-01-29T16:18:58Z</time>
      </trkpt>
      <trkpt lat="59.224868" lon="18.133262">
        <ele>31</ele>
        <time>2020-01-29T16:18:59Z</time>
      </trkpt>
      <trkpt lat="59.2249" lon="18.133192">
        <ele>31</ele>
        <time>2020-01-29T16:19:00Z</time>
      </trkpt>
      <trkpt lat="59.224932" lon="18.133126">
        <ele>31</ele>
        <time>2020-01-29T16:19:01Z</time>
      </trkpt>
      <trkpt lat="59.225" lon="18.132994">
        <ele>32</ele>
        <time>2020-01-29T16:19:03Z</time>
      </trkpt>
      <trkpt lat="59.225092" lon="18.132806">
        <ele>32</ele>
        <time>2020-01-29T16:19:05Z</time>
      </trkpt>
      <trkpt lat="59.225132" lon="18.132752">
        <ele>32</ele>
        <time>2020-01-29T16:19:07Z</time>
      </trkpt>
      <trkpt lat="59.225166" lon="18.132695">
        <ele>32</ele>
        <time>2020-01-29T16:19:08Z</time>
      </trkpt>
      <trkpt lat="59.225197" lon="18.132637">
        <ele>0</ele>
        <time>2020-01-29T16:19:08Z</time>
      </trkpt>
      <trkpt lat="59.225237" lon="18.13258">
        <ele>32</ele>
        <time>2020-01-29T16:19:09Z</time>
      </trkpt>
      <trkpt lat="59.225275" lon="18.132529">
        <ele>32</ele>
        <time>2020-01-29T16:19:11Z</time>
      </trkpt>
      <trkpt lat="59.225311" lon="18.132479">
        <ele>32</ele>
        <time>2020-01-29T16:19:12Z</time>
      </trkpt>
      <trkpt lat="59.225347" lon="18.13243">
        <ele>32</ele>
        <time>2020-01-29T16:19:13Z</time>
      </trkpt>
      <trkpt lat="59.225382" lon="18.132379">
        <ele>32</ele>
        <time>2020-01-29T16:19:14Z</time>
      </trkpt>
      <trkpt lat="59.225417" lon="18.132327">
        <ele>0</ele>
        <time>2020-01-29T16:19:14Z</time>
      </trkpt>
      <trkpt lat="59.22545" lon="18.13227">
        <ele>32</ele>
        <time>2020-01-29T16:19:15Z</time>
      </trkpt>
      <trkpt lat="59.225481" lon="18.132208">
        <ele>32</ele>
        <time>2020-01-29T16:19:17Z</time>
      </trkpt>
      <trkpt lat="59.225513" lon="18.132145">
        <ele>32</ele>
        <time>2020-01-29T16:19:18Z</time>
      </trkpt>
      <trkpt lat="59.225547" lon="18.132087">
        <ele>32</ele>
        <time>2020-01-29T16:19:19Z</time>
      </trkpt>
      <trkpt lat="59.225583" lon="18.132032">
        <ele>32</ele>
        <time>2020-01-29T16:19:20Z</time>
      </trkpt>
      <trkpt lat="59.225618" lon="18.131975">
        <ele>32</ele>
        <time>2020-01-29T16:19:21Z</time>
      </trkpt>
      <trkpt lat="59.225647" lon="18.131905">
        <ele>32</ele>
        <time>2020-01-29T16:19:22Z</time>
      </trkpt>
      <trkpt lat="59.225673" lon="18.131825">
        <ele>32</ele>
        <time>2020-01-29T16:19:23Z</time>
      </trkpt>
      <trkpt lat="59.225689" lon="18.13174">
        <ele>32</ele>
        <time>2020-01-29T16:19:24Z</time>
      </trkpt>
      <trkpt lat="59.225704" lon="18.131652">
        <ele>33</ele>
        <time>2020-01-29T16:19:25Z</time>
      </trkpt>
      <trkpt lat="59.225724" lon="18.131565">
        <ele>0</ele>
        <time>2020-01-29T16:19:25Z</time>
      </trkpt>
      <trkpt lat="59.225747" lon="18.131493">
        <ele>33</ele>
        <time>2020-01-29T16:19:26Z</time>
      </trkpt>
      <trkpt lat="59.225779" lon="18.131431">
        <ele>0</ele>
        <time>2020-01-29T16:19:27Z</time>
      </trkpt>
      <trkpt lat="59.225812" lon="18.131376">
        <ele>33</ele>
        <time>2020-01-29T16:19:28Z</time>
      </trkpt>
      <trkpt lat="59.225842" lon="18.131327">
        <ele>33</ele>
        <time>2020-01-29T16:19:30Z</time>
      </trkpt>
      <trkpt lat="59.225874" lon="18.131281">
        <ele>33</ele>
        <time>2020-01-29T16:19:31Z</time>
      </trkpt>
      <trkpt lat="59.225908" lon="18.131234">
        <ele>33</ele>
        <time>2020-01-29T16:19:32Z</time>
      </trkpt>
      <trkpt lat="59.225944" lon="18.131184">
        <ele>33</ele>
        <time>2020-01-29T16:19:33Z</time>
      </trkpt>
      <trkpt lat="59.225981" lon="18.131136">
        <ele>34</ele>
        <time>2020-01-29T16:19:34Z</time>
      </trkpt>
      <trkpt lat="59.226019" lon="18.131089">
        <ele>34</ele>
        <time>2020-01-29T16:19:35Z</time>
      </trkpt>
      <trkpt lat="59.226055" lon="18.131041">
        <ele>34</ele>
        <time>2020-01-29T16:19:36Z</time>
      </trkpt>
      <trkpt lat="59.226091" lon="18.130988">
        <ele>34</ele>
        <time>2020-01-29T16:19:37Z</time>
      </trkpt>
      <trkpt lat="59.226124" lon="18.130936">
        <ele>0</ele>
        <time>2020-01-29T16:19:37Z</time>
      </trkpt>
      <trkpt lat="59.226154" lon="18.130886">
        <ele>34</ele>
        <time>2020-01-29T16:19:38Z</time>
      </trkpt>
      <trkpt lat="59.226183" lon="18.130836">
        <ele>35</ele>
        <time>2020-01-29T16:19:40Z</time>
      </trkpt>
      <trkpt lat="59.226212" lon="18.130786">
        <ele>35</ele>
        <time>2020-01-29T16:19:41Z</time>
      </trkpt>
      <trkpt lat="59.226241" lon="18.130736">
        <ele>35</ele>
        <time>2020-01-29T16:19:42Z</time>
      </trkpt>
      <trkpt lat="59.226271" lon="18.130687">
        <ele>35</ele>
        <time>2020-01-29T16:19:43Z</time>
      </trkpt>
      <trkpt lat="59.226303" lon="18.130637">
        <ele>35</ele>
        <time>2020-01-29T16:19:44Z</time>
      </trkpt>
      <trkpt lat="59.226336" lon="18.130587">
        <ele>35</ele>
        <time>2020-01-29T16:19:45Z</time>
      </trkpt>
      <trkpt lat="59.22637" lon="18.130537">
        <ele>35</ele>
        <time>2020-01-29T16:19:46Z</time>
      </trkpt>
      <trkpt lat="59.226407" lon="18.130487">
        <ele>0</ele>
        <time>2020-01-29T16:19:46Z</time>
      </trkpt>
      <trkpt lat="59.226444" lon="18.130437">
        <ele>35</ele>
        <time>2020-01-29T16:19:47Z</time>
      </trkpt>
      <trkpt lat="59.226477" lon="18.13038">
        <ele>35</ele>
        <time>2020-01-29T16:19:49Z</time>
      </trkpt>
      <trkpt lat="59.226505" lon="18.130315">
        <ele>0</ele>
        <time>2020-01-29T16:19:49Z</time>
      </trkpt>
      <trkpt lat="59.226533" lon="18.130246">
        <ele>35</ele>
        <time>2020-01-29T16:19:50Z</time>
      </trkpt>
      <trkpt lat="59.226559" lon="18.130174">
        <ele>35</ele>
        <time>2020-01-29T16:19:52Z</time>
      </trkpt>
      <trkpt lat="59.226586" lon="18.130103">
        <ele>35</ele>
        <time>2020-01-29T16:19:53Z</time>
      </trkpt>
      <trkpt lat="59.226615" lon="18.130033">
        <ele>35</ele>
        <time>2020-01-29T16:19:54Z</time>
      </trkpt>
      <trkpt lat="59.226648" lon="18.129962">
        <ele>36</ele>
        <time>2020-01-29T16:19:55Z</time>
      </trkpt>
      <trkpt lat="59.22668" lon="18.12989">
        <ele>36</ele>
        <time>2020-01-29T16:19:56Z</time>
      </trkpt>
      <trkpt lat="59.226709" lon="18.12982">
        <ele>36</ele>
        <time>2020-01-29T16:19:57Z</time>
      </trkpt>
      <trkpt lat="59.226737" lon="18.129746">
        <ele>36</ele>
        <time>2020-01-29T16:19:58Z</time>
      </trkpt>
      <trkpt lat="59.226761" lon="18.129674">
        <ele>36</ele>
        <time>2020-01-29T16:19:59Z</time>
      </trkpt>
      <trkpt lat="59.226789" lon="18.1296">
        <ele>0</ele>
        <time>2020-01-29T16:19:59Z</time>
      </trkpt>
      <trkpt lat="59.226816" lon="18.129527">
        <ele>37</ele>
        <time>2020-01-29T16:20:00Z</time>
      </trkpt>
      <trkpt lat="59.226841" lon="18.129455">
        <ele>37</ele>
        <time>2020-01-29T16:20:02Z</time>
      </trkpt>
      <trkpt lat="59.226865" lon="18.129383">
        <ele>37</ele>
        <time>2020-01-29T16:20:03Z</time>
      </trkpt>
      <trkpt lat="59.226889" lon="18.129314">
        <ele>37</ele>
        <time>2020-01-29T16:20:04Z</time>
      </trkpt>
      <trkpt lat="59.226911" lon="18.129247">
        <ele>37</ele>
        <time>2020-01-29T16:20:05Z</time>
      </trkpt>
      <trkpt lat="59.226934" lon="18.129177">
        <ele>0</ele>
        <time>2020-01-29T16:20:05Z</time>
      </trkpt>
      <trkpt lat="59.226957" lon="18.129106">
        <ele>37</ele>
        <time>2020-01-29T16:20:06Z</time>
      </trkpt>
      <trkpt lat="59.22698" lon="18.12903">
        <ele>37</ele>
        <time>2020-01-29T16:20:08Z</time>
      </trkpt>
      <trkpt lat="59.227002" lon="18.128957">
        <ele>37</ele>
        <time>2020-01-29T16:20:09Z</time>
      </trkpt>
      <trkpt lat="59.227022" lon="18.128885">
        <ele>37</ele>
        <time>2020-01-29T16:20:10Z</time>
      </trkpt>
      <trkpt lat="59.227043" lon="18.128812">
        <ele>38</ele>
        <time>2020-01-29T16:20:11Z</time>
      </trkpt>
      <trkpt lat="59.227065" lon="18.12875">
        <ele>0</ele>
        <time>2020-01-29T16:20:11Z</time>
      </trkpt>
      <trkpt lat="59.227085" lon="18.128689">
        <ele>38</ele>
        <time>2020-01-29T16:20:12Z</time>
      </trkpt>
      <trkpt lat="59.227107" lon="18.128613">
        <ele>38</ele>
        <time>2020-01-29T16:20:14Z</time>
      </trkpt>
      <trkpt lat="59.227135" lon="18.128537">
        <ele>38</ele>
        <time>2020-01-29T16:20:15Z</time>
      </trkpt>
      <trkpt lat="59.227168" lon="18.128462">
        <ele>38</ele>
        <time>2020-01-29T16:20:16Z</time>
      </trkpt>
      <trkpt lat="59.227197" lon="18.128384">
        <ele>38</ele>
        <time>2020-01-29T16:20:17Z</time>
      </trkpt>
      <trkpt lat="59.227222" lon="18.128295">
        <ele>38</ele>
        <time>2020-01-29T16:20:18Z</time>
      </trkpt>
      <trkpt lat="59.227248" lon="18.128213">
        <ele>38</ele>
        <time>2020-01-29T16:20:19Z</time>
      </trkpt>
      <trkpt lat="59.227275" lon="18.128135">
        <ele>37</ele>
        <time>2020-01-29T16:20:20Z</time>
      </trkpt>
      <trkpt lat="59.227304" lon="18.128057">
        <ele>38</ele>
        <time>2020-01-29T16:20:21Z</time>
      </trkpt>
      <trkpt lat="59.227335" lon="18.127979">
        <ele>38</ele>
        <time>2020-01-29T16:20:22Z</time>
      </trkpt>
      <trkpt lat="59.227363" lon="18.127904">
        <ele>38</ele>
        <time>2020-01-29T16:20:23Z</time>
      </trkpt>
      <trkpt lat="59.227393" lon="18.127828">
        <ele>38</ele>
        <time>2020-01-29T16:20:24Z</time>
      </trkpt>
      <trkpt lat="59.227424" lon="18.12775">
        <ele>38</ele>
        <time>2020-01-29T16:20:25Z</time>
      </trkpt>
      <trkpt lat="59.227457" lon="18.127673">
        <ele>38</ele>
        <time>2020-01-29T16:20:26Z</time>
      </trkpt>
      <trkpt lat="59.22749" lon="18.127596">
        <ele>38</ele>
        <time>2020-01-29T16:20:27Z</time>
      </trkpt>
      <trkpt lat="59.227521" lon="18.127517">
        <ele>38</ele>
        <time>2020-01-29T16:20:28Z</time>
      </trkpt>
      <trkpt lat="59.227552" lon="18.127439">
        <ele>38</ele>
        <time>2020-01-29T16:20:29Z</time>
      </trkpt>
      <trkpt lat="59.227581" lon="18.127363">
        <ele>38</ele>
        <time>2020-01-29T16:20:30Z</time>
      </trkpt>
      <trkpt lat="59.227612" lon="18.127286">
        <ele>38</ele>
        <time>2020-01-29T16:20:31Z</time>
      </trkpt>
      <trkpt lat="59.22764" lon="18.127209">
        <ele>38</ele>
        <time>2020-01-29T16:20:32Z</time>
      </trkpt>
      <trkpt lat="59.227664" lon="18.127127">
        <ele>0</ele>
        <time>2020-01-29T16:20:32Z</time>
      </trkpt>
      <trkpt lat="59.227684" lon="18.127041">
        <ele>38</ele>
        <time>2020-01-29T16:20:33Z</time>
      </trkpt>
      <trkpt lat="59.2277" lon="18.126951">
        <ele>38</ele>
        <time>2020-01-29T16:20:35Z</time>
      </trkpt>
      <trkpt lat="59.227715" lon="18.12686">
        <ele>38</ele>
        <time>2020-01-29T16:20:36Z</time>
      </trkpt>
      <trkpt lat="59.22773" lon="18.126767">
        <ele>38</ele>
        <time>2020-01-29T16:20:37Z</time>
      </trkpt>
      <trkpt lat="59.227748" lon="18.126683">
        <ele>39</ele>
        <time>2020-01-29T16:20:38Z</time>
      </trkpt>
      <trkpt lat="59.22777" lon="18.126607">
        <ele>39</ele>
        <time>2020-01-29T16:20:39Z</time>
      </trkpt>
      <trkpt lat="59.227802" lon="18.126549">
        <ele>39</ele>
        <time>2020-01-29T16:20:40Z</time>
      </trkpt>
      <trkpt lat="59.227843" lon="18.126516">
        <ele>39</ele>
        <time>2020-01-29T16:20:41Z</time>
      </trkpt>
      <trkpt lat="59.22789" lon="18.126505">
        <ele>39</ele>
        <time>2020-01-29T16:20:42Z</time>
      </trkpt>
      <trkpt lat="59.227939" lon="18.1265">
        <ele>39</ele>
        <time>2020-01-29T16:20:43Z</time>
      </trkpt>
      <trkpt lat="59.227987" lon="18.126491">
        <ele>39</ele>
        <time>2020-01-29T16:20:44Z</time>
      </trkpt>
      <trkpt lat="59.228038" lon="18.126481">
        <ele>40</ele>
        <time>2020-01-29T16:20:45Z</time>
      </trkpt>
      <trkpt lat="59.228091" lon="18.126472">
        <ele>40</ele>
        <time>2020-01-29T16:20:46Z</time>
      </trkpt>
      <trkpt lat="59.228147" lon="18.126463">
        <ele>40</ele>
        <time>2020-01-29T16:20:47Z</time>
      </trkpt>
      <trkpt lat="59.228205" lon="18.126455">
        <ele>40</ele>
        <time>2020-01-29T16:20:48Z</time>
      </trkpt>
      <trkpt lat="59.228265" lon="18.126448">
        <ele>40</ele>
        <time>2020-01-29T16:20:49Z</time>
      </trkpt>
      <trkpt lat="59.228326" lon="18.126443">
        <ele>39</ele>
        <time>2020-01-29T16:20:50Z</time>
      </trkpt>
      <trkpt lat="59.228392" lon="18.126442">
        <ele>39</ele>
        <time>2020-01-29T16:20:51Z</time>
      </trkpt>
      <trkpt lat="59.228459" lon="18.126446">
        <ele>0</ele>
        <time>2020-01-29T16:20:51Z</time>
      </trkpt>
      <trkpt lat="59.228526" lon="18.126436">
        <ele>39</ele>
        <time>2020-01-29T16:20:52Z</time>
      </trkpt>
      <trkpt lat="59.228588" lon="18.126392">
        <ele>39</ele>
        <time>2020-01-29T16:20:54Z</time>
      </trkpt>
      <trkpt lat="59.228643" lon="18.126316">
        <ele>39</ele>
        <time>2020-01-29T16:20:55Z</time>
      </trkpt>
      <trkpt lat="59.228692" lon="18.126224">
        <ele>39</ele>
        <time>2020-01-29T16:20:56Z</time>
      </trkpt>
      <trkpt lat="59.228738" lon="18.126131">
        <ele>38</ele>
        <time>2020-01-29T16:20:57Z</time>
      </trkpt>
      <trkpt lat="59.228783" lon="18.12603">
        <ele>38</ele>
        <time>2020-01-29T16:20:58Z</time>
      </trkpt>
      <trkpt lat="59.228825" lon="18.125931">
        <ele>0</ele>
        <time>2020-01-29T16:20:58Z</time>
      </trkpt>
      <trkpt lat="59.228876" lon="18.125824">
        <ele>38</ele>
        <time>2020-01-29T16:20:59Z</time>
      </trkpt>
      <trkpt lat="59.228927" lon="18.12571">
        <ele>38</ele>
        <time>2020-01-29T16:21:01Z</time>
      </trkpt>
      <trkpt lat="59.228974" lon="18.125607">
        <ele>38</ele>
        <time>2020-01-29T16:21:02Z</time>
      </trkpt>
      <trkpt lat="59.229024" lon="18.125507">
        <ele>0</ele>
        <time>2020-01-29T16:21:02Z</time>
      </trkpt>
      <trkpt lat="59.229079" lon="18.125403">
        <ele>38</ele>
        <time>2020-01-29T16:21:03Z</time>
      </trkpt>
      <trkpt lat="59.22913" lon="18.125285">
        <ele>37</ele>
        <time>2020-01-29T16:21:05Z</time>
      </trkpt>
      <trkpt lat="59.229179" lon="18.125164">
        <ele>0</ele>
        <time>2020-01-29T16:21:05Z</time>
      </trkpt>
      <trkpt lat="59.229224" lon="18.125054">
        <ele>37</ele>
        <time>2020-01-29T16:21:06Z</time>
      </trkpt>
      <trkpt lat="59.229271" lon="18.124946">
        <ele>37</ele>
        <time>2020-01-29T16:21:08Z</time>
      </trkpt>
      <trkpt lat="59.229316" lon="18.124853">
        <ele>37</ele>
        <time>2020-01-29T16:21:09Z</time>
      </trkpt>
      <trkpt lat="59.229353" lon="18.12454">
        <ele>37</ele>
        <time>2020-01-29T16:21:11Z</time>
      </trkpt>
      <trkpt lat="59.229382" lon="18.124283">
        <ele>0</ele>
        <time>2020-01-29T16:21:12Z</time>
      </trkpt>
      <trkpt lat="59.229413" lon="18.12418">
        <ele>37</ele>
        <time>2020-01-29T16:21:13Z</time>
      </trkpt>
      <trkpt lat="59.229443" lon="18.124091">
        <ele>37</ele>
        <time>2020-01-29T16:21:15Z</time>
      </trkpt>
      <trkpt lat="59.229483" lon="18.124028">
        <ele>37</ele>
        <time>2020-01-29T16:21:16Z</time>
      </trkpt>
      <trkpt lat="59.229525" lon="18.123972">
        <ele>37</ele>
        <time>2020-01-29T16:21:17Z</time>
      </trkpt>
      <trkpt lat="59.229568" lon="18.12393">
        <ele>37</ele>
        <time>2020-01-29T16:21:18Z</time>
      </trkpt>
      <trkpt lat="59.229614" lon="18.123882">
        <ele>37</ele>
        <time>2020-01-29T16:21:19Z</time>
      </trkpt>
      <trkpt lat="59.229659" lon="18.123831">
        <ele>37</ele>
        <time>2020-01-29T16:21:20Z</time>
      </trkpt>
      <trkpt lat="59.229705" lon="18.123781">
        <ele>37</ele>
        <time>2020-01-29T16:21:21Z</time>
      </trkpt>
      <trkpt lat="59.229753" lon="18.123731">
        <ele>0</ele>
        <time>2020-01-29T16:21:21Z</time>
      </trkpt>
      <trkpt lat="59.229801" lon="18.123682">
        <ele>37</ele>
        <time>2020-01-29T16:21:22Z</time>
      </trkpt>
      <trkpt lat="59.229851" lon="18.123634">
        <ele>37</ele>
        <time>2020-01-29T16:21:24Z</time>
      </trkpt>
      <trkpt lat="59.229901" lon="18.123586">
        <ele>37</ele>
        <time>2020-01-29T16:21:25Z</time>
      </trkpt>
      <trkpt lat="59.229951" lon="18.123533">
        <ele>37</ele>
        <time>2020-01-29T16:21:26Z</time>
      </trkpt>
      <trkpt lat="59.229995" lon="18.123463">
        <ele>36</ele>
        <time>2020-01-29T16:21:27Z</time>
      </trkpt>
      <trkpt lat="59.23003" lon="18.123368">
        <ele>36</ele>
        <time>2020-01-29T16:21:28Z</time>
      </trkpt>
      <trkpt lat="59.23005" lon="18.123259">
        <ele>36</ele>
        <time>2020-01-29T16:21:29Z</time>
      </trkpt>
      <trkpt lat="59.230057" lon="18.12314">
        <ele>37</ele>
        <time>2020-01-29T16:21:30Z</time>
      </trkpt>
      <trkpt lat="59.230052" lon="18.123018">
        <ele>0</ele>
        <time>2020-01-29T16:21:30Z</time>
      </trkpt>
      <trkpt lat="59.23004" lon="18.122894">
        <ele>37</ele>
        <time>2020-01-29T16:21:31Z</time>
      </trkpt>
      <trkpt lat="59.230022" lon="18.122766">
        <ele>37</ele>
        <time>2020-01-29T16:21:33Z</time>
      </trkpt>
      <trkpt lat="59.229998" lon="18.122644">
        <ele>37</ele>
        <time>2020-01-29T16:21:34Z</time>
      </trkpt>
      <trkpt lat="59.229969" lon="18.122526">
        <ele>37</ele>
        <time>2020-01-29T16:21:35Z</time>
      </trkpt>
      <trkpt lat="59.229933" lon="18.122408">
        <ele>37</ele>
        <time>2020-01-29T16:21:36Z</time>
      </trkpt>
      <trkpt lat="59.22989" lon="18.122288">
        <ele>38</ele>
        <time>2020-01-29T16:21:37Z</time>
      </trkpt>
      <trkpt lat="59.22985" lon="18.122168">
        <ele>0</ele>
        <time>2020-01-29T16:21:37Z</time>
      </trkpt>
      <trkpt lat="59.229812" lon="18.12204">
        <ele>37</ele>
        <time>2020-01-29T16:21:38Z</time>
      </trkpt>
      <trkpt lat="59.229791" lon="18.121906">
        <ele>36</ele>
        <time>2020-01-29T16:21:40Z</time>
      </trkpt>
      <trkpt lat="59.229788" lon="18.121777">
        <ele>36</ele>
        <time>2020-01-29T16:21:41Z</time>
      </trkpt>
      <trkpt lat="59.229806" lon="18.121661">
        <ele>36</ele>
        <time>2020-01-29T16:21:42Z</time>
      </trkpt>
      <trkpt lat="59.229841" lon="18.121575">
        <ele>36</ele>
        <time>2020-01-29T16:21:43Z</time>
      </trkpt>
      <trkpt lat="59.229883" lon="18.121518">
        <ele>36</ele>
        <time>2020-01-29T16:21:44Z</time>
      </trkpt>
      <trkpt lat="59.229927" lon="18.121474">
        <ele>36</ele>
        <time>2020-01-29T16:21:45Z</time>
      </trkpt>
      <trkpt lat="59.22997" lon="18.121433">
        <ele>36</ele>
        <time>2020-01-29T16:21:46Z</time>
      </trkpt>
      <trkpt lat="59.23001" lon="18.121396">
        <ele>36</ele>
        <time>2020-01-29T16:21:47Z</time>
      </trkpt>
      <trkpt lat="59.230048" lon="18.121358">
        <ele>36</ele>
        <time>2020-01-29T16:21:48Z</time>
      </trkpt>
      <trkpt lat="59.230088" lon="18.121319">
        <ele>36</ele>
        <time>2020-01-29T16:21:49Z</time>
      </trkpt>
      <trkpt lat="59.230128" lon="18.121283">
        <ele>36</ele>
        <time>2020-01-29T16:21:50Z</time>
      </trkpt>
      <trkpt lat="59.230173" lon="18.121249">
        <ele>35</ele>
        <time>2020-01-29T16:21:51Z</time>
      </trkpt>
      <trkpt lat="59.230218" lon="18.121219">
        <ele>35</ele>
        <time>2020-01-29T16:21:52Z</time>
      </trkpt>
      <trkpt lat="59.230261" lon="18.121193">
        <ele>35</ele>
        <time>2020-01-29T16:21:53Z</time>
      </trkpt>
      <trkpt lat="59.230307" lon="18.121175">
        <ele>35</ele>
        <time>2020-01-29T16:21:54Z</time>
      </trkpt>
      <trkpt lat="59.230353" lon="18.121165">
        <ele>35</ele>
        <time>2020-01-29T16:21:55Z</time>
      </trkpt>
      <trkpt lat="59.230397" lon="18.121164">
        <ele>35</ele>
        <time>2020-01-29T16:21:56Z</time>
      </trkpt>
      <trkpt lat="59.230441" lon="18.121163">
        <ele>0</ele>
        <time>2020-01-29T16:21:56Z</time>
      </trkpt>
      <trkpt lat="59.230487" lon="18.121162">
        <ele>35</ele>
        <time>2020-01-29T16:21:57Z</time>
      </trkpt>
      <trkpt lat="59.230533" lon="18.121161">
        <ele>36</ele>
        <time>2020-01-29T16:21:59Z</time>
      </trkpt>
      <trkpt lat="59.230575" lon="18.121155">
        <ele>0</ele>
        <time>2020-01-29T16:21:59Z</time>
      </trkpt>
      <trkpt lat="59.23062" lon="18.12114">
        <ele>36</ele>
        <time>2020-01-29T16:22:00Z</time>
      </trkpt>
      <trkpt lat="59.230664" lon="18.121122">
        <ele>36</ele>
        <time>2020-01-29T16:22:02Z</time>
      </trkpt>
      <trkpt lat="59.230708" lon="18.121095">
        <ele>36</ele>
        <time>2020-01-29T16:22:03Z</time>
      </trkpt>
      <trkpt lat="59.230754" lon="18.121067">
        <ele>36</ele>
        <time>2020-01-29T16:22:04Z</time>
      </trkpt>
      <trkpt lat="59.230794" lon="18.121049">
        <ele>36</ele>
        <time>2020-01-29T16:22:05Z</time>
      </trkpt>
      <trkpt lat="59.230833" lon="18.121028">
        <ele>36</ele>
        <time>2020-01-29T16:22:06Z</time>
      </trkpt>
      <trkpt lat="59.230875" lon="18.121007">
        <ele>36</ele>
        <time>2020-01-29T16:22:07Z</time>
      </trkpt>
      <trkpt lat="59.230914" lon="18.120984">
        <ele>37</ele>
        <time>2020-01-29T16:22:08Z</time>
      </trkpt>
      <trkpt lat="59.230949" lon="18.12096">
        <ele>0</ele>
        <time>2020-01-29T16:22:08Z</time>
      </trkpt>
      <trkpt lat="59.230988" lon="18.120933">
        <ele>37</ele>
        <time>2020-01-29T16:22:09Z</time>
      </trkpt>
      <trkpt lat="59.231024" lon="18.120911">
        <ele>37</ele>
        <time>2020-01-29T16:22:11Z</time>
      </trkpt>
      <trkpt lat="59.231059" lon="18.120888">
        <ele>37</ele>
        <time>2020-01-29T16:22:12Z</time>
      </trkpt>
      <trkpt lat="59.231098" lon="18.120862">
        <ele>37</ele>
        <time>2020-01-29T16:22:13Z</time>
      </trkpt>
      <trkpt lat="59.231134" lon="18.120838">
        <ele>37</ele>
        <time>2020-01-29T16:22:14Z</time>
      </trkpt>
      <trkpt lat="59.231172" lon="18.12081">
        <ele>37</ele>
        <time>2020-01-29T16:22:15Z</time>
      </trkpt>
      <trkpt lat="59.231212" lon="18.120782">
        <ele>38</ele>
        <time>2020-01-29T16:22:16Z</time>
      </trkpt>
      <trkpt lat="59.231253" lon="18.120755">
        <ele>38</ele>
        <time>2020-01-29T16:22:17Z</time>
      </trkpt>
      <trkpt lat="59.231291" lon="18.120728">
        <ele>38</ele>
        <time>2020-01-29T16:22:18Z</time>
      </trkpt>
      <trkpt lat="59.231331" lon="18.120698">
        <ele>0</ele>
        <time>2020-01-29T16:22:18Z</time>
      </trkpt>
      <trkpt lat="59.231371" lon="18.120666">
        <ele>38</ele>
        <time>2020-01-29T16:22:19Z</time>
      </trkpt>
      <trkpt lat="59.231413" lon="18.120636">
        <ele>0</ele>
        <time>2020-01-29T16:22:20Z</time>
      </trkpt>
      <trkpt lat="59.231455" lon="18.120609">
        <ele>38</ele>
        <time>2020-01-29T16:22:21Z</time>
      </trkpt>
      <trkpt lat="59.231495" lon="18.120586">
        <ele>38</ele>
        <time>2020-01-29T16:22:23Z</time>
      </trkpt>
      <trkpt lat="59.231536" lon="18.12056">
        <ele>38</ele>
        <time>2020-01-29T16:22:24Z</time>
      </trkpt>
      <trkpt lat="59.231576" lon="18.120531">
        <ele>38</ele>
        <time>2020-01-29T16:22:25Z</time>
      </trkpt>
      <trkpt lat="59.231618" lon="18.120495">
        <ele>38</ele>
        <time>2020-01-29T16:22:26Z</time>
      </trkpt>
      <trkpt lat="59.231663" lon="18.120455">
        <ele>39</ele>
        <time>2020-01-29T16:22:27Z</time>
      </trkpt>
      <trkpt lat="59.231716" lon="18.120419">
        <ele>39</ele>
        <time>2020-01-29T16:22:28Z</time>
      </trkpt>
      <trkpt lat="59.231768" lon="18.120394">
        <ele>39</ele>
        <time>2020-01-29T16:22:29Z</time>
      </trkpt>
      <trkpt lat="59.231822" lon="18.12037">
        <ele>39</ele>
        <time>2020-01-29T16:22:30Z</time>
      </trkpt>
      <trkpt lat="59.23188" lon="18.120348">
        <ele>0</ele>
        <time>2020-01-29T16:22:30Z</time>
      </trkpt>
      <trkpt lat="59.231944" lon="18.120332">
        <ele>39</ele>
        <time>2020-01-29T16:22:31Z</time>
      </trkpt>
      <trkpt lat="59.232006" lon="18.120324">
        <ele>39</ele>
        <time>2020-01-29T16:22:33Z</time>
      </trkpt>
      <trkpt lat="59.232069" lon="18.120316">
        <ele>39</ele>
        <time>2020-01-29T16:22:34Z</time>
      </trkpt>
      <trkpt lat="59.232133" lon="18.12031">
        <ele>38</ele>
        <time>2020-01-29T16:22:35Z</time>
      </trkpt>
      <trkpt lat="59.232194" lon="18.120312">
        <ele>38</ele>
        <time>2020-01-29T16:22:36Z</time>
      </trkpt>
      <trkpt lat="59.23225" lon="18.120324">
        <ele>38</ele>
        <time>2020-01-29T16:22:37Z</time>
      </trkpt>
      <trkpt lat="59.232299" lon="18.120349">
        <ele>0</ele>
        <time>2020-01-29T16:22:37Z</time>
      </trkpt>
      <trkpt lat="59.232344" lon="18.120382">
        <ele>38</ele>
        <time>2020-01-29T16:22:38Z</time>
      </trkpt>
      <trkpt lat="59.232378" lon="18.120418">
        <ele>0</ele>
        <time>2020-01-29T16:22:39Z</time>
      </trkpt>
      <trkpt lat="59.232398" lon="18.120458">
        <ele>39</ele>
        <time>2020-01-29T16:22:40Z</time>
      </trkpt>
      <trkpt lat="59.232412" lon="18.120506">
        <ele>39</ele>
        <time>2020-01-29T16:22:42Z</time>
      </trkpt>
      <trkpt lat="59.232419" lon="18.12055">
        <ele>39</ele>
        <time>2020-01-29T16:22:43Z</time>
      </trkpt>
      <trkpt lat="59.232424" lon="18.120589">
        <ele>39</ele>
        <time>2020-01-29T16:22:44Z</time>
      </trkpt>
      <trkpt lat="59.232429" lon="18.120638">
        <ele>39</ele>
        <time>2020-01-29T16:22:46Z</time>
      </trkpt>
      <trkpt lat="59.232434" lon="18.120654">
        <ele>0</ele>
        <time>2020-01-29T16:22:51Z</time>
      </trkpt>
      <trkpt lat="59.2325" lon="18.120788">
        <ele>38</ele>
        <time>2020-01-29T16:23:00Z</time>
      </trkpt>
      <trkpt lat="59.232525" lon="18.120851">
        <ele>38</ele>
        <time>2020-01-29T16:23:02Z</time>
      </trkpt>
      <trkpt lat="59.232549" lon="18.120918">
        <ele>38</ele>
        <time>2020-01-29T16:23:03Z</time>
      </trkpt>
      <trkpt lat="59.23258" lon="18.120976">
        <ele>39</ele>
        <time>2020-01-29T16:23:04Z</time>
      </trkpt>
      <trkpt lat="59.232619" lon="18.121013">
        <ele>39</ele>
        <time>2020-01-29T16:23:05Z</time>
      </trkpt>
      <trkpt lat="59.232662" lon="18.121049">
        <ele>39</ele>
        <time>2020-01-29T16:23:06Z</time>
      </trkpt>
      <trkpt lat="59.232702" lon="18.121101">
        <ele>39</ele>
        <time>2020-01-29T16:23:07Z</time>
      </trkpt>
      <trkpt lat="59.232741" lon="18.121161">
        <ele>39</ele>
        <time>2020-01-29T16:23:08Z</time>
      </trkpt>
      <trkpt lat="59.232783" lon="18.121219">
        <ele>0</ele>
        <time>2020-01-29T16:23:08Z</time>
      </trkpt>
      <trkpt lat="59.232823" lon="18.121271">
        <ele>39</ele>
        <time>2020-01-29T16:23:09Z</time>
      </trkpt>
      <trkpt lat="59.232868" lon="18.121316">
        <ele>39</ele>
        <time>2020-01-29T16:23:11Z</time>
      </trkpt>
      <trkpt lat="59.232915" lon="18.121351">
        <ele>39</ele>
        <time>2020-01-29T16:23:12Z</time>
      </trkpt>
      <trkpt lat="59.232964" lon="18.121371">
        <ele>39</ele>
        <time>2020-01-29T16:23:13Z</time>
      </trkpt>
      <trkpt lat="59.233017" lon="18.121378">
        <ele>39</ele>
        <time>2020-01-29T16:23:14Z</time>
      </trkpt>
      <trkpt lat="59.233072" lon="18.121371">
        <ele>39</ele>
        <time>2020-01-29T16:23:15Z</time>
      </trkpt>
      <trkpt lat="59.233132" lon="18.121351">
        <ele>39</ele>
        <time>2020-01-29T16:23:16Z</time>
      </trkpt>
      <trkpt lat="59.23319" lon="18.121316">
        <ele>39</ele>
        <time>2020-01-29T16:23:17Z</time>
      </trkpt>
      <trkpt lat="59.23325" lon="18.12127">
        <ele>0</ele>
        <time>2020-01-29T16:23:17Z</time>
      </trkpt>
      <trkpt lat="59.233312" lon="18.121221">
        <ele>39</ele>
        <time>2020-01-29T16:23:18Z</time>
      </trkpt>
      <trkpt lat="59.233382" lon="18.121175">
        <ele>39</ele>
        <time>2020-01-29T16:23:19Z</time>
      </trkpt>
      <trkpt lat="59.233454" lon="18.121127">
        <ele>39</ele>
        <time>2020-01-29T16:23:21Z</time>
      </trkpt>
      <trkpt lat="59.233526" lon="18.12108">
        <ele>39</ele>
        <time>2020-01-29T16:23:22Z</time>
      </trkpt>
      <trkpt lat="59.233602" lon="18.121031">
        <ele>39</ele>
        <time>2020-01-29T16:23:23Z</time>
      </trkpt>
      <trkpt lat="59.233676" lon="18.12098">
        <ele>39</ele>
        <time>2020-01-29T16:23:24Z</time>
      </trkpt>
      <trkpt lat="59.233748" lon="18.12092">
        <ele>0</ele>
        <time>2020-01-29T16:23:24Z</time>
      </trkpt>
      <trkpt lat="59.233824" lon="18.120864">
        <ele>39</ele>
        <time>2020-01-29T16:23:25Z</time>
      </trkpt>
      <trkpt lat="59.233902" lon="18.120811">
        <ele>39</ele>
        <time>2020-01-29T16:23:27Z</time>
      </trkpt>
      <trkpt lat="59.233984" lon="18.120758">
        <ele>39</ele>
        <time>2020-01-29T16:23:28Z</time>
      </trkpt>
      <trkpt lat="59.234072" lon="18.120705">
        <ele>39</ele>
        <time>2020-01-29T16:23:29Z</time>
      </trkpt>
      <trkpt lat="59.234163" lon="18.120646">
        <ele>0</ele>
        <time>2020-01-29T16:23:29Z</time>
      </trkpt>
      <trkpt lat="59.234252" lon="18.120585">
        <ele>39</ele>
        <time>2020-01-29T16:23:30Z</time>
      </trkpt>
      <trkpt lat="59.234348" lon="18.120525">
        <ele>38</ele>
        <time>2020-01-29T16:23:32Z</time>
      </trkpt>
      <trkpt lat="59.234441" lon="18.120467">
        <ele>37</ele>
        <time>2020-01-29T16:23:33Z</time>
      </trkpt>
      <trkpt lat="59.234534" lon="18.120409">
        <ele>37</ele>
        <time>2020-01-29T16:23:34Z</time>
      </trkpt>
      <trkpt lat="59.234622" lon="18.120352">
        <ele>0</ele>
        <time>2020-01-29T16:23:34Z</time>
      </trkpt>
      <trkpt lat="59.234716" lon="18.120292">
        <ele>36</ele>
        <time>2020-01-29T16:23:35Z</time>
      </trkpt>
      <trkpt lat="59.234807" lon="18.120232">
        <ele>35</ele>
        <time>2020-01-29T16:23:37Z</time>
      </trkpt>
      <trkpt lat="59.234898" lon="18.120177">
        <ele>0</ele>
        <time>2020-01-29T16:23:37Z</time>
      </trkpt>
      <trkpt lat="59.23499" lon="18.12013">
        <ele>34</ele>
        <time>2020-01-29T16:23:38Z</time>
      </trkpt>
      <trkpt lat="59.23508" lon="18.120099">
        <ele>33</ele>
        <time>2020-01-29T16:23:40Z</time>
      </trkpt>
      <trkpt lat="59.235169" lon="18.120079">
        <ele>0</ele>
        <time>2020-01-29T16:23:40Z</time>
      </trkpt>
      <trkpt lat="59.235254" lon="18.120054">
        <ele>33</ele>
        <time>2020-01-29T16:23:41Z</time>
      </trkpt>
      <trkpt lat="59.235338" lon="18.120018">
        <ele>32</ele>
        <time>2020-01-29T16:23:43Z</time>
      </trkpt>
      <trkpt lat="59.235421" lon="18.119981">
        <ele>32</ele>
        <time>2020-01-29T16:23:44Z</time>
      </trkpt>
      <trkpt lat="59.235502" lon="18.119945">
        <ele>31</ele>
        <time>2020-01-29T16:23:45Z</time>
      </trkpt>
      <trkpt lat="59.235578" lon="18.119898">
        <ele>31</ele>
        <time>2020-01-29T16:23:46Z</time>
      </trkpt>
      <trkpt lat="59.23565" lon="18.119844">
        <ele>0</ele>
        <time>2020-01-29T16:23:46Z</time>
      </trkpt>
      <trkpt lat="59.235722" lon="18.119791">
        <ele>31</ele>
        <time>2020-01-29T16:23:47Z</time>
      </trkpt>
      <trkpt lat="59.235794" lon="18.119748">
        <ele>31</ele>
        <time>2020-01-29T16:23:49Z</time>
      </trkpt>
      <trkpt lat="59.235868" lon="18.119715">
        <ele>31</ele>
        <time>2020-01-29T16:23:50Z</time>
      </trkpt>
      <trkpt lat="59.235939" lon="18.119688">
        <ele>31</ele>
        <time>2020-01-29T16:23:51Z</time>
      </trkpt>
      <trkpt lat="59.236012" lon="18.119666">
        <ele>30</ele>
        <time>2020-01-29T16:23:52Z</time>
      </trkpt>
      <trkpt lat="59.236082" lon="18.119647">
        <ele>0</ele>
        <time>2020-01-29T16:23:52Z</time>
      </trkpt>
      <trkpt lat="59.236154" lon="18.119629">
        <ele>30</ele>
        <time>2020-01-29T16:23:53Z</time>
      </trkpt>
      <trkpt lat="59.236226" lon="18.119612">
        <ele>30</ele>
        <time>2020-01-29T16:23:55Z</time>
      </trkpt>
      <trkpt lat="59.236298" lon="18.119598">
        <ele>30</ele>
        <time>2020-01-29T16:23:56Z</time>
      </trkpt>
      <trkpt lat="59.23637" lon="18.119585">
        <ele>0</ele>
        <time>2020-01-29T16:23:56Z</time>
      </trkpt>
      <trkpt lat="59.23644" lon="18.119573">
        <ele>30</ele>
        <time>2020-01-29T16:23:57Z</time>
      </trkpt>
      <trkpt lat="59.236512" lon="18.119564">
        <ele>30</ele>
        <time>2020-01-29T16:23:59Z</time>
      </trkpt>
      <trkpt lat="59.236582" lon="18.119558">
        <ele>0</ele>
        <time>2020-01-29T16:23:59Z</time>
      </trkpt>
      <trkpt lat="59.236653" lon="18.119556">
        <ele>30</ele>
        <time>2020-01-29T16:24:00Z</time>
      </trkpt>
      <trkpt lat="59.236724" lon="18.119553">
        <ele>30</ele>
        <time>2020-01-29T16:24:02Z</time>
      </trkpt>
      <trkpt lat="59.236793" lon="18.119551">
        <ele>30</ele>
        <time>2020-01-29T16:24:03Z</time>
      </trkpt>
      <trkpt lat="59.236863" lon="18.119555">
        <ele>30</ele>
        <time>2020-01-29T16:24:04Z</time>
      </trkpt>
      <trkpt lat="59.236932" lon="18.119561">
        <ele>30</ele>
        <time>2020-01-29T16:24:05Z</time>
      </trkpt>
      <trkpt lat="59.237002" lon="18.11957">
        <ele>30</ele>
        <time>2020-01-29T16:24:06Z</time>
      </trkpt>
      <trkpt lat="59.237071" lon="18.11958">
        <ele>30</ele>
        <time>2020-01-29T16:24:07Z</time>
      </trkpt>
      <trkpt lat="59.23714" lon="18.119591">
        <ele>0</ele>
        <time>2020-01-29T16:24:07Z</time>
      </trkpt>
      <trkpt lat="59.237208" lon="18.1196">
        <ele>30</ele>
        <time>2020-01-29T16:24:08Z</time>
      </trkpt>
      <trkpt lat="59.237275" lon="18.119611">
        <ele>30</ele>
        <time>2020-01-29T16:24:10Z</time>
      </trkpt>
      <trkpt lat="59.237342" lon="18.119622">
        <ele>30</ele>
        <time>2020-01-29T16:24:11Z</time>
      </trkpt>
      <trkpt lat="59.237408" lon="18.119634">
        <ele>30</ele>
        <time>2020-01-29T16:24:12Z</time>
      </trkpt>
      <trkpt lat="59.237474" lon="18.119646">
        <ele>30</ele>
        <time>2020-01-29T16:24:13Z</time>
      </trkpt>
      <trkpt lat="59.237541" lon="18.119658">
        <ele>29</ele>
        <time>2020-01-29T16:24:14Z</time>
      </trkpt>
      <trkpt lat="59.237606" lon="18.119672">
        <ele>0</ele>
        <time>2020-01-29T16:24:14Z</time>
      </trkpt>
      <trkpt lat="59.23767" lon="18.119682">
        <ele>29</ele>
        <time>2020-01-29T16:24:15Z</time>
      </trkpt>
      <trkpt lat="59.237735" lon="18.119692">
        <ele>29</ele>
        <time>2020-01-29T16:24:16Z</time>
      </trkpt>
      <trkpt lat="59.237801" lon="18.119703">
        <ele>29</ele>
        <time>2020-01-29T16:24:18Z</time>
      </trkpt>
      <trkpt lat="59.237866" lon="18.119713">
        <ele>29</ele>
        <time>2020-01-29T16:24:19Z</time>
      </trkpt>
      <trkpt lat="59.237931" lon="18.119723">
        <ele>29</ele>
        <time>2020-01-29T16:24:20Z</time>
      </trkpt>
      <trkpt lat="59.237997" lon="18.119734">
        <ele>29</ele>
        <time>2020-01-29T16:24:21Z</time>
      </trkpt>
      <trkpt lat="59.238063" lon="18.119745">
        <ele>29</ele>
        <time>2020-01-29T16:24:22Z</time>
      </trkpt>
      <trkpt lat="59.238129" lon="18.119752">
        <ele>0</ele>
        <time>2020-01-29T16:24:22Z</time>
      </trkpt>
      <trkpt lat="59.238195" lon="18.119763">
        <ele>29</ele>
        <time>2020-01-29T16:24:23Z</time>
      </trkpt>
      <trkpt lat="59.238261" lon="18.119775">
        <ele>29</ele>
        <time>2020-01-29T16:24:25Z</time>
      </trkpt>
      <trkpt lat="59.238328" lon="18.119788">
        <ele>29</ele>
        <time>2020-01-29T16:24:26Z</time>
      </trkpt>
      <trkpt lat="59.238396" lon="18.119797">
        <ele>29</ele>
        <time>2020-01-29T16:24:27Z</time>
      </trkpt>
      <trkpt lat="59.238465" lon="18.119805">
        <ele>29</ele>
        <time>2020-01-29T16:24:28Z</time>
      </trkpt>
      <trkpt lat="59.238533" lon="18.119815">
        <ele>29</ele>
        <time>2020-01-29T16:24:29Z</time>
      </trkpt>
      <trkpt lat="59.238602" lon="18.119826">
        <ele>0</ele>
        <time>2020-01-29T16:24:29Z</time>
      </trkpt>
      <trkpt lat="59.238671" lon="18.119838">
        <ele>29</ele>
        <time>2020-01-29T16:24:30Z</time>
      </trkpt>
      <trkpt lat="59.238741" lon="18.119848">
        <ele>29</ele>
        <time>2020-01-29T16:24:32Z</time>
      </trkpt>
      <trkpt lat="59.23881" lon="18.119857">
        <ele>29</ele>
        <time>2020-01-29T16:24:33Z</time>
      </trkpt>
      <trkpt lat="59.238878" lon="18.119864">
        <ele>29</ele>
        <time>2020-01-29T16:24:34Z</time>
      </trkpt>
      <trkpt lat="59.238947" lon="18.119868">
        <ele>0</ele>
        <time>2020-01-29T16:24:34Z</time>
      </trkpt>
      <trkpt lat="59.239015" lon="18.119868">
        <ele>29</ele>
        <time>2020-01-29T16:24:35Z</time>
      </trkpt>
      <trkpt lat="59.239084" lon="18.119861">
        <ele>0</ele>
        <time>2020-01-29T16:24:36Z</time>
      </trkpt>
      <trkpt lat="59.239153" lon="18.119851">
        <ele>29</ele>
        <time>2020-01-29T16:24:37Z</time>
      </trkpt>
      <trkpt lat="59.239221" lon="18.119838">
        <ele>29</ele>
        <time>2020-01-29T16:24:38Z</time>
      </trkpt>
      <trkpt lat="59.239289" lon="18.119823">
        <ele>29</ele>
        <time>2020-01-29T16:24:40Z</time>
      </trkpt>
      <trkpt lat="59.239357" lon="18.119809">
        <ele>29</ele>
        <time>2020-01-29T16:24:41Z</time>
      </trkpt>
      <trkpt lat="59.239425" lon="18.119789">
        <ele>29</ele>
        <time>2020-01-29T16:24:42Z</time>
      </trkpt>
      <trkpt lat="59.239492" lon="18.119765">
        <ele>29</ele>
        <time>2020-01-29T16:24:43Z</time>
      </trkpt>
      <trkpt lat="59.239561" lon="18.119737">
        <ele>29</ele>
        <time>2020-01-29T16:24:44Z</time>
      </trkpt>
      <trkpt lat="59.239629" lon="18.11971">
        <ele>0</ele>
        <time>2020-01-29T16:24:44Z</time>
      </trkpt>
      <trkpt lat="59.239698" lon="18.119683">
        <ele>29</ele>
        <time>2020-01-29T16:24:45Z</time>
      </trkpt>
      <trkpt lat="59.239766" lon="18.119656">
        <ele>29</ele>
        <time>2020-01-29T16:24:47Z</time>
      </trkpt>
      <trkpt lat="59.239834" lon="18.119629">
        <ele>29</ele>
        <time>2020-01-29T16:24:48Z</time>
      </trkpt>
      <trkpt lat="59.239901" lon="18.119604">
        <ele>29</ele>
        <time>2020-01-29T16:24:49Z</time>
      </trkpt>
      <trkpt lat="59.239968" lon="18.11958">
        <ele>29</ele>
        <time>2020-01-29T16:24:50Z</time>
      </trkpt>
      <trkpt lat="59.240034" lon="18.119554">
        <ele>29</ele>
        <time>2020-01-29T16:24:51Z</time>
      </trkpt>
      <trkpt lat="59.2401" lon="18.119525">
        <ele>0</ele>
        <time>2020-01-29T16:24:51Z</time>
      </trkpt>
      <trkpt lat="59.240166" lon="18.119494">
        <ele>28</ele>
        <time>2020-01-29T16:24:52Z</time>
      </trkpt>
      <trkpt lat="59.240229" lon="18.119463">
        <ele>0</ele>
        <time>2020-01-29T16:24:53Z</time>
      </trkpt>
      <trkpt lat="59.240291" lon="18.119435">
        <ele>28</ele>
        <time>2020-01-29T16:24:54Z</time>
      </trkpt>
      <trkpt lat="59.24035" lon="18.119414">
        <ele>28</ele>
        <time>2020-01-29T16:24:56Z</time>
      </trkpt>
      <trkpt lat="59.240405" lon="18.119411">
        <ele>27</ele>
        <time>2020-01-29T16:24:57Z</time>
      </trkpt>
      <trkpt lat="59.240453" lon="18.11944">
        <ele>27</ele>
        <time>2020-01-29T16:24:58Z</time>
      </trkpt>
      <trkpt lat="59.240495" lon="18.119494">
        <ele>27</ele>
        <time>2020-01-29T16:24:59Z</time>
      </trkpt>
      <trkpt lat="59.240539" lon="18.119543">
        <ele>27</ele>
        <time>2020-01-29T16:25:00Z</time>
      </trkpt>
      <trkpt lat="59.240592" lon="18.119567">
        <ele>0</ele>
        <time>2020-01-29T16:25:00Z</time>
      </trkpt>
      <trkpt lat="59.240644" lon="18.119566">
        <ele>27</ele>
        <time>2020-01-29T16:25:01Z</time>
      </trkpt>
      <trkpt lat="59.240701" lon="18.119564">
        <ele>27</ele>
        <time>2020-01-29T16:25:03Z</time>
      </trkpt>
      <trkpt lat="59.240758" lon="18.119569">
        <ele>27</ele>
        <time>2020-01-29T16:25:04Z</time>
      </trkpt>
      <trkpt lat="59.240814" lon="18.119584">
        <ele>27</ele>
        <time>2020-01-29T16:25:05Z</time>
      </trkpt>
      <trkpt lat="59.240869" lon="18.119615">
        <ele>27</ele>
        <time>2020-01-29T16:25:06Z</time>
      </trkpt>
      <trkpt lat="59.240921" lon="18.11966">
        <ele>27</ele>
        <time>2020-01-29T16:25:07Z</time>
      </trkpt>
      <trkpt lat="59.240971" lon="18.119711">
        <ele>27</ele>
        <time>2020-01-29T16:25:08Z</time>
      </trkpt>
      <trkpt lat="59.241019" lon="18.119758">
        <ele>27</ele>
        <time>2020-01-29T16:25:09Z</time>
      </trkpt>
      <trkpt lat="59.241064" lon="18.119796">
        <ele>0</ele>
        <time>2020-01-29T16:25:09Z</time>
      </trkpt>
      <trkpt lat="59.241104" lon="18.119831">
        <ele>27</ele>
        <time>2020-01-29T16:25:10Z</time>
      </trkpt>
      <trkpt lat="59.241133" lon="18.119864">
        <ele>27</ele>
        <time>2020-01-29T16:25:12Z</time>
      </trkpt>
      <trkpt lat="59.241157" lon="18.119891">
        <ele>0</ele>
        <time>2020-01-29T16:25:12Z</time>
      </trkpt>
      <trkpt lat="59.24119" lon="18.119523">
        <ele>27</ele>
        <time>2020-01-29T16:25:18Z</time>
      </trkpt>
      <trkpt lat="59.241278" lon="18.119337">
        <ele>27</ele>
        <time>2020-01-29T16:25:20Z</time>
      </trkpt>
      <trkpt lat="59.241325" lon="18.119291">
        <ele>27</ele>
        <time>2020-01-29T16:25:21Z</time>
      </trkpt>
      <trkpt lat="59.241415" lon="18.11927">
        <ele>27</ele>
        <time>2020-01-29T16:25:22Z</time>
      </trkpt>
      <trkpt lat="59.241515" lon="18.119277">
        <ele>27</ele>
        <time>2020-01-29T16:25:25Z</time>
      </trkpt>
      <trkpt lat="59.241615" lon="18.119307">
        <ele>26</ele>
        <time>2020-01-29T16:25:27Z</time>
      </trkpt>
      <trkpt lat="59.241727" lon="18.119378">
        <ele>26</ele>
        <time>2020-01-29T16:25:29Z</time>
      </trkpt>
      <trkpt lat="59.241775" lon="18.119407">
        <ele>26</ele>
        <time>2020-01-29T16:25:30Z</time>
      </trkpt>
      <trkpt lat="59.241826" lon="18.119419">
        <ele>0</ele>
        <time>2020-01-29T16:25:30Z</time>
      </trkpt>
      <trkpt lat="59.241877" lon="18.119412">
        <ele>26</ele>
        <time>2020-01-29T16:25:31Z</time>
      </trkpt>
      <trkpt lat="59.241937" lon="18.119385">
        <ele>25</ele>
        <time>2020-01-29T16:25:32Z</time>
      </trkpt>
      <trkpt lat="59.241994" lon="18.119355">
        <ele>25</ele>
        <time>2020-01-29T16:25:34Z</time>
      </trkpt>
      <trkpt lat="59.242046" lon="18.119328">
        <ele>25</ele>
        <time>2020-01-29T16:25:35Z</time>
      </trkpt>
      <trkpt lat="59.242096" lon="18.1193">
        <ele>25</ele>
        <time>2020-01-29T16:25:36Z</time>
      </trkpt>
      <trkpt lat="59.242146" lon="18.119267">
        <ele>25</ele>
        <time>2020-01-29T16:25:37Z</time>
      </trkpt>
      <trkpt lat="59.242199" lon="18.119231">
        <ele>25</ele>
        <time>2020-01-29T16:25:38Z</time>
      </trkpt>
      <trkpt lat="59.24225" lon="18.119189">
        <ele>24</ele>
        <time>2020-01-29T16:25:39Z</time>
      </trkpt>
      <trkpt lat="59.242302" lon="18.119144">
        <ele>0</ele>
        <time>2020-01-29T16:25:39Z</time>
      </trkpt>
      <trkpt lat="59.242354" lon="18.119098">
        <ele>24</ele>
        <time>2020-01-29T16:25:40Z</time>
      </trkpt>
      <trkpt lat="59.242404" lon="18.119044">
        <ele>24</ele>
        <time>2020-01-29T16:25:42Z</time>
      </trkpt>
      <trkpt lat="59.24245" lon="18.118981">
        <ele>24</ele>
        <time>2020-01-29T16:25:43Z</time>
      </trkpt>
      <trkpt lat="59.242494" lon="18.118911">
        <ele>24</ele>
        <time>2020-01-29T16:25:44Z</time>
      </trkpt>
      <trkpt lat="59.24253" lon="18.118829">
        <ele>24</ele>
        <time>2020-01-29T16:25:45Z</time>
      </trkpt>
      <trkpt lat="59.242569" lon="18.118742">
        <ele>24</ele>
        <time>2020-01-29T16:25:46Z</time>
      </trkpt>
      <trkpt lat="59.242605" lon="18.118647">
        <ele>24</ele>
        <time>2020-01-29T16:25:47Z</time>
      </trkpt>
      <trkpt lat="59.24264" lon="18.11855">
        <ele>0</ele>
        <time>2020-01-29T16:25:47Z</time>
      </trkpt>
      <trkpt lat="59.242674" lon="18.118452">
        <ele>24</ele>
        <time>2020-01-29T16:25:48Z</time>
      </trkpt>
      <trkpt lat="59.242702" lon="18.118351">
        <ele>24</ele>
        <time>2020-01-29T16:25:50Z</time>
      </trkpt>
      <trkpt lat="59.242732" lon="18.11825">
        <ele>0</ele>
        <time>2020-01-29T16:25:50Z</time>
      </trkpt>
      <trkpt lat="59.242762" lon="18.118149">
        <ele>24</ele>
        <time>2020-01-29T16:25:51Z</time>
      </trkpt>
      <trkpt lat="59.242796" lon="18.11805">
        <ele>24</ele>
        <time>2020-01-29T16:25:53Z</time>
      </trkpt>
      <trkpt lat="59.242826" lon="18.11795">
        <ele>24</ele>
        <time>2020-01-29T16:25:54Z</time>
      </trkpt>
      <trkpt lat="59.242853" lon="18.117848">
        <ele>24</ele>
        <time>2020-01-29T16:25:55Z</time>
      </trkpt>
      <trkpt lat="59.242885" lon="18.11775">
        <ele>23</ele>
        <time>2020-01-29T16:25:56Z</time>
      </trkpt>
      <trkpt lat="59.242916" lon="18.117653">
        <ele>0</ele>
        <time>2020-01-29T16:25:56Z</time>
      </trkpt>
      <trkpt lat="59.242945" lon="18.117552">
        <ele>23</ele>
        <time>2020-01-29T16:25:57Z</time>
      </trkpt>
      <trkpt lat="59.242971" lon="18.117453">
        <ele>23</ele>
        <time>2020-01-29T16:25:59Z</time>
      </trkpt>
      <trkpt lat="59.243001" lon="18.117356">
        <ele>23</ele>
        <time>2020-01-29T16:26:00Z</time>
      </trkpt>
      <trkpt lat="59.24303" lon="18.117261">
        <ele>23</ele>
        <time>2020-01-29T16:26:01Z</time>
      </trkpt>
      <trkpt lat="59.243057" lon="18.117166">
        <ele>23</ele>
        <time>2020-01-29T16:26:02Z</time>
      </trkpt>
      <trkpt lat="59.243085" lon="18.117069">
        <ele>23</ele>
        <time>2020-01-29T16:26:03Z</time>
      </trkpt>
      <trkpt lat="59.243115" lon="18.116974">
        <ele>23</ele>
        <time>2020-01-29T16:26:04Z</time>
      </trkpt>
      <trkpt lat="59.243144" lon="18.116875">
        <ele>23</ele>
        <time>2020-01-29T16:26:05Z</time>
      </trkpt>
      <trkpt lat="59.243175" lon="18.11678">
        <ele>0</ele>
        <time>2020-01-29T16:26:05Z</time>
      </trkpt>
      <trkpt lat="59.243206" lon="18.116684">
        <ele>23</ele>
        <time>2020-01-29T16:26:06Z</time>
      </trkpt>
      <trkpt lat="59.243234" lon="18.116587">
        <ele>23</ele>
        <time>2020-01-29T16:26:08Z</time>
      </trkpt>
      <trkpt lat="59.243261" lon="18.116492">
        <ele>23</ele>
        <time>2020-01-29T16:26:09Z</time>
      </trkpt>
      <trkpt lat="59.24329" lon="18.116396">
        <ele>0</ele>
        <time>2020-01-29T16:26:09Z</time>
      </trkpt>
      <trkpt lat="59.243323" lon="18.116302">
        <ele>23</ele>
        <time>2020-01-29T16:26:10Z</time>
      </trkpt>
      <trkpt lat="59.243356" lon="18.116204">
        <ele>23</ele>
        <time>2020-01-29T16:26:12Z</time>
      </trkpt>
      <trkpt lat="59.243388" lon="18.116109">
        <ele>23</ele>
        <time>2020-01-29T16:26:13Z</time>
      </trkpt>
      <trkpt lat="59.24342" lon="18.116014">
        <ele>0</ele>
        <time>2020-01-29T16:26:13Z</time>
      </trkpt>
      <trkpt lat="59.24345" lon="18.115919">
        <ele>23</ele>
        <time>2020-01-29T16:26:14Z</time>
      </trkpt>
      <trkpt lat="59.243478" lon="18.115826">
        <ele>23</ele>
        <time>2020-01-29T16:26:16Z</time>
      </trkpt>
      <trkpt lat="59.243504" lon="18.115733">
        <ele>23</ele>
        <time>2020-01-29T16:26:17Z</time>
      </trkpt>
      <trkpt lat="59.243528" lon="18.115638">
        <ele>23</ele>
        <time>2020-01-29T16:26:18Z</time>
      </trkpt>
      <trkpt lat="59.243547" lon="18.11554">
        <ele>23</ele>
        <time>2020-01-29T16:26:19Z</time>
      </trkpt>
      <trkpt lat="59.243562" lon="18.115436">
        <ele>23</ele>
        <time>2020-01-29T16:26:20Z</time>
      </trkpt>
      <trkpt lat="59.243573" lon="18.11533">
        <ele>23</ele>
        <time>2020-01-29T16:26:21Z</time>
      </trkpt>
      <trkpt lat="59.243578" lon="18.11523">
        <ele>24</ele>
        <time>2020-01-29T16:26:22Z</time>
      </trkpt>
      <trkpt lat="59.243585" lon="18.115133">
        <ele>24</ele>
        <time>2020-01-29T16:26:23Z</time>
      </trkpt>
      <trkpt lat="59.243596" lon="18.115041">
        <ele>0</ele>
        <time>2020-01-29T16:26:23Z</time>
      </trkpt>
      <trkpt lat="59.243609" lon="18.114955">
        <ele>24</ele>
        <time>2020-01-29T16:26:24Z</time>
      </trkpt>
      <trkpt lat="59.243618" lon="18.114879">
        <ele>24</ele>
        <time>2020-01-29T16:26:26Z</time>
      </trkpt>
      <trkpt lat="59.24363" lon="18.114807">
        <ele>24</ele>
        <time>2020-01-29T16:26:27Z</time>
      </trkpt>
      <trkpt lat="59.243647" lon="18.114718">
        <ele>24</ele>
        <time>2020-01-29T16:26:28Z</time>
      </trkpt>
      <trkpt lat="59.243662" lon="18.114624">
        <ele>24</ele>
        <time>2020-01-29T16:26:29Z</time>
      </trkpt>
      <trkpt lat="59.24368" lon="18.11453">
        <ele>24</ele>
        <time>2020-01-29T16:26:30Z</time>
      </trkpt>
      <trkpt lat="59.243701" lon="18.114434">
        <ele>24</ele>
        <time>2020-01-29T16:26:31Z</time>
      </trkpt>
      <trkpt lat="59.243716" lon="18.114334">
        <ele>24</ele>
        <time>2020-01-29T16:26:32Z</time>
      </trkpt>
      <trkpt lat="59.243731" lon="18.114232">
        <ele>25</ele>
        <time>2020-01-29T16:26:33Z</time>
      </trkpt>
      <trkpt lat="59.243748" lon="18.11413">
        <ele>0</ele>
        <time>2020-01-29T16:26:33Z</time>
      </trkpt>
      <trkpt lat="59.243766" lon="18.114026">
        <ele>25</ele>
        <time>2020-01-29T16:26:34Z</time>
      </trkpt>
      <trkpt lat="59.243781" lon="18.113919">
        <ele>25</ele>
        <time>2020-01-29T16:26:36Z</time>
      </trkpt>
      <trkpt lat="59.243796" lon="18.113818">
        <ele>25</ele>
        <time>2020-01-29T16:26:37Z</time>
      </trkpt>
      <trkpt lat="59.243806" lon="18.113716">
        <ele>25</ele>
        <time>2020-01-29T16:26:38Z</time>
      </trkpt>
      <trkpt lat="59.243815" lon="18.113612">
        <ele>25</ele>
        <time>2020-01-29T16:26:39Z</time>
      </trkpt>
      <trkpt lat="59.243826" lon="18.113505">
        <ele>25</ele>
        <time>2020-01-29T16:26:40Z</time>
      </trkpt>
      <trkpt lat="59.243835" lon="18.113383">
        <ele>25</ele>
        <time>2020-01-29T16:26:41Z</time>
      </trkpt>
      <trkpt lat="59.243846" lon="18.11327">
        <ele>25</ele>
        <time>2020-01-29T16:26:42Z</time>
      </trkpt>
      <trkpt lat="59.243855" lon="18.113159">
        <ele>0</ele>
        <time>2020-01-29T16:26:42Z</time>
      </trkpt>
      <trkpt lat="59.243862" lon="18.113042">
        <ele>25</ele>
        <time>2020-01-29T16:26:43Z</time>
      </trkpt>
      <trkpt lat="59.243868" lon="18.112934">
        <ele>25</ele>
        <time>2020-01-29T16:26:45Z</time>
      </trkpt>
      <trkpt lat="59.243872" lon="18.112822">
        <ele>25</ele>
        <time>2020-01-29T16:26:46Z</time>
      </trkpt>
      <trkpt lat="59.243877" lon="18.112708">
        <ele>26</ele>
        <time>2020-01-29T16:26:47Z</time>
      </trkpt>
      <trkpt lat="59.243883" lon="18.112597">
        <ele>0</ele>
        <time>2020-01-29T16:26:47Z</time>
      </trkpt>
      <trkpt lat="59.243886" lon="18.11248">
        <ele>26</ele>
        <time>2020-01-29T16:26:48Z</time>
      </trkpt>
      <trkpt lat="59.243888" lon="18.112368">
        <ele>26</ele>
        <time>2020-01-29T16:26:50Z</time>
      </trkpt>
      <trkpt lat="59.24389" lon="18.112257">
        <ele>0</ele>
        <time>2020-01-29T16:26:50Z</time>
      </trkpt>
      <trkpt lat="59.243893" lon="18.112147">
        <ele>26</ele>
        <time>2020-01-29T16:26:51Z</time>
      </trkpt>
      <trkpt lat="59.243896" lon="18.112034">
        <ele>26</ele>
        <time>2020-01-29T16:26:53Z</time>
      </trkpt>
      <trkpt lat="59.2439" lon="18.111924">
        <ele>26</ele>
        <time>2020-01-29T16:26:54Z</time>
      </trkpt>
      <trkpt lat="59.243903" lon="18.111817">
        <ele>26</ele>
        <time>2020-01-29T16:26:55Z</time>
      </trkpt>
      <trkpt lat="59.243904" lon="18.111718">
        <ele>26</ele>
        <time>2020-01-29T16:26:56Z</time>
      </trkpt>
      <trkpt lat="59.243906" lon="18.111619">
        <ele>27</ele>
        <time>2020-01-29T16:26:57Z</time>
      </trkpt>
      <trkpt lat="59.243907" lon="18.11152">
        <ele>27</ele>
        <time>2020-01-29T16:26:58Z</time>
      </trkpt>
      <trkpt lat="59.243909" lon="18.111424">
        <ele>27</ele>
        <time>2020-01-29T16:26:59Z</time>
      </trkpt>
      <trkpt lat="59.243911" lon="18.11133">
        <ele>27</ele>
        <time>2020-01-29T16:27:00Z</time>
      </trkpt>
      <trkpt lat="59.243913" lon="18.11124">
        <ele>0</ele>
        <time>2020-01-29T16:27:00Z</time>
      </trkpt>
      <trkpt lat="59.243915" lon="18.111155">
        <ele>27</ele>
        <time>2020-01-29T16:27:01Z</time>
      </trkpt>
      <trkpt lat="59.243915" lon="18.111068">
        <ele>28</ele>
        <time>2020-01-29T16:27:03Z</time>
      </trkpt>
      <trkpt lat="59.243917" lon="18.110982">
        <ele>28</ele>
        <time>2020-01-29T16:27:04Z</time>
      </trkpt>
      <trkpt lat="59.243919" lon="18.110895">
        <ele>28</ele>
        <time>2020-01-29T16:27:05Z</time>
      </trkpt>
      <trkpt lat="59.243924" lon="18.110814">
        <ele>28</ele>
        <time>2020-01-29T16:27:06Z</time>
      </trkpt>
      <trkpt lat="59.24393" lon="18.110733">
        <ele>0</ele>
        <time>2020-01-29T16:27:06Z</time>
      </trkpt>
      <trkpt lat="59.243937" lon="18.110653">
        <ele>28</ele>
        <time>2020-01-29T16:27:07Z</time>
      </trkpt>
      <trkpt lat="59.243949" lon="18.110575">
        <ele>28</ele>
        <time>2020-01-29T16:27:09Z</time>
      </trkpt>
      <trkpt lat="59.243959" lon="18.110496">
        <ele>28</ele>
        <time>2020-01-29T16:27:10Z</time>
      </trkpt>
      <trkpt lat="59.243966" lon="18.110415">
        <ele>28</ele>
        <time>2020-01-29T16:27:11Z</time>
      </trkpt>
      <trkpt lat="59.243969" lon="18.110332">
        <ele>28</ele>
        <time>2020-01-29T16:27:12Z</time>
      </trkpt>
      <trkpt lat="59.243969" lon="18.11025">
        <ele>0</ele>
        <time>2020-01-29T16:27:12Z</time>
      </trkpt>
      <trkpt lat="59.243965" lon="18.110166">
        <ele>28</ele>
        <time>2020-01-29T16:27:13Z</time>
      </trkpt>
      <trkpt lat="59.243963" lon="18.110082">
        <ele>28</ele>
        <time>2020-01-29T16:27:15Z</time>
      </trkpt>
      <trkpt lat="59.243959" lon="18.109996">
        <ele>29</ele>
        <time>2020-01-29T16:27:16Z</time>
      </trkpt>
      <trkpt lat="59.243961" lon="18.109912">
        <ele>29</ele>
        <time>2020-01-29T16:27:17Z</time>
      </trkpt>
      <trkpt lat="59.243962" lon="18.109825">
        <ele>29</ele>
        <time>2020-01-29T16:27:18Z</time>
      </trkpt>
      <trkpt lat="59.243969" lon="18.109737">
        <ele>29</ele>
        <time>2020-01-29T16:27:19Z</time>
      </trkpt>
      <trkpt lat="59.243982" lon="18.109651">
        <ele>29</ele>
        <time>2020-01-29T16:27:20Z</time>
      </trkpt>
      <trkpt lat="59.244003" lon="18.109575">
        <ele>29</ele>
        <time>2020-01-29T16:27:21Z</time>
      </trkpt>
      <trkpt lat="59.244011" lon="18.109489">
        <ele>29</ele>
        <time>2020-01-29T16:27:22Z</time>
      </trkpt>
      <trkpt lat="59.244024" lon="18.10941">
        <ele>29</ele>
        <time>2020-01-29T16:27:23Z</time>
      </trkpt>
      <trkpt lat="59.244042" lon="18.109334">
        <ele>0</ele>
        <time>2020-01-29T16:27:23Z</time>
      </trkpt>
      <trkpt lat="59.244062" lon="18.109261">
        <ele>30</ele>
        <time>2020-01-29T16:27:24Z</time>
      </trkpt>
      <trkpt lat="59.244084" lon="18.109187">
        <ele>0</ele>
        <time>2020-01-29T16:27:25Z</time>
      </trkpt>
      <trkpt lat="59.244107" lon="18.109113">
        <ele>30</ele>
        <time>2020-01-29T16:27:26Z</time>
      </trkpt>
      <trkpt lat="59.244133" lon="18.109042">
        <ele>30</ele>
        <time>2020-01-29T16:27:28Z</time>
      </trkpt>
      <trkpt lat="59.244163" lon="18.108977">
        <ele>30</ele>
        <time>2020-01-29T16:27:29Z</time>
      </trkpt>
      <trkpt lat="59.244191" lon="18.108913">
        <ele>30</ele>
        <time>2020-01-29T16:27:30Z</time>
      </trkpt>
      <trkpt lat="59.244221" lon="18.108853">
        <ele>30</ele>
        <time>2020-01-29T16:27:31Z</time>
      </trkpt>
      <trkpt lat="59.244251" lon="18.108795">
        <ele>30</ele>
        <time>2020-01-29T16:27:32Z</time>
      </trkpt>
      <trkpt lat="59.24428" lon="18.108734">
        <ele>30</ele>
        <time>2020-01-29T16:27:33Z</time>
      </trkpt>
      <trkpt lat="59.24431" lon="18.108674">
        <ele>30</ele>
        <time>2020-01-29T16:27:34Z</time>
      </trkpt>
      <trkpt lat="59.244341" lon="18.108614">
        <ele>30</ele>
        <time>2020-01-29T16:27:35Z</time>
      </trkpt>
      <trkpt lat="59.244373" lon="18.108551">
        <ele>0</ele>
        <time>2020-01-29T16:27:35Z</time>
      </trkpt>
      <trkpt lat="59.244407" lon="18.108489">
        <ele>30</ele>
        <time>2020-01-29T16:27:36Z</time>
      </trkpt>
      <trkpt lat="59.244441" lon="18.108427">
        <ele>30</ele>
        <time>2020-01-29T16:27:38Z</time>
      </trkpt>
      <trkpt lat="59.244478" lon="18.108367">
        <ele>30</ele>
        <time>2020-01-29T16:27:39Z</time>
      </trkpt>
      <trkpt lat="59.244512" lon="18.108304">
        <ele>30</ele>
        <time>2020-01-29T16:27:40Z</time>
      </trkpt>
      <trkpt lat="59.244546" lon="18.108242">
        <ele>30</ele>
        <time>2020-01-29T16:27:41Z</time>
      </trkpt>
      <trkpt lat="59.244579" lon="18.108179">
        <ele>30</ele>
        <time>2020-01-29T16:27:42Z</time>
      </trkpt>
      <trkpt lat="59.244613" lon="18.108116">
        <ele>30</ele>
        <time>2020-01-29T16:27:43Z</time>
      </trkpt>
      <trkpt lat="59.244645" lon="18.108049">
        <ele>30</ele>
        <time>2020-01-29T16:27:44Z</time>
      </trkpt>
      <trkpt lat="59.24468" lon="18.107984">
        <ele>0</ele>
        <time>2020-01-29T16:27:44Z</time>
      </trkpt>
      <trkpt lat="59.244715" lon="18.107923">
        <ele>30</ele>
        <time>2020-01-29T16:27:45Z</time>
      </trkpt>
      <trkpt lat="59.244748" lon="18.107859">
        <ele>30</ele>
        <time>2020-01-29T16:27:46Z</time>
      </trkpt>
      <trkpt lat="59.244781" lon="18.107793">
        <ele>30</ele>
        <time>2020-01-29T16:27:48Z</time>
      </trkpt>
      <trkpt lat="59.244816" lon="18.10773">
        <ele>30</ele>
        <time>2020-01-29T16:27:49Z</time>
      </trkpt>
      <trkpt lat="59.24485" lon="18.107666">
        <ele>30</ele>
        <time>2020-01-29T16:27:50Z</time>
      </trkpt>
      <trkpt lat="59.244887" lon="18.107607">
        <ele>30</ele>
        <time>2020-01-29T16:27:51Z</time>
      </trkpt>
      <trkpt lat="59.244924" lon="18.107547">
        <ele>30</ele>
        <time>2020-01-29T16:27:52Z</time>
      </trkpt>
      <trkpt lat="59.24496" lon="18.107484">
        <ele>30</ele>
        <time>2020-01-29T16:27:53Z</time>
      </trkpt>
      <trkpt lat="59.244997" lon="18.107421">
        <ele>30</ele>
        <time>2020-01-29T16:27:54Z</time>
      </trkpt>
      <trkpt lat="59.245034" lon="18.107354">
        <ele>30</ele>
        <time>2020-01-29T16:27:55Z</time>
      </trkpt>
      <trkpt lat="59.245069" lon="18.107285">
        <ele>30</ele>
        <time>2020-01-29T16:27:56Z</time>
      </trkpt>
      <trkpt lat="59.245104" lon="18.107217">
        <ele>0</ele>
        <time>2020-01-29T16:27:56Z</time>
      </trkpt>
      <trkpt lat="59.245144" lon="18.107145">
        <ele>30</ele>
        <time>2020-01-29T16:27:57Z</time>
      </trkpt>
      <trkpt lat="59.245184" lon="18.107071">
        <ele>30</ele>
        <time>2020-01-29T16:27:59Z</time>
      </trkpt>
      <trkpt lat="59.245225" lon="18.106994">
        <ele>30</ele>
        <time>2020-01-29T16:28:00Z</time>
      </trkpt>
      <trkpt lat="59.245265" lon="18.106915">
        <ele>30</ele>
        <time>2020-01-29T16:28:01Z</time>
      </trkpt>
      <trkpt lat="59.245304" lon="18.106834">
        <ele>30</ele>
        <time>2020-01-29T16:28:02Z</time>
      </trkpt>
      <trkpt lat="59.245342" lon="18.106752">
        <ele>30</ele>
        <time>2020-01-29T16:28:03Z</time>
      </trkpt>
      <trkpt lat="59.245382" lon="18.10667">
        <ele>0</ele>
        <time>2020-01-29T16:28:03Z</time>
      </trkpt>
      <trkpt lat="59.245427" lon="18.106587">
        <ele>29</ele>
        <time>2020-01-29T16:28:04Z</time>
      </trkpt>
      <trkpt lat="59.245474" lon="18.106502">
        <ele>29</ele>
        <time>2020-01-29T16:28:05Z</time>
      </trkpt>
      <trkpt lat="59.245521" lon="18.106416">
        <ele>29</ele>
        <time>2020-01-29T16:28:07Z</time>
      </trkpt>
      <trkpt lat="59.245567" lon="18.106334">
        <ele>29</ele>
        <time>2020-01-29T16:28:08Z</time>
      </trkpt>
      <trkpt lat="59.245613" lon="18.106252">
        <ele>29</ele>
        <time>2020-01-29T16:28:09Z</time>
      </trkpt>
      <trkpt lat="59.24566" lon="18.10617">
        <ele>29</ele>
        <time>2020-01-29T16:28:10Z</time>
      </trkpt>
      <trkpt lat="59.245704" lon="18.106091">
        <ele>29</ele>
        <time>2020-01-29T16:28:11Z</time>
      </trkpt>
      <trkpt lat="59.245751" lon="18.106012">
        <ele>29</ele>
        <time>2020-01-29T16:28:12Z</time>
      </trkpt>
      <trkpt lat="59.245808" lon="18.105928">
        <ele>0</ele>
        <time>2020-01-29T16:28:12Z</time>
      </trkpt>
      <trkpt lat="59.245866" lon="18.105842">
        <ele>29</ele>
        <time>2020-01-29T16:28:13Z</time>
      </trkpt>
      <trkpt lat="59.245928" lon="18.105764">
        <ele>28</ele>
        <time>2020-01-29T16:28:15Z</time>
      </trkpt>
      <trkpt lat="59.245988" lon="18.105683">
        <ele>28</ele>
        <time>2020-01-29T16:28:16Z</time>
      </trkpt>
      <trkpt lat="59.246047" lon="18.105602">
        <ele>28</ele>
        <time>2020-01-29T16:28:17Z</time>
      </trkpt>
      <trkpt lat="59.246111" lon="18.105528">
        <ele>28</ele>
        <time>2020-01-29T16:28:18Z</time>
      </trkpt>
      <trkpt lat="59.246181" lon="18.105466">
        <ele>28</ele>
        <time>2020-01-29T16:28:19Z</time>
      </trkpt>
      <trkpt lat="59.246258" lon="18.105426">
        <ele>0</ele>
        <time>2020-01-29T16:28:19Z</time>
      </trkpt>
      <trkpt lat="59.246339" lon="18.105396">
        <ele>28</ele>
        <time>2020-01-29T16:28:20Z</time>
      </trkpt>
      <trkpt lat="59.246421" lon="18.105368">
        <ele>28</ele>
        <time>2020-01-29T16:28:22Z</time>
      </trkpt>
      <trkpt lat="59.246491" lon="18.105322">
        <ele>0</ele>
        <time>2020-01-29T16:28:22Z</time>
      </trkpt>
      <trkpt lat="59.246557" lon="18.105256">
        <ele>27</ele>
        <time>2020-01-29T16:28:23Z</time>
      </trkpt>
      <trkpt lat="59.246619" lon="18.105174">
        <ele>27</ele>
        <time>2020-01-29T16:28:25Z</time>
      </trkpt>
      <trkpt lat="59.246693" lon="18.105094">
        <ele>0</ele>
        <time>2020-01-29T16:28:25Z</time>
      </trkpt>
      <trkpt lat="59.246766" lon="18.105004">
        <ele>26</ele>
        <time>2020-01-29T16:28:26Z</time>
      </trkpt>
      <trkpt lat="59.246835" lon="18.104919">
        <ele>26</ele>
        <time>2020-01-29T16:28:28Z</time>
      </trkpt>
      <trkpt lat="59.246892" lon="18.10484">
        <ele>26</ele>
        <time>2020-01-29T16:28:29Z</time>
      </trkpt>
      <trkpt lat="59.246929" lon="18.104745">
        <ele>26</ele>
        <time>2020-01-29T16:28:30Z</time>
      </trkpt>
      <trkpt lat="59.246942" lon="18.104636">
        <ele>26</ele>
        <time>2020-01-29T16:28:31Z</time>
      </trkpt>
      <trkpt lat="59.24694" lon="18.104522">
        <ele>26</ele>
        <time>2020-01-29T16:28:32Z</time>
      </trkpt>
      <trkpt lat="59.246939" lon="18.104404">
        <ele>26</ele>
        <time>2020-01-29T16:28:33Z</time>
      </trkpt>
      <trkpt lat="59.246935" lon="18.104286">
        <ele>26</ele>
        <time>2020-01-29T16:28:34Z</time>
      </trkpt>
      <trkpt lat="59.246929" lon="18.104064">
        <ele>26</ele>
        <time>2020-01-29T16:28:35Z</time>
      </trkpt>
      <trkpt lat="59.24694" lon="18.103972">
        <ele>26</ele>
        <time>2020-01-29T16:28:37Z</time>
      </trkpt>
      <trkpt lat="59.246959" lon="18.103896">
        <ele>26</ele>
        <time>2020-01-29T16:28:38Z</time>
      </trkpt>
      <trkpt lat="59.246981" lon="18.103808">
        <ele>26</ele>
        <time>2020-01-29T16:28:39Z</time>
      </trkpt>
      <trkpt lat="59.247005" lon="18.103732">
        <ele>26</ele>
        <time>2020-01-29T16:28:40Z</time>
      </trkpt>
      <trkpt lat="59.247032" lon="18.103659">
        <ele>27</ele>
        <time>2020-01-29T16:28:41Z</time>
      </trkpt>
      <trkpt lat="59.24706" lon="18.103598">
        <ele>0</ele>
        <time>2020-01-29T16:28:41Z</time>
      </trkpt>
      <trkpt lat="59.24709" lon="18.103542">
        <ele>27</ele>
        <time>2020-01-29T16:28:42Z</time>
      </trkpt>
      <trkpt lat="59.247121" lon="18.103486">
        <ele>0</ele>
        <time>2020-01-29T16:28:43Z</time>
      </trkpt>
      <trkpt lat="59.247154" lon="18.103432">
        <ele>27</ele>
        <time>2020-01-29T16:28:44Z</time>
      </trkpt>
      <trkpt lat="59.247188" lon="18.103377">
        <ele>28</ele>
        <time>2020-01-29T16:28:46Z</time>
      </trkpt>
      <trkpt lat="59.247224" lon="18.103324">
        <ele>28</ele>
        <time>2020-01-29T16:28:47Z</time>
      </trkpt>
      <trkpt lat="59.24726" lon="18.103269">
        <ele>28</ele>
        <time>2020-01-29T16:28:48Z</time>
      </trkpt>
      <trkpt lat="59.247295" lon="18.103214">
        <ele>28</ele>
        <time>2020-01-29T16:28:49Z</time>
      </trkpt>
      <trkpt lat="59.24733" lon="18.103156">
        <ele>28</ele>
        <time>2020-01-29T16:28:50Z</time>
      </trkpt>
      <trkpt lat="59.247363" lon="18.103096">
        <ele>28</ele>
        <time>2020-01-29T16:28:51Z</time>
      </trkpt>
      <trkpt lat="59.247395" lon="18.103032">
        <ele>28</ele>
        <time>2020-01-29T16:28:52Z</time>
      </trkpt>
      <trkpt lat="59.247424" lon="18.102966">
        <ele>29</ele>
        <time>2020-01-29T16:28:53Z</time>
      </trkpt>
      <trkpt lat="59.247453" lon="18.102892">
        <ele>29</ele>
        <time>2020-01-29T16:28:54Z</time>
      </trkpt>
      <trkpt lat="59.247478" lon="18.102818">
        <ele>0</ele>
        <time>2020-01-29T16:28:54Z</time>
      </trkpt>
      <trkpt lat="59.247501" lon="18.10274">
        <ele>29</ele>
        <time>2020-01-29T16:28:55Z</time>
      </trkpt>
      <trkpt lat="59.247522" lon="18.102662">
        <ele>29</ele>
        <time>2020-01-29T16:28:57Z</time>
      </trkpt>
      <trkpt lat="59.247542" lon="18.102581">
        <ele>29</ele>
        <time>2020-01-29T16:28:58Z</time>
      </trkpt>
      <trkpt lat="59.247561" lon="18.1025">
        <ele>29</ele>
        <time>2020-01-29T16:28:59Z</time>
      </trkpt>
      <trkpt lat="59.247581" lon="18.102416">
        <ele>29</ele>
        <time>2020-01-29T16:29:00Z</time>
      </trkpt>
      <trkpt lat="59.247603" lon="18.10233">
        <ele>0</ele>
        <time>2020-01-29T16:29:00Z</time>
      </trkpt>
      <trkpt lat="59.247625" lon="18.102243">
        <ele>29</ele>
        <time>2020-01-29T16:29:01Z</time>
      </trkpt>
      <trkpt lat="59.247646" lon="18.102155">
        <ele>29</ele>
        <time>2020-01-29T16:29:03Z</time>
      </trkpt>
      <trkpt lat="59.247667" lon="18.102066">
        <ele>29</ele>
        <time>2020-01-29T16:29:04Z</time>
      </trkpt>
      <trkpt lat="59.24769" lon="18.101976">
        <ele>29</ele>
        <time>2020-01-29T16:29:05Z</time>
      </trkpt>
      <trkpt lat="59.247713" lon="18.101886">
        <ele>0</ele>
        <time>2020-01-29T16:29:05Z</time>
      </trkpt>
      <trkpt lat="59.247734" lon="18.101797">
        <ele>29</ele>
        <time>2020-01-29T16:29:06Z</time>
      </trkpt>
      <trkpt lat="59.247759" lon="18.101708">
        <ele>29</ele>
        <time>2020-01-29T16:29:08Z</time>
      </trkpt>
      <trkpt lat="59.247783" lon="18.101621">
        <ele>29</ele>
        <time>2020-01-29T16:29:09Z</time>
      </trkpt>
      <trkpt lat="59.24781" lon="18.101537">
        <ele>29</ele>
        <time>2020-01-29T16:29:10Z</time>
      </trkpt>
      <trkpt lat="59.24784" lon="18.10145">
        <ele>29</ele>
        <time>2020-01-29T16:29:11Z</time>
      </trkpt>
      <trkpt lat="59.247871" lon="18.101364">
        <ele>29</ele>
        <time>2020-01-29T16:29:12Z</time>
      </trkpt>
      <trkpt lat="59.2479" lon="18.101275">
        <ele>29</ele>
        <time>2020-01-29T16:29:13Z</time>
      </trkpt>
      <trkpt lat="59.247928" lon="18.101186">
        <ele>29</ele>
        <time>2020-01-29T16:29:14Z</time>
      </trkpt>
      <trkpt lat="59.247959" lon="18.101096">
        <ele>0</ele>
        <time>2020-01-29T16:29:14Z</time>
      </trkpt>
      <trkpt lat="59.247993" lon="18.101">
        <ele>29</ele>
        <time>2020-01-29T16:29:15Z</time>
      </trkpt>
      <trkpt lat="59.248028" lon="18.100903">
        <ele>28</ele>
        <time>2020-01-29T16:29:17Z</time>
      </trkpt>
      <trkpt lat="59.248069" lon="18.100811">
        <ele>28</ele>
        <time>2020-01-29T16:29:18Z</time>
      </trkpt>
      <trkpt lat="59.248116" lon="18.100731">
        <ele>28</ele>
        <time>2020-01-29T16:29:19Z</time>
      </trkpt>
      <trkpt lat="59.24817" lon="18.100659">
        <ele>0</ele>
        <time>2020-01-29T16:29:19Z</time>
      </trkpt>
      <trkpt lat="59.24823" lon="18.100598">
        <ele>28</ele>
        <time>2020-01-29T16:29:20Z</time>
      </trkpt>
      <trkpt lat="59.248296" lon="18.100548">
        <ele>28</ele>
        <time>2020-01-29T16:29:22Z</time>
      </trkpt>
      <trkpt lat="59.248367" lon="18.100495">
        <ele>0</ele>
        <time>2020-01-29T16:29:22Z</time>
      </trkpt>
      <trkpt lat="59.248432" lon="18.100435">
        <ele>28</ele>
        <time>2020-01-29T16:29:23Z</time>
      </trkpt>
      <trkpt lat="59.248496" lon="18.100366">
        <ele>28</ele>
        <time>2020-01-29T16:29:25Z</time>
      </trkpt>
      <trkpt lat="59.248556" lon="18.100293">
        <ele>28</ele>
        <time>2020-01-29T16:29:26Z</time>
      </trkpt>
      <trkpt lat="59.248612" lon="18.100212">
        <ele>27</ele>
        <time>2020-01-29T16:29:27Z</time>
      </trkpt>
      <trkpt lat="59.248669" lon="18.100134">
        <ele>27</ele>
        <time>2020-01-29T16:29:28Z</time>
      </trkpt>
      <trkpt lat="59.248725" lon="18.100058">
        <ele>27</ele>
        <time>2020-01-29T16:29:29Z</time>
      </trkpt>
      <trkpt lat="59.24878" lon="18.099982">
        <ele>0</ele>
        <time>2020-01-29T16:29:29Z</time>
      </trkpt>
      <trkpt lat="59.248837" lon="18.099911">
        <ele>27</ele>
        <time>2020-01-29T16:29:30Z</time>
      </trkpt>
      <trkpt lat="59.248896" lon="18.099845">
        <ele>27</ele>
        <time>2020-01-29T16:29:32Z</time>
      </trkpt>
      <trkpt lat="59.248957" lon="18.099785">
        <ele>27</ele>
        <time>2020-01-29T16:29:33Z</time>
      </trkpt>
      <trkpt lat="59.249022" lon="18.099731">
        <ele>27</ele>
        <time>2020-01-29T16:29:34Z</time>
      </trkpt>
      <trkpt lat="59.24909" lon="18.099685">
        <ele>27</ele>
        <time>2020-01-29T16:29:35Z</time>
      </trkpt>
      <trkpt lat="59.24916" lon="18.099648">
        <ele>27</ele>
        <time>2020-01-29T16:29:36Z</time>
      </trkpt>
      <trkpt lat="59.24923" lon="18.099617">
        <ele>0</ele>
        <time>2020-01-29T16:29:36Z</time>
      </trkpt>
      <trkpt lat="59.2493" lon="18.099589">
        <ele>27</ele>
        <time>2020-01-29T16:29:37Z</time>
      </trkpt>
      <trkpt lat="59.24937" lon="18.09956">
        <ele>0</ele>
        <time>2020-01-29T16:29:38Z</time>
      </trkpt>
      <trkpt lat="59.249441" lon="18.099531">
        <ele>27</ele>
        <time>2020-01-29T16:29:39Z</time>
      </trkpt>
      <trkpt lat="59.249513" lon="18.099506">
        <ele>27</ele>
        <time>2020-01-29T16:29:41Z</time>
      </trkpt>
      <trkpt lat="59.249587" lon="18.099487">
        <ele>27</ele>
        <time>2020-01-29T16:29:42Z</time>
      </trkpt>
      <trkpt lat="59.24966" lon="18.099482">
        <ele>27</ele>
        <time>2020-01-29T16:29:43Z</time>
      </trkpt>
      <trkpt lat="59.249729" lon="18.099492">
        <ele>0</ele>
        <time>2020-01-29T16:29:43Z</time>
      </trkpt>
      <trkpt lat="59.249793" lon="18.099509">
        <ele>27</ele>
        <time>2020-01-29T16:29:44Z</time>
      </trkpt>
      <trkpt lat="59.24985" lon="18.09953">
        <ele>27</ele>
        <time>2020-01-29T16:29:46Z</time>
      </trkpt>
      <trkpt lat="59.249902" lon="18.099556">
        <ele>27</ele>
        <time>2020-01-29T16:29:47Z</time>
      </trkpt>
      <trkpt lat="59.249953" lon="18.099583">
        <ele>27</ele>
        <time>2020-01-29T16:29:48Z</time>
      </trkpt>
      <trkpt lat="59.250003" lon="18.099609">
        <ele>27</ele>
        <time>2020-01-29T16:29:49Z</time>
      </trkpt>
      <trkpt lat="59.250051" lon="18.099628">
        <ele>28</ele>
        <time>2020-01-29T16:29:50Z</time>
      </trkpt>
      <trkpt lat="59.250097" lon="18.099646">
        <ele>28</ele>
        <time>2020-01-29T16:29:51Z</time>
      </trkpt>
      <trkpt lat="59.25014" lon="18.099665">
        <ele>28</ele>
        <time>2020-01-29T16:29:52Z</time>
      </trkpt>
      <trkpt lat="59.250183" lon="18.099683">
        <ele>28</ele>
        <time>2020-01-29T16:29:53Z</time>
      </trkpt>
      <trkpt lat="59.250224" lon="18.099704">
        <ele>0</ele>
        <time>2020-01-29T16:29:53Z</time>
      </trkpt>
      <trkpt lat="59.250266" lon="18.099724">
        <ele>28</ele>
        <time>2020-01-29T16:29:54Z</time>
      </trkpt>
      <trkpt lat="59.250308" lon="18.099745">
        <ele>28</ele>
        <time>2020-01-29T16:29:56Z</time>
      </trkpt>
      <trkpt lat="59.250349" lon="18.099768">
        <ele>28</ele>
        <time>2020-01-29T16:29:57Z</time>
      </trkpt>
      <trkpt lat="59.250391" lon="18.099792">
        <ele>0</ele>
        <time>2020-01-29T16:29:57Z</time>
      </trkpt>
      <trkpt lat="59.250432" lon="18.099815">
        <ele>28</ele>
        <time>2020-01-29T16:29:58Z</time>
      </trkpt>
      <trkpt lat="59.250472" lon="18.099843">
        <ele>28</ele>
        <time>2020-01-29T16:30:00Z</time>
      </trkpt>
      <trkpt lat="59.25051" lon="18.09988">
        <ele>28</ele>
        <time>2020-01-29T16:30:01Z</time>
      </trkpt>
      <trkpt lat="59.250545" lon="18.099924">
        <ele>28</ele>
        <time>2020-01-29T16:30:02Z</time>
      </trkpt>
      <trkpt lat="59.25058" lon="18.09997">
        <ele>28</ele>
        <time>2020-01-29T16:30:03Z</time>
      </trkpt>
      <trkpt lat="59.250614" lon="18.100019">
        <ele>28</ele>
        <time>2020-01-29T16:30:04Z</time>
      </trkpt>
      <trkpt lat="59.250647" lon="18.100076">
        <ele>0</ele>
        <time>2020-01-29T16:30:04Z</time>
      </trkpt>
      <trkpt lat="59.250681" lon="18.100131">
        <ele>28</ele>
        <time>2020-01-29T16:30:05Z</time>
      </trkpt>
      <trkpt lat="59.250714" lon="18.100195">
        <ele>28</ele>
        <time>2020-01-29T16:30:07Z</time>
      </trkpt>
      <trkpt lat="59.250744" lon="18.100272">
        <ele>28</ele>
        <time>2020-01-29T16:30:08Z</time>
      </trkpt>
      <trkpt lat="59.250775" lon="18.100352">
        <ele>28</ele>
        <time>2020-01-29T16:30:09Z</time>
      </trkpt>
      <trkpt lat="59.250809" lon="18.10043">
        <ele>28</ele>
        <time>2020-01-29T16:30:10Z</time>
      </trkpt>
      <trkpt lat="59.250848" lon="18.10051">
        <ele>28</ele>
        <time>2020-01-29T16:30:11Z</time>
      </trkpt>
      <trkpt lat="59.250891" lon="18.100583">
        <ele>28</ele>
        <time>2020-01-29T16:30:12Z</time>
      </trkpt>
      <trkpt lat="59.250939" lon="18.10065">
        <ele>28</ele>
        <time>2020-01-29T16:30:13Z</time>
      </trkpt>
      <trkpt lat="59.25099" lon="18.100714">
        <ele>0</ele>
        <time>2020-01-29T16:30:13Z</time>
      </trkpt>
      <trkpt lat="59.251044" lon="18.10077">
        <ele>28</ele>
        <time>2020-01-29T16:30:14Z</time>
      </trkpt>
      <trkpt lat="59.2511" lon="18.100822">
        <ele>28</ele>
        <time>2020-01-29T16:30:16Z</time>
      </trkpt>
      <trkpt lat="59.251159" lon="18.10087">
        <ele>0</ele>
        <time>2020-01-29T16:30:16Z</time>
      </trkpt>
      <trkpt lat="59.251219" lon="18.100914">
        <ele>28</ele>
        <time>2020-01-29T16:30:17Z</time>
      </trkpt>
      <trkpt lat="59.251281" lon="18.100951">
        <ele>28</ele>
        <time>2020-01-29T16:30:19Z</time>
      </trkpt>
      <trkpt lat="59.251346" lon="18.100973">
        <ele>28</ele>
        <time>2020-01-29T16:30:20Z</time>
      </trkpt>
      <trkpt lat="59.251411" lon="18.100977">
        <ele>28</ele>
        <time>2020-01-29T16:30:21Z</time>
      </trkpt>
      <trkpt lat="59.251477" lon="18.100961">
        <ele>0</ele>
        <time>2020-01-29T16:30:21Z</time>
      </trkpt>
      <trkpt lat="59.251542" lon="18.10093">
        <ele>28</ele>
        <time>2020-01-29T16:30:22Z</time>
      </trkpt>
      <trkpt lat="59.251608" lon="18.100891">
        <ele>28</ele>
        <time>2020-01-29T16:30:24Z</time>
      </trkpt>
      <trkpt lat="59.251674" lon="18.100848">
        <ele>27</ele>
        <time>2020-01-29T16:30:25Z</time>
      </trkpt>
      <trkpt lat="59.251742" lon="18.100806">
        <ele>27</ele>
        <time>2020-01-29T16:30:26Z</time>
      </trkpt>
      <trkpt lat="59.251813" lon="18.100763">
        <ele>27</ele>
        <time>2020-01-29T16:30:27Z</time>
      </trkpt>
      <trkpt lat="59.251883" lon="18.100715">
        <ele>27</ele>
        <time>2020-01-29T16:30:28Z</time>
      </trkpt>
      <trkpt lat="59.251958" lon="18.100668">
        <ele>0</ele>
        <time>2020-01-29T16:30:28Z</time>
      </trkpt>
      <trkpt lat="59.252034" lon="18.10062">
        <ele>27</ele>
        <time>2020-01-29T16:30:29Z</time>
      </trkpt>
      <trkpt lat="59.252111" lon="18.100569">
        <ele>26</ele>
        <time>2020-01-29T16:30:31Z</time>
      </trkpt>
      <trkpt lat="59.25219" lon="18.10052">
        <ele>26</ele>
        <time>2020-01-29T16:30:32Z</time>
      </trkpt>
      <trkpt lat="59.252269" lon="18.100473">
        <ele>26</ele>
        <time>2020-01-29T16:30:33Z</time>
      </trkpt>
      <trkpt lat="59.25235" lon="18.100426">
        <ele>26</ele>
        <time>2020-01-29T16:30:34Z</time>
      </trkpt>
      <trkpt lat="59.25243" lon="18.100381">
        <ele>0</ele>
        <time>2020-01-29T16:30:34Z</time>
      </trkpt>
      <trkpt lat="59.252511" lon="18.100339">
        <ele>25</ele>
        <time>2020-01-29T16:30:35Z</time>
      </trkpt>
      <trkpt lat="59.252592" lon="18.100299">
        <ele>25</ele>
        <time>2020-01-29T16:30:36Z</time>
      </trkpt>
      <trkpt lat="59.25267" lon="18.100259">
        <ele>25</ele>
        <time>2020-01-29T16:30:38Z</time>
      </trkpt>
      <trkpt lat="59.252748" lon="18.100225">
        <ele>25</ele>
        <time>2020-01-29T16:30:39Z</time>
      </trkpt>
      <trkpt lat="59.252825" lon="18.100201">
        <ele>25</ele>
        <time>2020-01-29T16:30:40Z</time>
      </trkpt>
      <trkpt lat="59.2529" lon="18.100183">
        <ele>0</ele>
        <time>2020-01-29T16:30:40Z</time>
      </trkpt>
      <trkpt lat="59.252975" lon="18.100172">
        <ele>25</ele>
        <time>2020-01-29T16:30:41Z</time>
      </trkpt>
      <trkpt lat="59.253049" lon="18.100168">
        <ele>24</ele>
        <time>2020-01-29T16:30:43Z</time>
      </trkpt>
      <trkpt lat="59.253121" lon="18.100171">
        <ele>24</ele>
        <time>2020-01-29T16:30:44Z</time>
      </trkpt>
      <trkpt lat="59.253189" lon="18.100189">
        <ele>24</ele>
        <time>2020-01-29T16:30:45Z</time>
      </trkpt>
      <trkpt lat="59.253254" lon="18.100222">
        <ele>24</ele>
        <time>2020-01-29T16:30:46Z</time>
      </trkpt>
      <trkpt lat="59.253315" lon="18.100266">
        <ele>23</ele>
        <time>2020-01-29T16:30:47Z</time>
      </trkpt>
      <trkpt lat="59.253374" lon="18.100317">
        <ele>23</ele>
        <time>2020-01-29T16:30:48Z</time>
      </trkpt>
      <trkpt lat="59.253432" lon="18.100363">
        <ele>0</ele>
        <time>2020-01-29T16:30:48Z</time>
      </trkpt>
      <trkpt lat="59.253489" lon="18.100408">
        <ele>23</ele>
        <time>2020-01-29T16:30:49Z</time>
      </trkpt>
      <trkpt lat="59.253546" lon="18.10045">
        <ele>23</ele>
        <time>2020-01-29T16:30:51Z</time>
      </trkpt>
      <trkpt lat="59.253604" lon="18.100486">
        <ele>23</ele>
        <time>2020-01-29T16:30:52Z</time>
      </trkpt>
      <trkpt lat="59.253661" lon="18.100516">
        <ele>23</ele>
        <time>2020-01-29T16:30:53Z</time>
      </trkpt>
      <trkpt lat="59.253718" lon="18.10054">
        <ele>23</ele>
        <time>2020-01-29T16:30:54Z</time>
      </trkpt>
      <trkpt lat="59.253775" lon="18.100563">
        <ele>0</ele>
        <time>2020-01-29T16:30:54Z</time>
      </trkpt>
      <trkpt lat="59.253832" lon="18.100582">
        <ele>23</ele>
        <time>2020-01-29T16:30:55Z</time>
      </trkpt>
      <trkpt lat="59.253886" lon="18.100601">
        <ele>0</ele>
        <time>2020-01-29T16:30:56Z</time>
      </trkpt>
      <trkpt lat="59.25394" lon="18.10062">
        <ele>23</ele>
        <time>2020-01-29T16:30:57Z</time>
      </trkpt>
      <trkpt lat="59.25399" lon="18.100637">
        <ele>23</ele>
        <time>2020-01-29T16:30:59Z</time>
      </trkpt>
      <trkpt lat="59.254044" lon="18.100647">
        <ele>23</ele>
        <time>2020-01-29T16:31:00Z</time>
      </trkpt>
      <trkpt lat="59.254099" lon="18.10065">
        <ele>23</ele>
        <time>2020-01-29T16:31:01Z</time>
      </trkpt>
      <trkpt lat="59.254152" lon="18.100656">
        <ele>23</ele>
        <time>2020-01-29T16:31:02Z</time>
      </trkpt>
      <trkpt lat="59.254206" lon="18.100668">
        <ele>23</ele>
        <time>2020-01-29T16:31:03Z</time>
      </trkpt>
      <trkpt lat="59.254259" lon="18.100684">
        <ele>23</ele>
        <time>2020-01-29T16:31:04Z</time>
      </trkpt>
      <trkpt lat="59.254312" lon="18.100705">
        <ele>23</ele>
        <time>2020-01-29T16:31:05Z</time>
      </trkpt>
      <trkpt lat="59.254369" lon="18.100726">
        <ele>0</ele>
        <time>2020-01-29T16:31:05Z</time>
      </trkpt>
      <trkpt lat="59.254425" lon="18.100746">
        <ele>23</ele>
        <time>2020-01-29T16:31:06Z</time>
      </trkpt>
      <trkpt lat="59.254478" lon="18.10077">
        <ele>23</ele>
        <time>2020-01-29T16:31:08Z</time>
      </trkpt>
      <trkpt lat="59.254533" lon="18.100787">
        <ele>23</ele>
        <time>2020-01-29T16:31:09Z</time>
      </trkpt>
      <trkpt lat="59.254587" lon="18.100807">
        <ele>22</ele>
        <time>2020-01-29T16:31:10Z</time>
      </trkpt>
      <trkpt lat="59.254638" lon="18.100822">
        <ele>22</ele>
        <time>2020-01-29T16:31:11Z</time>
      </trkpt>
      <trkpt lat="59.254688" lon="18.100836">
        <ele>22</ele>
        <time>2020-01-29T16:31:12Z</time>
      </trkpt>
      <trkpt lat="59.254739" lon="18.10085">
        <ele>22</ele>
        <time>2020-01-29T16:31:13Z</time>
      </trkpt>
      <trkpt lat="59.25479" lon="18.100861">
        <ele>22</ele>
        <time>2020-01-29T16:31:14Z</time>
      </trkpt>
      <trkpt lat="59.254841" lon="18.100874">
        <ele>22</ele>
        <time>2020-01-29T16:31:15Z</time>
      </trkpt>
      <trkpt lat="59.254896" lon="18.100891">
        <ele>0</ele>
        <time>2020-01-29T16:31:15Z</time>
      </trkpt>
      <trkpt lat="59.254951" lon="18.100912">
        <ele>22</ele>
        <time>2020-01-29T16:31:16Z</time>
      </trkpt>
      <trkpt lat="59.255005" lon="18.100928">
        <ele>22</ele>
        <time>2020-01-29T16:31:18Z</time>
      </trkpt>
      <trkpt lat="59.255058" lon="18.10094">
        <ele>22</ele>
        <time>2020-01-29T16:31:19Z</time>
      </trkpt>
      <trkpt lat="59.255116" lon="18.100956">
        <ele>22</ele>
        <time>2020-01-29T16:31:20Z</time>
      </trkpt>
      <trkpt lat="59.255173" lon="18.100966">
        <ele>22</ele>
        <time>2020-01-29T16:31:21Z</time>
      </trkpt>
      <trkpt lat="59.255229" lon="18.100976">
        <ele>23</ele>
        <time>2020-01-29T16:31:22Z</time>
      </trkpt>
      <trkpt lat="59.255295" lon="18.100986">
        <ele>23</ele>
        <time>2020-01-29T16:31:23Z</time>
      </trkpt>
      <trkpt lat="59.255358" lon="18.101003">
        <ele>0</ele>
        <time>2020-01-29T16:31:23Z</time>
      </trkpt>
      <trkpt lat="59.25542" lon="18.101016">
        <ele>23</ele>
        <time>2020-01-29T16:31:24Z</time>
      </trkpt>
      <trkpt lat="59.255481" lon="18.101026">
        <ele>23</ele>
        <time>2020-01-29T16:31:26Z</time>
      </trkpt>
      <trkpt lat="59.255543" lon="18.101037">
        <ele>23</ele>
        <time>2020-01-29T16:31:27Z</time>
      </trkpt>
      <trkpt lat="59.255604" lon="18.101048">
        <ele>23</ele>
        <time>2020-01-29T16:31:28Z</time>
      </trkpt>
      <trkpt lat="59.255661" lon="18.101059">
        <ele>23</ele>
        <time>2020-01-29T16:31:29Z</time>
      </trkpt>
      <trkpt lat="59.255717" lon="18.101074">
        <ele>23</ele>
        <time>2020-01-29T16:31:30Z</time>
      </trkpt>
      <trkpt lat="59.255769" lon="18.101091">
        <ele>23</ele>
        <time>2020-01-29T16:31:31Z</time>
      </trkpt>
      <trkpt lat="59.255825" lon="18.101098">
        <ele>23</ele>
        <time>2020-01-29T16:31:32Z</time>
      </trkpt>
      <trkpt lat="59.255881" lon="18.101106">
        <ele>0</ele>
        <time>2020-01-29T16:31:32Z</time>
      </trkpt>
      <trkpt lat="59.25594" lon="18.101112">
        <ele>23</ele>
        <time>2020-01-29T16:31:33Z</time>
      </trkpt>
      <trkpt lat="59.255997" lon="18.10112">
        <ele>22</ele>
        <time>2020-01-29T16:31:35Z</time>
      </trkpt>
      <trkpt lat="59.256051" lon="18.101126">
        <ele>23</ele>
        <time>2020-01-29T16:31:36Z</time>
      </trkpt>
      <trkpt lat="59.25611" lon="18.101127">
        <ele>23</ele>
        <time>2020-01-29T16:31:37Z</time>
      </trkpt>
      <trkpt lat="59.256166" lon="18.10113">
        <ele>23</ele>
        <time>2020-01-29T16:31:38Z</time>
      </trkpt>
      <trkpt lat="59.256225" lon="18.101133">
        <ele>23</ele>
        <time>2020-01-29T16:31:39Z</time>
      </trkpt>
      <trkpt lat="59.256292" lon="18.101132">
        <ele>23</ele>
        <time>2020-01-29T16:31:40Z</time>
      </trkpt>
      <trkpt lat="59.256353" lon="18.101131">
        <ele>0</ele>
        <time>2020-01-29T16:31:40Z</time>
      </trkpt>
      <trkpt lat="59.256409" lon="18.101134">
        <ele>23</ele>
        <time>2020-01-29T16:31:41Z</time>
      </trkpt>
      <trkpt lat="59.256463" lon="18.101137">
        <ele>23</ele>
        <time>2020-01-29T16:31:43Z</time>
      </trkpt>
      <trkpt lat="59.256526" lon="18.101141">
        <ele>23</ele>
        <time>2020-01-29T16:31:44Z</time>
      </trkpt>
      <trkpt lat="59.256586" lon="18.101145">
        <ele>23</ele>
        <time>2020-01-29T16:31:45Z</time>
      </trkpt>
      <trkpt lat="59.256642" lon="18.101146">
        <ele>23</ele>
        <time>2020-01-29T16:31:46Z</time>
      </trkpt>
      <trkpt lat="59.2567" lon="18.101145">
        <ele>23</ele>
        <time>2020-01-29T16:31:47Z</time>
      </trkpt>
      <trkpt lat="59.256754" lon="18.101133">
        <ele>23</ele>
        <time>2020-01-29T16:31:48Z</time>
      </trkpt>
      <trkpt lat="59.25681" lon="18.101119">
        <ele>23</ele>
        <time>2020-01-29T16:31:49Z</time>
      </trkpt>
      <trkpt lat="59.256866" lon="18.101103">
        <ele>0</ele>
        <time>2020-01-29T16:31:49Z</time>
      </trkpt>
      <trkpt lat="59.256917" lon="18.101081">
        <ele>23</ele>
        <time>2020-01-29T16:31:50Z</time>
      </trkpt>
      <trkpt lat="59.256954" lon="18.101033">
        <ele>0</ele>
        <time>2020-01-29T16:31:51Z</time>
      </trkpt>
      <trkpt lat="59.256987" lon="18.100947">
        <ele>23</ele>
        <time>2020-01-29T16:31:52Z</time>
      </trkpt>
      <trkpt lat="59.257015" lon="18.100847">
        <ele>23</ele>
        <time>2020-01-29T16:31:54Z</time>
      </trkpt>
      <trkpt lat="59.257036" lon="18.100745">
        <ele>23</ele>
        <time>2020-01-29T16:31:55Z</time>
      </trkpt>
      <trkpt lat="59.257168" lon="18.1001">
        <ele>24</ele>
        <time>2020-01-29T16:32:00Z</time>
      </trkpt>
      <trkpt lat="59.257265" lon="18.099879">
        <ele>24</ele>
        <time>2020-01-29T16:32:03Z</time>
      </trkpt>
      <trkpt lat="59.257335" lon="18.099696">
        <ele>24</ele>
        <time>2020-01-29T16:32:05Z</time>
      </trkpt>
      <trkpt lat="59.257368" lon="18.099605">
        <ele>25</ele>
        <time>2020-01-29T16:32:06Z</time>
      </trkpt>
      <trkpt lat="59.257401" lon="18.099516">
        <ele>0</ele>
        <time>2020-01-29T16:32:06Z</time>
      </trkpt>
      <trkpt lat="59.257424" lon="18.099438">
        <ele>24</ele>
        <time>2020-01-29T16:32:07Z</time>
      </trkpt>
      <trkpt lat="59.257452" lon="18.099377">
        <ele>24</ele>
        <time>2020-01-29T16:32:08Z</time>
      </trkpt>
      <trkpt lat="59.257486" lon="18.09933">
        <ele>25</ele>
        <time>2020-01-29T16:32:10Z</time>
      </trkpt>
      <trkpt lat="59.257521" lon="18.099292">
        <ele>0</ele>
        <time>2020-01-29T16:32:10Z</time>
      </trkpt>
      <trkpt lat="59.257557" lon="18.099259">
        <ele>25</ele>
        <time>2020-01-29T16:32:11Z</time>
      </trkpt>
      <trkpt lat="59.257595" lon="18.099233">
        <ele>26</ele>
        <time>2020-01-29T16:32:13Z</time>
      </trkpt>
      <trkpt lat="59.257633" lon="18.099214">
        <ele>27</ele>
        <time>2020-01-29T16:32:14Z</time>
      </trkpt>
      <trkpt lat="59.257674" lon="18.099198">
        <ele>27</ele>
        <time>2020-01-29T16:32:15Z</time>
      </trkpt>
      <trkpt lat="59.257716" lon="18.099192">
        <ele>28</ele>
        <time>2020-01-29T16:32:16Z</time>
      </trkpt>
      <trkpt lat="59.257764" lon="18.099194">
        <ele>28</ele>
        <time>2020-01-29T16:32:17Z</time>
      </trkpt>
      <trkpt lat="59.257811" lon="18.099202">
        <ele>28</ele>
        <time>2020-01-29T16:32:18Z</time>
      </trkpt>
      <trkpt lat="59.257858" lon="18.099214">
        <ele>0</ele>
        <time>2020-01-29T16:32:18Z</time>
      </trkpt>
      <trkpt lat="59.257903" lon="18.099227">
        <ele>28</ele>
        <time>2020-01-29T16:32:19Z</time>
      </trkpt>
      <trkpt lat="59.257947" lon="18.09924">
        <ele>29</ele>
        <time>2020-01-29T16:32:21Z</time>
      </trkpt>
      <trkpt lat="59.257988" lon="18.099247">
        <ele>30</ele>
        <time>2020-01-29T16:32:22Z</time>
      </trkpt>
      <trkpt lat="59.258028" lon="18.099248">
        <ele>31</ele>
        <time>2020-01-29T16:32:23Z</time>
      </trkpt>
      <trkpt lat="59.25807" lon="18.099245">
        <ele>32</ele>
        <time>2020-01-29T16:32:24Z</time>
      </trkpt>
      <trkpt lat="59.25812" lon="18.09925">
        <ele>32</ele>
        <time>2020-01-29T16:32:25Z</time>
      </trkpt>
      <trkpt lat="59.258169" lon="18.099243">
        <ele>33</ele>
        <time>2020-01-29T16:32:26Z</time>
      </trkpt>
      <trkpt lat="59.258218" lon="18.099235">
        <ele>33</ele>
        <time>2020-01-29T16:32:27Z</time>
      </trkpt>
      <trkpt lat="59.258268" lon="18.099227">
        <ele>33</ele>
        <time>2020-01-29T16:32:28Z</time>
      </trkpt>
      <trkpt lat="59.25832" lon="18.099223">
        <ele>33</ele>
        <time>2020-01-29T16:32:29Z</time>
      </trkpt>
      <trkpt lat="59.258372" lon="18.099229">
        <ele>0</ele>
        <time>2020-01-29T16:32:29Z</time>
      </trkpt>
      <trkpt lat="59.258427" lon="18.099231">
        <ele>34</ele>
        <time>2020-01-29T16:32:30Z</time>
      </trkpt>
      <trkpt lat="59.258478" lon="18.099235">
        <ele>33</ele>
        <time>2020-01-29T16:32:32Z</time>
      </trkpt>
      <trkpt lat="59.258531" lon="18.099236">
        <ele>33</ele>
        <time>2020-01-29T16:32:33Z</time>
      </trkpt>
      <trkpt lat="59.258585" lon="18.099238">
        <ele>33</ele>
        <time>2020-01-29T16:32:34Z</time>
      </trkpt>
      <trkpt lat="59.258641" lon="18.09924">
        <ele>33</ele>
        <time>2020-01-29T16:32:35Z</time>
      </trkpt>
      <trkpt lat="59.258696" lon="18.099238">
        <ele>33</ele>
        <time>2020-01-29T16:32:36Z</time>
      </trkpt>
      <trkpt lat="59.258751" lon="18.099235">
        <ele>34</ele>
        <time>2020-01-29T16:32:37Z</time>
      </trkpt>
      <trkpt lat="59.258806" lon="18.09923">
        <ele>34</ele>
        <time>2020-01-29T16:32:38Z</time>
      </trkpt>
      <trkpt lat="59.258861" lon="18.09923">
        <ele>0</ele>
        <time>2020-01-29T16:32:38Z</time>
      </trkpt>
      <trkpt lat="59.258916" lon="18.099229">
        <ele>34</ele>
        <time>2020-01-29T16:32:39Z</time>
      </trkpt>
      <trkpt lat="59.258972" lon="18.099225">
        <ele>34</ele>
        <time>2020-01-29T16:32:41Z</time>
      </trkpt>
      <trkpt lat="59.259027" lon="18.099218">
        <ele>33</ele>
        <time>2020-01-29T16:32:42Z</time>
      </trkpt>
      <trkpt lat="59.259084" lon="18.099213">
        <ele>33</ele>
        <time>2020-01-29T16:32:43Z</time>
      </trkpt>
      <trkpt lat="59.259143" lon="18.099209">
        <ele>33</ele>
        <time>2020-01-29T16:32:44Z</time>
      </trkpt>
      <trkpt lat="59.259204" lon="18.099204">
        <ele>33</ele>
        <time>2020-01-29T16:32:45Z</time>
      </trkpt>
      <trkpt lat="59.259266" lon="18.099192">
        <ele>33</ele>
        <time>2020-01-29T16:32:46Z</time>
      </trkpt>
      <trkpt lat="59.259327" lon="18.099163">
        <ele>0</ele>
        <time>2020-01-29T16:32:46Z</time>
      </trkpt>
      <trkpt lat="59.259386" lon="18.099118">
        <ele>33</ele>
        <time>2020-01-29T16:32:47Z</time>
      </trkpt>
      <trkpt lat="59.259442" lon="18.099061">
        <ele>33</ele>
        <time>2020-01-29T16:32:49Z</time>
      </trkpt>
      <trkpt lat="59.259493" lon="18.098992">
        <ele>33</ele>
        <time>2020-01-29T16:32:50Z</time>
      </trkpt>
      <trkpt lat="59.259537" lon="18.098912">
        <ele>32</ele>
        <time>2020-01-29T16:32:51Z</time>
      </trkpt>
      <trkpt lat="59.259573" lon="18.098821">
        <ele>32</ele>
        <time>2020-01-29T16:32:52Z</time>
      </trkpt>
      <trkpt lat="59.259603" lon="18.098722">
        <ele>32</ele>
        <time>2020-01-29T16:32:53Z</time>
      </trkpt>
      <trkpt lat="59.259624" lon="18.098617">
        <ele>32</ele>
        <time>2020-01-29T16:32:54Z</time>
      </trkpt>
      <trkpt lat="59.259638" lon="18.098509">
        <ele>32</ele>
        <time>2020-01-29T16:32:55Z</time>
      </trkpt>
      <trkpt lat="59.259647" lon="18.098403">
        <ele>0</ele>
        <time>2020-01-29T16:32:55Z</time>
      </trkpt>
      <trkpt lat="59.259654" lon="18.098297">
        <ele>32</ele>
        <time>2020-01-29T16:32:56Z</time>
      </trkpt>
      <trkpt lat="59.259661" lon="18.098192">
        <ele>32</ele>
        <time>2020-01-29T16:32:58Z</time>
      </trkpt>
      <trkpt lat="59.259667" lon="18.098091">
        <ele>32</ele>
        <time>2020-01-29T16:32:59Z</time>
      </trkpt>
      <trkpt lat="59.259674" lon="18.097991">
        <ele>32</ele>
        <time>2020-01-29T16:33:00Z</time>
      </trkpt>
      <trkpt lat="59.25968" lon="18.097892">
        <ele>32</ele>
        <time>2020-01-29T16:33:01Z</time>
      </trkpt>
      <trkpt lat="59.259688" lon="18.097792">
        <ele>32</ele>
        <time>2020-01-29T16:33:02Z</time>
      </trkpt>
      <trkpt lat="59.259694" lon="18.097693">
        <ele>32</ele>
        <time>2020-01-29T16:33:03Z</time>
      </trkpt>
      <trkpt lat="59.2597" lon="18.097593">
        <ele>32</ele>
        <time>2020-01-29T16:33:04Z</time>
      </trkpt>
      <trkpt lat="59.259711" lon="18.097494">
        <ele>32</ele>
        <time>2020-01-29T16:33:05Z</time>
      </trkpt>
      <trkpt lat="59.259727" lon="18.097396">
        <ele>32</ele>
        <time>2020-01-29T16:33:06Z</time>
      </trkpt>
      <trkpt lat="59.259747" lon="18.097299">
        <ele>32</ele>
        <time>2020-01-29T16:33:07Z</time>
      </trkpt>
      <trkpt lat="59.259772" lon="18.097209">
        <ele>32</ele>
        <time>2020-01-29T16:33:08Z</time>
      </trkpt>
      <trkpt lat="59.259804" lon="18.097122">
        <ele>31</ele>
        <time>2020-01-29T16:33:09Z</time>
      </trkpt>
      <trkpt lat="59.259846" lon="18.097042">
        <ele>31</ele>
        <time>2020-01-29T16:33:10Z</time>
      </trkpt>
      <trkpt lat="59.259896" lon="18.09697">
        <ele>30</ele>
        <time>2020-01-29T16:33:11Z</time>
      </trkpt>
      <trkpt lat="59.25995" lon="18.096904">
        <ele>30</ele>
        <time>2020-01-29T16:33:12Z</time>
      </trkpt>
      <trkpt lat="59.260012" lon="18.096844">
        <ele>0</ele>
        <time>2020-01-29T16:33:12Z</time>
      </trkpt>
      <trkpt lat="59.260077" lon="18.096789">
        <ele>30</ele>
        <time>2020-01-29T16:33:13Z</time>
      </trkpt>
      <trkpt lat="59.260146" lon="18.096743">
        <ele>30</ele>
        <time>2020-01-29T16:33:15Z</time>
      </trkpt>
      <trkpt lat="59.260215" lon="18.096699">
        <ele>30</ele>
        <time>2020-01-29T16:33:16Z</time>
      </trkpt>
      <trkpt lat="59.260292" lon="18.096653">
        <ele>30</ele>
        <time>2020-01-29T16:33:17Z</time>
      </trkpt>
      <trkpt lat="59.260366" lon="18.096591">
        <ele>30</ele>
        <time>2020-01-29T16:33:18Z</time>
      </trkpt>
      <trkpt lat="59.260514" lon="18.096498">
        <ele>30</ele>
        <time>2020-01-29T16:33:20Z</time>
      </trkpt>
      <trkpt lat="59.260654" lon="18.096502">
        <ele>30</ele>
        <time>2020-01-29T16:33:21Z</time>
      </trkpt>
      <trkpt lat="59.260712" lon="18.096498">
        <ele>30</ele>
        <time>2020-01-29T16:33:23Z</time>
      </trkpt>
      <trkpt lat="59.260764" lon="18.09649">
        <ele>30</ele>
        <time>2020-01-29T16:33:24Z</time>
      </trkpt>
      <trkpt lat="59.260814" lon="18.096475">
        <ele>30</ele>
        <time>2020-01-29T16:33:25Z</time>
      </trkpt>
      <trkpt lat="59.260858" lon="18.09647">
        <ele>30</ele>
        <time>2020-01-29T16:33:26Z</time>
      </trkpt>
      <trkpt lat="59.260904" lon="18.096461">
        <ele>0</ele>
        <time>2020-01-29T16:33:26Z</time>
      </trkpt>
      <trkpt lat="59.260948" lon="18.096453">
        <ele>29</ele>
        <time>2020-01-29T16:33:27Z</time>
      </trkpt>
      <trkpt lat="59.260996" lon="18.096459">
        <ele>29</ele>
        <time>2020-01-29T16:33:29Z</time>
      </trkpt>
      <trkpt lat="59.261039" lon="18.096475">
        <ele>0</ele>
        <time>2020-01-29T16:33:29Z</time>
      </trkpt>
      <trkpt lat="59.261087" lon="18.0965">
        <ele>29</ele>
        <time>2020-01-29T16:33:30Z</time>
      </trkpt>
      <trkpt lat="59.261134" lon="18.096531">
        <ele>29</ele>
        <time>2020-01-29T16:33:32Z</time>
      </trkpt>
      <trkpt lat="59.261182" lon="18.096562">
        <ele>28</ele>
        <time>2020-01-29T16:33:33Z</time>
      </trkpt>
      <trkpt lat="59.26123" lon="18.096598">
        <ele>28</ele>
        <time>2020-01-29T16:33:34Z</time>
      </trkpt>
      <trkpt lat="59.261279" lon="18.09664">
        <ele>28</ele>
        <time>2020-01-29T16:33:35Z</time>
      </trkpt>
      <trkpt lat="59.261328" lon="18.096685">
        <ele>28</ele>
        <time>2020-01-29T16:33:36Z</time>
      </trkpt>
      <trkpt lat="59.261374" lon="18.096733">
        <ele>28</ele>
        <time>2020-01-29T16:33:37Z</time>
      </trkpt>
      <trkpt lat="59.261421" lon="18.096785">
        <ele>28</ele>
        <time>2020-01-29T16:33:38Z</time>
      </trkpt>
      <trkpt lat="59.261466" lon="18.096842">
        <ele>0</ele>
        <time>2020-01-29T16:33:38Z</time>
      </trkpt>
      <trkpt lat="59.261509" lon="18.096904">
        <ele>28</ele>
        <time>2020-01-29T16:33:39Z</time>
      </trkpt>
      <trkpt lat="59.261551" lon="18.09697">
        <ele>28</ele>
        <time>2020-01-29T16:33:41Z</time>
      </trkpt>
      <trkpt lat="59.261592" lon="18.097037">
        <ele>28</ele>
        <time>2020-01-29T16:33:42Z</time>
      </trkpt>
      <trkpt lat="59.261632" lon="18.097105">
        <ele>28</ele>
        <time>2020-01-29T16:33:43Z</time>
      </trkpt>
      <trkpt lat="59.261672" lon="18.097174">
        <ele>28</ele>
        <time>2020-01-29T16:33:44Z</time>
      </trkpt>
      <trkpt lat="59.261712" lon="18.097242">
        <ele>28</ele>
        <time>2020-01-29T16:33:45Z</time>
      </trkpt>
      <trkpt lat="59.261753" lon="18.097309">
        <ele>28</ele>
        <time>2020-01-29T16:33:46Z</time>
      </trkpt>
      <trkpt lat="59.261793" lon="18.097378">
        <ele>28</ele>
        <time>2020-01-29T16:33:47Z</time>
      </trkpt>
      <trkpt lat="59.261835" lon="18.097447">
        <ele>28</ele>
        <time>2020-01-29T16:33:48Z</time>
      </trkpt>
      <trkpt lat="59.261874" lon="18.097514">
        <ele>0</ele>
        <time>2020-01-29T16:33:48Z</time>
      </trkpt>
      <trkpt lat="59.261915" lon="18.09758">
        <ele>28</ele>
        <time>2020-01-29T16:33:49Z</time>
      </trkpt>
      <trkpt lat="59.261956" lon="18.097644">
        <ele>28</ele>
        <time>2020-01-29T16:33:51Z</time>
      </trkpt>
      <trkpt lat="59.261996" lon="18.097708">
        <ele>28</ele>
        <time>2020-01-29T16:33:52Z</time>
      </trkpt>
      <trkpt lat="59.262037" lon="18.097771">
        <ele>28</ele>
        <time>2020-01-29T16:33:53Z</time>
      </trkpt>
      <trkpt lat="59.262078" lon="18.097836">
        <ele>28</ele>
        <time>2020-01-29T16:33:54Z</time>
      </trkpt>
      <trkpt lat="59.262118" lon="18.097899">
        <ele>28</ele>
        <time>2020-01-29T16:33:55Z</time>
      </trkpt>
      <trkpt lat="59.262159" lon="18.097957">
        <ele>28</ele>
        <time>2020-01-29T16:33:56Z</time>
      </trkpt>
      <trkpt lat="59.2622" lon="18.09801">
        <ele>28</ele>
        <time>2020-01-29T16:33:57Z</time>
      </trkpt>
      <trkpt lat="59.262244" lon="18.098058">
        <ele>0</ele>
        <time>2020-01-29T16:33:57Z</time>
      </trkpt>
      <trkpt lat="59.262288" lon="18.098101">
        <ele>28</ele>
        <time>2020-01-29T16:33:58Z</time>
      </trkpt>
      <trkpt lat="59.262334" lon="18.098135">
        <ele>28</ele>
        <time>2020-01-29T16:34:00Z</time>
      </trkpt>
      <trkpt lat="59.262382" lon="18.098158">
        <ele>28</ele>
        <time>2020-01-29T16:34:01Z</time>
      </trkpt>
      <trkpt lat="59.26243" lon="18.098173">
        <ele>28</ele>
        <time>2020-01-29T16:34:02Z</time>
      </trkpt>
      <trkpt lat="59.262477" lon="18.098182">
        <ele>28</ele>
        <time>2020-01-29T16:34:03Z</time>
      </trkpt>
      <trkpt lat="59.262522" lon="18.098187">
        <ele>28</ele>
        <time>2020-01-29T16:34:04Z</time>
      </trkpt>
      <trkpt lat="59.262567" lon="18.098189">
        <ele>0</ele>
        <time>2020-01-29T16:34:04Z</time>
      </trkpt>
      <trkpt lat="59.262612" lon="18.098187">
        <ele>29</ele>
        <time>2020-01-29T16:34:05Z</time>
      </trkpt>
      <trkpt lat="59.262657" lon="18.098188">
        <ele>29</ele>
        <time>2020-01-29T16:34:07Z</time>
      </trkpt>
      <trkpt lat="59.2627" lon="18.09819">
        <ele>29</ele>
        <time>2020-01-29T16:34:08Z</time>
      </trkpt>
      <trkpt lat="59.262743" lon="18.098188">
        <ele>0</ele>
        <time>2020-01-29T16:34:08Z</time>
      </trkpt>
      <trkpt lat="59.262784" lon="18.098188">
        <ele>29</ele>
        <time>2020-01-29T16:34:09Z</time>
      </trkpt>
      <trkpt lat="59.262822" lon="18.09819">
        <ele>29</ele>
        <time>2020-01-29T16:34:11Z</time>
      </trkpt>
      <trkpt lat="59.262857" lon="18.098192">
        <ele>29</ele>
        <time>2020-01-29T16:34:12Z</time>
      </trkpt>
      <trkpt lat="59.262892" lon="18.09819">
        <ele>29</ele>
        <time>2020-01-29T16:34:13Z</time>
      </trkpt>
      <trkpt lat="59.262926" lon="18.098187">
        <ele>29</ele>
        <time>2020-01-29T16:34:14Z</time>
      </trkpt>
      <trkpt lat="59.262959" lon="18.098189">
        <ele>29</ele>
        <time>2020-01-29T16:34:15Z</time>
      </trkpt>
      <trkpt lat="59.262996" lon="18.098188">
        <ele>29</ele>
        <time>2020-01-29T16:34:16Z</time>
      </trkpt>
      <trkpt lat="59.263036" lon="18.098179">
        <ele>30</ele>
        <time>2020-01-29T16:34:17Z</time>
      </trkpt>
      <trkpt lat="59.263078" lon="18.098167">
        <ele>30</ele>
        <time>2020-01-29T16:34:18Z</time>
      </trkpt>
      <trkpt lat="59.263113" lon="18.098159">
        <ele>30</ele>
        <time>2020-01-29T16:34:19Z</time>
      </trkpt>
      <trkpt lat="59.263147" lon="18.098149">
        <ele>30</ele>
        <time>2020-01-29T16:34:20Z</time>
      </trkpt>
      <trkpt lat="59.263177" lon="18.098143">
        <ele>30</ele>
        <time>2020-01-29T16:34:21Z</time>
      </trkpt>
      <trkpt lat="59.263205" lon="18.09813">
        <ele>30</ele>
        <time>2020-01-29T16:34:22Z</time>
      </trkpt>
      <trkpt lat="59.263233" lon="18.098119">
        <ele>0</ele>
        <time>2020-01-29T16:34:22Z</time>
      </trkpt>
      <trkpt lat="59.263273" lon="18.098104">
        <ele>30</ele>
        <time>2020-01-29T16:34:23Z</time>
      </trkpt>
      <trkpt lat="59.263314" lon="18.098094">
        <ele>30</ele>
        <time>2020-01-29T16:34:24Z</time>
      </trkpt>
      <trkpt lat="59.263355" lon="18.098087">
        <ele>30</ele>
        <time>2020-01-29T16:34:26Z</time>
      </trkpt>
      <trkpt lat="59.263396" lon="18.098073">
        <ele>30</ele>
        <time>2020-01-29T16:34:27Z</time>
      </trkpt>
      <trkpt lat="59.263427" lon="18.09806">
        <ele>30</ele>
        <time>2020-01-29T16:34:28Z</time>
      </trkpt>
      <trkpt lat="59.263465" lon="18.098052">
        <ele>30</ele>
        <time>2020-01-29T16:34:29Z</time>
      </trkpt>
      <trkpt lat="59.263498" lon="18.098035">
        <ele>30</ele>
        <time>2020-01-29T16:34:30Z</time>
      </trkpt>
      <trkpt lat="59.263527" lon="18.098024">
        <ele>30</ele>
        <time>2020-01-29T16:34:31Z</time>
      </trkpt>
      <trkpt lat="59.263558" lon="18.098013">
        <ele>30</ele>
        <time>2020-01-29T16:34:32Z</time>
      </trkpt>
      <trkpt lat="59.263598" lon="18.098005">
        <ele>31</ele>
        <time>2020-01-29T16:34:33Z</time>
      </trkpt>
      <trkpt lat="59.263648" lon="18.097987">
        <ele>31</ele>
        <time>2020-01-29T16:34:34Z</time>
      </trkpt>
      <trkpt lat="59.263696" lon="18.097967">
        <ele>31</ele>
        <time>2020-01-29T16:34:35Z</time>
      </trkpt>
      <trkpt lat="59.263747" lon="18.097948">
        <ele>0</ele>
        <time>2020-01-29T16:34:35Z</time>
      </trkpt>
      <trkpt lat="59.263793" lon="18.097932">
        <ele>31</ele>
        <time>2020-01-29T16:34:36Z</time>
      </trkpt>
      <trkpt lat="59.263837" lon="18.097919">
        <ele>31</ele>
        <time>2020-01-29T16:34:38Z</time>
      </trkpt>
      <trkpt lat="59.263881" lon="18.09791">
        <ele>31</ele>
        <time>2020-01-29T16:34:39Z</time>
      </trkpt>
      <trkpt lat="59.263922" lon="18.097896">
        <ele>32</ele>
        <time>2020-01-29T16:34:40Z</time>
      </trkpt>
      <trkpt lat="59.263962" lon="18.097885">
        <ele>32</ele>
        <time>2020-01-29T16:34:41Z</time>
      </trkpt>
      <trkpt lat="59.264002" lon="18.097873">
        <ele>32</ele>
        <time>2020-01-29T16:34:42Z</time>
      </trkpt>
      <trkpt lat="59.264041" lon="18.097859">
        <ele>0</ele>
        <time>2020-01-29T16:34:42Z</time>
      </trkpt>
      <trkpt lat="59.264084" lon="18.097843">
        <ele>32</ele>
        <time>2020-01-29T16:34:43Z</time>
      </trkpt>
      <trkpt lat="59.264129" lon="18.097825">
        <ele>32</ele>
        <time>2020-01-29T16:34:45Z</time>
      </trkpt>
      <trkpt lat="59.264172" lon="18.097807">
        <ele>33</ele>
        <time>2020-01-29T16:34:46Z</time>
      </trkpt>
      <trkpt lat="59.264212" lon="18.097789">
        <ele>33</ele>
        <time>2020-01-29T16:34:47Z</time>
      </trkpt>
      <trkpt lat="59.264256" lon="18.097771">
        <ele>0</ele>
        <time>2020-01-29T16:34:47Z</time>
      </trkpt>
      <trkpt lat="59.2643" lon="18.097753">
        <ele>33</ele>
        <time>2020-01-29T16:34:48Z</time>
      </trkpt>
      <trkpt lat="59.264343" lon="18.09773">
        <ele>33</ele>
        <time>2020-01-29T16:34:50Z</time>
      </trkpt>
      <trkpt lat="59.264386" lon="18.097706">
        <ele>33</ele>
        <time>2020-01-29T16:34:51Z</time>
      </trkpt>
      <trkpt lat="59.264432" lon="18.097689">
        <ele>33</ele>
        <time>2020-01-29T16:34:52Z</time>
      </trkpt>
      <trkpt lat="59.264481" lon="18.097669">
        <ele>33</ele>
        <time>2020-01-29T16:34:53Z</time>
      </trkpt>
      <trkpt lat="59.26453" lon="18.097648">
        <ele>33</ele>
        <time>2020-01-29T16:34:54Z</time>
      </trkpt>
      <trkpt lat="59.264579" lon="18.097625">
        <ele>33</ele>
        <time>2020-01-29T16:34:55Z</time>
      </trkpt>
      <trkpt lat="59.264629" lon="18.097603">
        <ele>33</ele>
        <time>2020-01-29T16:34:56Z</time>
      </trkpt>
      <trkpt lat="59.264679" lon="18.097578">
        <ele>33</ele>
        <time>2020-01-29T16:34:57Z</time>
      </trkpt>
      <trkpt lat="59.26473" lon="18.097551">
        <ele>0</ele>
        <time>2020-01-29T16:34:57Z</time>
      </trkpt>
      <trkpt lat="59.264783" lon="18.097523">
        <ele>33</ele>
        <time>2020-01-29T16:34:58Z</time>
      </trkpt>
      <trkpt lat="59.264837" lon="18.097491">
        <ele>33</ele>
        <time>2020-01-29T16:35:00Z</time>
      </trkpt>
      <trkpt lat="59.264896" lon="18.09746">
        <ele>33</ele>
        <time>2020-01-29T16:35:01Z</time>
      </trkpt>
      <trkpt lat="59.264956" lon="18.097428">
        <ele>33</ele>
        <time>2020-01-29T16:35:01Z</time>
      </trkpt>
      <trkpt lat="59.26502" lon="18.097399">
        <ele>33</ele>
        <time>2020-01-29T16:35:02Z</time>
      </trkpt>
      <trkpt lat="59.265087" lon="18.097371">
        <ele>33</ele>
        <time>2020-01-29T16:35:04Z</time>
      </trkpt>
      <trkpt lat="59.265149" lon="18.097346">
        <ele>33</ele>
        <time>2020-01-29T16:35:05Z</time>
      </trkpt>
      <trkpt lat="59.265207" lon="18.097333">
        <ele>0</ele>
        <time>2020-01-29T16:35:05Z</time>
      </trkpt>
      <trkpt lat="59.265265" lon="18.097358">
        <ele>33</ele>
        <time>2020-01-29T16:35:06Z</time>
      </trkpt>
      <trkpt lat="59.265312" lon="18.09742">
        <ele>33</ele>
        <time>2020-01-29T16:35:08Z</time>
      </trkpt>
      <trkpt lat="59.265335" lon="18.097503">
        <ele>33</ele>
        <time>2020-01-29T16:35:09Z</time>
      </trkpt>
      <trkpt lat="59.265346" lon="18.097585">
        <ele>33</ele>
        <time>2020-01-29T16:35:10Z</time>
      </trkpt>
      <trkpt lat="59.265349" lon="18.09767">
        <ele>33</ele>
        <time>2020-01-29T16:35:11Z</time>
      </trkpt>
      <trkpt lat="59.265342" lon="18.09799">
        <ele>33</ele>
        <time>2020-01-29T16:35:15Z</time>
      </trkpt>
      <trkpt lat="59.265474" lon="18.098116">
        <ele>33</ele>
        <time>2020-01-29T16:35:16Z</time>
      </trkpt>
      <trkpt lat="59.265585" lon="18.098113">
        <ele>33</ele>
        <time>2020-01-29T16:35:19Z</time>
      </trkpt>
      <trkpt lat="59.26563" lon="18.098094">
        <ele>33</ele>
        <time>2020-01-29T16:35:20Z</time>
      </trkpt>
      <trkpt lat="59.265674" lon="18.098069">
        <ele>0</ele>
        <time>2020-01-29T16:35:20Z</time>
      </trkpt>
      <trkpt lat="59.265717" lon="18.098048">
        <ele>33</ele>
        <time>2020-01-29T16:35:21Z</time>
      </trkpt>
      <trkpt lat="59.265759" lon="18.098025">
        <ele>33</ele>
        <time>2020-01-29T16:35:23Z</time>
      </trkpt>
      <trkpt lat="59.265802" lon="18.098003">
        <ele>33</ele>
        <time>2020-01-29T16:35:24Z</time>
      </trkpt>
      <trkpt lat="59.265842" lon="18.097975">
        <ele>33</ele>
        <time>2020-01-29T16:35:25Z</time>
      </trkpt>
      <trkpt lat="59.265879" lon="18.097949">
        <ele>0</ele>
        <time>2020-01-29T16:35:25Z</time>
      </trkpt>
      <trkpt lat="59.265917" lon="18.097925">
        <ele>33</ele>
        <time>2020-01-29T16:35:26Z</time>
      </trkpt>
      <trkpt lat="59.265952" lon="18.097901">
        <ele>33</ele>
        <time>2020-01-29T16:35:28Z</time>
      </trkpt>
      <trkpt lat="59.265987" lon="18.097877">
        <ele>33</ele>
        <time>2020-01-29T16:35:29Z</time>
      </trkpt>
      <trkpt lat="59.266021" lon="18.097853">
        <ele>34</ele>
        <time>2020-01-29T16:35:30Z</time>
      </trkpt>
      <trkpt lat="59.266054" lon="18.097831">
        <ele>34</ele>
        <time>2020-01-29T16:35:31Z</time>
      </trkpt>
      <trkpt lat="59.266087" lon="18.097821">
        <ele>34</ele>
        <time>2020-01-29T16:35:32Z</time>
      </trkpt>
      <trkpt lat="59.266115" lon="18.097834">
        <ele>34</ele>
        <time>2020-01-29T16:35:33Z</time>
      </trkpt>
      <trkpt lat="59.266132" lon="18.097861">
        <ele>34</ele>
        <time>2020-01-29T16:35:34Z</time>
      </trkpt>
      <trkpt lat="59.266144" lon="18.097914">
        <ele>34</ele>
        <time>2020-01-29T16:35:36Z</time>
      </trkpt>
      <trkpt lat="59.26615" lon="18.097953">
        <ele>34</ele>
        <time>2020-01-29T16:35:37Z</time>
      </trkpt>
      <trkpt lat="59.266164" lon="18.097992">
        <ele>34</ele>
        <time>2020-01-29T16:35:38Z</time>
      </trkpt>
      <trkpt lat="59.266187" lon="18.098018">
        <ele>34</ele>
        <time>2020-01-29T16:35:39Z</time>
      </trkpt>
      <trkpt lat="59.266219" lon="18.098023">
        <ele>0</ele>
        <time>2020-01-29T16:35:39Z</time>
      </trkpt>
      <trkpt lat="59.266255" lon="18.098011">
        <ele>34</ele>
        <time>2020-01-29T16:35:40Z</time>
      </trkpt>
      <trkpt lat="59.266293" lon="18.097995">
        <ele>34</ele>
        <time>2020-01-29T16:35:42Z</time>
      </trkpt>
      <trkpt lat="59.266332" lon="18.09798">
        <ele>0</ele>
        <time>2020-01-29T16:35:42Z</time>
      </trkpt>
      <trkpt lat="59.266374" lon="18.097965">
        <ele>35</ele>
        <time>2020-01-29T16:35:43Z</time>
      </trkpt>
      <trkpt lat="59.266416" lon="18.097953">
        <ele>35</ele>
        <time>2020-01-29T16:35:45Z</time>
      </trkpt>
      <trkpt lat="59.266458" lon="18.09794">
        <ele>35</ele>
        <time>2020-01-29T16:35:46Z</time>
      </trkpt>
      <trkpt lat="59.266495" lon="18.09793">
        <ele>35</ele>
        <time>2020-01-29T16:35:47Z</time>
      </trkpt>
      <trkpt lat="59.266527" lon="18.097915">
        <ele>35</ele>
        <time>2020-01-29T16:35:48Z</time>
      </trkpt>
      <trkpt lat="59.266562" lon="18.097901">
        <ele>35</ele>
        <time>2020-01-29T16:35:49Z</time>
      </trkpt>
      <trkpt lat="59.266606" lon="18.097881">
        <ele>35</ele>
        <time>2020-01-29T16:35:50Z</time>
      </trkpt>
      <trkpt lat="59.266652" lon="18.097855">
        <ele>35</ele>
        <time>2020-01-29T16:35:51Z</time>
      </trkpt>
      <trkpt lat="59.266695" lon="18.09783">
        <ele>35</ele>
        <time>2020-01-29T16:35:52Z</time>
      </trkpt>
      <trkpt lat="59.266735" lon="18.09781">
        <ele>35</ele>
        <time>2020-01-29T16:35:53Z</time>
      </trkpt>
      <trkpt lat="59.266773" lon="18.097791">
        <ele>35</ele>
        <time>2020-01-29T16:35:54Z</time>
      </trkpt>
      <trkpt lat="59.26681" lon="18.097767">
        <ele>0</ele>
        <time>2020-01-29T16:35:54Z</time>
      </trkpt>
      <trkpt lat="59.266847" lon="18.097744">
        <ele>36</ele>
        <time>2020-01-29T16:35:55Z</time>
      </trkpt>
      <trkpt lat="59.266892" lon="18.097717">
        <ele>36</ele>
        <time>2020-01-29T16:35:57Z</time>
      </trkpt>
      <trkpt lat="59.266948" lon="18.09768">
        <ele>36</ele>
        <time>2020-01-29T16:35:58Z</time>
      </trkpt>
      <trkpt lat="59.267002" lon="18.097645">
        <ele>0</ele>
        <time>2020-01-29T16:35:58Z</time>
      </trkpt>
      <trkpt lat="59.267051" lon="18.097613">
        <ele>35</ele>
        <time>2020-01-29T16:35:59Z</time>
      </trkpt>
      <trkpt lat="59.267101" lon="18.09758">
        <ele>36</ele>
        <time>2020-01-29T16:36:01Z</time>
      </trkpt>
      <trkpt lat="59.267152" lon="18.097548">
        <ele>36</ele>
        <time>2020-01-29T16:36:02Z</time>
      </trkpt>
      <trkpt lat="59.267204" lon="18.09751">
        <ele>36</ele>
        <time>2020-01-29T16:36:03Z</time>
      </trkpt>
      <trkpt lat="59.267261" lon="18.09747">
        <ele>36</ele>
        <time>2020-01-29T16:36:04Z</time>
      </trkpt>
      <trkpt lat="59.267311" lon="18.097429">
        <ele>0</ele>
        <time>2020-01-29T16:36:04Z</time>
      </trkpt>
      <trkpt lat="59.267357" lon="18.09739">
        <ele>36</ele>
        <time>2020-01-29T16:36:05Z</time>
      </trkpt>
      <trkpt lat="59.267404" lon="18.097356">
        <ele>36</ele>
        <time>2020-01-29T16:36:07Z</time>
      </trkpt>
      <trkpt lat="59.267449" lon="18.097326">
        <ele>36</ele>
        <time>2020-01-29T16:36:08Z</time>
      </trkpt>
      <trkpt lat="59.2675" lon="18.097294">
        <ele>36</ele>
        <time>2020-01-29T16:36:09Z</time>
      </trkpt>
      <trkpt lat="59.267555" lon="18.097255">
        <ele>36</ele>
        <time>2020-01-29T16:36:10Z</time>
      </trkpt>
      <trkpt lat="59.267609" lon="18.097217">
        <ele>36</ele>
        <time>2020-01-29T16:36:11Z</time>
      </trkpt>
      <trkpt lat="59.267661" lon="18.097182">
        <ele>36</ele>
        <time>2020-01-29T16:36:12Z</time>
      </trkpt>
      <trkpt lat="59.267716" lon="18.097148">
        <ele>36</ele>
        <time>2020-01-29T16:36:13Z</time>
      </trkpt>
      <trkpt lat="59.267773" lon="18.097116">
        <ele>0</ele>
        <time>2020-01-29T16:36:13Z</time>
      </trkpt>
      <trkpt lat="59.267829" lon="18.09709">
        <ele>36</ele>
        <time>2020-01-29T16:36:14Z</time>
      </trkpt>
      <trkpt lat="59.267881" lon="18.097069">
        <ele>37</ele>
        <time>2020-01-29T16:36:16Z</time>
      </trkpt>
      <trkpt lat="59.267931" lon="18.097052">
        <ele>37</ele>
        <time>2020-01-29T16:36:17Z</time>
      </trkpt>
      <trkpt lat="59.267982" lon="18.097033">
        <ele>0</ele>
        <time>2020-01-29T16:36:17Z</time>
      </trkpt>
      <trkpt lat="59.268034" lon="18.097011">
        <ele>37</ele>
        <time>2020-01-29T16:36:18Z</time>
      </trkpt>
      <trkpt lat="59.268082" lon="18.096983">
        <ele>37</ele>
        <time>2020-01-29T16:36:20Z</time>
      </trkpt>
      <trkpt lat="59.26813" lon="18.096951">
        <ele>37</ele>
        <time>2020-01-29T16:36:21Z</time>
      </trkpt>
      <trkpt lat="59.268179" lon="18.096915">
        <ele>37</ele>
        <time>2020-01-29T16:36:22Z</time>
      </trkpt>
      <trkpt lat="59.268225" lon="18.096879">
        <ele>0</ele>
        <time>2020-01-29T16:36:22Z</time>
      </trkpt>
      <trkpt lat="59.268274" lon="18.096842">
        <ele>37</ele>
        <time>2020-01-29T16:36:23Z</time>
      </trkpt>
      <trkpt lat="59.268319" lon="18.096804">
        <ele>37</ele>
        <time>2020-01-29T16:36:25Z</time>
      </trkpt>
      <trkpt lat="59.268367" lon="18.096768">
        <ele>37</ele>
        <time>2020-01-29T16:36:26Z</time>
      </trkpt>
      <trkpt lat="59.268417" lon="18.096735">
        <ele>36</ele>
        <time>2020-01-29T16:36:27Z</time>
      </trkpt>
      <trkpt lat="59.26847" lon="18.096701">
        <ele>36</ele>
        <time>2020-01-29T16:36:28Z</time>
      </trkpt>
      <trkpt lat="59.268522" lon="18.096667">
        <ele>37</ele>
        <time>2020-01-29T16:36:29Z</time>
      </trkpt>
      <trkpt lat="59.268574" lon="18.096635">
        <ele>37</ele>
        <time>2020-01-29T16:36:30Z</time>
      </trkpt>
      <trkpt lat="59.268626" lon="18.096604">
        <ele>37</ele>
        <time>2020-01-29T16:36:31Z</time>
      </trkpt>
      <trkpt lat="59.268678" lon="18.096575">
        <ele>37</ele>
        <time>2020-01-29T16:36:32Z</time>
      </trkpt>
      <trkpt lat="59.268731" lon="18.096546">
        <ele>0</ele>
        <time>2020-01-29T16:36:32Z</time>
      </trkpt>
      <trkpt lat="59.268783" lon="18.096516">
        <ele>37</ele>
        <time>2020-01-29T16:36:33Z</time>
      </trkpt>
      <trkpt lat="59.268833" lon="18.096483">
        <ele>37</ele>
        <time>2020-01-29T16:36:35Z</time>
      </trkpt>
      <trkpt lat="59.268884" lon="18.09645">
        <ele>37</ele>
        <time>2020-01-29T16:36:36Z</time>
      </trkpt>
      <trkpt lat="59.268935" lon="18.096421">
        <ele>0</ele>
        <time>2020-01-29T16:36:36Z</time>
      </trkpt>
      <trkpt lat="59.268988" lon="18.096398">
        <ele>37</ele>
        <time>2020-01-29T16:36:37Z</time>
      </trkpt>
      <trkpt lat="59.269041" lon="18.096379">
        <ele>37</ele>
        <time>2020-01-29T16:36:39Z</time>
      </trkpt>
      <trkpt lat="59.269093" lon="18.096359">
        <ele>37</ele>
        <time>2020-01-29T16:36:40Z</time>
      </trkpt>
      <trkpt lat="59.269144" lon="18.096337">
        <ele>37</ele>
        <time>2020-01-29T16:36:41Z</time>
      </trkpt>
      <trkpt lat="59.269195" lon="18.096315">
        <ele>0</ele>
        <time>2020-01-29T16:36:41Z</time>
      </trkpt>
      <trkpt lat="59.269244" lon="18.096288">
        <ele>37</ele>
        <time>2020-01-29T16:36:42Z</time>
      </trkpt>
      <trkpt lat="59.269292" lon="18.096258">
        <ele>37</ele>
        <time>2020-01-29T16:36:44Z</time>
      </trkpt>
      <trkpt lat="59.269338" lon="18.096229">
        <ele>37</ele>
        <time>2020-01-29T16:36:45Z</time>
      </trkpt>
      <trkpt lat="59.269381" lon="18.096198">
        <ele>37</ele>
        <time>2020-01-29T16:36:46Z</time>
      </trkpt>
      <trkpt lat="59.269425" lon="18.096167">
        <ele>37</ele>
        <time>2020-01-29T16:36:47Z</time>
      </trkpt>
      <trkpt lat="59.26947" lon="18.09614">
        <ele>37</ele>
        <time>2020-01-29T16:36:48Z</time>
      </trkpt>
      <trkpt lat="59.269514" lon="18.096118">
        <ele>38</ele>
        <time>2020-01-29T16:36:49Z</time>
      </trkpt>
      <trkpt lat="59.269559" lon="18.096089">
        <ele>38</ele>
        <time>2020-01-29T16:36:50Z</time>
      </trkpt>
      <trkpt lat="59.269602" lon="18.096055">
        <ele>38</ele>
        <time>2020-01-29T16:36:51Z</time>
      </trkpt>
      <trkpt lat="59.269645" lon="18.096017">
        <ele>0</ele>
        <time>2020-01-29T16:36:51Z</time>
      </trkpt>
      <trkpt lat="59.269691" lon="18.095979">
        <ele>38</ele>
        <time>2020-01-29T16:36:52Z</time>
      </trkpt>
      <trkpt lat="59.269736" lon="18.095945">
        <ele>38</ele>
        <time>2020-01-29T16:36:54Z</time>
      </trkpt>
      <trkpt lat="59.269786" lon="18.095914">
        <ele>38</ele>
        <time>2020-01-29T16:36:55Z</time>
      </trkpt>
      <trkpt lat="59.269837" lon="18.095883">
        <ele>0</ele>
        <time>2020-01-29T16:36:55Z</time>
      </trkpt>
      <trkpt lat="59.26989" lon="18.095854">
        <ele>38</ele>
        <time>2020-01-29T16:36:56Z</time>
      </trkpt>
      <trkpt lat="59.269941" lon="18.095821">
        <ele>38</ele>
        <time>2020-01-29T16:36:58Z</time>
      </trkpt>
      <trkpt lat="59.269987" lon="18.095789">
        <ele>38</ele>
        <time>2020-01-29T16:36:59Z</time>
      </trkpt>
      <trkpt lat="59.270037" lon="18.095756">
        <ele>38</ele>
        <time>2020-01-29T16:37:00Z</time>
      </trkpt>
      <trkpt lat="59.27009" lon="18.095722">
        <ele>38</ele>
        <time>2020-01-29T16:37:01Z</time>
      </trkpt>
      <trkpt lat="59.270148" lon="18.095698">
        <ele>37</ele>
        <time>2020-01-29T16:37:01Z</time>
      </trkpt>
      <trkpt lat="59.270209" lon="18.095675">
        <ele>38</ele>
        <time>2020-01-29T16:37:02Z</time>
      </trkpt>
      <trkpt lat="59.270271" lon="18.095654">
        <ele>38</ele>
        <time>2020-01-29T16:37:04Z</time>
      </trkpt>
      <trkpt lat="59.270336" lon="18.095632">
        <ele>38</ele>
        <time>2020-01-29T16:37:05Z</time>
      </trkpt>
      <trkpt lat="59.270392" lon="18.095613">
        <ele>38</ele>
        <time>2020-01-29T16:37:06Z</time>
      </trkpt>
      <trkpt lat="59.27045" lon="18.095594">
        <ele>38</ele>
        <time>2020-01-29T16:37:07Z</time>
      </trkpt>
      <trkpt lat="59.270505" lon="18.095572">
        <ele>38</ele>
        <time>2020-01-29T16:37:08Z</time>
      </trkpt>
      <trkpt lat="59.27055" lon="18.095551">
        <ele>38</ele>
        <time>2020-01-29T16:37:09Z</time>
      </trkpt>
      <trkpt lat="59.270596" lon="18.095528">
        <ele>38</ele>
        <time>2020-01-29T16:37:10Z</time>
      </trkpt>
      <trkpt lat="59.270641" lon="18.095497">
        <ele>0</ele>
        <time>2020-01-29T16:37:10Z</time>
      </trkpt>
      <trkpt lat="59.270692" lon="18.095464">
        <ele>38</ele>
        <time>2020-01-29T16:37:11Z</time>
      </trkpt>
      <trkpt lat="59.270748" lon="18.095428">
        <ele>39</ele>
        <time>2020-01-29T16:37:13Z</time>
      </trkpt>
      <trkpt lat="59.270803" lon="18.095393">
        <ele>39</ele>
        <time>2020-01-29T16:37:14Z</time>
      </trkpt>
      <trkpt lat="59.270861" lon="18.095358">
        <ele>0</ele>
        <time>2020-01-29T16:37:14Z</time>
      </trkpt>
      <trkpt lat="59.270914" lon="18.09533">
        <ele>39</ele>
        <time>2020-01-29T16:37:15Z</time>
      </trkpt>
      <trkpt lat="59.270961" lon="18.095306">
        <ele>39</ele>
        <time>2020-01-29T16:37:17Z</time>
      </trkpt>
      <trkpt lat="59.271014" lon="18.095277">
        <ele>39</ele>
        <time>2020-01-29T16:37:18Z</time>
      </trkpt>
      <trkpt lat="59.271066" lon="18.095248">
        <ele>39</ele>
        <time>2020-01-29T16:37:19Z</time>
      </trkpt>
      <trkpt lat="59.271119" lon="18.095219">
        <ele>0</ele>
        <time>2020-01-29T16:37:19Z</time>
      </trkpt>
      <trkpt lat="59.271178" lon="18.095187">
        <ele>39</ele>
        <time>2020-01-29T16:37:20Z</time>
      </trkpt>
      <trkpt lat="59.271238" lon="18.095161">
        <ele>39</ele>
        <time>2020-01-29T16:37:22Z</time>
      </trkpt>
      <trkpt lat="59.271297" lon="18.09514">
        <ele>39</ele>
        <time>2020-01-29T16:37:23Z</time>
      </trkpt>
      <trkpt lat="59.271355" lon="18.095121">
        <ele>39</ele>
        <time>2020-01-29T16:37:24Z</time>
      </trkpt>
      <trkpt lat="59.271409" lon="18.095103">
        <ele>39</ele>
        <time>2020-01-29T16:37:25Z</time>
      </trkpt>
      <trkpt lat="59.27146" lon="18.095082">
        <ele>39</ele>
        <time>2020-01-29T16:37:26Z</time>
      </trkpt>
      <trkpt lat="59.271511" lon="18.09506">
        <ele>39</ele>
        <time>2020-01-29T16:37:27Z</time>
      </trkpt>
      <trkpt lat="59.271562" lon="18.095036">
        <ele>39</ele>
        <time>2020-01-29T16:37:28Z</time>
      </trkpt>
      <trkpt lat="59.271612" lon="18.095011">
        <ele>0</ele>
        <time>2020-01-29T16:37:28Z</time>
      </trkpt>
      <trkpt lat="59.271657" lon="18.094991">
        <ele>39</ele>
        <time>2020-01-29T16:37:29Z</time>
      </trkpt>
      <trkpt lat="59.271705" lon="18.094967">
        <ele>39</ele>
        <time>2020-01-29T16:37:31Z</time>
      </trkpt>
      <trkpt lat="59.271748" lon="18.09494">
        <ele>39</ele>
        <time>2020-01-29T16:37:32Z</time>
      </trkpt>
      <trkpt lat="59.271793" lon="18.094906">
        <ele>39</ele>
        <time>2020-01-29T16:37:33Z</time>
      </trkpt>
      <trkpt lat="59.271842" lon="18.094866">
        <ele>0</ele>
        <time>2020-01-29T16:37:33Z</time>
      </trkpt>
      <trkpt lat="59.271888" lon="18.094829">
        <ele>39</ele>
        <time>2020-01-29T16:37:34Z</time>
      </trkpt>
      <trkpt lat="59.27194" lon="18.094797">
        <ele>39</ele>
        <time>2020-01-29T16:37:36Z</time>
      </trkpt>
      <trkpt lat="59.271992" lon="18.094773">
        <ele>39</ele>
        <time>2020-01-29T16:37:37Z</time>
      </trkpt>
      <trkpt lat="59.272048" lon="18.094753">
        <ele>0</ele>
        <time>2020-01-29T16:37:37Z</time>
      </trkpt>
      <trkpt lat="59.272098" lon="18.094739">
        <ele>39</ele>
        <time>2020-01-29T16:37:38Z</time>
      </trkpt>
      <trkpt lat="59.272148" lon="18.094723">
        <ele>40</ele>
        <time>2020-01-29T16:37:40Z</time>
      </trkpt>
      <trkpt lat="59.272199" lon="18.094709">
        <ele>40</ele>
        <time>2020-01-29T16:37:41Z</time>
      </trkpt>
      <trkpt lat="59.272249" lon="18.094697">
        <ele>40</ele>
        <time>2020-01-29T16:37:42Z</time>
      </trkpt>
      <trkpt lat="59.272298" lon="18.094685">
        <ele>40</ele>
        <time>2020-01-29T16:37:43Z</time>
      </trkpt>
      <trkpt lat="59.272347" lon="18.094672">
        <ele>40</ele>
        <time>2020-01-29T16:37:44Z</time>
      </trkpt>
      <trkpt lat="59.272396" lon="18.094664">
        <ele>40</ele>
        <time>2020-01-29T16:37:45Z</time>
      </trkpt>
      <trkpt lat="59.272445" lon="18.094654">
        <ele>40</ele>
        <time>2020-01-29T16:37:46Z</time>
      </trkpt>
      <trkpt lat="59.272495" lon="18.094647">
        <ele>40</ele>
        <time>2020-01-29T16:37:47Z</time>
      </trkpt>
      <trkpt lat="59.272544" lon="18.09464">
        <ele>40</ele>
        <time>2020-01-29T16:37:48Z</time>
      </trkpt>
      <trkpt lat="59.272592" lon="18.09463">
        <ele>0</ele>
        <time>2020-01-29T16:37:48Z</time>
      </trkpt>
      <trkpt lat="59.272638" lon="18.094617">
        <ele>40</ele>
        <time>2020-01-29T16:37:49Z</time>
      </trkpt>
      <trkpt lat="59.272684" lon="18.094605">
        <ele>40</ele>
        <time>2020-01-29T16:37:51Z</time>
      </trkpt>
      <trkpt lat="59.272729" lon="18.094592">
        <ele>40</ele>
        <time>2020-01-29T16:37:52Z</time>
      </trkpt>
      <trkpt lat="59.272776" lon="18.094574">
        <ele>0</ele>
        <time>2020-01-29T16:37:52Z</time>
      </trkpt>
      <trkpt lat="59.272824" lon="18.094551">
        <ele>40</ele>
        <time>2020-01-29T16:37:53Z</time>
      </trkpt>
      <trkpt lat="59.272873" lon="18.09453">
        <ele>40</ele>
        <time>2020-01-29T16:37:55Z</time>
      </trkpt>
      <trkpt lat="59.272921" lon="18.094512">
        <ele>40</ele>
        <time>2020-01-29T16:37:56Z</time>
      </trkpt>
      <trkpt lat="59.27297" lon="18.094496">
        <ele>40</ele>
        <time>2020-01-29T16:37:57Z</time>
      </trkpt>
      <trkpt lat="59.273019" lon="18.09448">
        <ele>40</ele>
        <time>2020-01-29T16:37:58Z</time>
      </trkpt>
      <trkpt lat="59.273068" lon="18.094464">
        <ele>0</ele>
        <time>2020-01-29T16:37:58Z</time>
      </trkpt>
      <trkpt lat="59.27312" lon="18.094447">
        <ele>40</ele>
        <time>2020-01-29T16:37:59Z</time>
      </trkpt>
      <trkpt lat="59.273175" lon="18.094432">
        <ele>40</ele>
        <time>2020-01-29T16:38:01Z</time>
      </trkpt>
      <trkpt lat="59.273233" lon="18.094419">
        <ele>40</ele>
        <time>2020-01-29T16:38:02Z</time>
      </trkpt>
      <trkpt lat="59.273294" lon="18.094403">
        <ele>41</ele>
        <time>2020-01-29T16:38:03Z</time>
      </trkpt>
      <trkpt lat="59.273356" lon="18.094384">
        <ele>41</ele>
        <time>2020-01-29T16:38:04Z</time>
      </trkpt>
      <trkpt lat="59.27342" lon="18.09436">
        <ele>40</ele>
        <time>2020-01-29T16:38:05Z</time>
      </trkpt>
      <trkpt lat="59.273486" lon="18.094333">
        <ele>40</ele>
        <time>2020-01-29T16:38:06Z</time>
      </trkpt>
      <trkpt lat="59.273554" lon="18.094298">
        <ele>0</ele>
        <time>2020-01-29T16:38:06Z</time>
      </trkpt>
      <trkpt lat="59.273622" lon="18.094248">
        <ele>40</ele>
        <time>2020-01-29T16:38:07Z</time>
      </trkpt>
      <trkpt lat="59.27369" lon="18.094192">
        <ele>40</ele>
        <time>2020-01-29T16:38:09Z</time>
      </trkpt>
      <trkpt lat="59.27376" lon="18.094137">
        <ele>40</ele>
        <time>2020-01-29T16:38:10Z</time>
      </trkpt>
      <trkpt lat="59.273834" lon="18.094095">
        <ele>40</ele>
        <time>2020-01-29T16:38:11Z</time>
      </trkpt>
      <trkpt lat="59.27391" lon="18.094059">
        <ele>0</ele>
        <time>2020-01-29T16:38:11Z</time>
      </trkpt>
      <trkpt lat="59.273988" lon="18.094026">
        <ele>39</ele>
        <time>2020-01-29T16:38:12Z</time>
      </trkpt>
      <trkpt lat="59.274069" lon="18.093996">
        <ele>39</ele>
        <time>2020-01-29T16:38:13Z</time>
      </trkpt>
      <trkpt lat="59.274151" lon="18.093965">
        <ele>39</ele>
        <time>2020-01-29T16:38:15Z</time>
      </trkpt>
      <trkpt lat="59.274231" lon="18.09393">
        <ele>39</ele>
        <time>2020-01-29T16:38:16Z</time>
      </trkpt>
      <trkpt lat="59.274313" lon="18.093892">
        <ele>39</ele>
        <time>2020-01-29T16:38:17Z</time>
      </trkpt>
      <trkpt lat="59.274394" lon="18.093852">
        <ele>38</ele>
        <time>2020-01-29T16:38:18Z</time>
      </trkpt>
      <trkpt lat="59.274474" lon="18.093816">
        <ele>0</ele>
        <time>2020-01-29T16:38:18Z</time>
      </trkpt>
      <trkpt lat="59.274555" lon="18.093782">
        <ele>38</ele>
        <time>2020-01-29T16:38:19Z</time>
      </trkpt>
      <trkpt lat="59.274634" lon="18.093752">
        <ele>38</ele>
        <time>2020-01-29T16:38:21Z</time>
      </trkpt>
      <trkpt lat="59.274713" lon="18.093721">
        <ele>38</ele>
        <time>2020-01-29T16:38:22Z</time>
      </trkpt>
      <trkpt lat="59.274789" lon="18.093688">
        <ele>38</ele>
        <time>2020-01-29T16:38:23Z</time>
      </trkpt>
      <trkpt lat="59.274863" lon="18.093655">
        <ele>38</ele>
        <time>2020-01-29T16:38:24Z</time>
      </trkpt>
      <trkpt lat="59.274938" lon="18.093628">
        <ele>38</ele>
        <time>2020-01-29T16:38:25Z</time>
      </trkpt>
      <trkpt lat="59.27501" lon="18.093603">
        <ele>0</ele>
        <time>2020-01-29T16:38:25Z</time>
      </trkpt>
      <trkpt lat="59.275082" lon="18.093578">
        <ele>38</ele>
        <time>2020-01-29T16:38:26Z</time>
      </trkpt>
      <trkpt lat="59.275154" lon="18.093553">
        <ele>38</ele>
        <time>2020-01-29T16:38:28Z</time>
      </trkpt>
      <trkpt lat="59.275225" lon="18.093528">
        <ele>38</ele>
        <time>2020-01-29T16:38:29Z</time>
      </trkpt>
      <trkpt lat="59.275296" lon="18.09351">
        <ele>38</ele>
        <time>2020-01-29T16:38:30Z</time>
      </trkpt>
      <trkpt lat="59.275366" lon="18.093487">
        <ele>0</ele>
        <time>2020-01-29T16:38:30Z</time>
      </trkpt>
      <trkpt lat="59.275435" lon="18.093465">
        <ele>38</ele>
        <time>2020-01-29T16:38:31Z</time>
      </trkpt>
      <trkpt lat="59.275504" lon="18.093445">
        <ele>0</ele>
        <time>2020-01-29T16:38:32Z</time>
      </trkpt>
      <trkpt lat="59.275574" lon="18.093426">
        <ele>39</ele>
        <time>2020-01-29T16:38:33Z</time>
      </trkpt>
      <trkpt lat="59.275643" lon="18.093406">
        <ele>39</ele>
        <time>2020-01-29T16:38:35Z</time>
      </trkpt>
      <trkpt lat="59.275711" lon="18.093385">
        <ele>39</ele>
        <time>2020-01-29T16:38:36Z</time>
      </trkpt>
      <trkpt lat="59.27578" lon="18.093363">
        <ele>39</ele>
        <time>2020-01-29T16:38:37Z</time>
      </trkpt>
      <trkpt lat="59.275849" lon="18.093343">
        <ele>39</ele>
        <time>2020-01-29T16:38:38Z</time>
      </trkpt>
      <trkpt lat="59.275919" lon="18.093326">
        <ele>39</ele>
        <time>2020-01-29T16:38:39Z</time>
      </trkpt>
      <trkpt lat="59.275988" lon="18.093309">
        <ele>0</ele>
        <time>2020-01-29T16:38:39Z</time>
      </trkpt>
      <trkpt lat="59.276058" lon="18.093288">
        <ele>39</ele>
        <time>2020-01-29T16:38:40Z</time>
      </trkpt>
      <trkpt lat="59.276127" lon="18.09327">
        <ele>39</ele>
        <time>2020-01-29T16:38:42Z</time>
      </trkpt>
      <trkpt lat="59.276197" lon="18.093256">
        <ele>39</ele>
        <time>2020-01-29T16:38:43Z</time>
      </trkpt>
      <trkpt lat="59.276267" lon="18.093246">
        <ele>39</ele>
        <time>2020-01-29T16:38:44Z</time>
      </trkpt>
      <trkpt lat="59.276337" lon="18.093235">
        <ele>39</ele>
        <time>2020-01-29T16:38:45Z</time>
      </trkpt>
      <trkpt lat="59.276406" lon="18.093222">
        <ele>39</ele>
        <time>2020-01-29T16:38:46Z</time>
      </trkpt>
      <trkpt lat="59.276476" lon="18.093211">
        <ele>0</ele>
        <time>2020-01-29T16:38:46Z</time>
      </trkpt>
      <trkpt lat="59.276545" lon="18.093199">
        <ele>39</ele>
        <time>2020-01-29T16:38:47Z</time>
      </trkpt>
      <trkpt lat="59.276615" lon="18.093187">
        <ele>39</ele>
        <time>2020-01-29T16:38:49Z</time>
      </trkpt>
      <trkpt lat="59.276686" lon="18.093174">
        <ele>0</ele>
        <time>2020-01-29T16:38:49Z</time>
      </trkpt>
      <trkpt lat="59.276757" lon="18.093158">
        <ele>40</ele>
        <time>2020-01-29T16:38:50Z</time>
      </trkpt>
      <trkpt lat="59.276827" lon="18.093143">
        <ele>40</ele>
        <time>2020-01-29T16:38:52Z</time>
      </trkpt>
      <trkpt lat="59.276898" lon="18.093129">
        <ele>40</ele>
        <time>2020-01-29T16:38:53Z</time>
      </trkpt>
      <trkpt lat="59.276969" lon="18.093113">
        <ele>0</ele>
        <time>2020-01-29T16:38:53Z</time>
      </trkpt>
      <trkpt lat="59.27704" lon="18.093096">
        <ele>40</ele>
        <time>2020-01-29T16:38:54Z</time>
      </trkpt>
      <trkpt lat="59.27711" lon="18.093078">
        <ele>40</ele>
        <time>2020-01-29T16:38:56Z</time>
      </trkpt>
      <trkpt lat="59.27718" lon="18.093057">
        <ele>40</ele>
        <time>2020-01-29T16:38:57Z</time>
      </trkpt>
      <trkpt lat="59.27725" lon="18.093034">
        <ele>40</ele>
        <time>2020-01-29T16:38:58Z</time>
      </trkpt>
      <trkpt lat="59.27732" lon="18.093006">
        <ele>40</ele>
        <time>2020-01-29T16:38:59Z</time>
      </trkpt>
      <trkpt lat="59.277389" lon="18.092981">
        <ele>40</ele>
        <time>2020-01-29T16:39:00Z</time>
      </trkpt>
      <trkpt lat="59.277459" lon="18.092958">
        <ele>0</ele>
        <time>2020-01-29T16:39:00Z</time>
      </trkpt>
      <trkpt lat="59.277529" lon="18.092937">
        <ele>39</ele>
        <time>2020-01-29T16:39:01Z</time>
      </trkpt>
      <trkpt lat="59.277599" lon="18.09291">
        <ele>40</ele>
        <time>2020-01-29T16:39:03Z</time>
      </trkpt>
      <trkpt lat="59.277669" lon="18.09288">
        <ele>40</ele>
        <time>2020-01-29T16:39:04Z</time>
      </trkpt>
      <trkpt lat="59.27774" lon="18.092854">
        <ele>39</ele>
        <time>2020-01-29T16:39:05Z</time>
      </trkpt>
      <trkpt lat="59.277809" lon="18.092831">
        <ele>39</ele>
        <time>2020-01-29T16:39:06Z</time>
      </trkpt>
      <trkpt lat="59.277878" lon="18.092806">
        <ele>39</ele>
        <time>2020-01-29T16:39:07Z</time>
      </trkpt>
      <trkpt lat="59.277946" lon="18.092778">
        <ele>0</ele>
        <time>2020-01-29T16:39:07Z</time>
      </trkpt>
      <trkpt lat="59.278014" lon="18.09275">
        <ele>39</ele>
        <time>2020-01-29T16:39:08Z</time>
      </trkpt>
      <trkpt lat="59.278082" lon="18.092722">
        <ele>39</ele>
        <time>2020-01-29T16:39:10Z</time>
      </trkpt>
      <trkpt lat="59.27815" lon="18.092696">
        <ele>39</ele>
        <time>2020-01-29T16:39:11Z</time>
      </trkpt>
      <trkpt lat="59.278217" lon="18.092669">
        <ele>39</ele>
        <time>2020-01-29T16:39:12Z</time>
      </trkpt>
      <trkpt lat="59.278281" lon="18.092646">
        <ele>38</ele>
        <time>2020-01-29T16:39:13Z</time>
      </trkpt>
      <trkpt lat="59.278346" lon="18.092624">
        <ele>38</ele>
        <time>2020-01-29T16:39:14Z</time>
      </trkpt>
      <trkpt lat="59.278411" lon="18.0926">
        <ele>37</ele>
        <time>2020-01-29T16:39:15Z</time>
      </trkpt>
      <trkpt lat="59.278476" lon="18.092575">
        <ele>0</ele>
        <time>2020-01-29T16:39:15Z</time>
      </trkpt>
      <trkpt lat="59.278542" lon="18.092548">
        <ele>37</ele>
        <time>2020-01-29T16:39:16Z</time>
      </trkpt>
      <trkpt lat="59.278608" lon="18.092521">
        <ele>37</ele>
        <time>2020-01-29T16:39:18Z</time>
      </trkpt>
      <trkpt lat="59.278675" lon="18.092494">
        <ele>37</ele>
        <time>2020-01-29T16:39:19Z</time>
      </trkpt>
      <trkpt lat="59.278741" lon="18.092467">
        <ele>37</ele>
        <time>2020-01-29T16:39:20Z</time>
      </trkpt>
      <trkpt lat="59.278805" lon="18.092439">
        <ele>37</ele>
        <time>2020-01-29T16:39:21Z</time>
      </trkpt>
      <trkpt lat="59.278868" lon="18.092411">
        <ele>37</ele>
        <time>2020-01-29T16:39:22Z</time>
      </trkpt>
      <trkpt lat="59.278929" lon="18.092385">
        <ele>0</ele>
        <time>2020-01-29T16:39:22Z</time>
      </trkpt>
      <trkpt lat="59.278987" lon="18.092358">
        <ele>37</ele>
        <time>2020-01-29T16:39:23Z</time>
      </trkpt>
      <trkpt lat="59.27904" lon="18.092334">
        <ele>36</ele>
        <time>2020-01-29T16:39:25Z</time>
      </trkpt>
      <trkpt lat="59.279091" lon="18.092314">
        <ele>36</ele>
        <time>2020-01-29T16:39:26Z</time>
      </trkpt>
      <trkpt lat="59.279139" lon="18.092296">
        <ele>36</ele>
        <time>2020-01-29T16:39:27Z</time>
      </trkpt>
      <trkpt lat="59.279187" lon="18.092283">
        <ele>0</ele>
        <time>2020-01-29T16:39:27Z</time>
      </trkpt>
      <trkpt lat="59.279234" lon="18.092275">
        <ele>37</ele>
        <time>2020-01-29T16:39:28Z</time>
      </trkpt>
      <trkpt lat="59.279278" lon="18.092268">
        <ele>37</ele>
        <time>2020-01-29T16:39:30Z</time>
      </trkpt>
      <trkpt lat="59.279313" lon="18.092263">
        <ele>36</ele>
        <time>2020-01-29T16:39:31Z</time>
      </trkpt>
      <trkpt lat="59.279336" lon="18.092261">
        <ele>36</ele>
        <time>2020-01-29T16:39:32Z</time>
      </trkpt>
      <trkpt lat="59.279356" lon="18.092259">
        <ele>36</ele>
        <time>2020-01-29T16:39:34Z</time>
      </trkpt>
      <trkpt lat="59.279355" lon="18.092259">
        <ele>0</ele>
        <time>2020-01-29T16:39:38Z</time>
      </trkpt>
      <trkpt lat="59.279475" lon="18.092192">
        <ele>35</ele>
        <time>2020-01-29T16:40:01Z</time>
      </trkpt>
      <trkpt lat="59.279519" lon="18.09217">
        <ele>35</ele>
        <time>2020-01-29T16:40:03Z</time>
      </trkpt>
      <trkpt lat="59.279565" lon="18.092146">
        <ele>0</ele>
        <time>2020-01-29T16:40:03Z</time>
      </trkpt>
      <trkpt lat="59.279614" lon="18.092124">
        <ele>35</ele>
        <time>2020-01-29T16:40:04Z</time>
      </trkpt>
      <trkpt lat="59.279664" lon="18.092102">
        <ele>35</ele>
        <time>2020-01-29T16:40:06Z</time>
      </trkpt>
      <trkpt lat="59.279714" lon="18.092071">
        <ele>35</ele>
        <time>2020-01-29T16:40:07Z</time>
      </trkpt>
      <trkpt lat="59.279764" lon="18.092036">
        <ele>35</ele>
        <time>2020-01-29T16:40:08Z</time>
      </trkpt>
      <trkpt lat="59.279816" lon="18.092006">
        <ele>35</ele>
        <time>2020-01-29T16:40:09Z</time>
      </trkpt>
      <trkpt lat="59.279871" lon="18.091983">
        <ele>35</ele>
        <time>2020-01-29T16:40:10Z</time>
      </trkpt>
      <trkpt lat="59.279926" lon="18.091961">
        <ele>35</ele>
        <time>2020-01-29T16:40:11Z</time>
      </trkpt>
      <trkpt lat="59.279981" lon="18.091938">
        <ele>35</ele>
        <time>2020-01-29T16:40:12Z</time>
      </trkpt>
      <trkpt lat="59.280038" lon="18.091921">
        <ele>0</ele>
        <time>2020-01-29T16:40:12Z</time>
      </trkpt>
      <trkpt lat="59.280097" lon="18.091906">
        <ele>35</ele>
        <time>2020-01-29T16:40:13Z</time>
      </trkpt>
      <trkpt lat="59.280157" lon="18.091891">
        <ele>35</ele>
        <time>2020-01-29T16:40:15Z</time>
      </trkpt>
      <trkpt lat="59.280217" lon="18.091874">
        <ele>35</ele>
        <time>2020-01-29T16:40:16Z</time>
      </trkpt>
      <trkpt lat="59.280277" lon="18.091855">
        <ele>35</ele>
        <time>2020-01-29T16:40:17Z</time>
      </trkpt>
      <trkpt lat="59.280337" lon="18.091833">
        <ele>35</ele>
        <time>2020-01-29T16:40:18Z</time>
      </trkpt>
      <trkpt lat="59.280397" lon="18.09181">
        <ele>35</ele>
        <time>2020-01-29T16:40:19Z</time>
      </trkpt>
      <trkpt lat="59.280459" lon="18.091788">
        <ele>0</ele>
        <time>2020-01-29T16:40:19Z</time>
      </trkpt>
      <trkpt lat="59.28052" lon="18.091769">
        <ele>35</ele>
        <time>2020-01-29T16:40:20Z</time>
      </trkpt>
      <trkpt lat="59.280583" lon="18.091753">
        <ele>35</ele>
        <time>2020-01-29T16:40:21Z</time>
      </trkpt>
      <trkpt lat="59.280646" lon="18.091737">
        <ele>35</ele>
        <time>2020-01-29T16:40:23Z</time>
      </trkpt>
      <trkpt lat="59.280709" lon="18.091716">
        <ele>35</ele>
        <time>2020-01-29T16:40:24Z</time>
      </trkpt>
      <trkpt lat="59.280771" lon="18.091697">
        <ele>34</ele>
        <time>2020-01-29T16:40:25Z</time>
      </trkpt>
      <trkpt lat="59.280832" lon="18.091679">
        <ele>34</ele>
        <time>2020-01-29T16:40:26Z</time>
      </trkpt>
      <trkpt lat="59.280893" lon="18.091661">
        <ele>34</ele>
        <time>2020-01-29T16:40:27Z</time>
      </trkpt>
      <trkpt lat="59.280953" lon="18.091646">
        <ele>34</ele>
        <time>2020-01-29T16:40:28Z</time>
      </trkpt>
      <trkpt lat="59.281009" lon="18.091631">
        <ele>0</ele>
        <time>2020-01-29T16:40:28Z</time>
      </trkpt>
      <trkpt lat="59.281065" lon="18.091615">
        <ele>34</ele>
        <time>2020-01-29T16:40:29Z</time>
      </trkpt>
      <trkpt lat="59.281173" lon="18.091578">
        <ele>34</ele>
        <time>2020-01-29T16:40:32Z</time>
      </trkpt>
      <trkpt lat="59.281226" lon="18.091557">
        <ele>34</ele>
        <time>2020-01-29T16:40:33Z</time>
      </trkpt>
      <trkpt lat="59.281278" lon="18.091532">
        <ele>34</ele>
        <time>2020-01-29T16:40:34Z</time>
      </trkpt>
      <trkpt lat="59.281332" lon="18.091514">
        <ele>34</ele>
        <time>2020-01-29T16:40:35Z</time>
      </trkpt>
      <trkpt lat="59.281386" lon="18.091498">
        <ele>34</ele>
        <time>2020-01-29T16:40:36Z</time>
      </trkpt>
      <trkpt lat="59.281439" lon="18.091483">
        <ele>34</ele>
        <time>2020-01-29T16:40:37Z</time>
      </trkpt>
      <trkpt lat="59.281493" lon="18.091467">
        <ele>34</ele>
        <time>2020-01-29T16:40:38Z</time>
      </trkpt>
      <trkpt lat="59.281549" lon="18.091453">
        <ele>0</ele>
        <time>2020-01-29T16:40:38Z</time>
      </trkpt>
      <trkpt lat="59.281602" lon="18.091434">
        <ele>34</ele>
        <time>2020-01-29T16:40:39Z</time>
      </trkpt>
      <trkpt lat="59.281654" lon="18.091415">
        <ele>34</ele>
        <time>2020-01-29T16:40:41Z</time>
      </trkpt>
      <trkpt lat="59.281704" lon="18.091401">
        <ele>34</ele>
        <time>2020-01-29T16:40:42Z</time>
      </trkpt>
      <trkpt lat="59.281756" lon="18.091381">
        <ele>34</ele>
        <time>2020-01-29T16:40:43Z</time>
      </trkpt>
      <trkpt lat="59.281802" lon="18.091355">
        <ele>34</ele>
        <time>2020-01-29T16:40:44Z</time>
      </trkpt>
      <trkpt lat="59.281844" lon="18.091326">
        <ele>34</ele>
        <time>2020-01-29T16:40:45Z</time>
      </trkpt>
      <trkpt lat="59.281887" lon="18.091304">
        <ele>34</ele>
        <time>2020-01-29T16:40:46Z</time>
      </trkpt>
      <trkpt lat="59.281943" lon="18.091294">
        <ele>34</ele>
        <time>2020-01-29T16:40:47Z</time>
      </trkpt>
      <trkpt lat="59.282061" lon="18.091262">
        <ele>34</ele>
        <time>2020-01-29T16:40:48Z</time>
      </trkpt>
      <trkpt lat="59.28212" lon="18.091245">
        <ele>34</ele>
        <time>2020-01-29T16:40:50Z</time>
      </trkpt>
      <trkpt lat="59.282179" lon="18.091226">
        <ele>34</ele>
        <time>2020-01-29T16:40:51Z</time>
      </trkpt>
      <trkpt lat="59.282236" lon="18.091206">
        <ele>34</ele>
        <time>2020-01-29T16:40:52Z</time>
      </trkpt>
      <trkpt lat="59.282295" lon="18.091185">
        <ele>34</ele>
        <time>2020-01-29T16:40:53Z</time>
      </trkpt>
      <trkpt lat="59.282346" lon="18.091154">
        <ele>34</ele>
        <time>2020-01-29T16:40:54Z</time>
      </trkpt>
      <trkpt lat="59.282396" lon="18.091126">
        <ele>34</ele>
        <time>2020-01-29T16:40:55Z</time>
      </trkpt>
      <trkpt lat="59.282446" lon="18.091094">
        <ele>34</ele>
        <time>2020-01-29T16:40:56Z</time>
      </trkpt>
      <trkpt lat="59.282498" lon="18.091062">
        <ele>0</ele>
        <time>2020-01-29T16:40:56Z</time>
      </trkpt>
      <trkpt lat="59.282551" lon="18.09103">
        <ele>34</ele>
        <time>2020-01-29T16:40:57Z</time>
      </trkpt>
      <trkpt lat="59.282605" lon="18.091001">
        <ele>34</ele>
        <time>2020-01-29T16:40:58Z</time>
      </trkpt>
      <trkpt lat="59.282661" lon="18.090968">
        <ele>35</ele>
        <time>2020-01-29T16:41:00Z</time>
      </trkpt>
      <trkpt lat="59.282716" lon="18.090938">
        <ele>35</ele>
        <time>2020-01-29T16:41:01Z</time>
      </trkpt>
      <trkpt lat="59.282771" lon="18.090912">
        <ele>35</ele>
        <time>2020-01-29T16:41:02Z</time>
      </trkpt>
      <trkpt lat="59.282823" lon="18.090879">
        <ele>35</ele>
        <time>2020-01-29T16:41:03Z</time>
      </trkpt>
      <trkpt lat="59.282874" lon="18.090842">
        <ele>35</ele>
        <time>2020-01-29T16:41:04Z</time>
      </trkpt>
      <trkpt lat="59.282927" lon="18.090809">
        <ele>35</ele>
        <time>2020-01-29T16:41:05Z</time>
      </trkpt>
      <trkpt lat="59.282986" lon="18.090786">
        <ele>0</ele>
        <time>2020-01-29T16:41:05Z</time>
      </trkpt>
      <trkpt lat="59.28305" lon="18.090778">
        <ele>35</ele>
        <time>2020-01-29T16:41:06Z</time>
      </trkpt>
      <trkpt lat="59.283111" lon="18.090763">
        <ele>35</ele>
        <time>2020-01-29T16:41:08Z</time>
      </trkpt>
      <trkpt lat="59.283166" lon="18.090732">
        <ele>35</ele>
        <time>2020-01-29T16:41:09Z</time>
      </trkpt>
      <trkpt lat="59.283221" lon="18.090701">
        <ele>35</ele>
        <time>2020-01-29T16:41:10Z</time>
      </trkpt>
      <trkpt lat="59.283277" lon="18.090673">
        <ele>35</ele>
        <time>2020-01-29T16:41:11Z</time>
      </trkpt>
      <trkpt lat="59.283332" lon="18.090645">
        <ele>35</ele>
        <time>2020-01-29T16:41:12Z</time>
      </trkpt>
      <trkpt lat="59.283386" lon="18.090617">
        <ele>35</ele>
        <time>2020-01-29T16:41:13Z</time>
      </trkpt>
      <trkpt lat="59.283442" lon="18.09059">
        <ele>0</ele>
        <time>2020-01-29T16:41:13Z</time>
      </trkpt>
      <trkpt lat="59.2835" lon="18.090572">
        <ele>35</ele>
        <time>2020-01-29T16:41:14Z</time>
      </trkpt>
      <trkpt lat="59.283553" lon="18.090546">
        <ele>35</ele>
        <time>2020-01-29T16:41:16Z</time>
      </trkpt>
      <trkpt lat="59.283604" lon="18.090516">
        <ele>0</ele>
        <time>2020-01-29T16:41:16Z</time>
      </trkpt>
      <trkpt lat="59.283652" lon="18.090483">
        <ele>36</ele>
        <time>2020-01-29T16:41:17Z</time>
      </trkpt>
      <trkpt lat="59.283704" lon="18.09045">
        <ele>36</ele>
        <time>2020-01-29T16:41:19Z</time>
      </trkpt>
      <trkpt lat="59.283751" lon="18.090419">
        <ele>36</ele>
        <time>2020-01-29T16:41:20Z</time>
      </trkpt>
      <trkpt lat="59.283798" lon="18.0904">
        <ele>36</ele>
        <time>2020-01-29T16:41:21Z</time>
      </trkpt>
      <trkpt lat="59.283851" lon="18.090382">
        <ele>36</ele>
        <time>2020-01-29T16:41:22Z</time>
      </trkpt>
      <trkpt lat="59.283902" lon="18.090351">
        <ele>36</ele>
        <time>2020-01-29T16:41:23Z</time>
      </trkpt>
      <trkpt lat="59.283954" lon="18.09032">
        <ele>0</ele>
        <time>2020-01-29T16:41:23Z</time>
      </trkpt>
      <trkpt lat="59.28401" lon="18.09029">
        <ele>36</ele>
        <time>2020-01-29T16:41:24Z</time>
      </trkpt>
      <trkpt lat="59.284066" lon="18.090263">
        <ele>37</ele>
        <time>2020-01-29T16:41:26Z</time>
      </trkpt>
      <trkpt lat="59.284117" lon="18.090234">
        <ele>37</ele>
        <time>2020-01-29T16:41:27Z</time>
      </trkpt>
      <trkpt lat="59.284169" lon="18.090209">
        <ele>37</ele>
        <time>2020-01-29T16:41:28Z</time>
      </trkpt>
      <trkpt lat="59.284221" lon="18.090185">
        <ele>37</ele>
        <time>2020-01-29T16:41:29Z</time>
      </trkpt>
      <trkpt lat="59.28427" lon="18.090158">
        <ele>37</ele>
        <time>2020-01-29T16:41:30Z</time>
      </trkpt>
      <trkpt lat="59.28432" lon="18.090126">
        <ele>37</ele>
        <time>2020-01-29T16:41:31Z</time>
      </trkpt>
      <trkpt lat="59.284373" lon="18.090096">
        <ele>37</ele>
        <time>2020-01-29T16:41:32Z</time>
      </trkpt>
      <trkpt lat="59.284427" lon="18.090066">
        <ele>0</ele>
        <time>2020-01-29T16:41:32Z</time>
      </trkpt>
      <trkpt lat="59.284481" lon="18.090035">
        <ele>37</ele>
        <time>2020-01-29T16:41:33Z</time>
      </trkpt>
      <trkpt lat="59.284538" lon="18.090003">
        <ele>37</ele>
        <time>2020-01-29T16:41:35Z</time>
      </trkpt>
      <trkpt lat="59.284597" lon="18.089974">
        <ele>0</ele>
        <time>2020-01-29T16:41:35Z</time>
      </trkpt>
      <trkpt lat="59.284661" lon="18.08995">
        <ele>37</ele>
        <time>2020-01-29T16:41:36Z</time>
      </trkpt>
      <trkpt lat="59.28473" lon="18.089931">
        <ele>37</ele>
        <time>2020-01-29T16:41:38Z</time>
      </trkpt>
      <trkpt lat="59.284795" lon="18.089909">
        <ele>37</ele>
        <time>2020-01-29T16:41:39Z</time>
      </trkpt>
      <trkpt lat="59.284858" lon="18.089884">
        <ele>37</ele>
        <time>2020-01-29T16:41:40Z</time>
      </trkpt>
      <trkpt lat="59.284919" lon="18.089859">
        <ele>0</ele>
        <time>2020-01-29T16:41:40Z</time>
      </trkpt>
      <trkpt lat="59.284979" lon="18.089834">
        <ele>37</ele>
        <time>2020-01-29T16:41:41Z</time>
      </trkpt>
      <trkpt lat="59.285036" lon="18.089804">
        <ele>37</ele>
        <time>2020-01-29T16:41:43Z</time>
      </trkpt>
      <trkpt lat="59.285093" lon="18.089774">
        <ele>37</ele>
        <time>2020-01-29T16:41:44Z</time>
      </trkpt>
      <trkpt lat="59.285149" lon="18.08975">
        <ele>37</ele>
        <time>2020-01-29T16:41:45Z</time>
      </trkpt>
      <trkpt lat="59.285205" lon="18.089729">
        <ele>37</ele>
        <time>2020-01-29T16:41:46Z</time>
      </trkpt>
      <trkpt lat="59.285262" lon="18.08971">
        <ele>37</ele>
        <time>2020-01-29T16:41:47Z</time>
      </trkpt>
      <trkpt lat="59.285317" lon="18.089687">
        <ele>37</ele>
        <time>2020-01-29T16:41:48Z</time>
      </trkpt>
      <trkpt lat="59.285372" lon="18.089653">
        <ele>0</ele>
        <time>2020-01-29T16:41:48Z</time>
      </trkpt>
      <trkpt lat="59.285425" lon="18.089621">
        <ele>37</ele>
        <time>2020-01-29T16:41:49Z</time>
      </trkpt>
      <trkpt lat="59.285479" lon="18.089589">
        <ele>37</ele>
        <time>2020-01-29T16:41:51Z</time>
      </trkpt>
      <trkpt lat="59.285533" lon="18.089559">
        <ele>38</ele>
        <time>2020-01-29T16:41:52Z</time>
      </trkpt>
      <trkpt lat="59.285587" lon="18.089527">
        <ele>38</ele>
        <time>2020-01-29T16:41:53Z</time>
      </trkpt>
      <trkpt lat="59.285642" lon="18.089496">
        <ele>38</ele>
        <time>2020-01-29T16:41:54Z</time>
      </trkpt>
      <trkpt lat="59.285696" lon="18.08946">
        <ele>0</ele>
        <time>2020-01-29T16:41:54Z</time>
      </trkpt>
      <trkpt lat="59.28575" lon="18.089427">
        <ele>38</ele>
        <time>2020-01-29T16:41:55Z</time>
      </trkpt>
      <trkpt lat="59.285808" lon="18.0894">
        <ele>38</ele>
        <time>2020-01-29T16:41:57Z</time>
      </trkpt>
      <trkpt lat="59.285866" lon="18.089373">
        <ele>0</ele>
        <time>2020-01-29T16:41:57Z</time>
      </trkpt>
      <trkpt lat="59.285925" lon="18.089348">
        <ele>38</ele>
        <time>2020-01-29T16:41:58Z</time>
      </trkpt>
      <trkpt lat="59.285983" lon="18.089323">
        <ele>37</ele>
        <time>2020-01-29T16:42:00Z</time>
      </trkpt>
      <trkpt lat="59.286041" lon="18.089295">
        <ele>37</ele>
        <time>2020-01-29T16:42:01Z</time>
      </trkpt>
      <trkpt lat="59.286098" lon="18.089272">
        <ele>37</ele>
        <time>2020-01-29T16:42:02Z</time>
      </trkpt>
      <trkpt lat="59.286154" lon="18.089243">
        <ele>37</ele>
        <time>2020-01-29T16:42:03Z</time>
      </trkpt>
      <trkpt lat="59.286212" lon="18.089213">
        <ele>37</ele>
        <time>2020-01-29T16:42:04Z</time>
      </trkpt>
      <trkpt lat="59.286269" lon="18.089189">
        <ele>37</ele>
        <time>2020-01-29T16:42:05Z</time>
      </trkpt>
      <trkpt lat="59.286328" lon="18.089169">
        <ele>37</ele>
        <time>2020-01-29T16:42:06Z</time>
      </trkpt>
      <trkpt lat="59.286388" lon="18.089153">
        <ele>0</ele>
        <time>2020-01-29T16:42:06Z</time>
      </trkpt>
      <trkpt lat="59.286448" lon="18.089137">
        <ele>37</ele>
        <time>2020-01-29T16:42:07Z</time>
      </trkpt>
      <trkpt lat="59.286508" lon="18.089123">
        <ele>37</ele>
        <time>2020-01-29T16:42:09Z</time>
      </trkpt>
      <trkpt lat="59.286565" lon="18.089107">
        <ele>37</ele>
        <time>2020-01-29T16:42:10Z</time>
      </trkpt>
      <trkpt lat="59.286622" lon="18.089089">
        <ele>37</ele>
        <time>2020-01-29T16:42:11Z</time>
      </trkpt>
      <trkpt lat="59.286677" lon="18.089069">
        <ele>37</ele>
        <time>2020-01-29T16:42:12Z</time>
      </trkpt>
      <trkpt lat="59.286734" lon="18.089046">
        <ele>37</ele>
        <time>2020-01-29T16:42:13Z</time>
      </trkpt>
      <trkpt lat="59.286788" lon="18.089023">
        <ele>0</ele>
        <time>2020-01-29T16:42:13Z</time>
      </trkpt>
      <trkpt lat="59.286843" lon="18.089001">
        <ele>37</ele>
        <time>2020-01-29T16:42:14Z</time>
      </trkpt>
      <trkpt lat="59.286897" lon="18.088974">
        <ele>37</ele>
        <time>2020-01-29T16:42:15Z</time>
      </trkpt>
      <trkpt lat="59.286948" lon="18.08894">
        <ele>37</ele>
        <time>2020-01-29T16:42:17Z</time>
      </trkpt>
      <trkpt lat="59.287001" lon="18.088908">
        <ele>37</ele>
        <time>2020-01-29T16:42:18Z</time>
      </trkpt>
      <trkpt lat="59.287051" lon="18.088874">
        <ele>37</ele>
        <time>2020-01-29T16:42:19Z</time>
      </trkpt>
      <trkpt lat="59.287101" lon="18.088845">
        <ele>37</ele>
        <time>2020-01-29T16:42:20Z</time>
      </trkpt>
      <trkpt lat="59.28715" lon="18.088813">
        <ele>37</ele>
        <time>2020-01-29T16:42:21Z</time>
      </trkpt>
      <trkpt lat="59.287196" lon="18.088781">
        <ele>37</ele>
        <time>2020-01-29T16:42:22Z</time>
      </trkpt>
      <trkpt lat="59.287246" lon="18.088754">
        <ele>37</ele>
        <time>2020-01-29T16:42:23Z</time>
      </trkpt>
      <trkpt lat="59.287294" lon="18.088727">
        <ele>37</ele>
        <time>2020-01-29T16:42:24Z</time>
      </trkpt>
      <trkpt lat="59.287339" lon="18.088703">
        <ele>0</ele>
        <time>2020-01-29T16:42:24Z</time>
      </trkpt>
      <trkpt lat="59.287381" lon="18.088686">
        <ele>37</ele>
        <time>2020-01-29T16:42:25Z</time>
      </trkpt>
      <trkpt lat="59.28743" lon="18.088719">
        <ele>37</ele>
        <time>2020-01-29T16:42:27Z</time>
      </trkpt>
      <trkpt lat="59.287467" lon="18.088796">
        <ele>37</ele>
        <time>2020-01-29T16:42:28Z</time>
      </trkpt>
      <trkpt lat="59.287498" lon="18.088888">
        <ele>37</ele>
        <time>2020-01-29T16:42:29Z</time>
      </trkpt>
      <trkpt lat="59.287527" lon="18.088971">
        <ele>37</ele>
        <time>2020-01-29T16:42:30Z</time>
      </trkpt>
      <trkpt lat="59.287562" lon="18.089041">
        <ele>36</ele>
        <time>2020-01-29T16:42:31Z</time>
      </trkpt>
      <trkpt lat="59.287599" lon="18.089085">
        <ele>36</ele>
        <time>2020-01-29T16:42:32Z</time>
      </trkpt>
      <trkpt lat="59.287644" lon="18.089103">
        <ele>0</ele>
        <time>2020-01-29T16:42:32Z</time>
      </trkpt>
      <trkpt lat="59.287686" lon="18.089098">
        <ele>36</ele>
        <time>2020-01-29T16:42:33Z</time>
      </trkpt>
      <trkpt lat="59.287736" lon="18.089099">
        <ele>0</ele>
        <time>2020-01-29T16:42:34Z</time>
      </trkpt>
      <trkpt lat="59.287792" lon="18.089111">
        <ele>36</ele>
        <time>2020-01-29T16:42:35Z</time>
      </trkpt>
      <trkpt lat="59.287846" lon="18.089112">
        <ele>36</ele>
        <time>2020-01-29T16:42:37Z</time>
      </trkpt>
      <trkpt lat="59.287896" lon="18.089097">
        <ele>36</ele>
        <time>2020-01-29T16:42:38Z</time>
      </trkpt>
      <trkpt lat="59.287945" lon="18.089076">
        <ele>36</ele>
        <time>2020-01-29T16:42:39Z</time>
      </trkpt>
      <trkpt lat="59.287993" lon="18.08905">
        <ele>36</ele>
        <time>2020-01-29T16:42:40Z</time>
      </trkpt>
      <trkpt lat="59.288038" lon="18.089024">
        <ele>37</ele>
        <time>2020-01-29T16:42:41Z</time>
      </trkpt>
      <trkpt lat="59.288082" lon="18.088999">
        <ele>37</ele>
        <time>2020-01-29T16:42:42Z</time>
      </trkpt>
      <trkpt lat="59.288123" lon="18.088974">
        <ele>37</ele>
        <time>2020-01-29T16:42:43Z</time>
      </trkpt>
      <trkpt lat="59.288161" lon="18.088951">
        <ele>37</ele>
        <time>2020-01-29T16:42:44Z</time>
      </trkpt>
      <trkpt lat="59.288196" lon="18.088926">
        <ele>38</ele>
        <time>2020-01-29T16:42:45Z</time>
      </trkpt>
      <trkpt lat="59.288234" lon="18.088904">
        <ele>0</ele>
        <time>2020-01-29T16:42:45Z</time>
      </trkpt>
      <trkpt lat="59.288274" lon="18.088882">
        <ele>38</ele>
        <time>2020-01-29T16:42:46Z</time>
      </trkpt>
      <trkpt lat="59.28831" lon="18.088854">
        <ele>38</ele>
        <time>2020-01-29T16:42:48Z</time>
      </trkpt>
      <trkpt lat="59.288346" lon="18.088822">
        <ele>38</ele>
        <time>2020-01-29T16:42:49Z</time>
      </trkpt>
      <trkpt lat="59.288383" lon="18.088797">
        <ele>39</ele>
        <time>2020-01-29T16:42:50Z</time>
      </trkpt>
      <trkpt lat="59.288424" lon="18.088788">
        <ele>39</ele>
        <time>2020-01-29T16:42:51Z</time>
      </trkpt>
      <trkpt lat="59.288462" lon="18.088777">
        <ele>0</ele>
        <time>2020-01-29T16:42:51Z</time>
      </trkpt>
      <trkpt lat="59.288496" lon="18.088774">
        <ele>39</ele>
        <time>2020-01-29T16:42:52Z</time>
      </trkpt>
      <trkpt lat="59.28852" lon="18.088777">
        <ele>39</ele>
        <time>2020-01-29T16:42:54Z</time>
      </trkpt>
      <trkpt lat="59.288547" lon="18.088785">
        <ele>39</ele>
        <time>2020-01-29T16:42:56Z</time>
      </trkpt>
      <trkpt lat="59.288546" lon="18.088786">
        <ele>0</ele>
        <time>2020-01-29T16:42:59Z</time>
      </trkpt>
      <trkpt lat="59.288625" lon="18.088757">
        <ele>39</ele>
        <time>2020-01-29T16:43:06Z</time>
      </trkpt>
      <trkpt lat="59.288658" lon="18.088745">
        <ele>38</ele>
        <time>2020-01-29T16:43:08Z</time>
      </trkpt>
      <trkpt lat="59.288698" lon="18.088731">
        <ele>38</ele>
        <time>2020-01-29T16:43:09Z</time>
      </trkpt>
      <trkpt lat="59.288735" lon="18.088703">
        <ele>38</ele>
        <time>2020-01-29T16:43:10Z</time>
      </trkpt>
      <trkpt lat="59.288762" lon="18.088649">
        <ele>38</ele>
        <time>2020-01-29T16:43:11Z</time>
      </trkpt>
      <trkpt lat="59.288768" lon="18.088571">
        <ele>0</ele>
        <time>2020-01-29T16:43:11Z</time>
      </trkpt>
      <trkpt lat="59.288772" lon="18.088487">
        <ele>38</ele>
        <time>2020-01-29T16:43:12Z</time>
      </trkpt>
      <trkpt lat="59.288786" lon="18.088409">
        <ele>38</ele>
        <time>2020-01-29T16:43:14Z</time>
      </trkpt>
      <trkpt lat="59.288815" lon="18.088346">
        <ele>38</ele>
        <time>2020-01-29T16:43:15Z</time>
      </trkpt>
      <trkpt lat="59.288855" lon="18.088298">
        <ele>38</ele>
        <time>2020-01-29T16:43:16Z</time>
      </trkpt>
      <trkpt lat="59.288903" lon="18.088263">
        <ele>38</ele>
        <time>2020-01-29T16:43:17Z</time>
      </trkpt>
      <trkpt lat="59.288956" lon="18.088235">
        <ele>38</ele>
        <time>2020-01-29T16:43:18Z</time>
      </trkpt>
      <trkpt lat="59.28901" lon="18.088209">
        <ele>38</ele>
        <time>2020-01-29T16:43:19Z</time>
      </trkpt>
      <trkpt lat="59.289065" lon="18.088184">
        <ele>38</ele>
        <time>2020-01-29T16:43:20Z</time>
      </trkpt>
      <trkpt lat="59.289118" lon="18.088158">
        <ele>38</ele>
        <time>2020-01-29T16:43:21Z</time>
      </trkpt>
      <trkpt lat="59.289171" lon="18.088131">
        <ele>0</ele>
        <time>2020-01-29T16:43:21Z</time>
      </trkpt>
      <trkpt lat="59.289224" lon="18.088108">
        <ele>37</ele>
        <time>2020-01-29T16:43:22Z</time>
      </trkpt>
      <trkpt lat="59.289276" lon="18.088086">
        <ele>37</ele>
        <time>2020-01-29T16:43:24Z</time>
      </trkpt>
      <trkpt lat="59.289328" lon="18.088065">
        <ele>0</ele>
        <time>2020-01-29T16:43:24Z</time>
      </trkpt>
      <trkpt lat="59.28938" lon="18.088044">
        <ele>37</ele>
        <time>2020-01-29T16:43:25Z</time>
      </trkpt>
      <trkpt lat="59.28943" lon="18.088023">
        <ele>37</ele>
        <time>2020-01-29T16:43:27Z</time>
      </trkpt>
      <trkpt lat="59.289479" lon="18.087999">
        <ele>37</ele>
        <time>2020-01-29T16:43:28Z</time>
      </trkpt>
      <trkpt lat="59.289527" lon="18.087974">
        <ele>37</ele>
        <time>2020-01-29T16:43:29Z</time>
      </trkpt>
      <trkpt lat="59.289575" lon="18.087951">
        <ele>37</ele>
        <time>2020-01-29T16:43:30Z</time>
      </trkpt>
      <trkpt lat="59.289622" lon="18.087926">
        <ele>0</ele>
        <time>2020-01-29T16:43:30Z</time>
      </trkpt>
      <trkpt lat="59.28967" lon="18.0879">
        <ele>37</ele>
        <time>2020-01-29T16:43:31Z</time>
      </trkpt>
      <trkpt lat="59.289717" lon="18.087874">
        <ele>37</ele>
        <time>2020-01-29T16:43:33Z</time>
      </trkpt>
      <trkpt lat="59.289764" lon="18.087845">
        <ele>37</ele>
        <time>2020-01-29T16:43:34Z</time>
      </trkpt>
      <trkpt lat="59.289811" lon="18.087816">
        <ele>37</ele>
        <time>2020-01-29T16:43:35Z</time>
      </trkpt>
      <trkpt lat="59.289857" lon="18.087788">
        <ele>37</ele>
        <time>2020-01-29T16:43:36Z</time>
      </trkpt>
      <trkpt lat="59.289904" lon="18.08776">
        <ele>37</ele>
        <time>2020-01-29T16:43:37Z</time>
      </trkpt>
      <trkpt lat="59.289949" lon="18.087728">
        <ele>37</ele>
        <time>2020-01-29T16:43:38Z</time>
      </trkpt>
      <trkpt lat="59.289993" lon="18.087688">
        <ele>37</ele>
        <time>2020-01-29T16:43:39Z</time>
      </trkpt>
      <trkpt lat="59.290036" lon="18.087645">
        <ele>37</ele>
        <time>2020-01-29T16:43:40Z</time>
      </trkpt>
      <trkpt lat="59.29008" lon="18.087603">
        <ele>37</ele>
        <time>2020-01-29T16:43:41Z</time>
      </trkpt>
      <trkpt lat="59.290125" lon="18.087568">
        <ele>0</ele>
        <time>2020-01-29T16:43:41Z</time>
      </trkpt>
      <trkpt lat="59.290171" lon="18.087535">
        <ele>37</ele>
        <time>2020-01-29T16:43:42Z</time>
      </trkpt>
      <trkpt lat="59.290218" lon="18.087503">
        <ele>0</ele>
        <time>2020-01-29T16:43:43Z</time>
      </trkpt>
      <trkpt lat="59.290265" lon="18.08747">
        <ele>37</ele>
        <time>2020-01-29T16:43:44Z</time>
      </trkpt>
      <trkpt lat="59.290311" lon="18.087437">
        <ele>37</ele>
        <time>2020-01-29T16:43:46Z</time>
      </trkpt>
      <trkpt lat="59.290356" lon="18.087404">
        <ele>37</ele>
        <time>2020-01-29T16:43:47Z</time>
      </trkpt>
      <trkpt lat="59.290403" lon="18.087373">
        <ele>37</ele>
        <time>2020-01-29T16:43:48Z</time>
      </trkpt>
      <trkpt lat="59.290449" lon="18.087346">
        <ele>37</ele>
        <time>2020-01-29T16:43:49Z</time>
      </trkpt>
      <trkpt lat="59.290495" lon="18.087317">
        <ele>37</ele>
        <time>2020-01-29T16:43:50Z</time>
      </trkpt>
      <trkpt lat="59.290541" lon="18.087287">
        <ele>37</ele>
        <time>2020-01-29T16:43:51Z</time>
      </trkpt>
      <trkpt lat="59.290587" lon="18.087259">
        <ele>0</ele>
        <time>2020-01-29T16:43:51Z</time>
      </trkpt>
      <trkpt lat="59.290631" lon="18.087229">
        <ele>37</ele>
        <time>2020-01-29T16:43:52Z</time>
      </trkpt>
      <trkpt lat="59.290677" lon="18.087201">
        <ele>37</ele>
        <time>2020-01-29T16:43:54Z</time>
      </trkpt>
      <trkpt lat="59.290721" lon="18.087175">
        <ele>37</ele>
        <time>2020-01-29T16:43:55Z</time>
      </trkpt>
      <trkpt lat="59.290764" lon="18.087147">
        <ele>37</ele>
        <time>2020-01-29T16:43:56Z</time>
      </trkpt>
      <trkpt lat="59.290807" lon="18.087121">
        <ele>38</ele>
        <time>2020-01-29T16:43:57Z</time>
      </trkpt>
      <trkpt lat="59.290848" lon="18.087096">
        <ele>38</ele>
        <time>2020-01-29T16:43:58Z</time>
      </trkpt>
      <trkpt lat="59.290889" lon="18.087071">
        <ele>38</ele>
        <time>2020-01-29T16:43:59Z</time>
      </trkpt>
      <trkpt lat="59.290928" lon="18.087048">
        <ele>38</ele>
        <time>2020-01-29T16:44:00Z</time>
      </trkpt>
      <trkpt lat="59.290968" lon="18.087025">
        <ele>38</ele>
        <time>2020-01-29T16:44:01Z</time>
      </trkpt>
      <trkpt lat="59.291006" lon="18.087">
        <ele>38</ele>
        <time>2020-01-29T16:44:02Z</time>
      </trkpt>
      <trkpt lat="59.29104" lon="18.086971">
        <ele>0</ele>
        <time>2020-01-29T16:44:02Z</time>
      </trkpt>
      <trkpt lat="59.291073" lon="18.086943">
        <ele>38</ele>
        <time>2020-01-29T16:44:03Z</time>
      </trkpt>
      <trkpt lat="59.291105" lon="18.08691">
        <ele>39</ele>
        <time>2020-01-29T16:44:05Z</time>
      </trkpt>
      <trkpt lat="59.291136" lon="18.086877">
        <ele>39</ele>
        <time>2020-01-29T16:44:06Z</time>
      </trkpt>
      <trkpt lat="59.291169" lon="18.086849">
        <ele>39</ele>
        <time>2020-01-29T16:44:07Z</time>
      </trkpt>
      <trkpt lat="59.291203" lon="18.086823">
        <ele>39</ele>
        <time>2020-01-29T16:44:08Z</time>
      </trkpt>
      <trkpt lat="59.291239" lon="18.086798">
        <ele>39</ele>
        <time>2020-01-29T16:44:09Z</time>
      </trkpt>
      <trkpt lat="59.291275" lon="18.086775">
        <ele>40</ele>
        <time>2020-01-29T16:44:10Z</time>
      </trkpt>
      <trkpt lat="59.291311" lon="18.08675">
        <ele>40</ele>
        <time>2020-01-29T16:44:11Z</time>
      </trkpt>
      <trkpt lat="59.291351" lon="18.086731">
        <ele>40</ele>
        <time>2020-01-29T16:44:12Z</time>
      </trkpt>
      <trkpt lat="59.291393" lon="18.086718">
        <ele>40</ele>
        <time>2020-01-29T16:44:13Z</time>
      </trkpt>
      <trkpt lat="59.291439" lon="18.086712">
        <ele>40</ele>
        <time>2020-01-29T16:44:14Z</time>
      </trkpt>
      <trkpt lat="59.29148" lon="18.086696">
        <ele>40</ele>
        <time>2020-01-29T16:44:15Z</time>
      </trkpt>
      <trkpt lat="59.291521" lon="18.08668">
        <ele>0</ele>
        <time>2020-01-29T16:44:15Z</time>
      </trkpt>
      <trkpt lat="59.29156" lon="18.086663">
        <ele>41</ele>
        <time>2020-01-29T16:44:16Z</time>
      </trkpt>
      <trkpt lat="59.2916" lon="18.086647">
        <ele>41</ele>
        <time>2020-01-29T16:44:18Z</time>
      </trkpt>
      <trkpt lat="59.291639" lon="18.086621">
        <ele>41</ele>
        <time>2020-01-29T16:44:19Z</time>
      </trkpt>
      <trkpt lat="59.291678" lon="18.086601">
        <ele>41</ele>
        <time>2020-01-29T16:44:20Z</time>
      </trkpt>
      <trkpt lat="59.291718" lon="18.086586">
        <ele>41</ele>
        <time>2020-01-29T16:44:21Z</time>
      </trkpt>
      <trkpt lat="59.291756" lon="18.086566">
        <ele>0</ele>
        <time>2020-01-29T16:44:21Z</time>
      </trkpt>
      <trkpt lat="59.291796" lon="18.086546">
        <ele>42</ele>
        <time>2020-01-29T16:44:22Z</time>
      </trkpt>
      <trkpt lat="59.291836" lon="18.086526">
        <ele>42</ele>
        <time>2020-01-29T16:44:24Z</time>
      </trkpt>
      <trkpt lat="59.291875" lon="18.086503">
        <ele>42</ele>
        <time>2020-01-29T16:44:25Z</time>
      </trkpt>
      <trkpt lat="59.291913" lon="18.086481">
        <ele>42</ele>
        <time>2020-01-29T16:44:26Z</time>
      </trkpt>
      <trkpt lat="59.291953" lon="18.086464">
        <ele>43</ele>
        <time>2020-01-29T16:44:27Z</time>
      </trkpt>
      <trkpt lat="59.291992" lon="18.086449">
        <ele>0</ele>
        <time>2020-01-29T16:44:27Z</time>
      </trkpt>
      <trkpt lat="59.292032" lon="18.086434">
        <ele>43</ele>
        <time>2020-01-29T16:44:28Z</time>
      </trkpt>
      <trkpt lat="59.292071" lon="18.086413">
        <ele>43</ele>
        <time>2020-01-29T16:44:30Z</time>
      </trkpt>
      <trkpt lat="59.29211" lon="18.086393">
        <ele>43</ele>
        <time>2020-01-29T16:44:31Z</time>
      </trkpt>
      <trkpt lat="59.292149" lon="18.086374">
        <ele>43</ele>
        <time>2020-01-29T16:44:32Z</time>
      </trkpt>
      <trkpt lat="59.292187" lon="18.086349">
        <ele>44</ele>
        <time>2020-01-29T16:44:33Z</time>
      </trkpt>
      <trkpt lat="59.292225" lon="18.086324">
        <ele>44</ele>
        <time>2020-01-29T16:44:34Z</time>
      </trkpt>
      <trkpt lat="59.292265" lon="18.086299">
        <ele>44</ele>
        <time>2020-01-29T16:44:35Z</time>
      </trkpt>
      <trkpt lat="59.292308" lon="18.086272">
        <ele>44</ele>
        <time>2020-01-29T16:44:36Z</time>
      </trkpt>
      <trkpt lat="59.292351" lon="18.086248">
        <ele>44</ele>
        <time>2020-01-29T16:44:37Z</time>
      </trkpt>
      <trkpt lat="59.292396" lon="18.08623">
        <ele>44</ele>
        <time>2020-01-29T16:44:38Z</time>
      </trkpt>
      <trkpt lat="59.292441" lon="18.086209">
        <ele>45</ele>
        <time>2020-01-29T16:44:39Z</time>
      </trkpt>
      <trkpt lat="59.292486" lon="18.086188">
        <ele>45</ele>
        <time>2020-01-29T16:44:40Z</time>
      </trkpt>
      <trkpt lat="59.292531" lon="18.086165">
        <ele>0</ele>
        <time>2020-01-29T16:44:40Z</time>
      </trkpt>
      <trkpt lat="59.292575" lon="18.086137">
        <ele>45</ele>
        <time>2020-01-29T16:44:41Z</time>
      </trkpt>
      <trkpt lat="59.292622" lon="18.086113">
        <ele>45</ele>
        <time>2020-01-29T16:44:43Z</time>
      </trkpt>
      <trkpt lat="59.29267" lon="18.08609">
        <ele>45</ele>
        <time>2020-01-29T16:44:44Z</time>
      </trkpt>
      <trkpt lat="59.292718" lon="18.086067">
        <ele>45</ele>
        <time>2020-01-29T16:44:45Z</time>
      </trkpt>
      <trkpt lat="59.292768" lon="18.086042">
        <ele>46</ele>
        <time>2020-01-29T16:44:46Z</time>
      </trkpt>
      <trkpt lat="59.292816" lon="18.08602">
        <ele>46</ele>
        <time>2020-01-29T16:44:47Z</time>
      </trkpt>
      <trkpt lat="59.292866" lon="18.086">
        <ele>46</ele>
        <time>2020-01-29T16:44:48Z</time>
      </trkpt>
      <trkpt lat="59.292918" lon="18.08598">
        <ele>46</ele>
        <time>2020-01-29T16:44:49Z</time>
      </trkpt>
      <trkpt lat="59.29297" lon="18.085965">
        <ele>0</ele>
        <time>2020-01-29T16:44:49Z</time>
      </trkpt>
      <trkpt lat="59.293018" lon="18.085932">
        <ele>46</ele>
        <time>2020-01-29T16:44:50Z</time>
      </trkpt>
      <trkpt lat="59.293067" lon="18.085904">
        <ele>46</ele>
        <time>2020-01-29T16:44:52Z</time>
      </trkpt>
      <trkpt lat="59.29312" lon="18.085877">
        <ele>46</ele>
        <time>2020-01-29T16:44:53Z</time>
      </trkpt>
      <trkpt lat="59.293172" lon="18.085849">
        <ele>47</ele>
        <time>2020-01-29T16:44:54Z</time>
      </trkpt>
      <trkpt lat="59.293225" lon="18.085818">
        <ele>47</ele>
        <time>2020-01-29T16:44:55Z</time>
      </trkpt>
      <trkpt lat="59.293279" lon="18.085786">
        <ele>47</ele>
        <time>2020-01-29T16:44:56Z</time>
      </trkpt>
      <trkpt lat="59.293334" lon="18.085755">
        <ele>47</ele>
        <time>2020-01-29T16:44:57Z</time>
      </trkpt>
      <trkpt lat="59.293391" lon="18.085723">
        <ele>47</ele>
        <time>2020-01-29T16:44:58Z</time>
      </trkpt>
      <trkpt lat="59.293444" lon="18.085683">
        <ele>0</ele>
        <time>2020-01-29T16:44:58Z</time>
      </trkpt>
      <trkpt lat="59.293498" lon="18.085643">
        <ele>47</ele>
        <time>2020-01-29T16:44:59Z</time>
      </trkpt>
      <trkpt lat="59.293555" lon="18.08561">
        <ele>48</ele>
        <time>2020-01-29T16:45:00Z</time>
      </trkpt>
      <trkpt lat="59.29367" lon="18.08554">
        <ele>48</ele>
        <time>2020-01-29T16:45:03Z</time>
      </trkpt>
      <trkpt lat="59.293726" lon="18.085501">
        <ele>48</ele>
        <time>2020-01-29T16:45:04Z</time>
      </trkpt>
      <trkpt lat="59.293842" lon="18.085433">
        <ele>48</ele>
        <time>2020-01-29T16:45:06Z</time>
      </trkpt>
      <trkpt lat="59.293947" lon="18.085334">
        <ele>49</ele>
        <time>2020-01-29T16:45:07Z</time>
      </trkpt>
      <trkpt lat="59.29405" lon="18.085238">
        <ele>50</ele>
        <time>2020-01-29T16:45:10Z</time>
      </trkpt>
      <trkpt lat="59.294155" lon="18.085158">
        <ele>50</ele>
        <time>2020-01-29T16:45:12Z</time>
      </trkpt>
      <trkpt lat="59.29428" lon="18.085076">
        <ele>50</ele>
        <time>2020-01-29T16:45:15Z</time>
      </trkpt>
      <trkpt lat="59.294376" lon="18.084909">
        <ele>50</ele>
        <time>2020-01-29T16:45:18Z</time>
      </trkpt>
      <trkpt lat="59.294504" lon="18.08482">
        <ele>50</ele>
        <time>2020-01-29T16:45:19Z</time>
      </trkpt>
      <trkpt lat="59.294644" lon="18.084813">
        <ele>50</ele>
        <time>2020-01-29T16:45:22Z</time>
      </trkpt>
      <trkpt lat="59.294743" lon="18.084824">
        <ele>49</ele>
        <time>2020-01-29T16:45:23Z</time>
      </trkpt>
      <trkpt lat="59.294859" lon="18.084754">
        <ele>0</ele>
        <time>2020-01-29T16:45:24Z</time>
      </trkpt>
      <trkpt lat="59.294918" lon="18.084742">
        <ele>49</ele>
        <time>2020-01-29T16:45:25Z</time>
      </trkpt>
      <trkpt lat="59.294974" lon="18.084726">
        <ele>49</ele>
        <time>2020-01-29T16:45:27Z</time>
      </trkpt>
      <trkpt lat="59.295028" lon="18.084714">
        <ele>49</ele>
        <time>2020-01-29T16:45:28Z</time>
      </trkpt>
      <trkpt lat="59.295072" lon="18.084685">
        <ele>49</ele>
        <time>2020-01-29T16:45:29Z</time>
      </trkpt>
      <trkpt lat="59.295116" lon="18.084656">
        <ele>49</ele>
        <time>2020-01-29T16:45:30Z</time>
      </trkpt>
      <trkpt lat="59.295163" lon="18.084625">
        <ele>49</ele>
        <time>2020-01-29T16:45:31Z</time>
      </trkpt>
      <trkpt lat="59.295212" lon="18.084599">
        <ele>49</ele>
        <time>2020-01-29T16:45:32Z</time>
      </trkpt>
      <trkpt lat="59.295264" lon="18.084578">
        <ele>49</ele>
        <time>2020-01-29T16:45:33Z</time>
      </trkpt>
      <trkpt lat="59.295315" lon="18.084558">
        <ele>49</ele>
        <time>2020-01-29T16:45:34Z</time>
      </trkpt>
      <trkpt lat="59.295421" lon="18.084519">
        <ele>49</ele>
        <time>2020-01-29T16:45:35Z</time>
      </trkpt>
      <trkpt lat="59.29553" lon="18.084488">
        <ele>0</ele>
        <time>2020-01-29T16:45:37Z</time>
      </trkpt>
      <trkpt lat="59.295634" lon="18.084438">
        <ele>48</ele>
        <time>2020-01-29T16:45:40Z</time>
      </trkpt>
      <trkpt lat="59.295683" lon="18.084409">
        <ele>48</ele>
        <time>2020-01-29T16:45:41Z</time>
      </trkpt>
      <trkpt lat="59.29573" lon="18.084378">
        <ele>48</ele>
        <time>2020-01-29T16:45:42Z</time>
      </trkpt>
      <trkpt lat="59.29578" lon="18.084352">
        <ele>48</ele>
        <time>2020-01-29T16:45:43Z</time>
      </trkpt>
      <trkpt lat="59.295831" lon="18.084326">
        <ele>0</ele>
        <time>2020-01-29T16:45:43Z</time>
      </trkpt>
      <trkpt lat="59.295885" lon="18.084302">
        <ele>48</ele>
        <time>2020-01-29T16:45:44Z</time>
      </trkpt>
      <trkpt lat="59.295936" lon="18.084273">
        <ele>48</ele>
        <time>2020-01-29T16:45:46Z</time>
      </trkpt>
      <trkpt lat="59.295992" lon="18.084253">
        <ele>48</ele>
        <time>2020-01-29T16:45:47Z</time>
      </trkpt>
      <trkpt lat="59.296045" lon="18.084227">
        <ele>47</ele>
        <time>2020-01-29T16:45:48Z</time>
      </trkpt>
      <trkpt lat="59.296099" lon="18.084201">
        <ele>47</ele>
        <time>2020-01-29T16:45:49Z</time>
      </trkpt>
      <trkpt lat="59.296153" lon="18.084175">
        <ele>47</ele>
        <time>2020-01-29T16:45:50Z</time>
      </trkpt>
      <trkpt lat="59.296208" lon="18.08415">
        <ele>47</ele>
        <time>2020-01-29T16:45:51Z</time>
      </trkpt>
      <trkpt lat="59.296264" lon="18.084134">
        <ele>47</ele>
        <time>2020-01-29T16:45:52Z</time>
      </trkpt>
      <trkpt lat="59.296321" lon="18.084141">
        <ele>0</ele>
        <time>2020-01-29T16:45:52Z</time>
      </trkpt>
      <trkpt lat="59.296375" lon="18.084184">
        <ele>46</ele>
        <time>2020-01-29T16:45:53Z</time>
      </trkpt>
      <trkpt lat="59.296418" lon="18.084265">
        <ele>47</ele>
        <time>2020-01-29T16:45:55Z</time>
      </trkpt>
      <trkpt lat="59.296438" lon="18.084344">
        <ele>47</ele>
        <time>2020-01-29T16:45:56Z</time>
      </trkpt>
      <trkpt lat="59.296458" lon="18.084434">
        <ele>0</ele>
        <time>2020-01-29T16:45:56Z</time>
      </trkpt>
      <trkpt lat="59.296482" lon="18.08452">
        <ele>47</ele>
        <time>2020-01-29T16:45:57Z</time>
      </trkpt>
      <trkpt lat="59.296514" lon="18.08459">
        <ele>47</ele>
        <time>2020-01-29T16:45:59Z</time>
      </trkpt>
      <trkpt lat="59.296554" lon="18.084634">
        <ele>47</ele>
        <time>2020-01-29T16:46:00Z</time>
      </trkpt>
      <trkpt lat="59.296599" lon="18.084653">
        <ele>47</ele>
        <time>2020-01-29T16:46:01Z</time>
      </trkpt>
      <trkpt lat="59.296644" lon="18.08466">
        <ele>47</ele>
        <time>2020-01-29T16:46:02Z</time>
      </trkpt>
      <trkpt lat="59.296691" lon="18.08466">
        <ele>0</ele>
        <time>2020-01-29T16:46:02Z</time>
      </trkpt>
      <trkpt lat="59.296738" lon="18.084662">
        <ele>47</ele>
        <time>2020-01-29T16:46:03Z</time>
      </trkpt>
      <trkpt lat="59.296787" lon="18.084666">
        <ele>46</ele>
        <time>2020-01-29T16:46:05Z</time>
      </trkpt>
      <trkpt lat="59.296838" lon="18.084671">
        <ele>46</ele>
        <time>2020-01-29T16:46:06Z</time>
      </trkpt>
      <trkpt lat="59.29689" lon="18.084672">
        <ele>46</ele>
        <time>2020-01-29T16:46:07Z</time>
      </trkpt>
      <trkpt lat="59.296946" lon="18.084672">
        <ele>46</ele>
        <time>2020-01-29T16:46:08Z</time>
      </trkpt>
      <trkpt lat="59.297004" lon="18.08467">
        <ele>46</ele>
        <time>2020-01-29T16:46:09Z</time>
      </trkpt>
      <trkpt lat="59.297061" lon="18.084644">
        <ele>46</ele>
        <time>2020-01-29T16:46:10Z</time>
      </trkpt>
      <trkpt lat="59.297114" lon="18.084582">
        <ele>45</ele>
        <time>2020-01-29T16:46:11Z</time>
      </trkpt>
      <trkpt lat="59.29716" lon="18.084497">
        <ele>0</ele>
        <time>2020-01-29T16:46:11Z</time>
      </trkpt>
      <trkpt lat="59.297202" lon="18.084396">
        <ele>45</ele>
        <time>2020-01-29T16:46:12Z</time>
      </trkpt>
      <trkpt lat="59.297238" lon="18.084277">
        <ele>45</ele>
        <time>2020-01-29T16:46:14Z</time>
      </trkpt>
      <trkpt lat="59.297262" lon="18.084143">
        <ele>44</ele>
        <time>2020-01-29T16:46:15Z</time>
      </trkpt>
      <trkpt lat="59.297273" lon="18.083999">
        <ele>0</ele>
        <time>2020-01-29T16:46:15Z</time>
      </trkpt>
      <trkpt lat="59.297272" lon="18.083855">
        <ele>44</ele>
        <time>2020-01-29T16:46:16Z</time>
      </trkpt>
      <trkpt lat="59.297265" lon="18.083717">
        <ele>44</ele>
        <time>2020-01-29T16:46:18Z</time>
      </trkpt>
      <trkpt lat="59.29726" lon="18.083589">
        <ele>0</ele>
        <time>2020-01-29T16:46:18Z</time>
      </trkpt>
      <trkpt lat="59.297268" lon="18.083476">
        <ele>44</ele>
        <time>2020-01-29T16:46:19Z</time>
      </trkpt>
      <trkpt lat="59.297294" lon="18.083382">
        <ele>44</ele>
        <time>2020-01-29T16:46:21Z</time>
      </trkpt>
      <trkpt lat="59.297333" lon="18.083314">
        <ele>44</ele>
        <time>2020-01-29T16:46:22Z</time>
      </trkpt>
      <trkpt lat="59.297383" lon="18.083268">
        <ele>44</ele>
        <time>2020-01-29T16:46:23Z</time>
      </trkpt>
      <trkpt lat="59.297436" lon="18.083232">
        <ele>44</ele>
        <time>2020-01-29T16:46:24Z</time>
      </trkpt>
      <trkpt lat="59.297491" lon="18.083195">
        <ele>43</ele>
        <time>2020-01-29T16:46:25Z</time>
      </trkpt>
      <trkpt lat="59.297546" lon="18.083159">
        <ele>43</ele>
        <time>2020-01-29T16:46:26Z</time>
      </trkpt>
      <trkpt lat="59.297601" lon="18.083123">
        <ele>43</ele>
        <time>2020-01-29T16:46:27Z</time>
      </trkpt>
      <trkpt lat="59.297659" lon="18.08309">
        <ele>0</ele>
        <time>2020-01-29T16:46:27Z</time>
      </trkpt>
      <trkpt lat="59.297717" lon="18.08307">
        <ele>43</ele>
        <time>2020-01-29T16:46:28Z</time>
      </trkpt>
      <trkpt lat="59.297777" lon="18.083063">
        <ele>43</ele>
        <time>2020-01-29T16:46:30Z</time>
      </trkpt>
      <trkpt lat="59.29784" lon="18.08306">
        <ele>43</ele>
        <time>2020-01-29T16:46:31Z</time>
      </trkpt>
      <trkpt lat="59.297903" lon="18.083049">
        <ele>43</ele>
        <time>2020-01-29T16:46:32Z</time>
      </trkpt>
      <trkpt lat="59.297967" lon="18.083026">
        <ele>43</ele>
        <time>2020-01-29T16:46:33Z</time>
      </trkpt>
      <trkpt lat="59.298032" lon="18.082995">
        <ele>43</ele>
        <time>2020-01-29T16:46:34Z</time>
      </trkpt>
      <trkpt lat="59.298098" lon="18.082957">
        <ele>0</ele>
        <time>2020-01-29T16:46:34Z</time>
      </trkpt>
      <trkpt lat="59.298165" lon="18.082912">
        <ele>42</ele>
        <time>2020-01-29T16:46:35Z</time>
      </trkpt>
      <trkpt lat="59.298231" lon="18.082864">
        <ele>42</ele>
        <time>2020-01-29T16:46:37Z</time>
      </trkpt>
      <trkpt lat="59.298296" lon="18.082813">
        <ele>42</ele>
        <time>2020-01-29T16:46:38Z</time>
      </trkpt>
      <trkpt lat="59.298356" lon="18.082756">
        <ele>42</ele>
        <time>2020-01-29T16:46:39Z</time>
      </trkpt>
      <trkpt lat="59.298415" lon="18.082692">
        <ele>42</ele>
        <time>2020-01-29T16:46:40Z</time>
      </trkpt>
      <trkpt lat="59.298474" lon="18.082629">
        <ele>42</ele>
        <time>2020-01-29T16:46:41Z</time>
      </trkpt>
      <trkpt lat="59.298535" lon="18.082573">
        <ele>42</ele>
        <time>2020-01-29T16:46:42Z</time>
      </trkpt>
      <trkpt lat="59.298599" lon="18.082523">
        <ele>0</ele>
        <time>2020-01-29T16:46:42Z</time>
      </trkpt>
      <trkpt lat="59.298664" lon="18.082481">
        <ele>41</ele>
        <time>2020-01-29T16:46:43Z</time>
      </trkpt>
      <trkpt lat="59.298729" lon="18.082438">
        <ele>41</ele>
        <time>2020-01-29T16:46:45Z</time>
      </trkpt>
      <trkpt lat="59.298796" lon="18.082393">
        <ele>41</ele>
        <time>2020-01-29T16:46:46Z</time>
      </trkpt>
      <trkpt lat="59.298864" lon="18.082351">
        <ele>41</ele>
        <time>2020-01-29T16:46:47Z</time>
      </trkpt>
      <trkpt lat="59.298931" lon="18.082314">
        <ele>41</ele>
        <time>2020-01-29T16:46:48Z</time>
      </trkpt>
      <trkpt lat="59.298998" lon="18.082275">
        <ele>41</ele>
        <time>2020-01-29T16:46:49Z</time>
      </trkpt>
      <trkpt lat="59.299064" lon="18.082242">
        <ele>0</ele>
        <time>2020-01-29T16:46:49Z</time>
      </trkpt>
      <trkpt lat="59.299131" lon="18.082231">
        <ele>41</ele>
        <time>2020-01-29T16:46:50Z</time>
      </trkpt>
      <trkpt lat="59.299196" lon="18.08223">
        <ele>41</ele>
        <time>2020-01-29T16:46:52Z</time>
      </trkpt>
      <trkpt lat="59.299252" lon="18.082232">
        <ele>42</ele>
        <time>2020-01-29T16:46:53Z</time>
      </trkpt>
      <trkpt lat="59.29931" lon="18.082246">
        <ele>0</ele>
        <time>2020-01-29T16:46:53Z</time>
      </trkpt>
      <trkpt lat="59.299369" lon="18.082257">
        <ele>41</ele>
        <time>2020-01-29T16:46:54Z</time>
      </trkpt>
      <trkpt lat="59.299425" lon="18.082225">
        <ele>41</ele>
        <time>2020-01-29T16:46:56Z</time>
      </trkpt>
      <trkpt lat="59.299486" lon="18.082199">
        <ele>41</ele>
        <time>2020-01-29T16:46:57Z</time>
      </trkpt>
      <trkpt lat="59.299558" lon="18.082157">
        <ele>0</ele>
        <time>2020-01-29T16:46:57Z</time>
      </trkpt>
      <trkpt lat="59.299629" lon="18.082116">
        <ele>41</ele>
        <time>2020-01-29T16:46:58Z</time>
      </trkpt>
      <trkpt lat="59.299702" lon="18.082072">
        <ele>41</ele>
        <time>2020-01-29T16:47:00Z</time>
      </trkpt>
      <trkpt lat="59.299774" lon="18.08204">
        <ele>41</ele>
        <time>2020-01-29T16:47:01Z</time>
      </trkpt>
      <trkpt lat="59.299842" lon="18.081996">
        <ele>41</ele>
        <time>2020-01-29T16:47:02Z</time>
      </trkpt>
      <trkpt lat="59.29991" lon="18.08195">
        <ele>41</ele>
        <time>2020-01-29T16:47:03Z</time>
      </trkpt>
      <trkpt lat="59.299975" lon="18.081898">
        <ele>41</ele>
        <time>2020-01-29T16:47:04Z</time>
      </trkpt>
      <trkpt lat="59.300039" lon="18.081846">
        <ele>0</ele>
        <time>2020-01-29T16:47:04Z</time>
      </trkpt>
      <trkpt lat="59.300102" lon="18.081796">
        <ele>41</ele>
        <time>2020-01-29T16:47:05Z</time>
      </trkpt>
      <trkpt lat="59.300166" lon="18.081753">
        <ele>41</ele>
        <time>2020-01-29T16:47:07Z</time>
      </trkpt>
      <trkpt lat="59.300229" lon="18.08172">
        <ele>40</ele>
        <time>2020-01-29T16:47:08Z</time>
      </trkpt>
      <trkpt lat="59.30029" lon="18.08169">
        <ele>40</ele>
        <time>2020-01-29T16:47:09Z</time>
      </trkpt>
      <trkpt lat="59.300352" lon="18.081654">
        <ele>40</ele>
        <time>2020-01-29T16:47:10Z</time>
      </trkpt>
      <trkpt lat="59.300414" lon="18.081614">
        <ele>40</ele>
        <time>2020-01-29T16:47:11Z</time>
      </trkpt>
      <trkpt lat="59.300475" lon="18.081571">
        <ele>40</ele>
        <time>2020-01-29T16:47:12Z</time>
      </trkpt>
      <trkpt lat="59.300537" lon="18.081525">
        <ele>40</ele>
        <time>2020-01-29T16:47:13Z</time>
      </trkpt>
      <trkpt lat="59.300599" lon="18.08148">
        <ele>41</ele>
        <time>2020-01-29T16:47:14Z</time>
      </trkpt>
      <trkpt lat="59.300661" lon="18.081434">
        <ele>41</ele>
        <time>2020-01-29T16:47:15Z</time>
      </trkpt>
      <trkpt lat="59.300727" lon="18.081392">
        <ele>41</ele>
        <time>2020-01-29T16:47:16Z</time>
      </trkpt>
      <trkpt lat="59.30079" lon="18.081346">
        <ele>41</ele>
        <time>2020-01-29T16:47:17Z</time>
      </trkpt>
      <trkpt lat="59.300852" lon="18.081293">
        <ele>41</ele>
        <time>2020-01-29T16:47:18Z</time>
      </trkpt>
      <trkpt lat="59.300912" lon="18.081231">
        <ele>41</ele>
        <time>2020-01-29T16:47:19Z</time>
      </trkpt>
      <trkpt lat="59.300971" lon="18.081164">
        <ele>0</ele>
        <time>2020-01-29T16:47:19Z</time>
      </trkpt>
      <trkpt lat="59.301028" lon="18.081098">
        <ele>41</ele>
        <time>2020-01-29T16:47:20Z</time>
      </trkpt>
      <trkpt lat="59.301083" lon="18.081028">
        <ele>41</ele>
        <time>2020-01-29T16:47:22Z</time>
      </trkpt>
      <trkpt lat="59.301143" lon="18.080966">
        <ele>41</ele>
        <time>2020-01-29T16:47:23Z</time>
      </trkpt>
      <trkpt lat="59.301203" lon="18.080908">
        <ele>41</ele>
        <time>2020-01-29T16:47:24Z</time>
      </trkpt>
      <trkpt lat="59.301261" lon="18.080852">
        <ele>41</ele>
        <time>2020-01-29T16:47:25Z</time>
      </trkpt>
      <trkpt lat="59.301318" lon="18.080794">
        <ele>41</ele>
        <time>2020-01-29T16:47:26Z</time>
      </trkpt>
      <trkpt lat="59.301376" lon="18.080738">
        <ele>0</ele>
        <time>2020-01-29T16:47:26Z</time>
      </trkpt>
      <trkpt lat="59.301434" lon="18.080686">
        <ele>41</ele>
        <time>2020-01-29T16:47:27Z</time>
      </trkpt>
      <trkpt lat="59.301494" lon="18.080636">
        <ele>41</ele>
        <time>2020-01-29T16:47:29Z</time>
      </trkpt>
      <trkpt lat="59.301553" lon="18.080588">
        <ele>41</ele>
        <time>2020-01-29T16:47:30Z</time>
      </trkpt>
      <trkpt lat="59.301611" lon="18.080542">
        <ele>41</ele>
        <time>2020-01-29T16:47:31Z</time>
      </trkpt>
      <trkpt lat="59.301668" lon="18.080495">
        <ele>41</ele>
        <time>2020-01-29T16:47:32Z</time>
      </trkpt>
      <trkpt lat="59.301727" lon="18.080454">
        <ele>41</ele>
        <time>2020-01-29T16:47:33Z</time>
      </trkpt>
      <trkpt lat="59.301785" lon="18.080412">
        <ele>41</ele>
        <time>2020-01-29T16:47:34Z</time>
      </trkpt>
      <trkpt lat="59.301844" lon="18.080372">
        <ele>0</ele>
        <time>2020-01-29T16:47:34Z</time>
      </trkpt>
      <trkpt lat="59.301904" lon="18.080334">
        <ele>41</ele>
        <time>2020-01-29T16:47:35Z</time>
      </trkpt>
      <trkpt lat="59.301963" lon="18.080293">
        <ele>41</ele>
        <time>2020-01-29T16:47:37Z</time>
      </trkpt>
      <trkpt lat="59.302021" lon="18.080254">
        <ele>41</ele>
        <time>2020-01-29T16:47:38Z</time>
      </trkpt>
      <trkpt lat="59.302079" lon="18.080214">
        <ele>40</ele>
        <time>2020-01-29T16:47:39Z</time>
      </trkpt>
      <trkpt lat="59.302138" lon="18.080176">
        <ele>40</ele>
        <time>2020-01-29T16:47:40Z</time>
      </trkpt>
      <trkpt lat="59.302198" lon="18.080143">
        <ele>40</ele>
        <time>2020-01-29T16:47:41Z</time>
      </trkpt>
      <trkpt lat="59.302257" lon="18.08011">
        <ele>40</ele>
        <time>2020-01-29T16:47:42Z</time>
      </trkpt>
      <trkpt lat="59.302316" lon="18.080076">
        <ele>0</ele>
        <time>2020-01-29T16:47:42Z</time>
      </trkpt>
      <trkpt lat="59.302376" lon="18.080042">
        <ele>40</ele>
        <time>2020-01-29T16:47:43Z</time>
      </trkpt>
      <trkpt lat="59.302435" lon="18.08001">
        <ele>40</ele>
        <time>2020-01-29T16:47:45Z</time>
      </trkpt>
      <trkpt lat="59.302495" lon="18.079976">
        <ele>40</ele>
        <time>2020-01-29T16:47:46Z</time>
      </trkpt>
      <trkpt lat="59.302552" lon="18.079942">
        <ele>40</ele>
        <time>2020-01-29T16:47:47Z</time>
      </trkpt>
      <trkpt lat="59.30261" lon="18.079906">
        <ele>40</ele>
        <time>2020-01-29T16:47:48Z</time>
      </trkpt>
      <trkpt lat="59.302667" lon="18.07987">
        <ele>40</ele>
        <time>2020-01-29T16:47:49Z</time>
      </trkpt>
      <trkpt lat="59.302725" lon="18.079834">
        <ele>39</ele>
        <time>2020-01-29T16:47:50Z</time>
      </trkpt>
      <trkpt lat="59.302783" lon="18.079796">
        <ele>39</ele>
        <time>2020-01-29T16:47:51Z</time>
      </trkpt>
      <trkpt lat="59.302841" lon="18.079759">
        <ele>0</ele>
        <time>2020-01-29T16:47:51Z</time>
      </trkpt>
      <trkpt lat="59.302898" lon="18.079724">
        <ele>39</ele>
        <time>2020-01-29T16:47:52Z</time>
      </trkpt>
      <trkpt lat="59.302955" lon="18.079688">
        <ele>39</ele>
        <time>2020-01-29T16:47:54Z</time>
      </trkpt>
      <trkpt lat="59.303011" lon="18.079652">
        <ele>39</ele>
        <time>2020-01-29T16:47:55Z</time>
      </trkpt>
      <trkpt lat="59.303068" lon="18.079616">
        <ele>39</ele>
        <time>2020-01-29T16:47:56Z</time>
      </trkpt>
      <trkpt lat="59.303124" lon="18.079578">
        <ele>39</ele>
        <time>2020-01-29T16:47:57Z</time>
      </trkpt>
      <trkpt lat="59.30318" lon="18.079538">
        <ele>39</ele>
        <time>2020-01-29T16:47:58Z</time>
      </trkpt>
      <trkpt lat="59.303237" lon="18.0795">
        <ele>39</ele>
        <time>2020-01-29T16:47:59Z</time>
      </trkpt>
      <trkpt lat="59.303295" lon="18.079468">
        <ele>0</ele>
        <time>2020-01-29T16:47:59Z</time>
      </trkpt>
      <trkpt lat="59.303353" lon="18.079432">
        <ele>39</ele>
        <time>2020-01-29T16:48:00Z</time>
      </trkpt>
      <trkpt lat="59.303413" lon="18.079393">
        <ele>38</ele>
        <time>2020-01-29T16:48:02Z</time>
      </trkpt>
      <trkpt lat="59.303475" lon="18.079352">
        <ele>38</ele>
        <time>2020-01-29T16:48:03Z</time>
      </trkpt>
      <trkpt lat="59.303538" lon="18.07931">
        <ele>38</ele>
        <time>2020-01-29T16:48:04Z</time>
      </trkpt>
      <trkpt lat="59.303603" lon="18.07927">
        <ele>38</ele>
        <time>2020-01-29T16:48:05Z</time>
      </trkpt>
      <trkpt lat="59.30367" lon="18.07923">
        <ele>37</ele>
        <time>2020-01-29T16:48:06Z</time>
      </trkpt>
      <trkpt lat="59.303739" lon="18.079189">
        <ele>0</ele>
        <time>2020-01-29T16:48:06Z</time>
      </trkpt>
      <trkpt lat="59.303809" lon="18.079147">
        <ele>37</ele>
        <time>2020-01-29T16:48:07Z</time>
      </trkpt>
      <trkpt lat="59.30388" lon="18.079103">
        <ele>37</ele>
        <time>2020-01-29T16:48:09Z</time>
      </trkpt>
      <trkpt lat="59.303953" lon="18.07906">
        <ele>0</ele>
        <time>2020-01-29T16:48:09Z</time>
      </trkpt>
      <trkpt lat="59.304027" lon="18.079015">
        <ele>36</ele>
        <time>2020-01-29T16:48:10Z</time>
      </trkpt>
      <trkpt lat="59.304102" lon="18.078968">
        <ele>36</ele>
        <time>2020-01-29T16:48:12Z</time>
      </trkpt>
      <trkpt lat="59.304178" lon="18.07892">
        <ele>36</ele>
        <time>2020-01-29T16:48:13Z</time>
      </trkpt>
      <trkpt lat="59.304255" lon="18.07887">
        <ele>0</ele>
        <time>2020-01-29T16:48:13Z</time>
      </trkpt>
      <trkpt lat="59.304333" lon="18.078821">
        <ele>35</ele>
        <time>2020-01-29T16:48:14Z</time>
      </trkpt>
      <trkpt lat="59.304413" lon="18.078774">
        <ele>35</ele>
        <time>2020-01-29T16:48:16Z</time>
      </trkpt>
      <trkpt lat="59.304493" lon="18.078727">
        <ele>34</ele>
        <time>2020-01-29T16:48:17Z</time>
      </trkpt>
      <trkpt lat="59.304574" lon="18.078677">
        <ele>34</ele>
        <time>2020-01-29T16:48:18Z</time>
      </trkpt>
      <trkpt lat="59.304655" lon="18.078627">
        <ele>34</ele>
        <time>2020-01-29T16:48:19Z</time>
      </trkpt>
      <trkpt lat="59.304738" lon="18.078574">
        <ele>0</ele>
        <time>2020-01-29T16:48:19Z</time>
      </trkpt>
      <trkpt lat="59.30482" lon="18.078521">
        <ele>33</ele>
        <time>2020-01-29T16:48:20Z</time>
      </trkpt>
      <trkpt lat="59.304903" lon="18.078466">
        <ele>32</ele>
        <time>2020-01-29T16:48:22Z</time>
      </trkpt>
      <trkpt lat="59.304989" lon="18.078413">
        <ele>32</ele>
        <time>2020-01-29T16:48:23Z</time>
      </trkpt>
      <trkpt lat="59.305075" lon="18.078362">
        <ele>32</ele>
        <time>2020-01-29T16:48:24Z</time>
      </trkpt>
      <trkpt lat="59.305161" lon="18.07831">
        <ele>0</ele>
        <time>2020-01-29T16:48:24Z</time>
      </trkpt>
      <trkpt lat="59.305246" lon="18.078256">
        <ele>31</ele>
        <time>2020-01-29T16:48:25Z</time>
      </trkpt>
      <trkpt lat="59.30533" lon="18.078203">
        <ele>31</ele>
        <time>2020-01-29T16:48:27Z</time>
      </trkpt>
      <trkpt lat="59.305414" lon="18.078151">
        <ele>30</ele>
        <time>2020-01-29T16:48:28Z</time>
      </trkpt>
      <trkpt lat="59.305497" lon="18.0781">
        <ele>0</ele>
        <time>2020-01-29T16:48:28Z</time>
      </trkpt>
      <trkpt lat="59.305581" lon="18.078049">
        <ele>30</ele>
        <time>2020-01-29T16:48:29Z</time>
      </trkpt>
      <trkpt lat="59.305664" lon="18.078">
        <ele>0</ele>
        <time>2020-01-29T16:48:30Z</time>
      </trkpt>
      <trkpt lat="59.305748" lon="18.077949">
        <ele>29</ele>
        <time>2020-01-29T16:48:31Z</time>
      </trkpt>
      <trkpt lat="59.30583" lon="18.077897">
        <ele>29</ele>
        <time>2020-01-29T16:48:33Z</time>
      </trkpt>
      <trkpt lat="59.305913" lon="18.077844">
        <ele>29</ele>
        <time>2020-01-29T16:48:34Z</time>
      </trkpt>
      <trkpt lat="59.305996" lon="18.077792">
        <ele>28</ele>
        <time>2020-01-29T16:48:35Z</time>
      </trkpt>
      <trkpt lat="59.306077" lon="18.07774">
        <ele>28</ele>
        <time>2020-01-29T16:48:36Z</time>
      </trkpt>
      <trkpt lat="59.306158" lon="18.077687">
        <ele>0</ele>
        <time>2020-01-29T16:48:36Z</time>
      </trkpt>
      <trkpt lat="59.306238" lon="18.077636">
        <ele>28</ele>
        <time>2020-01-29T16:48:37Z</time>
      </trkpt>
      <trkpt lat="59.306317" lon="18.077583">
        <ele>27</ele>
        <time>2020-01-29T16:48:39Z</time>
      </trkpt>
      <trkpt lat="59.306393" lon="18.077524">
        <ele>27</ele>
        <time>2020-01-29T16:48:40Z</time>
      </trkpt>
      <trkpt lat="59.306468" lon="18.077461">
        <ele>27</ele>
        <time>2020-01-29T16:48:41Z</time>
      </trkpt>
      <trkpt lat="59.306542" lon="18.077407">
        <ele>27</ele>
        <time>2020-01-29T16:48:42Z</time>
      </trkpt>
      <trkpt lat="59.306616" lon="18.07736">
        <ele>0</ele>
        <time>2020-01-29T16:48:42Z</time>
      </trkpt>
      <trkpt lat="59.30669" lon="18.077319">
        <ele>27</ele>
        <time>2020-01-29T16:48:43Z</time>
      </trkpt>
      <trkpt lat="59.306763" lon="18.077282">
        <ele>27</ele>
        <time>2020-01-29T16:48:45Z</time>
      </trkpt>
      <trkpt lat="59.306833" lon="18.077249">
        <ele>27</ele>
        <time>2020-01-29T16:48:46Z</time>
      </trkpt>
      <trkpt lat="59.306901" lon="18.077215">
        <ele>27</ele>
        <time>2020-01-29T16:48:47Z</time>
      </trkpt>
      <trkpt lat="59.306966" lon="18.077178">
        <ele>0</ele>
        <time>2020-01-29T16:48:47Z</time>
      </trkpt>
      <trkpt lat="59.307028" lon="18.077143">
        <ele>27</ele>
        <time>2020-01-29T16:48:48Z</time>
      </trkpt>
      <trkpt lat="59.307085" lon="18.077111">
        <ele>0</ele>
        <time>2020-01-29T16:48:49Z</time>
      </trkpt>
      <trkpt lat="59.307137" lon="18.07708">
        <ele>27</ele>
        <time>2020-01-29T16:48:50Z</time>
      </trkpt>
      <trkpt lat="59.307183" lon="18.077047">
        <ele>27</ele>
        <time>2020-01-29T16:48:52Z</time>
      </trkpt>
      <trkpt lat="59.307226" lon="18.077015">
        <ele>27</ele>
        <time>2020-01-29T16:48:53Z</time>
      </trkpt>
      <trkpt lat="59.307265" lon="18.076984">
        <ele>27</ele>
        <time>2020-01-29T16:48:54Z</time>
      </trkpt>
      <trkpt lat="59.307302" lon="18.076957">
        <ele>27</ele>
        <time>2020-01-29T16:48:55Z</time>
      </trkpt>
      <trkpt lat="59.307337" lon="18.076934">
        <ele>27</ele>
        <time>2020-01-29T16:48:56Z</time>
      </trkpt>
      <trkpt lat="59.307369" lon="18.076912">
        <ele>27</ele>
        <time>2020-01-29T16:48:57Z</time>
      </trkpt>
      <trkpt lat="59.307398" lon="18.076891">
        <ele>27</ele>
        <time>2020-01-29T16:48:58Z</time>
      </trkpt>
      <trkpt lat="59.307426" lon="18.076875">
        <ele>27</ele>
        <time>2020-01-29T16:48:59Z</time>
      </trkpt>
      <trkpt lat="59.307454" lon="18.076865">
        <ele>27</ele>
        <time>2020-01-29T16:49:00Z</time>
      </trkpt>
      <trkpt lat="59.307477" lon="18.076856">
        <ele>27</ele>
        <time>2020-01-29T16:49:01Z</time>
      </trkpt>
      <trkpt lat="59.307503" lon="18.076834">
        <ele>27</ele>
        <time>2020-01-29T16:49:03Z</time>
      </trkpt>
      <trkpt lat="59.307524" lon="18.07681">
        <ele>27</ele>
        <time>2020-01-29T16:49:06Z</time>
      </trkpt>
      <trkpt lat="59.30754" lon="18.07679">
        <ele>28</ele>
        <time>2020-01-29T16:49:10Z</time>
      </trkpt>
      <trkpt lat="59.307541" lon="18.076783">
        <ele>0</ele>
        <time>2020-01-29T16:49:14Z</time>
      </trkpt>
      <trkpt lat="59.307607" lon="18.076731">
        <ele>28</ele>
        <time>2020-01-29T16:49:37Z</time>
      </trkpt>
      <trkpt lat="59.307652" lon="18.076714">
        <ele>0</ele>
        <time>2020-01-29T16:49:38Z</time>
      </trkpt>
      <trkpt lat="59.307699" lon="18.076686">
        <ele>28</ele>
        <time>2020-01-29T16:49:39Z</time>
      </trkpt>
      <trkpt lat="59.30775" lon="18.076648">
        <ele>29</ele>
        <time>2020-01-29T16:49:41Z</time>
      </trkpt>
      <trkpt lat="59.307805" lon="18.076596">
        <ele>30</ele>
        <time>2020-01-29T16:49:42Z</time>
      </trkpt>
      <trkpt lat="59.307861" lon="18.076555">
        <ele>30</ele>
        <time>2020-01-29T16:49:43Z</time>
      </trkpt>
      <trkpt lat="59.307918" lon="18.07652">
        <ele>30</ele>
        <time>2020-01-29T16:49:44Z</time>
      </trkpt>
      <trkpt lat="59.307971" lon="18.07649">
        <ele>30</ele>
        <time>2020-01-29T16:49:45Z</time>
      </trkpt>
      <trkpt lat="59.308023" lon="18.07646">
        <ele>31</ele>
        <time>2020-01-29T16:49:46Z</time>
      </trkpt>
      <trkpt lat="59.308077" lon="18.076424">
        <ele>31</ele>
        <time>2020-01-29T16:49:47Z</time>
      </trkpt>
      <trkpt lat="59.308128" lon="18.07639">
        <ele>0</ele>
        <time>2020-01-29T16:49:47Z</time>
      </trkpt>
      <trkpt lat="59.308177" lon="18.07636">
        <ele>31</ele>
        <time>2020-01-29T16:49:48Z</time>
      </trkpt>
      <trkpt lat="59.308227" lon="18.076327">
        <ele>31</ele>
        <time>2020-01-29T16:49:50Z</time>
      </trkpt>
      <trkpt lat="59.308278" lon="18.076294">
        <ele>32</ele>
        <time>2020-01-29T16:49:51Z</time>
      </trkpt>
      <trkpt lat="59.308332" lon="18.076268">
        <ele>32</ele>
        <time>2020-01-29T16:49:52Z</time>
      </trkpt>
      <trkpt lat="59.308388" lon="18.076244">
        <ele>32</ele>
        <time>2020-01-29T16:49:53Z</time>
      </trkpt>
      <trkpt lat="59.308441" lon="18.07621">
        <ele>33</ele>
        <time>2020-01-29T16:49:54Z</time>
      </trkpt>
      <trkpt lat="59.308499" lon="18.076184">
        <ele>33</ele>
        <time>2020-01-29T16:49:55Z</time>
      </trkpt>
      <trkpt lat="59.308557" lon="18.076148">
        <ele>0</ele>
        <time>2020-01-29T16:49:55Z</time>
      </trkpt>
      <trkpt lat="59.308613" lon="18.076122">
        <ele>33</ele>
        <time>2020-01-29T16:49:56Z</time>
      </trkpt>
      <trkpt lat="59.308666" lon="18.076064">
        <ele>33</ele>
        <time>2020-01-29T16:49:57Z</time>
      </trkpt>
      <trkpt lat="59.308775" lon="18.07594">
        <ele>34</ele>
        <time>2020-01-29T16:50:00Z</time>
      </trkpt>
      <trkpt lat="59.308832" lon="18.075886">
        <ele>33</ele>
        <time>2020-01-29T16:50:01Z</time>
      </trkpt>
      <trkpt lat="59.30895" lon="18.075755">
        <ele>34</ele>
        <time>2020-01-29T16:50:03Z</time>
      </trkpt>
      <trkpt lat="59.309072" lon="18.075639">
        <ele>34</ele>
        <time>2020-01-29T16:50:04Z</time>
      </trkpt>
      <trkpt lat="59.309132" lon="18.075597">
        <ele>34</ele>
        <time>2020-01-29T16:50:06Z</time>
      </trkpt>
      <trkpt lat="59.30919" lon="18.075566">
        <ele>35</ele>
        <time>2020-01-29T16:50:07Z</time>
      </trkpt>
      <trkpt lat="59.309249" lon="18.075534">
        <ele>35</ele>
        <time>2020-01-29T16:50:08Z</time>
      </trkpt>
      <trkpt lat="59.3094" lon="18.075519">
        <ele>36</ele>
        <time>2020-01-29T16:50:10Z</time>
      </trkpt>
      <trkpt lat="59.309463" lon="18.075516">
        <ele>36</ele>
        <time>2020-01-29T16:50:11Z</time>
      </trkpt>
      <trkpt lat="59.309574" lon="18.075459">
        <ele>36</ele>
        <time>2020-01-29T16:50:12Z</time>
      </trkpt>
      <trkpt lat="59.309696" lon="18.07537">
        <ele>0</ele>
        <time>2020-01-29T16:50:14Z</time>
      </trkpt>
      <trkpt lat="59.309827" lon="18.075291">
        <ele>37</ele>
        <time>2020-01-29T16:50:17Z</time>
      </trkpt>
      <trkpt lat="59.309889" lon="18.075248">
        <ele>37</ele>
        <time>2020-01-29T16:50:18Z</time>
      </trkpt>
      <trkpt lat="59.309949" lon="18.075207">
        <ele>37</ele>
        <time>2020-01-29T16:50:19Z</time>
      </trkpt>
      <trkpt lat="59.31001" lon="18.075172">
        <ele>0</ele>
        <time>2020-01-29T16:50:19Z</time>
      </trkpt>
      <trkpt lat="59.310072" lon="18.07514">
        <ele>37</ele>
        <time>2020-01-29T16:50:20Z</time>
      </trkpt>
      <trkpt lat="59.310135" lon="18.07511">
        <ele>37</ele>
        <time>2020-01-29T16:50:22Z</time>
      </trkpt>
      <trkpt lat="59.310202" lon="18.075082">
        <ele>37</ele>
        <time>2020-01-29T16:50:23Z</time>
      </trkpt>
      <trkpt lat="59.310266" lon="18.075054">
        <ele>38</ele>
        <time>2020-01-29T16:50:24Z</time>
      </trkpt>
      <trkpt lat="59.310334" lon="18.075022">
        <ele>38</ele>
        <time>2020-01-29T16:50:25Z</time>
      </trkpt>
      <trkpt lat="59.310402" lon="18.074997">
        <ele>38</ele>
        <time>2020-01-29T16:50:26Z</time>
      </trkpt>
      <trkpt lat="59.310474" lon="18.074987">
        <ele>0</ele>
        <time>2020-01-29T16:50:26Z</time>
      </trkpt>
      <trkpt lat="59.310544" lon="18.074979">
        <ele>38</ele>
        <time>2020-01-29T16:50:27Z</time>
      </trkpt>
      <trkpt lat="59.31061" lon="18.074968">
        <ele>38</ele>
        <time>2020-01-29T16:50:29Z</time>
      </trkpt>
      <trkpt lat="59.310671" lon="18.074933">
        <ele>39</ele>
        <time>2020-01-29T16:50:30Z</time>
      </trkpt>
      <trkpt lat="59.31073" lon="18.07489">
        <ele>39</ele>
        <time>2020-01-29T16:50:31Z</time>
      </trkpt>
      <trkpt lat="59.310789" lon="18.074852">
        <ele>40</ele>
        <time>2020-01-29T16:50:32Z</time>
      </trkpt>
      <trkpt lat="59.310846" lon="18.074812">
        <ele>40</ele>
        <time>2020-01-29T16:50:33Z</time>
      </trkpt>
      <trkpt lat="59.310903" lon="18.074774">
        <ele>40</ele>
        <time>2020-01-29T16:50:34Z</time>
      </trkpt>
      <trkpt lat="59.310959" lon="18.074742">
        <ele>0</ele>
        <time>2020-01-29T16:50:34Z</time>
      </trkpt>
      <trkpt lat="59.311014" lon="18.074713">
        <ele>40</ele>
        <time>2020-01-29T16:50:35Z</time>
      </trkpt>
      <trkpt lat="59.311063" lon="18.07468">
        <ele>40</ele>
        <time>2020-01-29T16:50:37Z</time>
      </trkpt>
      <trkpt lat="59.311111" lon="18.074642">
        <ele>41</ele>
        <time>2020-01-29T16:50:38Z</time>
      </trkpt>
      <trkpt lat="59.311172" lon="18.074612">
        <ele>41</ele>
        <time>2020-01-29T16:50:39Z</time>
      </trkpt>
      <trkpt lat="59.31123" lon="18.074579">
        <ele>41</ele>
        <time>2020-01-29T16:50:40Z</time>
      </trkpt>
      <trkpt lat="59.311288" lon="18.07455">
        <ele>42</ele>
        <time>2020-01-29T16:50:41Z</time>
      </trkpt>
      <trkpt lat="59.311348" lon="18.074521">
        <ele>42</ele>
        <time>2020-01-29T16:50:42Z</time>
      </trkpt>
      <trkpt lat="59.31141" lon="18.074487">
        <ele>0</ele>
        <time>2020-01-29T16:50:42Z</time>
      </trkpt>
      <trkpt lat="59.311471" lon="18.074456">
        <ele>42</ele>
        <time>2020-01-29T16:50:43Z</time>
      </trkpt>
      <trkpt lat="59.311536" lon="18.07444">
        <ele>42</ele>
        <time>2020-01-29T16:50:45Z</time>
      </trkpt>
      <trkpt lat="59.311596" lon="18.074436">
        <ele>41</ele>
        <time>2020-01-29T16:50:46Z</time>
      </trkpt>
      <trkpt lat="59.311654" lon="18.074449">
        <ele>41</ele>
        <time>2020-01-29T16:50:47Z</time>
      </trkpt>
      <trkpt lat="59.311704" lon="18.07443">
        <ele>41</ele>
        <time>2020-01-29T16:50:48Z</time>
      </trkpt>
      <trkpt lat="59.311746" lon="18.074396">
        <ele>42</ele>
        <time>2020-01-29T16:50:49Z</time>
      </trkpt>
      <trkpt lat="59.3118" lon="18.074368">
        <ele>41</ele>
        <time>2020-01-29T16:50:50Z</time>
      </trkpt>
      <trkpt lat="59.31186" lon="18.074332">
        <ele>41</ele>
        <time>2020-01-29T16:50:51Z</time>
      </trkpt>
      <trkpt lat="59.31192" lon="18.074297">
        <ele>0</ele>
        <time>2020-01-29T16:50:51Z</time>
      </trkpt>
      <trkpt lat="59.311981" lon="18.074276">
        <ele>41</ele>
        <time>2020-01-29T16:50:52Z</time>
      </trkpt>
      <trkpt lat="59.31205" lon="18.074271">
        <ele>41</ele>
        <time>2020-01-29T16:50:54Z</time>
      </trkpt>
      <trkpt lat="59.312113" lon="18.074253">
        <ele>41</ele>
        <time>2020-01-29T16:50:55Z</time>
      </trkpt>
      <trkpt lat="59.312169" lon="18.074231">
        <ele>41</ele>
        <time>2020-01-29T16:50:56Z</time>
      </trkpt>
      <trkpt lat="59.312226" lon="18.074206">
        <ele>41</ele>
        <time>2020-01-29T16:50:57Z</time>
      </trkpt>
      <trkpt lat="59.312276" lon="18.07419">
        <ele>41</ele>
        <time>2020-01-29T16:50:58Z</time>
      </trkpt>
      <trkpt lat="59.312318" lon="18.074159">
        <ele>41</ele>
        <time>2020-01-29T16:50:59Z</time>
      </trkpt>
      <trkpt lat="59.312355" lon="18.07413">
        <ele>42</ele>
        <time>2020-01-29T16:51:00Z</time>
      </trkpt>
      <trkpt lat="59.312392" lon="18.074098">
        <ele>42</ele>
        <time>2020-01-29T16:51:01Z</time>
      </trkpt>
      <trkpt lat="59.312424" lon="18.074061">
        <ele>42</ele>
        <time>2020-01-29T16:51:02Z</time>
      </trkpt>
      <trkpt lat="59.312455" lon="18.07404">
        <ele>43</ele>
        <time>2020-01-29T16:51:03Z</time>
      </trkpt>
      <trkpt lat="59.312476" lon="18.074017">
        <ele>43</ele>
        <time>2020-01-29T16:51:04Z</time>
      </trkpt>
      <trkpt lat="59.312502" lon="18.074002">
        <ele>44</ele>
        <time>2020-01-29T16:51:06Z</time>
      </trkpt>
      <trkpt lat="59.312517" lon="18.073957">
        <ele>45</ele>
        <time>2020-01-29T16:51:09Z</time>
      </trkpt>
      <trkpt lat="59.312518" lon="18.073917">
        <ele>46</ele>
        <time>2020-01-29T16:51:11Z</time>
      </trkpt>
      <trkpt lat="59.312517" lon="18.073879">
        <ele>48</ele>
        <time>2020-01-29T16:51:15Z</time>
      </trkpt>
      <trkpt lat="59.312528" lon="18.073849">
        <ele>49</ele>
        <time>2020-01-29T16:51:19Z</time>
      </trkpt>
      <trkpt lat="59.312534" lon="18.073833">
        <ele>0</ele>
        <time>2020-01-29T16:51:21Z</time>
      </trkpt>
      <trkpt lat="59.312596" lon="18.073755">
        <ele>51</ele>
        <time>2020-01-29T16:51:27Z</time>
      </trkpt>
      <trkpt lat="59.312632" lon="18.07373">
        <ele>51</ele>
        <time>2020-01-29T16:51:29Z</time>
      </trkpt>
      <trkpt lat="59.312675" lon="18.073706">
        <ele>51</ele>
        <time>2020-01-29T16:51:30Z</time>
      </trkpt>
      <trkpt lat="59.312731" lon="18.073698">
        <ele>51</ele>
        <time>2020-01-29T16:51:31Z</time>
      </trkpt>
      <trkpt lat="59.312792" lon="18.073693">
        <ele>50</ele>
        <time>2020-01-29T16:51:32Z</time>
      </trkpt>
      <trkpt lat="59.312858" lon="18.073694">
        <ele>50</ele>
        <time>2020-01-29T16:51:33Z</time>
      </trkpt>
      <trkpt lat="59.31292" lon="18.073676">
        <ele>0</ele>
        <time>2020-01-29T16:51:33Z</time>
      </trkpt>
      <trkpt lat="59.312981" lon="18.073656">
        <ele>50</ele>
        <time>2020-01-29T16:51:34Z</time>
      </trkpt>
      <trkpt lat="59.313039" lon="18.073632">
        <ele>50</ele>
        <time>2020-01-29T16:51:36Z</time>
      </trkpt>
      <trkpt lat="59.313097" lon="18.073611">
        <ele>49</ele>
        <time>2020-01-29T16:51:37Z</time>
      </trkpt>
      <trkpt lat="59.313165" lon="18.073607">
        <ele>49</ele>
        <time>2020-01-29T16:51:38Z</time>
      </trkpt>
      <trkpt lat="59.31323" lon="18.073601">
        <ele>49</ele>
        <time>2020-01-29T16:51:39Z</time>
      </trkpt>
      <trkpt lat="59.313284" lon="18.073585">
        <ele>48</ele>
        <time>2020-01-29T16:51:40Z</time>
      </trkpt>
      <trkpt lat="59.313333" lon="18.073566">
        <ele>48</ele>
        <time>2020-01-29T16:51:41Z</time>
      </trkpt>
      <trkpt lat="59.313386" lon="18.073551">
        <ele>0</ele>
        <time>2020-01-29T16:51:41Z</time>
      </trkpt>
      <trkpt lat="59.313434" lon="18.073531">
        <ele>48</ele>
        <time>2020-01-29T16:51:42Z</time>
      </trkpt>
      <trkpt lat="59.31348" lon="18.073518">
        <ele>48</ele>
        <time>2020-01-29T16:51:44Z</time>
      </trkpt>
      <trkpt lat="59.313521" lon="18.0735">
        <ele>48</ele>
        <time>2020-01-29T16:51:45Z</time>
      </trkpt>
      <trkpt lat="59.313558" lon="18.073479">
        <ele>0</ele>
        <time>2020-01-29T16:51:45Z</time>
      </trkpt>
      <trkpt lat="59.313596" lon="18.073465">
        <ele>48</ele>
        <time>2020-01-29T16:51:46Z</time>
      </trkpt>
      <trkpt lat="59.31363" lon="18.073454">
        <ele>48</ele>
        <time>2020-01-29T16:51:48Z</time>
      </trkpt>
      <trkpt lat="59.313659" lon="18.073443">
        <ele>48</ele>
        <time>2020-01-29T16:51:49Z</time>
      </trkpt>
      <trkpt lat="59.313686" lon="18.073437">
        <ele>48</ele>
        <time>2020-01-29T16:51:50Z</time>
      </trkpt>
      <trkpt lat="59.313712" lon="18.073438">
        <ele>48</ele>
        <time>2020-01-29T16:51:51Z</time>
      </trkpt>
      <trkpt lat="59.313736" lon="18.073439">
        <ele>48</ele>
        <time>2020-01-29T16:51:52Z</time>
      </trkpt>
      <trkpt lat="59.313758" lon="18.073439">
        <ele>48</ele>
        <time>2020-01-29T16:51:53Z</time>
      </trkpt>
      <trkpt lat="59.31378" lon="18.073439">
        <ele>48</ele>
        <time>2020-01-29T16:51:54Z</time>
      </trkpt>
      <trkpt lat="59.313798" lon="18.073435">
        <ele>48</ele>
        <time>2020-01-29T16:51:55Z</time>
      </trkpt>
      <trkpt lat="59.313819" lon="18.073408">
        <ele>49</ele>
        <time>2020-01-29T16:51:57Z</time>
      </trkpt>
      <trkpt lat="59.313838" lon="18.073414">
        <ele>50</ele>
        <time>2020-01-29T16:52:00Z</time>
      </trkpt>
      <trkpt lat="59.313857" lon="18.073427">
        <ele>50</ele>
        <time>2020-01-29T16:52:02Z</time>
      </trkpt>
      <trkpt lat="59.313877" lon="18.073447">
        <ele>51</ele>
        <time>2020-01-29T16:52:04Z</time>
      </trkpt>
      <trkpt lat="59.313907" lon="18.073465">
        <ele>50</ele>
        <time>2020-01-29T16:52:05Z</time>
      </trkpt>
      <trkpt lat="59.313935" lon="18.073463">
        <ele>50</ele>
        <time>2020-01-29T16:52:08Z</time>
      </trkpt>
      <trkpt lat="59.31395" lon="18.073435">
        <ele>49</ele>
        <time>2020-01-29T16:52:11Z</time>
      </trkpt>
      <trkpt lat="59.313959" lon="18.073398">
        <ele>48</ele>
        <time>2020-01-29T16:52:13Z</time>
      </trkpt>
      <trkpt lat="59.313973" lon="18.073371">
        <ele>47</ele>
        <time>2020-01-29T16:52:16Z</time>
      </trkpt>
      <trkpt lat="59.313992" lon="18.07336">
        <ele>47</ele>
        <time>2020-01-29T16:52:18Z</time>
      </trkpt>
      <trkpt lat="59.314011" lon="18.073345">
        <ele>47</ele>
        <time>2020-01-29T16:52:19Z</time>
      </trkpt>
      <trkpt lat="59.314036" lon="18.073332">
        <ele>47</ele>
        <time>2020-01-29T16:52:20Z</time>
      </trkpt>
      <trkpt lat="59.314071" lon="18.073323">
        <ele>47</ele>
        <time>2020-01-29T16:52:21Z</time>
      </trkpt>
      <trkpt lat="59.314116" lon="18.073318">
        <ele>47</ele>
        <time>2020-01-29T16:52:22Z</time>
      </trkpt>
      <trkpt lat="59.314165" lon="18.073309">
        <ele>47</ele>
        <time>2020-01-29T16:52:23Z</time>
      </trkpt>
      <trkpt lat="59.314219" lon="18.073302">
        <ele>0</ele>
        <time>2020-01-29T16:52:23Z</time>
      </trkpt>
      <trkpt lat="59.31427" lon="18.073288">
        <ele>47</ele>
        <time>2020-01-29T16:52:24Z</time>
      </trkpt>
      <trkpt lat="59.314318" lon="18.073264">
        <ele>47</ele>
        <time>2020-01-29T16:52:26Z</time>
      </trkpt>
      <trkpt lat="59.314364" lon="18.073246">
        <ele>0</ele>
        <time>2020-01-29T16:52:26Z</time>
      </trkpt>
      <trkpt lat="59.314404" lon="18.073229">
        <ele>47</ele>
        <time>2020-01-29T16:52:27Z</time>
      </trkpt>
      <trkpt lat="59.314439" lon="18.073214">
        <ele>48</ele>
        <time>2020-01-29T16:52:29Z</time>
      </trkpt>
      <trkpt lat="59.314465" lon="18.073186">
        <ele>47</ele>
        <time>2020-01-29T16:52:30Z</time>
      </trkpt>
      <trkpt lat="59.314497" lon="18.073163">
        <ele>47</ele>
        <time>2020-01-29T16:52:31Z</time>
      </trkpt>
      <trkpt lat="59.314521" lon="18.073137">
        <ele>47</ele>
        <time>2020-01-29T16:52:32Z</time>
      </trkpt>
      <trkpt lat="59.314538" lon="18.073107">
        <ele>47</ele>
        <time>2020-01-29T16:52:33Z</time>
      </trkpt>
      <trkpt lat="59.314563" lon="18.073117">
        <ele>47</ele>
        <time>2020-01-29T16:52:34Z</time>
      </trkpt>
      <trkpt lat="59.31459" lon="18.073072">
        <ele>47</ele>
        <time>2020-01-29T16:52:36Z</time>
      </trkpt>
      <trkpt lat="59.314623" lon="18.073044">
        <ele>47</ele>
        <time>2020-01-29T16:52:37Z</time>
      </trkpt>
      <trkpt lat="59.314664" lon="18.073027">
        <ele>47</ele>
        <time>2020-01-29T16:52:38Z</time>
      </trkpt>
      <trkpt lat="59.314704" lon="18.073009">
        <ele>47</ele>
        <time>2020-01-29T16:52:39Z</time>
      </trkpt>
      <trkpt lat="59.314755" lon="18.072997">
        <ele>47</ele>
        <time>2020-01-29T16:52:40Z</time>
      </trkpt>
      <trkpt lat="59.314809" lon="18.072983">
        <ele>0</ele>
        <time>2020-01-29T16:52:40Z</time>
      </trkpt>
      <trkpt lat="59.314867" lon="18.07297">
        <ele>47</ele>
        <time>2020-01-29T16:52:41Z</time>
      </trkpt>
      <trkpt lat="59.314924" lon="18.072954">
        <ele>0</ele>
        <time>2020-01-29T16:52:42Z</time>
      </trkpt>
      <trkpt lat="59.314985" lon="18.072945">
        <ele>47</ele>
        <time>2020-01-29T16:52:43Z</time>
      </trkpt>
      <trkpt lat="59.315046" lon="18.072939">
        <ele>46</ele>
        <time>2020-01-29T16:52:45Z</time>
      </trkpt>
      <trkpt lat="59.315103" lon="18.072923">
        <ele>46</ele>
        <time>2020-01-29T16:52:46Z</time>
      </trkpt>
      <trkpt lat="59.31516" lon="18.072911">
        <ele>46</ele>
        <time>2020-01-29T16:52:47Z</time>
      </trkpt>
      <trkpt lat="59.315218" lon="18.072903">
        <ele>46</ele>
        <time>2020-01-29T16:52:48Z</time>
      </trkpt>
      <trkpt lat="59.315275" lon="18.072895">
        <ele>45</ele>
        <time>2020-01-29T16:52:49Z</time>
      </trkpt>
      <trkpt lat="59.315329" lon="18.072881">
        <ele>0</ele>
        <time>2020-01-29T16:52:49Z</time>
      </trkpt>
      <trkpt lat="59.315379" lon="18.072862">
        <ele>45</ele>
        <time>2020-01-29T16:52:50Z</time>
      </trkpt>
      <trkpt lat="59.31543" lon="18.072835">
        <ele>44</ele>
        <time>2020-01-29T16:52:52Z</time>
      </trkpt>
      <trkpt lat="59.315483" lon="18.07281">
        <ele>43</ele>
        <time>2020-01-29T16:52:53Z</time>
      </trkpt>
      <trkpt lat="59.315536" lon="18.072784">
        <ele>43</ele>
        <time>2020-01-29T16:52:54Z</time>
      </trkpt>
      <trkpt lat="59.315583" lon="18.072742">
        <ele>43</ele>
        <time>2020-01-29T16:52:55Z</time>
      </trkpt>
      <trkpt lat="59.315624" lon="18.072693">
        <ele>42</ele>
        <time>2020-01-29T16:52:56Z</time>
      </trkpt>
      <trkpt lat="59.31566" lon="18.072631">
        <ele>42</ele>
        <time>2020-01-29T16:52:57Z</time>
      </trkpt>
      <trkpt lat="59.315696" lon="18.072565">
        <ele>42</ele>
        <time>2020-01-29T16:52:58Z</time>
      </trkpt>
      <trkpt lat="59.315732" lon="18.072514">
        <ele>42</ele>
        <time>2020-01-29T16:52:59Z</time>
      </trkpt>
      <trkpt lat="59.315771" lon="18.072476">
        <ele>0</ele>
        <time>2020-01-29T16:52:59Z</time>
      </trkpt>
      <trkpt lat="59.315812" lon="18.072443">
        <ele>41</ele>
        <time>2020-01-29T16:53:00Z</time>
      </trkpt>
      <trkpt lat="59.315854" lon="18.072413">
        <ele>41</ele>
        <time>2020-01-29T16:53:01Z</time>
      </trkpt>
      <trkpt lat="59.315947" lon="18.072368">
        <ele>41</ele>
        <time>2020-01-29T16:53:04Z</time>
      </trkpt>
      <trkpt lat="59.316001" lon="18.072347">
        <ele>41</ele>
        <time>2020-01-29T16:53:05Z</time>
      </trkpt>
      <trkpt lat="59.316054" lon="18.072327">
        <ele>41</ele>
        <time>2020-01-29T16:53:06Z</time>
      </trkpt>
      <trkpt lat="59.316107" lon="18.072315">
        <ele>42</ele>
        <time>2020-01-29T16:53:07Z</time>
      </trkpt>
      <trkpt lat="59.316158" lon="18.072301">
        <ele>41</ele>
        <time>2020-01-29T16:53:08Z</time>
      </trkpt>
      <trkpt lat="59.316264" lon="18.072272">
        <ele>41</ele>
        <time>2020-01-29T16:53:10Z</time>
      </trkpt>
      <trkpt lat="59.316364" lon="18.072248">
        <ele>41</ele>
        <time>2020-01-29T16:53:11Z</time>
      </trkpt>
      <trkpt lat="59.316444" lon="18.072213">
        <ele>41</ele>
        <time>2020-01-29T16:53:14Z</time>
      </trkpt>
      <trkpt lat="59.316479" lon="18.072208">
        <ele>41</ele>
        <time>2020-01-29T16:53:15Z</time>
      </trkpt>
      <trkpt lat="59.316503" lon="18.072204">
        <ele>41</ele>
        <time>2020-01-29T16:53:16Z</time>
      </trkpt>
      <trkpt lat="59.316521" lon="18.072193">
        <ele>41</ele>
        <time>2020-01-29T16:53:17Z</time>
      </trkpt>
      <trkpt lat="59.316533" lon="18.072165">
        <ele>41</ele>
        <time>2020-01-29T16:53:18Z</time>
      </trkpt>
      <trkpt lat="59.316561" lon="18.072127">
        <ele>41</ele>
        <time>2020-01-29T16:53:20Z</time>
      </trkpt>
      <trkpt lat="59.316581" lon="18.072111">
        <ele>0</ele>
        <time>2020-01-29T16:53:20Z</time>
      </trkpt>
      <trkpt lat="59.316609" lon="18.072093">
        <ele>41</ele>
        <time>2020-01-29T16:53:21Z</time>
      </trkpt>
      <trkpt lat="59.316644" lon="18.072061">
        <ele>41</ele>
        <time>2020-01-29T16:53:23Z</time>
      </trkpt>
      <trkpt lat="59.31668" lon="18.072027">
        <ele>41</ele>
        <time>2020-01-29T16:53:24Z</time>
      </trkpt>
      <trkpt lat="59.316728" lon="18.071992">
        <ele>0</ele>
        <time>2020-01-29T16:53:24Z</time>
      </trkpt>
      <trkpt lat="59.31678" lon="18.071953">
        <ele>41</ele>
        <time>2020-01-29T16:53:25Z</time>
      </trkpt>
      <trkpt lat="59.31683" lon="18.071918">
        <ele>42</ele>
        <time>2020-01-29T16:53:27Z</time>
      </trkpt>
      <trkpt lat="59.316874" lon="18.071883">
        <ele>42</ele>
        <time>2020-01-29T16:53:28Z</time>
      </trkpt>
      <trkpt lat="59.316917" lon="18.071851">
        <ele>42</ele>
        <time>2020-01-29T16:53:29Z</time>
      </trkpt>
      <trkpt lat="59.31696" lon="18.071823">
        <ele>42</ele>
        <time>2020-01-29T16:53:30Z</time>
      </trkpt>
      <trkpt lat="59.316998" lon="18.071789">
        <ele>42</ele>
        <time>2020-01-29T16:53:31Z</time>
      </trkpt>
      <trkpt lat="59.317042" lon="18.071772">
        <ele>42</ele>
        <time>2020-01-29T16:53:32Z</time>
      </trkpt>
      <trkpt lat="59.317141" lon="18.071736">
        <ele>42</ele>
        <time>2020-01-29T16:53:34Z</time>
      </trkpt>
      <trkpt lat="59.317234" lon="18.071694">
        <ele>42</ele>
        <time>2020-01-29T16:53:35Z</time>
      </trkpt>
      <trkpt lat="59.317331" lon="18.07165">
        <ele>42</ele>
        <time>2020-01-29T16:53:38Z</time>
      </trkpt>
      <trkpt lat="59.317423" lon="18.071594">
        <ele>0</ele>
        <time>2020-01-29T16:53:39Z</time>
      </trkpt>
      <trkpt lat="59.317517" lon="18.071549">
        <ele>43</ele>
        <time>2020-01-29T16:53:42Z</time>
      </trkpt>
      <trkpt lat="59.317607" lon="18.07151">
        <ele>43</ele>
        <time>2020-01-29T16:53:44Z</time>
      </trkpt>
      <trkpt lat="59.317699" lon="18.071468">
        <ele>43</ele>
        <time>2020-01-29T16:53:45Z</time>
      </trkpt>
      <trkpt lat="59.317795" lon="18.071453">
        <ele>43</ele>
        <time>2020-01-29T16:53:48Z</time>
      </trkpt>
      <trkpt lat="59.317841" lon="18.071442">
        <ele>43</ele>
        <time>2020-01-29T16:53:49Z</time>
      </trkpt>
      <trkpt lat="59.317886" lon="18.071419">
        <ele>43</ele>
        <time>2020-01-29T16:53:50Z</time>
      </trkpt>
      <trkpt lat="59.317928" lon="18.071388">
        <ele>43</ele>
        <time>2020-01-29T16:53:51Z</time>
      </trkpt>
      <trkpt lat="59.317975" lon="18.071371">
        <ele>43</ele>
        <time>2020-01-29T16:53:52Z</time>
      </trkpt>
      <trkpt lat="59.318021" lon="18.071349">
        <ele>43</ele>
        <time>2020-01-29T16:53:53Z</time>
      </trkpt>
      <trkpt lat="59.318071" lon="18.071338">
        <ele>43</ele>
        <time>2020-01-29T16:53:54Z</time>
      </trkpt>
      <trkpt lat="59.318119" lon="18.071319">
        <ele>43</ele>
        <time>2020-01-29T16:53:55Z</time>
      </trkpt>
      <trkpt lat="59.318167" lon="18.071298">
        <ele>0</ele>
        <time>2020-01-29T16:53:55Z</time>
      </trkpt>
      <trkpt lat="59.318217" lon="18.071279">
        <ele>43</ele>
        <time>2020-01-29T16:53:56Z</time>
      </trkpt>
      <trkpt lat="59.318266" lon="18.071251">
        <ele>43</ele>
        <time>2020-01-29T16:53:58Z</time>
      </trkpt>
      <trkpt lat="59.318319" lon="18.071228">
        <ele>0</ele>
        <time>2020-01-29T16:53:58Z</time>
      </trkpt>
      <trkpt lat="59.318373" lon="18.071205">
        <ele>44</ele>
        <time>2020-01-29T16:53:59Z</time>
      </trkpt>
      <trkpt lat="59.318426" lon="18.071179">
        <ele>43</ele>
        <time>2020-01-29T16:54:01Z</time>
      </trkpt>
      <trkpt lat="59.31849" lon="18.071147">
        <ele>43</ele>
        <time>2020-01-29T16:54:02Z</time>
      </trkpt>
      <trkpt lat="59.318614" lon="18.071042">
        <ele>0</ele>
        <time>2020-01-29T16:54:03Z</time>
      </trkpt>
      <trkpt lat="59.31868" lon="18.071009">
        <ele>42</ele>
        <time>2020-01-29T16:54:04Z</time>
      </trkpt>
      <trkpt lat="59.31875" lon="18.070974">
        <ele>42</ele>
        <time>2020-01-29T16:54:06Z</time>
      </trkpt>
      <trkpt lat="59.318824" lon="18.070944">
        <ele>42</ele>
        <time>2020-01-29T16:54:07Z</time>
      </trkpt>
      <trkpt lat="59.318906" lon="18.070922">
        <ele>41</ele>
        <time>2020-01-29T16:54:08Z</time>
      </trkpt>
      <trkpt lat="59.318991" lon="18.070891">
        <ele>41</ele>
        <time>2020-01-29T16:54:09Z</time>
      </trkpt>
      <trkpt lat="59.319076" lon="18.070848">
        <ele>0</ele>
        <time>2020-01-29T16:54:09Z</time>
      </trkpt>
      <trkpt lat="59.319159" lon="18.070803">
        <ele>41</ele>
        <time>2020-01-29T16:54:10Z</time>
      </trkpt>
      <trkpt lat="59.319247" lon="18.070763">
        <ele>40</ele>
        <time>2020-01-29T16:54:12Z</time>
      </trkpt>
      <trkpt lat="59.31934" lon="18.070726">
        <ele>40</ele>
        <time>2020-01-29T16:54:13Z</time>
      </trkpt>
      <trkpt lat="59.319503" lon="18.070641">
        <ele>40</ele>
        <time>2020-01-29T16:54:15Z</time>
      </trkpt>
      <trkpt lat="59.319576" lon="18.070607">
        <ele>39</ele>
        <time>2020-01-29T16:54:16Z</time>
      </trkpt>
      <trkpt lat="59.319642" lon="18.07057">
        <ele>0</ele>
        <time>2020-01-29T16:54:16Z</time>
      </trkpt>
      <trkpt lat="59.319701" lon="18.07054">
        <ele>39</ele>
        <time>2020-01-29T16:54:17Z</time>
      </trkpt>
      <trkpt lat="59.319761" lon="18.070485">
        <ele>38</ele>
        <time>2020-01-29T16:54:18Z</time>
      </trkpt>
      <trkpt lat="59.319818" lon="18.070448">
        <ele>36</ele>
        <time>2020-01-29T16:54:20Z</time>
      </trkpt>
      <trkpt lat="59.319877" lon="18.070461">
        <ele>35</ele>
        <time>2020-01-29T16:54:21Z</time>
      </trkpt>
      <trkpt lat="59.319929" lon="18.070534">
        <ele>34</ele>
        <time>2020-01-29T16:54:22Z</time>
      </trkpt>
      <trkpt lat="59.319973" lon="18.070613">
        <ele>33</ele>
        <time>2020-01-29T16:54:23Z</time>
      </trkpt>
      <trkpt lat="59.320022" lon="18.070688">
        <ele>33</ele>
        <time>2020-01-29T16:54:24Z</time>
      </trkpt>
      <trkpt lat="59.320075" lon="18.070748">
        <ele>0</ele>
        <time>2020-01-29T16:54:24Z</time>
      </trkpt>
      <trkpt lat="59.320138" lon="18.070799">
        <ele>32</ele>
        <time>2020-01-29T16:54:25Z</time>
      </trkpt>
      <trkpt lat="59.320206" lon="18.070852">
        <ele>30</ele>
        <time>2020-01-29T16:54:27Z</time>
      </trkpt>
      <trkpt lat="59.320275" lon="18.070912">
        <ele>29</ele>
        <time>2020-01-29T16:54:28Z</time>
      </trkpt>
      <trkpt lat="59.320344" lon="18.070978">
        <ele>28</ele>
        <time>2020-01-29T16:54:29Z</time>
      </trkpt>
      <trkpt lat="59.320412" lon="18.071043">
        <ele>27</ele>
        <time>2020-01-29T16:54:30Z</time>
      </trkpt>
      <trkpt lat="59.320481" lon="18.071108">
        <ele>0</ele>
        <time>2020-01-29T16:54:30Z</time>
      </trkpt>
      <trkpt lat="59.320549" lon="18.07117">
        <ele>27</ele>
        <time>2020-01-29T16:54:31Z</time>
      </trkpt>
      <trkpt lat="59.320619" lon="18.071223">
        <ele>25</ele>
        <time>2020-01-29T16:54:33Z</time>
      </trkpt>
      <trkpt lat="59.320689" lon="18.071272">
        <ele>25</ele>
        <time>2020-01-29T16:54:34Z</time>
      </trkpt>
      <trkpt lat="59.320752" lon="18.07133">
        <ele>24</ele>
        <time>2020-01-29T16:54:35Z</time>
      </trkpt>
      <trkpt lat="59.32081" lon="18.071412">
        <ele>23</ele>
        <time>2020-01-29T16:54:36Z</time>
      </trkpt>
      <trkpt lat="59.320864" lon="18.071513">
        <ele>0</ele>
        <time>2020-01-29T16:54:36Z</time>
      </trkpt>
      <trkpt lat="59.320909" lon="18.071634">
        <ele>22</ele>
        <time>2020-01-29T16:54:37Z</time>
      </trkpt>
      <trkpt lat="59.320948" lon="18.071768">
        <ele>22</ele>
        <time>2020-01-29T16:54:38Z</time>
      </trkpt>
      <trkpt lat="59.32099" lon="18.071903">
        <ele>20</ele>
        <time>2020-01-29T16:54:40Z</time>
      </trkpt>
      <trkpt lat="59.321045" lon="18.072022">
        <ele>20</ele>
        <time>2020-01-29T16:54:41Z</time>
      </trkpt>
      <trkpt lat="59.321109" lon="18.072119">
        <ele>19</ele>
        <time>2020-01-29T16:54:42Z</time>
      </trkpt>
      <trkpt lat="59.32118" lon="18.072196">
        <ele>19</ele>
        <time>2020-01-29T16:54:43Z</time>
      </trkpt>
      <trkpt lat="59.321253" lon="18.072259">
        <ele>0</ele>
        <time>2020-01-29T16:54:43Z</time>
      </trkpt>
      <trkpt lat="59.321325" lon="18.072317">
        <ele>18</ele>
        <time>2020-01-29T16:54:44Z</time>
      </trkpt>
      <trkpt lat="59.321397" lon="18.072372">
        <ele>17</ele>
        <time>2020-01-29T16:54:46Z</time>
      </trkpt>
      <trkpt lat="59.321467" lon="18.072425">
        <ele>16</ele>
        <time>2020-01-29T16:54:47Z</time>
      </trkpt>
      <trkpt lat="59.321538" lon="18.072477">
        <ele>15</ele>
        <time>2020-01-29T16:54:48Z</time>
      </trkpt>
      <trkpt lat="59.321608" lon="18.072529">
        <ele>15</ele>
        <time>2020-01-29T16:54:49Z</time>
      </trkpt>
      <trkpt lat="59.321677" lon="18.07258">
        <ele>14</ele>
        <time>2020-01-29T16:54:50Z</time>
      </trkpt>
      <trkpt lat="59.321743" lon="18.072627">
        <ele>0</ele>
        <time>2020-01-29T16:54:50Z</time>
      </trkpt>
      <trkpt lat="59.321807" lon="18.072666">
        <ele>14</ele>
        <time>2020-01-29T16:54:51Z</time>
      </trkpt>
      <trkpt lat="59.32187" lon="18.0727">
        <ele>13</ele>
        <time>2020-01-29T16:54:53Z</time>
      </trkpt>
      <trkpt lat="59.321927" lon="18.072738">
        <ele>12</ele>
        <time>2020-01-29T16:54:54Z</time>
      </trkpt>
      <trkpt lat="59.321972" lon="18.072799">
        <ele>12</ele>
        <time>2020-01-29T16:54:55Z</time>
      </trkpt>
      <trkpt lat="59.321999" lon="18.072887">
        <ele>0</ele>
        <time>2020-01-29T16:54:55Z</time>
      </trkpt>
      <trkpt lat="59.32201" lon="18.072989">
        <ele>12</ele>
        <time>2020-01-29T16:54:56Z</time>
      </trkpt>
      <trkpt lat="59.322008" lon="18.073092">
        <ele>11</ele>
        <time>2020-01-29T16:54:58Z</time>
      </trkpt>
      <trkpt lat="59.321996" lon="18.073184">
        <ele>11</ele>
        <time>2020-01-29T16:54:59Z</time>
      </trkpt>
      <trkpt lat="59.321983" lon="18.07327">
        <ele>0</ele>
        <time>2020-01-29T16:54:59Z</time>
      </trkpt>
      <trkpt lat="59.321969" lon="18.073346">
        <ele>11</ele>
        <time>2020-01-29T16:55:00Z</time>
      </trkpt>
      <trkpt lat="59.321954" lon="18.073416">
        <ele>11</ele>
        <time>2020-01-29T16:55:02Z</time>
      </trkpt>
      <trkpt lat="59.321936" lon="18.073486">
        <ele>11</ele>
        <time>2020-01-29T16:55:03Z</time>
      </trkpt>
      <trkpt lat="59.321914" lon="18.07356">
        <ele>11</ele>
        <time>2020-01-29T16:55:04Z</time>
      </trkpt>
      <trkpt lat="59.321896" lon="18.073646">
        <ele>11</ele>
        <time>2020-01-29T16:55:05Z</time>
      </trkpt>
      <trkpt lat="59.32189" lon="18.07374">
        <ele>11</ele>
        <time>2020-01-29T16:55:06Z</time>
      </trkpt>
      <trkpt lat="59.321897" lon="18.073839">
        <ele>11</ele>
        <time>2020-01-29T16:55:07Z</time>
      </trkpt>
      <trkpt lat="59.321912" lon="18.073922">
        <ele>11</ele>
        <time>2020-01-29T16:55:08Z</time>
      </trkpt>
      <trkpt lat="59.321937" lon="18.074">
        <ele>11</ele>
        <time>2020-01-29T16:55:09Z</time>
      </trkpt>
      <trkpt lat="59.321975" lon="18.074074">
        <ele>11</ele>
        <time>2020-01-29T16:55:10Z</time>
      </trkpt>
      <trkpt lat="59.322025" lon="18.074146">
        <ele>0</ele>
        <time>2020-01-29T16:55:10Z</time>
      </trkpt>
      <trkpt lat="59.32208" lon="18.074208">
        <ele>10</ele>
        <time>2020-01-29T16:55:11Z</time>
      </trkpt>
      <trkpt lat="59.322139" lon="18.074267">
        <ele>10</ele>
        <time>2020-01-29T16:55:13Z</time>
      </trkpt>
      <trkpt lat="59.322201" lon="18.074319">
        <ele>10</ele>
        <time>2020-01-29T16:55:14Z</time>
      </trkpt>
      <trkpt lat="59.322265" lon="18.074374">
        <ele>10</ele>
        <time>2020-01-29T16:55:15Z</time>
      </trkpt>
      <trkpt lat="59.322328" lon="18.074426">
        <ele>10</ele>
        <time>2020-01-29T16:55:16Z</time>
      </trkpt>
      <trkpt lat="59.322392" lon="18.07448">
        <ele>10</ele>
        <time>2020-01-29T16:55:17Z</time>
      </trkpt>
      <trkpt lat="59.322458" lon="18.074538">
        <ele>0</ele>
        <time>2020-01-29T16:55:17Z</time>
      </trkpt>
      <trkpt lat="59.322521" lon="18.074596">
        <ele>10</ele>
        <time>2020-01-29T16:55:18Z</time>
      </trkpt>
      <trkpt lat="59.322583" lon="18.074664">
        <ele>9</ele>
        <time>2020-01-29T16:55:20Z</time>
      </trkpt>
      <trkpt lat="59.32264" lon="18.07473">
        <ele>8</ele>
        <time>2020-01-29T16:55:21Z</time>
      </trkpt>
      <trkpt lat="59.322692" lon="18.074798">
        <ele>8</ele>
        <time>2020-01-29T16:55:22Z</time>
      </trkpt>
      <trkpt lat="59.322742" lon="18.074854">
        <ele>8</ele>
        <time>2020-01-29T16:55:23Z</time>
      </trkpt>
      <trkpt lat="59.322786" lon="18.074906">
        <ele>8</ele>
        <time>2020-01-29T16:55:24Z</time>
      </trkpt>
      <trkpt lat="59.322823" lon="18.074948">
        <ele>7</ele>
        <time>2020-01-29T16:55:25Z</time>
      </trkpt>
      <trkpt lat="59.322857" lon="18.074986">
        <ele>7</ele>
        <time>2020-01-29T16:55:26Z</time>
      </trkpt>
      <trkpt lat="59.322885" lon="18.075024">
        <ele>7</ele>
        <time>2020-01-29T16:55:27Z</time>
      </trkpt>
      <trkpt lat="59.322917" lon="18.075072">
        <ele>0</ele>
        <time>2020-01-29T16:55:27Z</time>
      </trkpt>
      <trkpt lat="59.322957" lon="18.075117">
        <ele>7</ele>
        <time>2020-01-29T16:55:28Z</time>
      </trkpt>
      <trkpt lat="59.323004" lon="18.075158">
        <ele>7</ele>
        <time>2020-01-29T16:55:30Z</time>
      </trkpt>
      <trkpt lat="59.323055" lon="18.07519">
        <ele>6</ele>
        <time>2020-01-29T16:55:31Z</time>
      </trkpt>
      <trkpt lat="59.323108" lon="18.075216">
        <ele>6</ele>
        <time>2020-01-29T16:55:32Z</time>
      </trkpt>
      <trkpt lat="59.323164" lon="18.075238">
        <ele>6</ele>
        <time>2020-01-29T16:55:33Z</time>
      </trkpt>
      <trkpt lat="59.32322" lon="18.075258">
        <ele>0</ele>
        <time>2020-01-29T16:55:33Z</time>
      </trkpt>
      <trkpt lat="59.323278" lon="18.075278">
        <ele>6</ele>
        <time>2020-01-29T16:55:34Z</time>
      </trkpt>
      <trkpt lat="59.323337" lon="18.075296">
        <ele>0</ele>
        <time>2020-01-29T16:55:35Z</time>
      </trkpt>
      <trkpt lat="59.323398" lon="18.075316">
        <ele>6</ele>
        <time>2020-01-29T16:55:36Z</time>
      </trkpt>
      <trkpt lat="59.323454" lon="18.075338">
        <ele>6</ele>
        <time>2020-01-29T16:55:38Z</time>
      </trkpt>
      <trkpt lat="59.323513" lon="18.075356">
        <ele>6</ele>
        <time>2020-01-29T16:55:39Z</time>
      </trkpt>
      <trkpt lat="59.323576" lon="18.075376">
        <ele>6</ele>
        <time>2020-01-29T16:55:40Z</time>
      </trkpt>
      <trkpt lat="59.323641" lon="18.075399">
        <ele>6</ele>
        <time>2020-01-29T16:55:41Z</time>
      </trkpt>
      <trkpt lat="59.323704" lon="18.075416">
        <ele>7</ele>
        <time>2020-01-29T16:55:42Z</time>
      </trkpt>
      <trkpt lat="59.323767" lon="18.075432">
        <ele>7</ele>
        <time>2020-01-29T16:55:43Z</time>
      </trkpt>
      <trkpt lat="59.323831" lon="18.075454">
        <ele>0</ele>
        <time>2020-01-29T16:55:43Z</time>
      </trkpt>
      <trkpt lat="59.323894" lon="18.07547">
        <ele>7</ele>
        <time>2020-01-29T16:55:44Z</time>
      </trkpt>
      <trkpt lat="59.323953" lon="18.07549">
        <ele>7</ele>
        <time>2020-01-29T16:55:46Z</time>
      </trkpt>
      <trkpt lat="59.324011" lon="18.075514">
        <ele>7</ele>
        <time>2020-01-29T16:55:47Z</time>
      </trkpt>
      <trkpt lat="59.324068" lon="18.075536">
        <ele>7</ele>
        <time>2020-01-29T16:55:48Z</time>
      </trkpt>
      <trkpt lat="59.324122" lon="18.075553">
        <ele>7</ele>
        <time>2020-01-29T16:55:49Z</time>
      </trkpt>
      <trkpt lat="59.324185" lon="18.07557">
        <ele>7</ele>
        <time>2020-01-29T16:55:50Z</time>
      </trkpt>
      <trkpt lat="59.324251" lon="18.075591">
        <ele>7</ele>
        <time>2020-01-29T16:55:51Z</time>
      </trkpt>
      <trkpt lat="59.324316" lon="18.075614">
        <ele>7</ele>
        <time>2020-01-29T16:55:52Z</time>
      </trkpt>
      <trkpt lat="59.324379" lon="18.075632">
        <ele>0</ele>
        <time>2020-01-29T16:55:52Z</time>
      </trkpt>
      <trkpt lat="59.324451" lon="18.075652">
        <ele>7</ele>
        <time>2020-01-29T16:55:53Z</time>
      </trkpt>
      <trkpt lat="59.324514" lon="18.075676">
        <ele>7</ele>
        <time>2020-01-29T16:55:55Z</time>
      </trkpt>
      <trkpt lat="59.324579" lon="18.0757">
        <ele>7</ele>
        <time>2020-01-29T16:55:56Z</time>
      </trkpt>
      <trkpt lat="59.324641" lon="18.07572">
        <ele>7</ele>
        <time>2020-01-29T16:55:57Z</time>
      </trkpt>
      <trkpt lat="59.324702" lon="18.07574">
        <ele>7</ele>
        <time>2020-01-29T16:55:58Z</time>
      </trkpt>
      <trkpt lat="59.324763" lon="18.075762">
        <ele>7</ele>
        <time>2020-01-29T16:55:59Z</time>
      </trkpt>
      <trkpt lat="59.324823" lon="18.075781">
        <ele>0</ele>
        <time>2020-01-29T16:55:59Z</time>
      </trkpt>
      <trkpt lat="59.324882" lon="18.07579">
        <ele>7</ele>
        <time>2020-01-29T16:56:00Z</time>
      </trkpt>
      <trkpt lat="59.324939" lon="18.075795">
        <ele>7</ele>
        <time>2020-01-29T16:56:02Z</time>
      </trkpt>
      <trkpt lat="59.324998" lon="18.075804">
        <ele>6</ele>
        <time>2020-01-29T16:56:03Z</time>
      </trkpt>
      <trkpt lat="59.325056" lon="18.075815">
        <ele>6</ele>
        <time>2020-01-29T16:56:04Z</time>
      </trkpt>
      <trkpt lat="59.325116" lon="18.075818">
        <ele>6</ele>
        <time>2020-01-29T16:56:05Z</time>
      </trkpt>
      <trkpt lat="59.325173" lon="18.075814">
        <ele>6</ele>
        <time>2020-01-29T16:56:06Z</time>
      </trkpt>
      <trkpt lat="59.325235" lon="18.075798">
        <ele>7</ele>
        <time>2020-01-29T16:56:07Z</time>
      </trkpt>
      <trkpt lat="59.325294" lon="18.07578">
        <ele>7</ele>
        <time>2020-01-29T16:56:08Z</time>
      </trkpt>
      <trkpt lat="59.325353" lon="18.075763">
        <ele>7</ele>
        <time>2020-01-29T16:56:09Z</time>
      </trkpt>
      <trkpt lat="59.325413" lon="18.07575">
        <ele>7</ele>
        <time>2020-01-29T16:56:10Z</time>
      </trkpt>
      <trkpt lat="59.325473" lon="18.075737">
        <ele>7</ele>
        <time>2020-01-29T16:56:11Z</time>
      </trkpt>
      <trkpt lat="59.325533" lon="18.07573">
        <ele>0</ele>
        <time>2020-01-29T16:56:11Z</time>
      </trkpt>
      <trkpt lat="59.325594" lon="18.075715">
        <ele>7</ele>
        <time>2020-01-29T16:56:12Z</time>
      </trkpt>
      <trkpt lat="59.325651" lon="18.075699">
        <ele>7</ele>
        <time>2020-01-29T16:56:14Z</time>
      </trkpt>
      <trkpt lat="59.325709" lon="18.07568">
        <ele>7</ele>
        <time>2020-01-29T16:56:15Z</time>
      </trkpt>
      <trkpt lat="59.325765" lon="18.07566">
        <ele>8</ele>
        <time>2020-01-29T16:56:16Z</time>
      </trkpt>
      <trkpt lat="59.325822" lon="18.075632">
        <ele>0</ele>
        <time>2020-01-29T16:56:16Z</time>
      </trkpt>
      <trkpt lat="59.32588" lon="18.075597">
        <ele>8</ele>
        <time>2020-01-29T16:56:17Z</time>
      </trkpt>
      <trkpt lat="59.325934" lon="18.075556">
        <ele>8</ele>
        <time>2020-01-29T16:56:19Z</time>
      </trkpt>
      <trkpt lat="59.325987" lon="18.075509">
        <ele>8</ele>
        <time>2020-01-29T16:56:20Z</time>
      </trkpt>
      <trkpt lat="59.326041" lon="18.075459">
        <ele>8</ele>
        <time>2020-01-29T16:56:21Z</time>
      </trkpt>
      <trkpt lat="59.326092" lon="18.075402">
        <ele>7</ele>
        <time>2020-01-29T16:56:22Z</time>
      </trkpt>
      <trkpt lat="59.326141" lon="18.075339">
        <ele>8</ele>
        <time>2020-01-29T16:56:23Z</time>
      </trkpt>
      <trkpt lat="59.32619" lon="18.075275">
        <ele>8</ele>
        <time>2020-01-29T16:56:24Z</time>
      </trkpt>
      <trkpt lat="59.326238" lon="18.075211">
        <ele>8</ele>
        <time>2020-01-29T16:56:25Z</time>
      </trkpt>
      <trkpt lat="59.326285" lon="18.075146">
        <ele>0</ele>
        <time>2020-01-29T16:56:25Z</time>
      </trkpt>
      <trkpt lat="59.326332" lon="18.075083">
        <ele>8</ele>
        <time>2020-01-29T16:56:26Z</time>
      </trkpt>
      <trkpt lat="59.326376" lon="18.075023">
        <ele>8</ele>
        <time>2020-01-29T16:56:28Z</time>
      </trkpt>
      <trkpt lat="59.32642" lon="18.074966">
        <ele>8</ele>
        <time>2020-01-29T16:56:29Z</time>
      </trkpt>
      <trkpt lat="59.326465" lon="18.074914">
        <ele>8</ele>
        <time>2020-01-29T16:56:30Z</time>
      </trkpt>
      <trkpt lat="59.326511" lon="18.074864">
        <ele>0</ele>
        <time>2020-01-29T16:56:30Z</time>
      </trkpt>
      <trkpt lat="59.326559" lon="18.074819">
        <ele>7</ele>
        <time>2020-01-29T16:56:31Z</time>
      </trkpt>
      <trkpt lat="59.326608" lon="18.074775">
        <ele>7</ele>
        <time>2020-01-29T16:56:33Z</time>
      </trkpt>
      <trkpt lat="59.326655" lon="18.074732">
        <ele>7</ele>
        <time>2020-01-29T16:56:34Z</time>
      </trkpt>
      <trkpt lat="59.326705" lon="18.074688">
        <ele>0</ele>
        <time>2020-01-29T16:56:34Z</time>
      </trkpt>
      <trkpt lat="59.326755" lon="18.074645">
        <ele>7</ele>
        <time>2020-01-29T16:56:35Z</time>
      </trkpt>
      <trkpt lat="59.326804" lon="18.074599">
        <ele>8</ele>
        <time>2020-01-29T16:56:37Z</time>
      </trkpt>
      <trkpt lat="59.326851" lon="18.074545">
        <ele>8</ele>
        <time>2020-01-29T16:56:38Z</time>
      </trkpt>
      <trkpt lat="59.326897" lon="18.074485">
        <ele>8</ele>
        <time>2020-01-29T16:56:39Z</time>
      </trkpt>
      <trkpt lat="59.326942" lon="18.074422">
        <ele>8</ele>
        <time>2020-01-29T16:56:40Z</time>
      </trkpt>
      <trkpt lat="59.326987" lon="18.07436">
        <ele>7</ele>
        <time>2020-01-29T16:56:41Z</time>
      </trkpt>
      <trkpt lat="59.327034" lon="18.074302">
        <ele>7</ele>
        <time>2020-01-29T16:56:42Z</time>
      </trkpt>
      <trkpt lat="59.327083" lon="18.074246">
        <ele>7</ele>
        <time>2020-01-29T16:56:43Z</time>
      </trkpt>
      <trkpt lat="59.327132" lon="18.07419">
        <ele>0</ele>
        <time>2020-01-29T16:56:43Z</time>
      </trkpt>
      <trkpt lat="59.32718" lon="18.074132">
        <ele>7</ele>
        <time>2020-01-29T16:56:44Z</time>
      </trkpt>
      <trkpt lat="59.327228" lon="18.074075">
        <ele>7</ele>
        <time>2020-01-29T16:56:46Z</time>
      </trkpt>
      <trkpt lat="59.327278" lon="18.07402">
        <ele>7</ele>
        <time>2020-01-29T16:56:47Z</time>
      </trkpt>
      <trkpt lat="59.327327" lon="18.073963">
        <ele>7</ele>
        <time>2020-01-29T16:56:48Z</time>
      </trkpt>
      <trkpt lat="59.327376" lon="18.073903">
        <ele>7</ele>
        <time>2020-01-29T16:56:49Z</time>
      </trkpt>
      <trkpt lat="59.327426" lon="18.073843">
        <ele>0</ele>
        <time>2020-01-29T16:56:49Z</time>
      </trkpt>
      <trkpt lat="59.327475" lon="18.073785">
        <ele>7</ele>
        <time>2020-01-29T16:56:50Z</time>
      </trkpt>
      <trkpt lat="59.327523" lon="18.073726">
        <ele>7</ele>
        <time>2020-01-29T16:56:52Z</time>
      </trkpt>
      <trkpt lat="59.327571" lon="18.073668">
        <ele>0</ele>
        <time>2020-01-29T16:56:52Z</time>
      </trkpt>
      <trkpt lat="59.327617" lon="18.073611">
        <ele>7</ele>
        <time>2020-01-29T16:56:53Z</time>
      </trkpt>
      <trkpt lat="59.327664" lon="18.073553">
        <ele>7</ele>
        <time>2020-01-29T16:56:55Z</time>
      </trkpt>
      <trkpt lat="59.327713" lon="18.073496">
        <ele>7</ele>
        <time>2020-01-29T16:56:56Z</time>
      </trkpt>
      <trkpt lat="59.327761" lon="18.07344">
        <ele>7</ele>
        <time>2020-01-29T16:56:57Z</time>
      </trkpt>
      <trkpt lat="59.32781" lon="18.073386">
        <ele>7</ele>
        <time>2020-01-29T16:56:58Z</time>
      </trkpt>
      <trkpt lat="59.327858" lon="18.073332">
        <ele>7</ele>
        <time>2020-01-29T16:56:59Z</time>
      </trkpt>
      <trkpt lat="59.327908" lon="18.073283">
        <ele>7</ele>
        <time>2020-01-29T16:57:00Z</time>
      </trkpt>
      <trkpt lat="59.32796" lon="18.073235">
        <ele>7</ele>
        <time>2020-01-29T16:57:01Z</time>
      </trkpt>
      <trkpt lat="59.328012" lon="18.07319">
        <ele>7</ele>
        <time>2020-01-29T16:57:01Z</time>
      </trkpt>
      <trkpt lat="59.328066" lon="18.073155">
        <ele>7</ele>
        <time>2020-01-29T16:57:02Z</time>
      </trkpt>
      <trkpt lat="59.32812" lon="18.073126">
        <ele>7</ele>
        <time>2020-01-29T16:57:04Z</time>
      </trkpt>
      <trkpt lat="59.328175" lon="18.073104">
        <ele>7</ele>
        <time>2020-01-29T16:57:05Z</time>
      </trkpt>
      <trkpt lat="59.32823" lon="18.073096">
        <ele>7</ele>
        <time>2020-01-29T16:57:06Z</time>
      </trkpt>
      <trkpt lat="59.328285" lon="18.073098">
        <ele>7</ele>
        <time>2020-01-29T16:57:07Z</time>
      </trkpt>
      <trkpt lat="59.32834" lon="18.073108">
        <ele>7</ele>
        <time>2020-01-29T16:57:08Z</time>
      </trkpt>
      <trkpt lat="59.328394" lon="18.07312">
        <ele>0</ele>
        <time>2020-01-29T16:57:08Z</time>
      </trkpt>
      <trkpt lat="59.328448" lon="18.073131">
        <ele>7</ele>
        <time>2020-01-29T16:57:09Z</time>
      </trkpt>
      <trkpt lat="59.328503" lon="18.073143">
        <ele>7</ele>
        <time>2020-01-29T16:57:11Z</time>
      </trkpt>
      <trkpt lat="59.328558" lon="18.073157">
        <ele>7</ele>
        <time>2020-01-29T16:57:12Z</time>
      </trkpt>
      <trkpt lat="59.328612" lon="18.07317">
        <ele>7</ele>
        <time>2020-01-29T16:57:13Z</time>
      </trkpt>
      <trkpt lat="59.328667" lon="18.073184">
        <ele>7</ele>
        <time>2020-01-29T16:57:14Z</time>
      </trkpt>
      <trkpt lat="59.328722" lon="18.073197">
        <ele>7</ele>
        <time>2020-01-29T16:57:15Z</time>
      </trkpt>
      <trkpt lat="59.328777" lon="18.073212">
        <ele>6</ele>
        <time>2020-01-29T16:57:16Z</time>
      </trkpt>
      <trkpt lat="59.328833" lon="18.073228">
        <ele>6</ele>
        <time>2020-01-29T16:57:17Z</time>
      </trkpt>
      <trkpt lat="59.328888" lon="18.073244">
        <ele>6</ele>
        <time>2020-01-29T16:57:18Z</time>
      </trkpt>
      <trkpt lat="59.328945" lon="18.073257">
        <ele>6</ele>
        <time>2020-01-29T16:57:19Z</time>
      </trkpt>
      <trkpt lat="59.329002" lon="18.073271">
        <ele>0</ele>
        <time>2020-01-29T16:57:19Z</time>
      </trkpt>
      <trkpt lat="59.329059" lon="18.073286">
        <ele>6</ele>
        <time>2020-01-29T16:57:20Z</time>
      </trkpt>
      <trkpt lat="59.329116" lon="18.073298">
        <ele>6</ele>
        <time>2020-01-29T16:57:22Z</time>
      </trkpt>
      <trkpt lat="59.329172" lon="18.073311">
        <ele>6</ele>
        <time>2020-01-29T16:57:23Z</time>
      </trkpt>
      <trkpt lat="59.329228" lon="18.073324">
        <ele>6</ele>
        <time>2020-01-29T16:57:24Z</time>
      </trkpt>
      <trkpt lat="59.329283" lon="18.073336">
        <ele>6</ele>
        <time>2020-01-29T16:57:25Z</time>
      </trkpt>
      <trkpt lat="59.329337" lon="18.073349">
        <ele>5</ele>
        <time>2020-01-29T16:57:26Z</time>
      </trkpt>
      <trkpt lat="59.32939" lon="18.073361">
        <ele>5</ele>
        <time>2020-01-29T16:57:27Z</time>
      </trkpt>
      <trkpt lat="59.329442" lon="18.073378">
        <ele>5</ele>
        <time>2020-01-29T16:57:28Z</time>
      </trkpt>
      <trkpt lat="59.329492" lon="18.073409">
        <ele>0</ele>
        <time>2020-01-29T16:57:28Z</time>
      </trkpt>
      <trkpt lat="59.329535" lon="18.073462">
        <ele>5</ele>
        <time>2020-01-29T16:57:29Z</time>
      </trkpt>
      <trkpt lat="59.329569" lon="18.073531">
        <ele>5</ele>
        <time>2020-01-29T16:57:31Z</time>
      </trkpt>
      <trkpt lat="59.329597" lon="18.073611">
        <ele>5</ele>
        <time>2020-01-29T16:57:32Z</time>
      </trkpt>
      <trkpt lat="59.329622" lon="18.073698">
        <ele>5</ele>
        <time>2020-01-29T16:57:33Z</time>
      </trkpt>
      <trkpt lat="59.329644" lon="18.073791">
        <ele>5</ele>
        <time>2020-01-29T16:57:34Z</time>
      </trkpt>
      <trkpt lat="59.329661" lon="18.073888">
        <ele>5</ele>
        <time>2020-01-29T16:57:35Z</time>
      </trkpt>
      <trkpt lat="59.329673" lon="18.073989">
        <ele>5</ele>
        <time>2020-01-29T16:57:36Z</time>
      </trkpt>
      <trkpt lat="59.329684" lon="18.074094">
        <ele>5</ele>
        <time>2020-01-29T16:57:37Z</time>
      </trkpt>
      <trkpt lat="59.329695" lon="18.074203">
        <ele>0</ele>
        <time>2020-01-29T16:57:37Z</time>
      </trkpt>
      <trkpt lat="59.329705" lon="18.07431">
        <ele>5</ele>
        <time>2020-01-29T16:57:38Z</time>
      </trkpt>
      <trkpt lat="59.329715" lon="18.074418">
        <ele>5</ele>
        <time>2020-01-29T16:57:40Z</time>
      </trkpt>
      <trkpt lat="59.329728" lon="18.074522">
        <ele>5</ele>
        <time>2020-01-29T16:57:41Z</time>
      </trkpt>
      <trkpt lat="59.329747" lon="18.074619">
        <ele>6</ele>
        <time>2020-01-29T16:57:42Z</time>
      </trkpt>
      <trkpt lat="59.329777" lon="18.074709">
        <ele>6</ele>
        <time>2020-01-29T16:57:43Z</time>
      </trkpt>
      <trkpt lat="59.329815" lon="18.074785">
        <ele>6</ele>
        <time>2020-01-29T16:57:44Z</time>
      </trkpt>
      <trkpt lat="59.329858" lon="18.074855">
        <ele>6</ele>
        <time>2020-01-29T16:57:45Z</time>
      </trkpt>
      <trkpt lat="59.3299" lon="18.074922">
        <ele>6</ele>
        <time>2020-01-29T16:57:46Z</time>
      </trkpt>
      <trkpt lat="59.329939" lon="18.074986">
        <ele>6</ele>
        <time>2020-01-29T16:57:47Z</time>
      </trkpt>
      <trkpt lat="59.329978" lon="18.075047">
        <ele>0</ele>
        <time>2020-01-29T16:57:47Z</time>
      </trkpt>
      <trkpt lat="59.330015" lon="18.075106">
        <ele>6</ele>
        <time>2020-01-29T16:57:48Z</time>
      </trkpt>
      <trkpt lat="59.330047" lon="18.075166">
        <ele>6</ele>
        <time>2020-01-29T16:57:50Z</time>
      </trkpt>
      <trkpt lat="59.33008" lon="18.075224">
        <ele>6</ele>
        <time>2020-01-29T16:57:51Z</time>
      </trkpt>
      <trkpt lat="59.330111" lon="18.075276">
        <ele>7</ele>
        <time>2020-01-29T16:57:52Z</time>
      </trkpt>
      <trkpt lat="59.330139" lon="18.075315">
        <ele>7</ele>
        <time>2020-01-29T16:57:53Z</time>
      </trkpt>
      <trkpt lat="59.330226" lon="18.075442">
        <ele>8</ele>
        <time>2020-01-29T16:57:56Z</time>
      </trkpt>
      <trkpt lat="59.330326" lon="18.075584">
        <ele>8</ele>
        <time>2020-01-29T16:57:59Z</time>
      </trkpt>
      <trkpt lat="59.330431" lon="18.075701">
        <ele>9</ele>
        <time>2020-01-29T16:58:02Z</time>
      </trkpt>
      <trkpt lat="59.330506" lon="18.075812">
        <ele>9</ele>
        <time>2020-01-29T16:58:04Z</time>
      </trkpt>
      <trkpt lat="59.330578" lon="18.075935">
        <ele>10</ele>
        <time>2020-01-29T16:58:06Z</time>
      </trkpt>
      <trkpt lat="59.330658" lon="18.076035">
        <ele>10</ele>
        <time>2020-01-29T16:58:08Z</time>
      </trkpt>
      <trkpt lat="59.330755" lon="18.07615">
        <ele>10</ele>
        <time>2020-01-29T16:58:10Z</time>
      </trkpt>
      <trkpt lat="59.330873" lon="18.076308">
        <ele>10</ele>
        <time>2020-01-29T16:58:11Z</time>
      </trkpt>
      <trkpt lat="59.330954" lon="18.076413">
        <ele>9</ele>
        <time>2020-01-29T16:58:13Z</time>
      </trkpt>
      <trkpt lat="59.331071" lon="18.076548">
        <ele>9</ele>
        <time>2020-01-29T16:58:15Z</time>
      </trkpt>
      <trkpt lat="59.331139" lon="18.076586">
        <ele>9</ele>
        <time>2020-01-29T16:58:16Z</time>
      </trkpt>
      <trkpt lat="59.331207" lon="18.07659">
        <ele>0</ele>
        <time>2020-01-29T16:58:16Z</time>
      </trkpt>
      <trkpt lat="59.331262" lon="18.076543">
        <ele>8</ele>
        <time>2020-01-29T16:58:17Z</time>
      </trkpt>
      <trkpt lat="59.331312" lon="18.076471">
        <ele>9</ele>
        <time>2020-01-29T16:58:19Z</time>
      </trkpt>
      <trkpt lat="59.33136" lon="18.076396">
        <ele>8</ele>
        <time>2020-01-29T16:58:20Z</time>
      </trkpt>
      <trkpt lat="59.331406" lon="18.076326">
        <ele>8</ele>
        <time>2020-01-29T16:58:21Z</time>
      </trkpt>
      <trkpt lat="59.331454" lon="18.07626">
        <ele>8</ele>
        <time>2020-01-29T16:58:22Z</time>
      </trkpt>
      <trkpt lat="59.331503" lon="18.0762">
        <ele>8</ele>
        <time>2020-01-29T16:58:23Z</time>
      </trkpt>
      <trkpt lat="59.331553" lon="18.076153">
        <ele>8</ele>
        <time>2020-01-29T16:58:24Z</time>
      </trkpt>
      <trkpt lat="59.331603" lon="18.076117">
        <ele>8</ele>
        <time>2020-01-29T16:58:25Z</time>
      </trkpt>
      <trkpt lat="59.331659" lon="18.076098">
        <ele>0</ele>
        <time>2020-01-29T16:58:25Z</time>
      </trkpt>
      <trkpt lat="59.331718" lon="18.076092">
        <ele>8</ele>
        <time>2020-01-29T16:58:26Z</time>
      </trkpt>
      <trkpt lat="59.331774" lon="18.076096">
        <ele>8</ele>
        <time>2020-01-29T16:58:28Z</time>
      </trkpt>
      <trkpt lat="59.331832" lon="18.076109">
        <ele>8</ele>
        <time>2020-01-29T16:58:29Z</time>
      </trkpt>
      <trkpt lat="59.331891" lon="18.076128">
        <ele>8</ele>
        <time>2020-01-29T16:58:30Z</time>
      </trkpt>
      <trkpt lat="59.331948" lon="18.076146">
        <ele>8</ele>
        <time>2020-01-29T16:58:31Z</time>
      </trkpt>
      <trkpt lat="59.332002" lon="18.076167">
        <ele>8</ele>
        <time>2020-01-29T16:58:32Z</time>
      </trkpt>
      <trkpt lat="59.332054" lon="18.076204">
        <ele>7</ele>
        <time>2020-01-29T16:58:33Z</time>
      </trkpt>
      <trkpt lat="59.332102" lon="18.076255">
        <ele>0</ele>
        <time>2020-01-29T16:58:33Z</time>
      </trkpt>
      <trkpt lat="59.332145" lon="18.076312">
        <ele>7</ele>
        <time>2020-01-29T16:58:34Z</time>
      </trkpt>
      <trkpt lat="59.332185" lon="18.076374">
        <ele>7</ele>
        <time>2020-01-29T16:58:36Z</time>
      </trkpt>
      <trkpt lat="59.332221" lon="18.07644">
        <ele>7</ele>
        <time>2020-01-29T16:58:37Z</time>
      </trkpt>
      <trkpt lat="59.332252" lon="18.076505">
        <ele>7</ele>
        <time>2020-01-29T16:58:38Z</time>
      </trkpt>
      <trkpt lat="59.33228" lon="18.076566">
        <ele>7</ele>
        <time>2020-01-29T16:58:39Z</time>
      </trkpt>
      <trkpt lat="59.332304" lon="18.076618">
        <ele>7</ele>
        <time>2020-01-29T16:58:40Z</time>
      </trkpt>
      <trkpt lat="59.332322" lon="18.076665">
        <ele>7</ele>
        <time>2020-01-29T16:58:41Z</time>
      </trkpt>
      <trkpt lat="59.332337" lon="18.076704">
        <ele>7</ele>
        <time>2020-01-29T16:58:42Z</time>
      </trkpt>
      <trkpt lat="59.33235" lon="18.076733">
        <ele>6</ele>
        <time>2020-01-29T16:58:43Z</time>
      </trkpt>
      <trkpt lat="59.332369" lon="18.076779">
        <ele>6</ele>
        <time>2020-01-29T16:58:45Z</time>
      </trkpt>
      <trkpt lat="59.332376" lon="18.076797">
        <ele>0</ele>
        <time>2020-01-29T16:58:50Z</time>
      </trkpt>
      <trkpt lat="59.332434" lon="18.076981">
        <ele>6</ele>
        <time>2020-01-29T16:59:21Z</time>
      </trkpt>
      <trkpt lat="59.332459" lon="18.077057">
        <ele>6</ele>
        <time>2020-01-29T16:59:23Z</time>
      </trkpt>
      <trkpt lat="59.332495" lon="18.077126">
        <ele>6</ele>
        <time>2020-01-29T16:59:24Z</time>
      </trkpt>
      <trkpt lat="59.33254" lon="18.077179">
        <ele>0</ele>
        <time>2020-01-29T16:59:24Z</time>
      </trkpt>
      <trkpt lat="59.332592" lon="18.077219">
        <ele>6</ele>
        <time>2020-01-29T16:59:25Z</time>
      </trkpt>
      <trkpt lat="59.332648" lon="18.077249">
        <ele>6</ele>
        <time>2020-01-29T16:59:27Z</time>
      </trkpt>
      <trkpt lat="59.332703" lon="18.077274">
        <ele>6</ele>
        <time>2020-01-29T16:59:28Z</time>
      </trkpt>
      <trkpt lat="59.332761" lon="18.077304">
        <ele>6</ele>
        <time>2020-01-29T16:59:29Z</time>
      </trkpt>
      <trkpt lat="59.332817" lon="18.077344">
        <ele>6</ele>
        <time>2020-01-29T16:59:30Z</time>
      </trkpt>
      <trkpt lat="59.332868" lon="18.077386">
        <ele>6</ele>
        <time>2020-01-29T16:59:31Z</time>
      </trkpt>
      <trkpt lat="59.332918" lon="18.077424">
        <ele>6</ele>
        <time>2020-01-29T16:59:32Z</time>
      </trkpt>
      <trkpt lat="59.332965" lon="18.077463">
        <ele>6</ele>
        <time>2020-01-29T16:59:33Z</time>
      </trkpt>
      <trkpt lat="59.333007" lon="18.077508">
        <ele>0</ele>
        <time>2020-01-29T16:59:33Z</time>
      </trkpt>
      <trkpt lat="59.333057" lon="18.077547">
        <ele>6</ele>
        <time>2020-01-29T16:59:34Z</time>
      </trkpt>
      <trkpt lat="59.333103" lon="18.077577">
        <ele>7</ele>
        <time>2020-01-29T16:59:36Z</time>
      </trkpt>
      <trkpt lat="59.333157" lon="18.077607">
        <ele>7</ele>
        <time>2020-01-29T16:59:37Z</time>
      </trkpt>
      <trkpt lat="59.333201" lon="18.077628">
        <ele>7</ele>
        <time>2020-01-29T16:59:38Z</time>
      </trkpt>
      <trkpt lat="59.333237" lon="18.077659">
        <ele>7</ele>
        <time>2020-01-29T16:59:39Z</time>
      </trkpt>
      <trkpt lat="59.333277" lon="18.077691">
        <ele>8</ele>
        <time>2020-01-29T16:59:40Z</time>
      </trkpt>
      <trkpt lat="59.333363" lon="18.077752">
        <ele>8</ele>
        <time>2020-01-29T16:59:42Z</time>
      </trkpt>
      <trkpt lat="59.333482" lon="18.077844">
        <ele>8</ele>
        <time>2020-01-29T16:59:45Z</time>
      </trkpt>
      <trkpt lat="59.333606" lon="18.077941">
        <ele>9</ele>
        <time>2020-01-29T16:59:47Z</time>
      </trkpt>
      <trkpt lat="59.333698" lon="18.077988">
        <ele>9</ele>
        <time>2020-01-29T16:59:50Z</time>
      </trkpt>
      <trkpt lat="59.333802" lon="18.078045">
        <ele>9</ele>
        <time>2020-01-29T16:59:52Z</time>
      </trkpt>
      <trkpt lat="59.333929" lon="18.078103">
        <ele>10</ele>
        <time>2020-01-29T16:59:55Z</time>
      </trkpt>
      <trkpt lat="59.334043" lon="18.078199">
        <ele>10</ele>
        <time>2020-01-29T16:59:57Z</time>
      </trkpt>
      <trkpt lat="59.334134" lon="18.078304">
        <ele>11</ele>
        <time>2020-01-29T17:00:01Z</time>
      </trkpt>
      <trkpt lat="59.334224" lon="18.078364">
        <ele>11</ele>
        <time>2020-01-29T17:00:03Z</time>
      </trkpt>
      <trkpt lat="59.334324" lon="18.078426">
        <ele>11</ele>
        <time>2020-01-29T17:00:05Z</time>
      </trkpt>
      <trkpt lat="59.334454" lon="18.078503">
        <ele>11</ele>
        <time>2020-01-29T17:00:06Z</time>
      </trkpt>
      <trkpt lat="59.334557" lon="18.078589">
        <ele>11</ele>
        <time>2020-01-29T17:00:09Z</time>
      </trkpt>
      <trkpt lat="59.334644" lon="18.078631">
        <ele>11</ele>
        <time>2020-01-29T17:00:11Z</time>
      </trkpt>
      <trkpt lat="59.334734" lon="18.078671">
        <ele>11</ele>
        <time>2020-01-29T17:00:13Z</time>
      </trkpt>
      <trkpt lat="59.334824" lon="18.078699">
        <ele>11</ele>
        <time>2020-01-29T17:00:15Z</time>
      </trkpt>
      <trkpt lat="59.334935" lon="18.078778">
        <ele>11</ele>
        <time>2020-01-29T17:00:17Z</time>
      </trkpt>
      <trkpt lat="59.335026" lon="18.078843">
        <ele>11</ele>
        <time>2020-01-29T17:00:20Z</time>
      </trkpt>
      <trkpt lat="59.335131" lon="18.078926">
        <ele>11</ele>
        <time>2020-01-29T17:00:23Z</time>
      </trkpt>
      <trkpt lat="59.335224" lon="18.079023">
        <ele>11</ele>
        <time>2020-01-29T17:00:26Z</time>
      </trkpt>
      <trkpt lat="59.335322" lon="18.079139">
        <ele>12</ele>
        <time>2020-01-29T17:00:30Z</time>
      </trkpt>
      <trkpt lat="59.335424" lon="18.079211">
        <ele>12</ele>
        <time>2020-01-29T17:00:32Z</time>
      </trkpt>
      <trkpt lat="59.335455" lon="18.079271">
        <ele>14</ele>
        <time>2020-01-29T17:00:34Z</time>
      </trkpt>
      <trkpt lat="59.335489" lon="18.079337">
        <ele>15</ele>
        <time>2020-01-29T17:00:35Z</time>
      </trkpt>
      <trkpt lat="59.335528" lon="18.079398">
        <ele>16</ele>
        <time>2020-01-29T17:00:36Z</time>
      </trkpt>
      <trkpt lat="59.335565" lon="18.079456">
        <ele>0</ele>
        <time>2020-01-29T17:00:36Z</time>
      </trkpt>
      <trkpt lat="59.335607" lon="18.079504">
        <ele>17</ele>
        <time>2020-01-29T17:00:37Z</time>
      </trkpt>
      <trkpt lat="59.335648" lon="18.079547">
        <ele>17</ele>
        <time>2020-01-29T17:00:39Z</time>
      </trkpt>
      <trkpt lat="59.335688" lon="18.079588">
        <ele>18</ele>
        <time>2020-01-29T17:00:40Z</time>
      </trkpt>
      <trkpt lat="59.335728" lon="18.079619">
        <ele>18</ele>
        <time>2020-01-29T17:00:41Z</time>
      </trkpt>
      <trkpt lat="59.335768" lon="18.079646">
        <ele>0</ele>
        <time>2020-01-29T17:00:41Z</time>
      </trkpt>
      <trkpt lat="59.33581" lon="18.07968">
        <ele>18</ele>
        <time>2020-01-29T17:00:42Z</time>
      </trkpt>
      <trkpt lat="59.335852" lon="18.079714">
        <ele>19</ele>
        <time>2020-01-29T17:00:44Z</time>
      </trkpt>
      <trkpt lat="59.335891" lon="18.079745">
        <ele>19</ele>
        <time>2020-01-29T17:00:45Z</time>
      </trkpt>
      <trkpt lat="59.335928" lon="18.079774">
        <ele>19</ele>
        <time>2020-01-29T17:00:46Z</time>
      </trkpt>
      <trkpt lat="59.335962" lon="18.0798">
        <ele>19</ele>
        <time>2020-01-29T17:00:47Z</time>
      </trkpt>
      <trkpt lat="59.335998" lon="18.079823">
        <ele>20</ele>
        <time>2020-01-29T17:00:48Z</time>
      </trkpt>
      <trkpt lat="59.336032" lon="18.079844">
        <ele>20</ele>
        <time>2020-01-29T17:00:49Z</time>
      </trkpt>
      <trkpt lat="59.336064" lon="18.079864">
        <ele>20</ele>
        <time>2020-01-29T17:00:50Z</time>
      </trkpt>
      <trkpt lat="59.336096" lon="18.079884">
        <ele>20</ele>
        <time>2020-01-29T17:00:51Z</time>
      </trkpt>
      <trkpt lat="59.336125" lon="18.079906">
        <ele>21</ele>
        <time>2020-01-29T17:00:52Z</time>
      </trkpt>
      <trkpt lat="59.336156" lon="18.079931">
        <ele>21</ele>
        <time>2020-01-29T17:00:53Z</time>
      </trkpt>
      <trkpt lat="59.33619" lon="18.079954">
        <ele>21</ele>
        <time>2020-01-29T17:00:54Z</time>
      </trkpt>
      <trkpt lat="59.336229" lon="18.079977">
        <ele>0</ele>
        <time>2020-01-29T17:00:54Z</time>
      </trkpt>
      <trkpt lat="59.336267" lon="18.080005">
        <ele>22</ele>
        <time>2020-01-29T17:00:55Z</time>
      </trkpt>
      <trkpt lat="59.336299" lon="18.080039">
        <ele>22</ele>
        <time>2020-01-29T17:00:56Z</time>
      </trkpt>
      <trkpt lat="59.336339" lon="18.080075">
        <ele>22</ele>
        <time>2020-01-29T17:00:58Z</time>
      </trkpt>
      <trkpt lat="59.336375" lon="18.0801">
        <ele>23</ele>
        <time>2020-01-29T17:00:59Z</time>
      </trkpt>
      <trkpt lat="59.336409" lon="18.08012">
        <ele>23</ele>
        <time>2020-01-29T17:01:00Z</time>
      </trkpt>
      <trkpt lat="59.336442" lon="18.080142">
        <ele>23</ele>
        <time>2020-01-29T17:01:01Z</time>
      </trkpt>
      <trkpt lat="59.336476" lon="18.080171">
        <ele>24</ele>
        <time>2020-01-29T17:01:02Z</time>
      </trkpt>
      <trkpt lat="59.336515" lon="18.080207">
        <ele>24</ele>
        <time>2020-01-29T17:01:03Z</time>
      </trkpt>
      <trkpt lat="59.336586" lon="18.080267">
        <ele>24</ele>
        <time>2020-01-29T17:01:05Z</time>
      </trkpt>
      <trkpt lat="59.336699" lon="18.080373">
        <ele>25</ele>
        <time>2020-01-29T17:01:08Z</time>
      </trkpt>
      <trkpt lat="59.336732" lon="18.080411">
        <ele>25</ele>
        <time>2020-01-29T17:01:09Z</time>
      </trkpt>
      <trkpt lat="59.336814" lon="18.080501">
        <ele>26</ele>
        <time>2020-01-29T17:01:11Z</time>
      </trkpt>
      <trkpt lat="59.336907" lon="18.080586">
        <ele>26</ele>
        <time>2020-01-29T17:01:13Z</time>
      </trkpt>
      <trkpt lat="59.337015" lon="18.080687">
        <ele>0</ele>
        <time>2020-01-29T17:01:14Z</time>
      </trkpt>
      <trkpt lat="59.337106" lon="18.080744">
        <ele>26</ele>
        <time>2020-01-29T17:01:17Z</time>
      </trkpt>
      <trkpt lat="59.337214" lon="18.080812">
        <ele>27</ele>
        <time>2020-01-29T17:01:18Z</time>
      </trkpt>
      <trkpt lat="59.337311" lon="18.080894">
        <ele>28</ele>
        <time>2020-01-29T17:01:21Z</time>
      </trkpt>
      <trkpt lat="59.337405" lon="18.080963">
        <ele>29</ele>
        <time>2020-01-29T17:01:23Z</time>
      </trkpt>
      <trkpt lat="59.337515" lon="18.081059">
        <ele>29</ele>
        <time>2020-01-29T17:01:25Z</time>
      </trkpt>
      <trkpt lat="59.337632" lon="18.081145">
        <ele>29</ele>
        <time>2020-01-29T17:01:27Z</time>
      </trkpt>
      <trkpt lat="59.33775" lon="18.081216">
        <ele>30</ele>
        <time>2020-01-29T17:01:28Z</time>
      </trkpt>
      <trkpt lat="59.337871" lon="18.081288">
        <ele>30</ele>
        <time>2020-01-29T17:01:31Z</time>
      </trkpt>
      <trkpt lat="59.337979" lon="18.08138">
        <ele>31</ele>
        <time>2020-01-29T17:01:33Z</time>
      </trkpt>
      <trkpt lat="59.33808" lon="18.081482">
        <ele>31</ele>
        <time>2020-01-29T17:01:34Z</time>
      </trkpt>
      <trkpt lat="59.338143" lon="18.08153">
        <ele>31</ele>
        <time>2020-01-29T17:01:35Z</time>
      </trkpt>
      <trkpt lat="59.338194" lon="18.081591">
        <ele>31</ele>
        <time>2020-01-29T17:01:37Z</time>
      </trkpt>
      <trkpt lat="59.338241" lon="18.08164">
        <ele>30</ele>
        <time>2020-01-29T17:01:38Z</time>
      </trkpt>
      <trkpt lat="59.338277" lon="18.081692">
        <ele>30</ele>
        <time>2020-01-29T17:01:39Z</time>
      </trkpt>
      <trkpt lat="59.338319" lon="18.081732">
        <ele>30</ele>
        <time>2020-01-29T17:01:40Z</time>
      </trkpt>
      <trkpt lat="59.338378" lon="18.08177">
        <ele>30</ele>
        <time>2020-01-29T17:01:41Z</time>
      </trkpt>
      <trkpt lat="59.338434" lon="18.081809">
        <ele>31</ele>
        <time>2020-01-29T17:01:42Z</time>
      </trkpt>
      <trkpt lat="59.338481" lon="18.08185">
        <ele>31</ele>
        <time>2020-01-29T17:01:43Z</time>
      </trkpt>
      <trkpt lat="59.338527" lon="18.081888">
        <ele>0</ele>
        <time>2020-01-29T17:01:43Z</time>
      </trkpt>
      <trkpt lat="59.338569" lon="18.081923">
        <ele>31</ele>
        <time>2020-01-29T17:01:44Z</time>
      </trkpt>
      <trkpt lat="59.338611" lon="18.081965">
        <ele>31</ele>
        <time>2020-01-29T17:01:46Z</time>
      </trkpt>
      <trkpt lat="59.338704" lon="18.082065">
        <ele>32</ele>
        <time>2020-01-29T17:01:49Z</time>
      </trkpt>
      <trkpt lat="59.338728" lon="18.082091">
        <ele>32</ele>
        <time>2020-01-29T17:01:50Z</time>
      </trkpt>
      <trkpt lat="59.338746" lon="18.08212">
        <ele>33</ele>
        <time>2020-01-29T17:01:51Z</time>
      </trkpt>
      <trkpt lat="59.33877" lon="18.082165">
        <ele>0</ele>
        <time>2020-01-29T17:01:52Z</time>
      </trkpt>
      <trkpt lat="59.338859" lon="18.082231">
        <ele>34</ele>
        <time>2020-01-29T17:01:57Z</time>
      </trkpt>
      <trkpt lat="59.338943" lon="18.082305">
        <ele>34</ele>
        <time>2020-01-29T17:01:59Z</time>
      </trkpt>
      <trkpt lat="59.33903" lon="18.082422">
        <ele>33</ele>
        <time>2020-01-29T17:02:03Z</time>
      </trkpt>
      <trkpt lat="59.339074" lon="18.082429">
        <ele>33</ele>
        <time>2020-01-29T17:02:05Z</time>
      </trkpt>
      <trkpt lat="59.339112" lon="18.082451">
        <ele>32</ele>
        <time>2020-01-29T17:02:06Z</time>
      </trkpt>
      <trkpt lat="59.339199" lon="18.082527">
        <ele>0</ele>
        <time>2020-01-29T17:02:07Z</time>
      </trkpt>
      <trkpt lat="59.339253" lon="18.082565">
        <ele>32</ele>
        <time>2020-01-29T17:02:08Z</time>
      </trkpt>
      <trkpt lat="59.339302" lon="18.082605">
        <ele>31</ele>
        <time>2020-01-29T17:02:10Z</time>
      </trkpt>
      <trkpt lat="59.339354" lon="18.082646">
        <ele>31</ele>
        <time>2020-01-29T17:02:11Z</time>
      </trkpt>
      <trkpt lat="59.339406" lon="18.082692">
        <ele>0</ele>
        <time>2020-01-29T17:02:11Z</time>
      </trkpt>
      <trkpt lat="59.339456" lon="18.082743">
        <ele>32</ele>
        <time>2020-01-29T17:02:12Z</time>
      </trkpt>
      <trkpt lat="59.339508" lon="18.082789">
        <ele>32</ele>
        <time>2020-01-29T17:02:14Z</time>
      </trkpt>
      <trkpt lat="59.339554" lon="18.08283">
        <ele>32</ele>
        <time>2020-01-29T17:02:15Z</time>
      </trkpt>
      <trkpt lat="59.339644" lon="18.08291">
        <ele>32</ele>
        <time>2020-01-29T17:02:17Z</time>
      </trkpt>
      <trkpt lat="59.339744" lon="18.082988">
        <ele>32</ele>
        <time>2020-01-29T17:02:19Z</time>
      </trkpt>
      <trkpt lat="59.339844" lon="18.083063">
        <ele>32</ele>
        <time>2020-01-29T17:02:21Z</time>
      </trkpt>
      <trkpt lat="59.339958" lon="18.083151">
        <ele>32</ele>
        <time>2020-01-29T17:02:22Z</time>
      </trkpt>
      <trkpt lat="59.340076" lon="18.083242">
        <ele>32</ele>
        <time>2020-01-29T17:02:25Z</time>
      </trkpt>
      <trkpt lat="59.340185" lon="18.083327">
        <ele>32</ele>
        <time>2020-01-29T17:02:27Z</time>
      </trkpt>
      <trkpt lat="59.340277" lon="18.08341">
        <ele>33</ele>
        <time>2020-01-29T17:02:29Z</time>
      </trkpt>
      <trkpt lat="59.340406" lon="18.08351">
        <ele>33</ele>
        <time>2020-01-29T17:02:31Z</time>
      </trkpt>
      <trkpt lat="59.34052" lon="18.083576">
        <ele>33</ele>
        <time>2020-01-29T17:02:34Z</time>
      </trkpt>
      <trkpt lat="59.340561" lon="18.083737">
        <ele>33</ele>
        <time>2020-01-29T17:02:36Z</time>
      </trkpt>
      <trkpt lat="59.34054" lon="18.08395">
        <ele>34</ele>
        <time>2020-01-29T17:02:39Z</time>
      </trkpt>
      <trkpt lat="59.340529" lon="18.084212">
        <ele>33</ele>
        <time>2020-01-29T17:02:42Z</time>
      </trkpt>
      <trkpt lat="59.340514" lon="18.084428">
        <ele>33</ele>
        <time>2020-01-29T17:02:43Z</time>
      </trkpt>
      <trkpt lat="59.340499" lon="18.084603">
        <ele>33</ele>
        <time>2020-01-29T17:02:46Z</time>
      </trkpt>
      <trkpt lat="59.340452" lon="18.084804">
        <ele>33</ele>
        <time>2020-01-29T17:02:49Z</time>
      </trkpt>
      <trkpt lat="59.340375" lon="18.084937">
        <ele>32</ele>
        <time>2020-01-29T17:02:52Z</time>
      </trkpt>
      <trkpt lat="59.340327" lon="18.084999">
        <ele>0</ele>
        <time>2020-01-29T17:02:54Z</time>
      </trkpt>
    </trkseg>
  </trk>
</gpx>